<?xml version='1.0' encoding='UTF-8'?><gpx version="1.1" creator="JPX - https://github.com/jenetics/jpx" xmlns="http://www.topografix.com/GPX/1/1"><trk><trkseg><trkpt lat="37.46408256105115" lon="14.465087978236111"><ele>487.00000000000006</ele><time>2026-04-06T08:22:57Z</time></trkpt><trkpt lat="37.464000199486335" lon="14.465058810518215"><ele>487.0</ele><time>2026-04-06T08:22:59Z</time></trkpt><trkpt lat="37.463934203402786" lon="14.465018070177042"><ele>487.0</ele><time>2026-04-06T08:23:01Z</time></trkpt><trkpt lat="37.46383229647124" lon="14.464941074043939"><ele>487.0</ele><time>2026-04-06T08:23:03Z</time></trkpt><trkpt lat="37.46377439105751" lon="14.464908017261951"><ele>487.00000000000006</ele><time>2026-04-06T08:23:04Z</time></trkpt><trkpt lat="37.46368766578217" lon="14.46486437834285"><ele>487.0</ele><time>2026-04-06T08:23:06Z</time></trkpt><trkpt lat="37.46358513411603" lon="14.464846631047909"><ele>486.8571428571429</ele><time>2026-04-06T08:23:08Z</time></trkpt><trkpt lat="37.463517180432824" lon="14.464850658623185"><ele>486.71428571428567</ele><time>2026-04-06T08:23:12Z</time></trkpt><trkpt lat="37.463456151772675" lon="14.464803255492816"><ele>486.57142857142856</ele><time>2026-04-06T08:23:15Z</time></trkpt><trkpt lat="37.46340105671199" lon="14.464725865833286"><ele>486.42857142857144</ele><time>2026-04-06T08:23:18Z</time></trkpt><trkpt lat="37.46333910801255" lon="14.464703694640304"><ele>486.28571428571433</ele><time>2026-04-06T08:23:22Z</time></trkpt><trkpt lat="37.463294774631485" lon="14.464775756917955"><ele>486.1428571428571</ele><time>2026-04-06T08:23:30Z</time></trkpt><trkpt lat="37.46327310289116" lon="14.464863918847094"><ele>486.0</ele><time>2026-04-06T08:23:34Z</time></trkpt><trkpt lat="37.46317795293779" lon="14.464910337996853"><ele>486.0</ele><time>2026-04-06T08:23:36Z</time></trkpt><trkpt lat="37.46312291430415" lon="14.464965367651224"><ele>486.0</ele><time>2026-04-06T08:23:38Z</time></trkpt><trkpt lat="37.46308108333179" lon="14.46503489672182"><ele>486.0</ele><time>2026-04-06T08:23:40Z</time></trkpt><trkpt lat="37.46300978843193" lon="14.465077913655819"><ele>486.0</ele><time>2026-04-06T08:23:43Z</time></trkpt><trkpt lat="37.46291688792013" lon="14.465068892509398"><ele>486.0</ele><time>2026-04-06T08:23:46Z</time></trkpt><trkpt lat="37.46285182818471" lon="14.465045146161605"><ele>486.0</ele><time>2026-04-06T08:23:48Z</time></trkpt><trkpt lat="37.46277196437365" lon="14.465017193576358"><ele>484.6</ele><time>2026-04-06T08:23:51Z</time></trkpt><trkpt lat="37.46269456985062" lon="14.465009168522228"><ele>483.20000000000005</ele><time>2026-04-06T08:23:54Z</time></trkpt><trkpt lat="37.462607721811665" lon="14.46499405881396"><ele>481.79999999999995</ele><time>2026-04-06T08:23:56Z</time></trkpt><trkpt lat="37.46253901488111" lon="14.464958995476628"><ele>480.4</ele><time>2026-04-06T08:23:58Z</time></trkpt><trkpt lat="37.46247919061726" lon="14.464872734937968"><ele>479.0</ele><time>2026-04-06T08:24:00Z</time></trkpt><trkpt lat="37.46239121391197" lon="14.464754938399167"><ele>478.99999999999994</ele><time>2026-04-06T08:24:02Z</time></trkpt><trkpt lat="37.46234195425447" lon="14.464696171492477"><ele>479.0</ele><time>2026-04-06T08:24:03Z</time></trkpt><trkpt lat="37.46225078159491" lon="14.464593783991909"><ele>479.0</ele><time>2026-04-06T08:24:05Z</time></trkpt><trkpt lat="37.46219906450764" lon="14.46453133797725"><ele>479.0</ele><time>2026-04-06T08:24:06Z</time></trkpt><trkpt lat="37.46214585785526" lon="14.464475991827182"><ele>478.99999999999994</ele><time>2026-04-06T08:24:07Z</time></trkpt><trkpt lat="37.462085839426535" lon="14.464402285186353"><ele>479.0</ele><time>2026-04-06T08:24:08Z</time></trkpt><trkpt lat="37.46199993048902" lon="14.464319424105756"><ele>477.5</ele><time>2026-04-06T08:24:10Z</time></trkpt><trkpt lat="37.46190795697043" lon="14.464213443444962"><ele>476.0</ele><time>2026-04-06T08:24:12Z</time></trkpt><trkpt lat="37.46183253730242" lon="14.46409922966654"><ele>474.5</ele><time>2026-04-06T08:24:14Z</time></trkpt><trkpt lat="37.46175175063905" lon="14.46398357778566"><ele>473.0</ele><time>2026-04-06T08:24:16Z</time></trkpt><trkpt lat="37.46169892000059" lon="14.463893915829944"><ele>472.99999999999994</ele><time>2026-04-06T08:24:18Z</time></trkpt><trkpt lat="37.46161707731867" lon="14.463787201531453"><ele>473.0</ele><time>2026-04-06T08:24:20Z</time></trkpt><trkpt lat="37.461575105686045" lon="14.463722623600251"><ele>473.0</ele><time>2026-04-06T08:24:21Z</time></trkpt><trkpt lat="37.46153468357241" lon="14.463611502234642"><ele>473.0</ele><time>2026-04-06T08:24:24Z</time></trkpt><trkpt lat="37.461526392424865" lon="14.463530650955398"><ele>472.99999999999994</ele><time>2026-04-06T08:24:25Z</time></trkpt><trkpt lat="37.4615030226859" lon="14.463434556206915"><ele>473.0</ele><time>2026-04-06T08:24:26Z</time></trkpt><trkpt lat="37.461482283622246" lon="14.463345591743439"><ele>474.59999999999997</ele><time>2026-04-06T08:24:27Z</time></trkpt><trkpt lat="37.46147762841468" lon="14.463221127623966"><ele>476.19999999999993</ele><time>2026-04-06T08:24:29Z</time></trkpt><trkpt lat="37.46149141871736" lon="14.46312345426147"><ele>477.8</ele><time>2026-04-06T08:24:31Z</time></trkpt><trkpt lat="37.46151129191545" lon="14.463010482406768"><ele>479.4</ele><time>2026-04-06T08:24:35Z</time></trkpt><trkpt lat="37.46143882512325" lon="14.462930540612765"><ele>481.0</ele><time>2026-04-06T08:24:38Z</time></trkpt><trkpt lat="37.461334729983044" lon="14.462844181393299"><ele>481.6666666666667</ele><time>2026-04-06T08:24:40Z</time></trkpt><trkpt lat="37.46127080503105" lon="14.462911084543078"><ele>482.33333333333337</ele><time>2026-04-06T08:24:42Z</time></trkpt><trkpt lat="37.4612165070198" lon="14.462977275721176"><ele>483.0</ele><time>2026-04-06T08:24:43Z</time></trkpt><trkpt lat="37.46117806527643" lon="14.46305144205367"><ele>483.66666666666663</ele><time>2026-04-06T08:24:44Z</time></trkpt><trkpt lat="37.46112522370162" lon="14.463133160012266"><ele>484.3333333333333</ele><time>2026-04-06T08:24:45Z</time></trkpt><trkpt lat="37.461066646737656" lon="14.463210734738485"><ele>485.0</ele><time>2026-04-06T08:24:46Z</time></trkpt><trkpt lat="37.46098480644261" lon="14.463256096800757"><ele>482.4</ele><time>2026-04-06T08:24:49Z</time></trkpt><trkpt lat="37.46087515914047" lon="14.463254539230839"><ele>479.8</ele><time>2026-04-06T08:24:51Z</time></trkpt><trkpt lat="37.46077125695609" lon="14.463182051329651"><ele>477.20000000000005</ele><time>2026-04-06T08:24:53Z</time></trkpt><trkpt lat="37.460688019884" lon="14.463133124470136"><ele>474.6</ele><time>2026-04-06T08:24:54Z</time></trkpt><trkpt lat="37.460607200290596" lon="14.46308405025883"><ele>472.0</ele><time>2026-04-06T08:24:55Z</time></trkpt><trkpt lat="37.46053415441961" lon="14.463025997433325"><ele>472.40000000000003</ele><time>2026-04-06T08:24:56Z</time></trkpt><trkpt lat="37.460458718478385" lon="14.4629251065945"><ele>472.80000000000007</ele><time>2026-04-06T08:24:58Z</time></trkpt><trkpt lat="37.46042231394432" lon="14.462851963161409"><ele>473.2</ele><time>2026-04-06T08:25:00Z</time></trkpt><trkpt lat="37.46039487540653" lon="14.462724239534047"><ele>473.6</ele><time>2026-04-06T08:25:03Z</time></trkpt><trkpt lat="37.46035537961316" lon="14.462628559568182"><ele>474.0</ele><time>2026-04-06T08:25:04Z</time></trkpt><trkpt lat="37.460312631732485" lon="14.462542768719324"><ele>474.0</ele><time>2026-04-06T08:25:05Z</time></trkpt><trkpt lat="37.460270986298" lon="14.46248220566257"><ele>474.0</ele><time>2026-04-06T08:25:06Z</time></trkpt><trkpt lat="37.46020360594752" lon="14.462400718893685"><ele>474.0</ele><time>2026-04-06T08:25:07Z</time></trkpt><trkpt lat="37.460145810561606" lon="14.462335378301145"><ele>474.0</ele><time>2026-04-06T08:25:08Z</time></trkpt><trkpt lat="37.460095464777645" lon="14.462272960765851"><ele>474.0</ele><time>2026-04-06T08:25:09Z</time></trkpt><trkpt lat="37.46004039655582" lon="14.462186810173197"><ele>474.0</ele><time>2026-04-06T08:25:10Z</time></trkpt><trkpt lat="37.45999671644576" lon="14.462111240650275"><ele>476.25</ele><time>2026-04-06T08:25:11Z</time></trkpt><trkpt lat="37.45991994978955" lon="14.461952300021945"><ele>478.5</ele><time>2026-04-06T08:25:13Z</time></trkpt><trkpt lat="37.459862065215745" lon="14.461869691890842"><ele>480.75</ele><time>2026-04-06T08:25:14Z</time></trkpt><trkpt lat="37.45980125559078" lon="14.461758484375249"><ele>483.0</ele><time>2026-04-06T08:25:16Z</time></trkpt><trkpt lat="37.459793786681026" lon="14.461612816245074"><ele>483.0</ele><time>2026-04-06T08:25:18Z</time></trkpt><trkpt lat="37.45976413610297" lon="14.461510364592877"><ele>483.0</ele><time>2026-04-06T08:25:19Z</time></trkpt><trkpt lat="37.45974021204821" lon="14.461395272811943"><ele>483.0</ele><time>2026-04-06T08:25:21Z</time></trkpt><trkpt lat="37.459681345759954" lon="14.461357258118895"><ele>483.0</ele><time>2026-04-06T08:25:23Z</time></trkpt><trkpt lat="37.459609933710134" lon="14.461388137857758"><ele>483.0</ele><time>2026-04-06T08:25:25Z</time></trkpt><trkpt lat="37.45954464798987" lon="14.461447759169008"><ele>483.0</ele><time>2026-04-06T08:25:28Z</time></trkpt><trkpt lat="37.45950017482441" lon="14.461505361519377"><ele>481.3333333333333</ele><time>2026-04-06T08:25:32Z</time></trkpt><trkpt lat="37.45945353526757" lon="14.461558892681099"><ele>479.66666666666663</ele><time>2026-04-06T08:25:35Z</time></trkpt><trkpt lat="37.45937502000149" lon="14.461605618101308"><ele>478.0</ele><time>2026-04-06T08:25:38Z</time></trkpt><trkpt lat="37.459291945762224" lon="14.461601567833727"><ele>476.3333333333333</ele><time>2026-04-06T08:25:41Z</time></trkpt><trkpt lat="37.45924833592439" lon="14.461491855556105"><ele>474.66666666666663</ele><time>2026-04-06T08:25:44Z</time></trkpt><trkpt lat="37.45924731060785" lon="14.461369461980896"><ele>473.0</ele><time>2026-04-06T08:25:46Z</time></trkpt><trkpt lat="37.459241048641154" lon="14.461279197812004"><ele>473.0</ele><time>2026-04-06T08:25:47Z</time></trkpt><trkpt lat="37.45922530589555" lon="14.461175751854686"><ele>472.99999999999994</ele><time>2026-04-06T08:25:49Z</time></trkpt><trkpt lat="37.45919729896312" lon="14.46103591882783"><ele>472.99999999999994</ele><time>2026-04-06T08:25:51Z</time></trkpt><trkpt lat="37.45918611756268" lon="14.46093951596339"><ele>473.0</ele><time>2026-04-06T08:25:53Z</time></trkpt><trkpt lat="37.45913839044354" lon="14.460828791220289"><ele>473.0</ele><time>2026-04-06T08:25:55Z</time></trkpt><trkpt lat="37.459053685905424" lon="14.460743299027122"><ele>473.0</ele><time>2026-04-06T08:25:57Z</time></trkpt><trkpt lat="37.458959514317165" lon="14.46072059857493"><ele>472.99999999999994</ele><time>2026-04-06T08:25:59Z</time></trkpt><trkpt lat="37.45882778520497" lon="14.460671309221373"><ele>472.99999999999994</ele><time>2026-04-06T08:26:01Z</time></trkpt><trkpt lat="37.45875465963782" lon="14.460604867836519"><ele>473.0</ele><time>2026-04-06T08:26:03Z</time></trkpt><trkpt lat="37.45867775223816" lon="14.460494802521406"><ele>473.0</ele><time>2026-04-06T08:26:05Z</time></trkpt><trkpt lat="37.458638361344704" lon="14.460427668133718"><ele>471.3333333333333</ele><time>2026-04-06T08:26:06Z</time></trkpt><trkpt lat="37.45859325001233" lon="14.460366579435187"><ele>469.66666666666663</ele><time>2026-04-06T08:26:07Z</time></trkpt><trkpt lat="37.45852680911665" lon="14.460274504210089"><ele>468.0</ele><time>2026-04-06T08:26:09Z</time></trkpt><trkpt lat="37.458464099535156" lon="14.460191575650397"><ele>466.33333333333337</ele><time>2026-04-06T08:26:10Z</time></trkpt><trkpt lat="37.45840420558103" lon="14.460103292378431"><ele>464.6666666666667</ele><time>2026-04-06T08:26:11Z</time></trkpt><trkpt lat="37.45836396734359" lon="14.460005272545969"><ele>463.0</ele><time>2026-04-06T08:26:13Z</time></trkpt><trkpt lat="37.45835285513422" lon="14.45987505441637"><ele>463.0</ele><time>2026-04-06T08:26:15Z</time></trkpt><trkpt lat="37.458303229734135" lon="14.459765312855456"><ele>462.99999999999994</ele><time>2026-04-06T08:26:17Z</time></trkpt><trkpt lat="37.45819289993447" lon="14.459769243831083"><ele>462.99999999999994</ele><time>2026-04-06T08:26:19Z</time></trkpt><trkpt lat="37.4581106676911" lon="14.459781799487137"><ele>463.0</ele><time>2026-04-06T08:26:20Z</time></trkpt><trkpt lat="37.458014406845535" lon="14.45978359499482"><ele>463.0</ele><time>2026-04-06T08:26:21Z</time></trkpt><trkpt lat="37.457929034461316" lon="14.459773227078866"><ele>462.33333333333337</ele><time>2026-04-06T08:26:22Z</time></trkpt><trkpt lat="37.457856611549595" lon="14.459757569779502"><ele>461.6666666666667</ele><time>2026-04-06T08:26:23Z</time></trkpt><trkpt lat="37.4577802869347" lon="14.459728108367363"><ele>461.0</ele><time>2026-04-06T08:26:24Z</time></trkpt><trkpt lat="37.45770667537918" lon="14.459686973888743"><ele>460.33333333333337</ele><time>2026-04-06T08:26:25Z</time></trkpt><trkpt lat="37.45763941830061" lon="14.459625420340211"><ele>459.6666666666667</ele><time>2026-04-06T08:26:26Z</time></trkpt><trkpt lat="37.45757625030598" lon="14.459556923255024"><ele>459.0</ele><time>2026-04-06T08:26:27Z</time></trkpt><trkpt lat="37.45751260963283" lon="14.459473374606297"><ele>460.6</ele><time>2026-04-06T08:26:28Z</time></trkpt><trkpt lat="37.45746331748592" lon="14.459390021646326"><ele>462.2</ele><time>2026-04-06T08:26:29Z</time></trkpt><trkpt lat="37.45741990982943" lon="14.459314004189087"><ele>463.80000000000007</ele><time>2026-04-06T08:26:30Z</time></trkpt><trkpt lat="37.457382504845505" lon="14.459155537197988"><ele>465.40000000000003</ele><time>2026-04-06T08:26:32Z</time></trkpt><trkpt lat="37.45736944991608" lon="14.45904244418505"><ele>467.0</ele><time>2026-04-06T08:26:33Z</time></trkpt><trkpt lat="37.45736094261546" lon="14.458906942407916"><ele>468.40000000000003</ele><time>2026-04-06T08:26:34Z</time></trkpt><trkpt lat="37.45735839283929" lon="14.45878068903471"><ele>469.80000000000007</ele><time>2026-04-06T08:26:35Z</time></trkpt><trkpt lat="37.45734070826765" lon="14.458640588892868"><ele>471.2</ele><time>2026-04-06T08:26:37Z</time></trkpt><trkpt lat="37.45727490088241" lon="14.45853248515859"><ele>472.6</ele><time>2026-04-06T08:26:39Z</time></trkpt><trkpt lat="37.45721713562106" lon="14.458455406913695"><ele>474.0</ele><time>2026-04-06T08:26:40Z</time></trkpt><trkpt lat="37.45716518522473" lon="14.458310501395179"><ele>474.0</ele><time>2026-04-06T08:26:42Z</time></trkpt><trkpt lat="37.45716325223453" lon="14.458198064962307"><ele>474.0</ele><time>2026-04-06T08:26:43Z</time></trkpt><trkpt lat="37.457189820860904" lon="14.458119611269519"><ele>474.0</ele><time>2026-04-06T08:26:44Z</time></trkpt><trkpt lat="37.45721842906059" lon="14.458014407676691"><ele>474.0</ele><time>2026-04-06T08:26:45Z</time></trkpt><trkpt lat="37.45725494268134" lon="14.45790147769446"><ele>474.0</ele><time>2026-04-06T08:26:46Z</time></trkpt><trkpt lat="37.457338459107" lon="14.45783357312385"><ele>474.0</ele><time>2026-04-06T08:26:47Z</time></trkpt><trkpt lat="37.457356216936944" lon="14.45770231849412"><ele>474.1666666666667</ele><time>2026-04-06T08:26:48Z</time></trkpt><trkpt lat="37.457374038464316" lon="14.457609798583245"><ele>474.33333333333337</ele><time>2026-04-06T08:26:49Z</time></trkpt><trkpt lat="37.45737970107238" lon="14.457502642903194"><ele>474.5</ele><time>2026-04-06T08:26:50Z</time></trkpt><trkpt lat="37.45737000176837" lon="14.457390364175248"><ele>474.6666666666667</ele><time>2026-04-06T08:26:51Z</time></trkpt><trkpt lat="37.457345074180004" lon="14.45728613013125"><ele>474.83333333333337</ele><time>2026-04-06T08:26:52Z</time></trkpt><trkpt lat="37.45731582126836" lon="14.457208349079297"><ele>475.0</ele><time>2026-04-06T08:26:53Z</time></trkpt><trkpt lat="37.457239954077856" lon="14.457089636475533"><ele>474.8</ele><time>2026-04-06T08:26:55Z</time></trkpt><trkpt lat="37.45718864211178" lon="14.457041328220953"><ele>474.6</ele><time>2026-04-06T08:26:56Z</time></trkpt><trkpt lat="37.45704923534895" lon="14.45700164376883"><ele>474.4</ele><time>2026-04-06T08:26:58Z</time></trkpt><trkpt lat="37.45694159259615" lon="14.456929963623088"><ele>474.2</ele><time>2026-04-06T08:27:00Z</time></trkpt><trkpt lat="37.456886483859776" lon="14.456864898295994"><ele>474.0</ele><time>2026-04-06T08:27:01Z</time></trkpt><trkpt lat="37.45683748892811" lon="14.456794794266688"><ele>474.0</ele><time>2026-04-06T08:27:02Z</time></trkpt><trkpt lat="37.456731381538546" lon="14.456684987386796"><ele>474.0</ele><time>2026-04-06T08:27:04Z</time></trkpt><trkpt lat="37.456635849717415" lon="14.456641390430727"><ele>474.0</ele><time>2026-04-06T08:27:05Z</time></trkpt><trkpt lat="37.45652832634735" lon="14.4565894478755"><ele>474.0</ele><time>2026-04-06T08:27:06Z</time></trkpt><trkpt lat="37.45643776149486" lon="14.4565469665122"><ele>474.0</ele><time>2026-04-06T08:27:07Z</time></trkpt><trkpt lat="37.456358739521846" lon="14.456499829691653"><ele>474.0</ele><time>2026-04-06T08:27:08Z</time></trkpt><trkpt lat="37.45628106682408" lon="14.456435869259915"><ele>474.0</ele><time>2026-04-06T08:27:09Z</time></trkpt><trkpt lat="37.456197670918485" lon="14.456370405791471"><ele>474.0</ele><time>2026-04-06T08:27:10Z</time></trkpt><trkpt lat="37.45611947841466" lon="14.456303555703785"><ele>474.0</ele><time>2026-04-06T08:27:11Z</time></trkpt><trkpt lat="37.45605979287011" lon="14.456234129259363"><ele>474.2</ele><time>2026-04-06T08:27:12Z</time></trkpt><trkpt lat="37.456006685213424" lon="14.456174716536767"><ele>474.4</ele><time>2026-04-06T08:27:13Z</time></trkpt><trkpt lat="37.45596088383218" lon="14.456117516024412"><ele>474.6</ele><time>2026-04-06T08:27:14Z</time></trkpt><trkpt lat="37.45587534473678" lon="14.456004880748731"><ele>474.8</ele><time>2026-04-06T08:27:16Z</time></trkpt><trkpt lat="37.455801836677146" lon="14.455890921000645"><ele>475.0</ele><time>2026-04-06T08:27:18Z</time></trkpt><trkpt lat="37.45571578105816" lon="14.455762582563597"><ele>475.0</ele><time>2026-04-06T08:27:20Z</time></trkpt><trkpt lat="37.455642488025426" lon="14.455715917319994"><ele>475.00000000000006</ele><time>2026-04-06T08:27:21Z</time></trkpt><trkpt lat="37.455580027495785" lon="14.455690053825707"><ele>475.0</ele><time>2026-04-06T08:27:22Z</time></trkpt><trkpt lat="37.455509225607756" lon="14.455652669962213"><ele>475.0</ele><time>2026-04-06T08:27:23Z</time></trkpt><trkpt lat="37.45543233876725" lon="14.45562518087133"><ele>475.00000000000006</ele><time>2026-04-06T08:27:24Z</time></trkpt><trkpt lat="37.455367595387116" lon="14.455603955369497"><ele>475.0</ele><time>2026-04-06T08:27:25Z</time></trkpt><trkpt lat="37.45529523238344" lon="14.45558635862849"><ele>475.0</ele><time>2026-04-06T08:27:26Z</time></trkpt><trkpt lat="37.45521467484091" lon="14.45557735415205"><ele>472.0</ele><time>2026-04-06T08:27:27Z</time></trkpt><trkpt lat="37.45509680682869" lon="14.455544366871965"><ele>469.0</ele><time>2026-04-06T08:27:29Z</time></trkpt><trkpt lat="37.455032639487634" lon="14.455528355434373"><ele>466.0</ele><time>2026-04-06T08:27:30Z</time></trkpt><trkpt lat="37.45492555451177" lon="14.455474058026807"><ele>463.0</ele><time>2026-04-06T08:27:32Z</time></trkpt><trkpt lat="37.454866374243466" lon="14.455422715710599"><ele>460.0</ele><time>2026-04-06T08:27:33Z</time></trkpt><trkpt lat="37.45476609732721" lon="14.455357731611057"><ele>460.0</ele><time>2026-04-06T08:27:35Z</time></trkpt><trkpt lat="37.45468200906184" lon="14.455354692473756"><ele>460.0</ele><time>2026-04-06T08:27:37Z</time></trkpt><trkpt lat="37.45458160060575" lon="14.455455320093174"><ele>460.0</ele><time>2026-04-06T08:27:39Z</time></trkpt><trkpt lat="37.45454527269761" lon="14.455524395313164"><ele>460.0</ele><time>2026-04-06T08:27:40Z</time></trkpt><trkpt lat="37.4544631968654" lon="14.455666183345999"><ele>460.0</ele><time>2026-04-06T08:27:42Z</time></trkpt><trkpt lat="37.454427646987895" lon="14.455732288456309"><ele>457.4</ele><time>2026-04-06T08:27:43Z</time></trkpt><trkpt lat="37.454386066942085" lon="14.455804084665962"><ele>454.8</ele><time>2026-04-06T08:27:44Z</time></trkpt><trkpt lat="37.454330174362504" lon="14.4559653048113"><ele>452.20000000000005</ele><time>2026-04-06T08:27:46Z</time></trkpt><trkpt lat="37.45427623522909" lon="14.456103308048014"><ele>449.6</ele><time>2026-04-06T08:27:47Z</time></trkpt><trkpt lat="37.45424047456993" lon="14.456207085004909"><ele>447.0</ele><time>2026-04-06T08:27:48Z</time></trkpt><trkpt lat="37.4542054622036" lon="14.456309765700635"><ele>446.25</ele><time>2026-04-06T08:27:49Z</time></trkpt><trkpt lat="37.45415272262917" lon="14.456488364197146"><ele>445.5</ele><time>2026-04-06T08:27:51Z</time></trkpt><trkpt lat="37.45410007162541" lon="14.456585398128023"><ele>444.75</ele><time>2026-04-06T08:27:52Z</time></trkpt><trkpt lat="37.454025184953835" lon="14.456707035585417"><ele>444.0</ele><time>2026-04-06T08:27:53Z</time></trkpt><trkpt lat="37.45394612953514" lon="14.456799834926123"><ele>444.0</ele><time>2026-04-06T08:27:54Z</time></trkpt><trkpt lat="37.45388926765096" lon="14.456894175153206"><ele>444.0</ele><time>2026-04-06T08:27:55Z</time></trkpt><trkpt lat="37.453829900428474" lon="14.45696768255526"><ele>444.0</ele><time>2026-04-06T08:27:56Z</time></trkpt><trkpt lat="37.45374440372715" lon="14.457052469785094"><ele>444.0</ele><time>2026-04-06T08:27:57Z</time></trkpt><trkpt lat="37.45364469979814" lon="14.457141293039799"><ele>444.0</ele><time>2026-04-06T08:27:58Z</time></trkpt><trkpt lat="37.45354032585663" lon="14.457233365993044"><ele>442.6</ele><time>2026-04-06T08:27:59Z</time></trkpt><trkpt lat="37.45346392335039" lon="14.457313300480088"><ele>441.2</ele><time>2026-04-06T08:28:00Z</time></trkpt><trkpt lat="37.453382645906004" lon="14.457403365514855"><ele>439.80000000000007</ele><time>2026-04-06T08:28:01Z</time></trkpt><trkpt lat="37.45330864119172" lon="14.457488665583309"><ele>438.40000000000003</ele><time>2026-04-06T08:28:02Z</time></trkpt><trkpt lat="37.453242918787666" lon="14.457585304340986"><ele>437.0</ele><time>2026-04-06T08:28:03Z</time></trkpt><trkpt lat="37.453180656165806" lon="14.457720518733224"><ele>437.0</ele><time>2026-04-06T08:28:04Z</time></trkpt><trkpt lat="37.453104472592834" lon="14.457869785002176"><ele>437.00000000000006</ele><time>2026-04-06T08:28:05Z</time></trkpt><trkpt lat="37.453031462330216" lon="14.457991669872406"><ele>437.00000000000006</ele><time>2026-04-06T08:28:06Z</time></trkpt><trkpt lat="37.452979151325565" lon="14.458083425105112"><ele>437.0</ele><time>2026-04-06T08:28:07Z</time></trkpt><trkpt lat="37.45293779611347" lon="14.458154592488459"><ele>437.0</ele><time>2026-04-06T08:28:08Z</time></trkpt><trkpt lat="37.452901459833896" lon="14.458231039009204"><ele>435.8333333333333</ele><time>2026-04-06T08:28:09Z</time></trkpt><trkpt lat="37.452866719121594" lon="14.458347423027444"><ele>434.66666666666663</ele><time>2026-04-06T08:28:11Z</time></trkpt><trkpt lat="37.45280203319578" lon="14.458392304903736"><ele>433.5</ele><time>2026-04-06T08:28:13Z</time></trkpt><trkpt lat="37.452725781676236" lon="14.45836449903571"><ele>432.33333333333337</ele><time>2026-04-06T08:28:15Z</time></trkpt><trkpt lat="37.4526426847519" lon="14.458285042527642"><ele>431.1666666666667</ele><time>2026-04-06T08:28:17Z</time></trkpt><trkpt lat="37.45260725936554" lon="14.45821138353991"><ele>430.0</ele><time>2026-04-06T08:28:18Z</time></trkpt><trkpt lat="37.45256589384255" lon="14.458120170228293"><ele>430.0</ele><time>2026-04-06T08:28:19Z</time></trkpt><trkpt lat="37.45253397738692" lon="14.458051258257322"><ele>430.0</ele><time>2026-04-06T08:28:20Z</time></trkpt><trkpt lat="37.452464133895056" lon="14.457882748344725"><ele>430.0</ele><time>2026-04-06T08:28:22Z</time></trkpt><trkpt lat="37.45243505027178" lon="14.45780147490993"><ele>430.0</ele><time>2026-04-06T08:28:23Z</time></trkpt><trkpt lat="37.45237830678435" lon="14.457655614004773"><ele>430.0</ele><time>2026-04-06T08:28:25Z</time></trkpt><trkpt lat="37.452342145616974" lon="14.4575647610049"><ele>429.85714285714283</ele><time>2026-04-06T08:28:26Z</time></trkpt><trkpt lat="37.45230506797828" lon="14.457472858249954"><ele>429.7142857142857</ele><time>2026-04-06T08:28:27Z</time></trkpt><trkpt lat="37.45227495942885" lon="14.457388415882562"><ele>429.57142857142856</ele><time>2026-04-06T08:28:28Z</time></trkpt><trkpt lat="37.45223717602966" lon="14.45732453894845"><ele>429.42857142857144</ele><time>2026-04-06T08:28:29Z</time></trkpt><trkpt lat="37.45221225710872" lon="14.457237639050975"><ele>429.28571428571433</ele><time>2026-04-06T08:28:30Z</time></trkpt><trkpt lat="37.452200462971426" lon="14.45715803041859"><ele>429.14285714285717</ele><time>2026-04-06T08:28:31Z</time></trkpt><trkpt lat="37.45219429584685" lon="14.457066986558313"><ele>429.0</ele><time>2026-04-06T08:28:32Z</time></trkpt><trkpt lat="37.45220830564283" lon="14.45697961281862"><ele>427.8333333333333</ele><time>2026-04-06T08:28:33Z</time></trkpt><trkpt lat="37.45223760148295" lon="14.456883843004931"><ele>426.66666666666663</ele><time>2026-04-06T08:28:34Z</time></trkpt><trkpt lat="37.45227141643045" lon="14.456769962846918"><ele>425.5</ele><time>2026-04-06T08:28:35Z</time></trkpt><trkpt lat="37.45229341983864" lon="14.456675051578383"><ele>424.3333333333333</ele><time>2026-04-06T08:28:36Z</time></trkpt><trkpt lat="37.452296659515575" lon="14.456594127722097"><ele>423.16666666666663</ele><time>2026-04-06T08:28:37Z</time></trkpt><trkpt lat="37.45229158142482" lon="14.45648369250132"><ele>422.0</ele><time>2026-04-06T08:28:38Z</time></trkpt><trkpt lat="37.452246343278446" lon="14.456330667429663"><ele>420.8</ele><time>2026-04-06T08:28:40Z</time></trkpt><trkpt lat="37.45223461110786" lon="14.456167911152061"><ele>419.6</ele><time>2026-04-06T08:28:42Z</time></trkpt><trkpt lat="37.45221748624633" lon="14.456002836281225"><ele>418.40000000000003</ele><time>2026-04-06T08:28:44Z</time></trkpt><trkpt lat="37.45220212351389" lon="14.455905735391049"><ele>417.20000000000005</ele><time>2026-04-06T08:28:45Z</time></trkpt><trkpt lat="37.452198436255145" lon="14.455804039486242"><ele>416.0</ele><time>2026-04-06T08:28:46Z</time></trkpt><trkpt lat="37.45221294735988" lon="14.455633422616256"><ele>416.0</ele><time>2026-04-06T08:28:48Z</time></trkpt><trkpt lat="37.45223963455128" lon="14.455489688282066"><ele>416.0</ele><time>2026-04-06T08:28:49Z</time></trkpt><trkpt lat="37.452256025818066" lon="14.455377376082735"><ele>416.0</ele><time>2026-04-06T08:28:50Z</time></trkpt><trkpt lat="37.45226718844131" lon="14.455209465062316"><ele>416.0</ele><time>2026-04-06T08:28:52Z</time></trkpt><trkpt lat="37.45227985639964" lon="14.455092444088834"><ele>416.0</ele><time>2026-04-06T08:28:53Z</time></trkpt><trkpt lat="37.452286369149405" lon="14.455007155496952"><ele>415.0</ele><time>2026-04-06T08:28:54Z</time></trkpt><trkpt lat="37.452305183296104" lon="14.454885805379279"><ele>414.0</ele><time>2026-04-06T08:28:56Z</time></trkpt><trkpt lat="37.45222312997619" lon="14.454797663978212"><ele>413.0</ele><time>2026-04-06T08:28:58Z</time></trkpt><trkpt lat="37.452134734655104" lon="14.45474976823734"><ele>412.0</ele><time>2026-04-06T08:29:00Z</time></trkpt><trkpt lat="37.45203673447025" lon="14.454722688743525"><ele>411.0</ele><time>2026-04-06T08:29:01Z</time></trkpt><trkpt lat="37.45195018744652" lon="14.45469269464494"><ele>410.0</ele><time>2026-04-06T08:29:02Z</time></trkpt><trkpt lat="37.451880324933" lon="14.45467143705897"><ele>409.0</ele><time>2026-04-06T08:29:03Z</time></trkpt><trkpt lat="37.45181345150096" lon="14.454649811159433"><ele>408.0</ele><time>2026-04-06T08:29:04Z</time></trkpt><trkpt lat="37.45173676667927" lon="14.454625946520851"><ele>407.0</ele><time>2026-04-06T08:29:05Z</time></trkpt><trkpt lat="37.45166248148988" lon="14.454598528247727"><ele>406.0</ele><time>2026-04-06T08:29:06Z</time></trkpt><trkpt lat="37.4516024158738" lon="14.454571587150868"><ele>405.0</ele><time>2026-04-06T08:29:07Z</time></trkpt><trkpt lat="37.45154144933085" lon="14.454523111382011"><ele>404.0</ele><time>2026-04-06T08:29:08Z</time></trkpt><trkpt lat="37.451501785054894" lon="14.454416086119425"><ele>404.0</ele><time>2026-04-06T08:29:10Z</time></trkpt><trkpt lat="37.451467001946526" lon="14.45428532206171"><ele>404.0</ele><time>2026-04-06T08:29:12Z</time></trkpt><trkpt lat="37.451465801248055" lon="14.454113122239269"><ele>404.0</ele><time>2026-04-06T08:29:14Z</time></trkpt><trkpt lat="37.45148930359191" lon="14.45401153996504"><ele>404.0</ele><time>2026-04-06T08:29:15Z</time></trkpt><trkpt lat="37.451512301187094" lon="14.45392365362267"><ele>404.0</ele><time>2026-04-06T08:29:16Z</time></trkpt><trkpt lat="37.451547453205954" lon="14.45382697309674"><ele>403.3333333333333</ele><time>2026-04-06T08:29:17Z</time></trkpt><trkpt lat="37.45157805130417" lon="14.453751375268372"><ele>402.66666666666663</ele><time>2026-04-06T08:29:18Z</time></trkpt><trkpt lat="37.451622029135585" lon="14.45365115981187"><ele>402.0</ele><time>2026-04-06T08:29:19Z</time></trkpt><trkpt lat="37.45162604961827" lon="14.453555828999898"><ele>401.33333333333337</ele><time>2026-04-06T08:29:20Z</time></trkpt><trkpt lat="37.45164573181159" lon="14.453453485961965"><ele>400.6666666666667</ele><time>2026-04-06T08:29:21Z</time></trkpt><trkpt lat="37.45170031587432" lon="14.453357539647897"><ele>400.0</ele><time>2026-04-06T08:29:23Z</time></trkpt><trkpt lat="37.45174216064055" lon="14.453244926288113"><ele>400.00000000000006</ele><time>2026-04-06T08:29:25Z</time></trkpt><trkpt lat="37.45170649914352" lon="14.453104826354416"><ele>400.0</ele><time>2026-04-06T08:29:27Z</time></trkpt><trkpt lat="37.45167963274205" lon="14.45302200213388"><ele>400.0</ele><time>2026-04-06T08:29:28Z</time></trkpt><trkpt lat="37.451668660079754" lon="14.452931509825989"><ele>400.0</ele><time>2026-04-06T08:29:29Z</time></trkpt><trkpt lat="37.451649259187015" lon="14.452832910359788"><ele>400.00000000000006</ele><time>2026-04-06T08:29:31Z</time></trkpt><trkpt lat="37.45158291487663" lon="14.452805745379868"><ele>400.0</ele><time>2026-04-06T08:29:33Z</time></trkpt><trkpt lat="37.45146617807803" lon="14.452810899696075"><ele>400.6</ele><time>2026-04-06T08:29:35Z</time></trkpt><trkpt lat="37.4514007074015" lon="14.45283525950714"><ele>401.2</ele><time>2026-04-06T08:29:36Z</time></trkpt><trkpt lat="37.4513313819236" lon="14.452867331081256"><ele>401.79999999999995</ele><time>2026-04-06T08:29:37Z</time></trkpt><trkpt lat="37.451195251878424" lon="14.452898374176273"><ele>402.4</ele><time>2026-04-06T08:29:39Z</time></trkpt><trkpt lat="37.45112905241357" lon="14.452904220787568"><ele>403.0</ele><time>2026-04-06T08:29:40Z</time></trkpt><trkpt lat="37.451002595281345" lon="14.452874335274515"><ele>404.0</ele><time>2026-04-06T08:29:42Z</time></trkpt><trkpt lat="37.45090171198877" lon="14.452844987137338"><ele>405.0</ele><time>2026-04-06T08:29:43Z</time></trkpt><trkpt lat="37.45080815183891" lon="14.452821665584512"><ele>406.0</ele><time>2026-04-06T08:29:44Z</time></trkpt><trkpt lat="37.45072612209169" lon="14.452824853544943"><ele>407.0</ele><time>2026-04-06T08:29:45Z</time></trkpt><trkpt lat="37.450620727218116" lon="14.452870112010407"><ele>408.0</ele><time>2026-04-06T08:29:47Z</time></trkpt><trkpt lat="37.45054947216259" lon="14.452942068346154"><ele>407.1666666666667</ele><time>2026-04-06T08:29:48Z</time></trkpt><trkpt lat="37.45050028035789" lon="14.4530493108183"><ele>406.33333333333337</ele><time>2026-04-06T08:29:49Z</time></trkpt><trkpt lat="37.45043413609854" lon="14.453163916259118"><ele>405.5</ele><time>2026-04-06T08:29:50Z</time></trkpt><trkpt lat="37.45037648189545" lon="14.453255073177534"><ele>404.6666666666667</ele><time>2026-04-06T08:29:51Z</time></trkpt><trkpt lat="37.45031638420332" lon="14.453301997776657"><ele>403.83333333333337</ele><time>2026-04-06T08:29:52Z</time></trkpt><trkpt lat="37.450249667743634" lon="14.453339860470601"><ele>403.0</ele><time>2026-04-06T08:29:53Z</time></trkpt><trkpt lat="37.45016423745541" lon="14.4533533387049"><ele>403.0</ele><time>2026-04-06T08:29:54Z</time></trkpt><trkpt lat="37.45007177548483" lon="14.453340491060482"><ele>403.0</ele><time>2026-04-06T08:29:55Z</time></trkpt><trkpt lat="37.44996192826448" lon="14.453326045573931"><ele>403.0</ele><time>2026-04-06T08:29:56Z</time></trkpt><trkpt lat="37.449834444314" lon="14.45330248096236"><ele>403.0</ele><time>2026-04-06T08:29:57Z</time></trkpt><trkpt lat="37.449730651333695" lon="14.45328085565261"><ele>403.0</ele><time>2026-04-06T08:29:58Z</time></trkpt><trkpt lat="37.449634323413534" lon="14.453240115513813"><ele>402.79999999999995</ele><time>2026-04-06T08:29:59Z</time></trkpt><trkpt lat="37.449529241997176" lon="14.453181043023807"><ele>402.6</ele><time>2026-04-06T08:30:00Z</time></trkpt><trkpt lat="37.4494278796168" lon="14.453114147713698"><ele>402.4</ele><time>2026-04-06T08:30:01Z</time></trkpt><trkpt lat="37.4493340333075" lon="14.45302282023611"><ele>402.20000000000005</ele><time>2026-04-06T08:30:02Z</time></trkpt><trkpt lat="37.449270761967966" lon="14.452964039220204"><ele>402.0</ele><time>2026-04-06T08:30:03Z</time></trkpt><trkpt lat="37.44922053074827" lon="14.452879106559255"><ele>402.6</ele><time>2026-04-06T08:30:04Z</time></trkpt><trkpt lat="37.44916132919902" lon="14.452804634679762"><ele>403.20000000000005</ele><time>2026-04-06T08:30:05Z</time></trkpt><trkpt lat="37.44909350657989" lon="14.452729055048602"><ele>403.8</ele><time>2026-04-06T08:30:06Z</time></trkpt><trkpt lat="37.448969035872715" lon="14.452648811744426"><ele>404.4</ele><time>2026-04-06T08:30:08Z</time></trkpt><trkpt lat="37.448879155477634" lon="14.452599766957164"><ele>405.0</ele><time>2026-04-06T08:30:09Z</time></trkpt><trkpt lat="37.44878734176501" lon="14.452570501678052"><ele>405.0</ele><time>2026-04-06T08:30:10Z</time></trkpt><trkpt lat="37.44872052004485" lon="14.45257374164395"><ele>405.0</ele><time>2026-04-06T08:30:11Z</time></trkpt><trkpt lat="37.448590913923404" lon="14.452638121392226"><ele>405.0</ele><time>2026-04-06T08:30:13Z</time></trkpt><trkpt lat="37.44852700269294" lon="14.452634120394764"><ele>405.0</ele><time>2026-04-06T08:30:15Z</time></trkpt><trkpt lat="37.44852536176196" lon="14.452549561929223"><ele>405.0</ele><time>2026-04-06T08:30:17Z</time></trkpt><trkpt lat="37.44855759170855" lon="14.452472627919741"><ele>405.0</ele><time>2026-04-06T08:30:18Z</time></trkpt><trkpt lat="37.4486099799446" lon="14.45238116931582"><ele>405.0</ele><time>2026-04-06T08:30:19Z</time></trkpt><trkpt lat="37.44870176397132" lon="14.452298579561814"><ele>405.0</ele><time>2026-04-06T08:30:20Z</time></trkpt><trkpt lat="37.448804332677156" lon="14.452198135152294"><ele>405.0</ele><time>2026-04-06T08:30:21Z</time></trkpt><trkpt lat="37.44889798447407" lon="14.452083945230042"><ele>405.0</ele><time>2026-04-06T08:30:22Z</time></trkpt><trkpt lat="37.44898918326481" lon="14.452007675745948"><ele>405.8333333333333</ele><time>2026-04-06T08:30:23Z</time></trkpt><trkpt lat="37.44904366116945" lon="14.451960321105327"><ele>406.66666666666663</ele><time>2026-04-06T08:30:24Z</time></trkpt><trkpt lat="37.44911187928763" lon="14.451918001368165"><ele>407.5</ele><time>2026-04-06T08:30:26Z</time></trkpt><trkpt lat="37.44901340020607" lon="14.45194934416904"><ele>408.3333333333333</ele><time>2026-04-06T08:30:35Z</time></trkpt><trkpt lat="37.4489402660627" lon="14.452029523623132"><ele>409.16666666666663</ele><time>2026-04-06T08:30:36Z</time></trkpt><trkpt lat="37.448869461656514" lon="14.452097056356186"><ele>410.0</ele><time>2026-04-06T08:30:37Z</time></trkpt><trkpt lat="37.448810398869924" lon="14.452155176903052"><ele>409.16666666666663</ele><time>2026-04-06T08:30:38Z</time></trkpt><trkpt lat="37.448751835871725" lon="14.452205693402588"><ele>408.3333333333333</ele><time>2026-04-06T08:30:39Z</time></trkpt><trkpt lat="37.448682163347755" lon="14.452268454515824"><ele>407.5</ele><time>2026-04-06T08:30:40Z</time></trkpt><trkpt lat="37.448619836056" lon="14.452335955894677"><ele>406.66666666666663</ele><time>2026-04-06T08:30:41Z</time></trkpt><trkpt lat="37.44857108945794" lon="14.452401105452115"><ele>405.8333333333333</ele><time>2026-04-06T08:30:42Z</time></trkpt><trkpt lat="37.44853635980659" lon="14.452472787134486"><ele>405.0</ele><time>2026-04-06T08:30:43Z</time></trkpt><trkpt lat="37.44849542365529" lon="14.452607283700896"><ele>405.0</ele><time>2026-04-06T08:30:45Z</time></trkpt><trkpt lat="37.448434054893454" lon="14.45262755993809"><ele>405.0</ele><time>2026-04-06T08:30:48Z</time></trkpt><trkpt lat="37.448408880241864" lon="14.452545040669671"><ele>405.0</ele><time>2026-04-06T08:30:51Z</time></trkpt><trkpt lat="37.44843925544722" lon="14.452425208671665"><ele>405.0</ele><time>2026-04-06T08:30:53Z</time></trkpt><trkpt lat="37.44848429174786" lon="14.452356045405928"><ele>405.0</ele><time>2026-04-06T08:30:54Z</time></trkpt><trkpt lat="37.44854145042273" lon="14.45229603062992"><ele>405.0</ele><time>2026-04-06T08:30:55Z</time></trkpt><trkpt lat="37.4486000072553" lon="14.452225888335084"><ele>405.0</ele><time>2026-04-06T08:30:56Z</time></trkpt><trkpt lat="37.4486591859149" lon="14.452156547594855"><ele>405.0</ele><time>2026-04-06T08:30:57Z</time></trkpt><trkpt lat="37.44871715688922" lon="14.452095830512684"><ele>405.0</ele><time>2026-04-06T08:30:58Z</time></trkpt><trkpt lat="37.44877302956202" lon="14.45203236894931"><ele>405.0</ele><time>2026-04-06T08:30:59Z</time></trkpt><trkpt lat="37.448825355261924" lon="14.451975108170634"><ele>405.0</ele><time>2026-04-06T08:31:00Z</time></trkpt><trkpt lat="37.448894065828384" lon="14.451905502945838"><ele>405.0</ele><time>2026-04-06T08:31:01Z</time></trkpt><trkpt lat="37.44895323656208" lon="14.451849091474116"><ele>408.0</ele><time>2026-04-06T08:31:02Z</time></trkpt><trkpt lat="37.44901321724915" lon="14.451797934589857"><ele>411.0</ele><time>2026-04-06T08:31:03Z</time></trkpt><trkpt lat="37.44912781044809" lon="14.451728020545644"><ele>414.0</ele><time>2026-04-06T08:31:05Z</time></trkpt><trkpt lat="37.449248121092914" lon="14.451871540131549"><ele>417.0</ele><time>2026-04-06T08:31:06Z</time></trkpt><trkpt lat="37.44936208525379" lon="14.451881377651674"><ele>417.0</ele><time>2026-04-06T08:31:08Z</time></trkpt><trkpt lat="37.44947302823586" lon="14.45192850337821"><ele>417.0</ele><time>2026-04-06T08:31:10Z</time></trkpt><trkpt lat="37.44957927499305" lon="14.45196087175538"><ele>417.0</ele><time>2026-04-06T08:31:12Z</time></trkpt><trkpt lat="37.449658076502" lon="14.451986414535972"><ele>417.0</ele><time>2026-04-06T08:31:13Z</time></trkpt><trkpt lat="37.44975085047717" lon="14.452003975881741"><ele>417.0</ele><time>2026-04-06T08:31:14Z</time></trkpt><trkpt lat="37.44984138920691" lon="14.45200160903807"><ele>418.8</ele><time>2026-04-06T08:31:15Z</time></trkpt><trkpt lat="37.449957881802035" lon="14.451966957610551"><ele>420.6</ele><time>2026-04-06T08:31:17Z</time></trkpt><trkpt lat="37.450022587758674" lon="14.451931100218557"><ele>422.40000000000003</ele><time>2026-04-06T08:31:18Z</time></trkpt><trkpt lat="37.45009782909304" lon="14.451871345491037"><ele>424.20000000000005</ele><time>2026-04-06T08:31:19Z</time></trkpt><trkpt lat="37.45016410118217" lon="14.451793971912313"><ele>426.0</ele><time>2026-04-06T08:31:20Z</time></trkpt><trkpt lat="37.450214670904536" lon="14.451705320519471"><ele>426.0</ele><time>2026-04-06T08:31:21Z</time></trkpt><trkpt lat="37.45026096489468" lon="14.451627016839032"><ele>426.0</ele><time>2026-04-06T08:31:22Z</time></trkpt><trkpt lat="37.45030975815468" lon="14.451545799847446"><ele>426.0</ele><time>2026-04-06T08:31:23Z</time></trkpt><trkpt lat="37.45035880614694" lon="14.45146209614964"><ele>426.0</ele><time>2026-04-06T08:31:24Z</time></trkpt><trkpt lat="37.45041288428703" lon="14.45136980811966"><ele>426.0</ele><time>2026-04-06T08:31:25Z</time></trkpt><trkpt lat="37.45046163919846" lon="14.451290650862047"><ele>426.0</ele><time>2026-04-06T08:31:26Z</time></trkpt><trkpt lat="37.45050508480072" lon="14.451220334929086"><ele>427.1666666666667</ele><time>2026-04-06T08:31:27Z</time></trkpt><trkpt lat="37.45055268292415" lon="14.451142965272986"><ele>428.33333333333337</ele><time>2026-04-06T08:31:28Z</time></trkpt><trkpt lat="37.45059871906352" lon="14.451062394775873"><ele>429.5</ele><time>2026-04-06T08:31:29Z</time></trkpt><trkpt lat="37.45063891070788" lon="14.450987667471669"><ele>430.6666666666667</ele><time>2026-04-06T08:31:30Z</time></trkpt><trkpt lat="37.45068161176645" lon="14.450898292631383"><ele>431.83333333333337</ele><time>2026-04-06T08:31:31Z</time></trkpt><trkpt lat="37.45071759764755" lon="14.450813295469553"><ele>433.0</ele><time>2026-04-06T08:31:32Z</time></trkpt><trkpt lat="37.45074730680621" lon="14.450732434221957"><ele>433.5</ele><time>2026-04-06T08:31:34Z</time></trkpt><trkpt lat="37.45042514580864" lon="14.450469861972943"><ele>434.0</ele><time>2026-04-06T08:31:38Z</time></trkpt><trkpt lat="37.45034479212282" lon="14.450684370724902"><ele>434.0</ele><time>2026-04-06T08:31:43Z</time></trkpt><trkpt lat="37.4502574556234" lon="14.450738767594723"><ele>434.0</ele><time>2026-04-06T08:31:45Z</time></trkpt><trkpt lat="37.45016813548183" lon="14.450737339423483"><ele>434.0</ele><time>2026-04-06T08:31:47Z</time></trkpt><trkpt lat="37.45007220235586" lon="14.450703893990072"><ele>434.0</ele><time>2026-04-06T08:31:49Z</time></trkpt><trkpt lat="37.44996733597023" lon="14.450619018275795"><ele>434.0</ele><time>2026-04-06T08:31:51Z</time></trkpt><trkpt lat="37.450005644527295" lon="14.450422292923514"><ele>435.79999999999995</ele><time>2026-04-06T08:31:53Z</time></trkpt><trkpt lat="37.4499455637348" lon="14.450325246185603"><ele>437.59999999999997</ele><time>2026-04-06T08:31:55Z</time></trkpt><trkpt lat="37.44987192540352" lon="14.450200508182538"><ele>439.4</ele><time>2026-04-06T08:31:57Z</time></trkpt><trkpt lat="37.44982302773627" lon="14.450117653823536"><ele>441.2</ele><time>2026-04-06T08:31:58Z</time></trkpt><trkpt lat="37.44976337270824" lon="14.45001739537998"><ele>443.0</ele><time>2026-04-06T08:32:00Z</time></trkpt><trkpt lat="37.44972073452782" lon="14.44993831949369"><ele>443.0</ele><time>2026-04-06T08:32:02Z</time></trkpt><trkpt lat="37.44968258103499" lon="14.44982608130057"><ele>442.99999999999994</ele><time>2026-04-06T08:32:04Z</time></trkpt><trkpt lat="37.44965799637691" lon="14.449697242664804"><ele>442.99999999999994</ele><time>2026-04-06T08:32:06Z</time></trkpt><trkpt lat="37.44966841537004" lon="14.449607058778792"><ele>443.0</ele><time>2026-04-06T08:32:08Z</time></trkpt><trkpt lat="37.44971328297018" lon="14.449468829543145"><ele>443.0</ele><time>2026-04-06T08:32:11Z</time></trkpt><trkpt lat="37.44974642052725" lon="14.449396838990568"><ele>444.49999999999994</ele><time>2026-04-06T08:32:12Z</time></trkpt><trkpt lat="37.449783801980246" lon="14.449312730823006"><ele>446.0</ele><time>2026-04-06T08:32:13Z</time></trkpt><trkpt lat="37.44983117516499" lon="14.449217835164188"><ele>447.5</ele><time>2026-04-06T08:32:14Z</time></trkpt><trkpt lat="37.44988810791308" lon="14.449110556910131"><ele>449.0</ele><time>2026-04-06T08:32:15Z</time></trkpt><trkpt lat="37.44993722177895" lon="14.44901801178183"><ele>450.49999999999994</ele><time>2026-04-06T08:32:16Z</time></trkpt><trkpt lat="37.44997333040539" lon="14.448946763513712"><ele>452.0</ele><time>2026-04-06T08:32:17Z</time></trkpt><trkpt lat="37.450008773366314" lon="14.448875846892502"><ele>452.0</ele><time>2026-04-06T08:32:18Z</time></trkpt><trkpt lat="37.45004675985586" lon="14.448799841204327"><ele>452.00000000000006</ele><time>2026-04-06T08:32:19Z</time></trkpt><trkpt lat="37.4499950576901" lon="14.448669828108589"><ele>452.00000000000006</ele><time>2026-04-06T08:32:20Z</time></trkpt><trkpt lat="37.45003674872755" lon="14.448580928356707"><ele>452.0</ele><time>2026-04-06T08:32:22Z</time></trkpt><trkpt lat="37.45012581922155" lon="14.448639821131252"><ele>452.0</ele><time>2026-04-06T08:32:32Z</time></trkpt><trkpt lat="37.45003692545954" lon="14.448579549844226"><ele>452.0</ele><time>2026-04-06T08:32:48Z</time></trkpt><trkpt lat="37.45011812544292" lon="14.448528884866057"><ele>452.00000000000006</ele><time>2026-04-06T08:33:06Z</time></trkpt><trkpt lat="37.45017276348194" lon="14.448479912680542"><ele>452.00000000000006</ele><time>2026-04-06T08:33:07Z</time></trkpt><trkpt lat="37.45025466914371" lon="14.448326362768789"><ele>452.0</ele><time>2026-04-06T08:33:09Z</time></trkpt><trkpt lat="37.45029673017114" lon="14.448229224588749"><ele>452.0</ele><time>2026-04-06T08:33:10Z</time></trkpt><trkpt lat="37.45035212985074" lon="14.448094368077196"><ele>450.25</ele><time>2026-04-06T08:33:11Z</time></trkpt><trkpt lat="37.45041489894395" lon="14.447946140432226"><ele>448.5</ele><time>2026-04-06T08:33:12Z</time></trkpt><trkpt lat="37.45048248387577" lon="14.447783052400794"><ele>446.75</ele><time>2026-04-06T08:33:13Z</time></trkpt><trkpt lat="37.4505555688087" lon="14.447611882546193"><ele>445.0</ele><time>2026-04-06T08:33:14Z</time></trkpt><trkpt lat="37.45062794397893" lon="14.447452802097377"><ele>445.75</ele><time>2026-04-06T08:33:15Z</time></trkpt><trkpt lat="37.45070379473183" lon="14.447324885558022"><ele>446.5</ele><time>2026-04-06T08:33:16Z</time></trkpt><trkpt lat="37.450801980837376" lon="14.447229329652743"><ele>447.25</ele><time>2026-04-06T08:33:17Z</time></trkpt><trkpt lat="37.450909928892436" lon="14.447107334880725"><ele>448.0</ele><time>2026-04-06T08:33:18Z</time></trkpt><trkpt lat="37.4510266751759" lon="14.44694646995499"><ele>448.0</ele><time>2026-04-06T08:33:19Z</time></trkpt><trkpt lat="37.451156150004905" lon="14.44681294449076"><ele>448.0</ele><time>2026-04-06T08:33:20Z</time></trkpt><trkpt lat="37.45126703883751" lon="14.44669428534901"><ele>448.0</ele><time>2026-04-06T08:33:21Z</time></trkpt><trkpt lat="37.45136920771738" lon="14.446587427784339"><ele>448.0</ele><time>2026-04-06T08:33:22Z</time></trkpt><trkpt lat="37.45148526198869" lon="14.44650879603487"><ele>448.5</ele><time>2026-04-06T08:33:23Z</time></trkpt><trkpt lat="37.451607035077906" lon="14.44643493233719"><ele>449.0</ele><time>2026-04-06T08:33:24Z</time></trkpt><trkpt lat="37.451737098422505" lon="14.446366746050883"><ele>449.5</ele><time>2026-04-06T08:33:25Z</time></trkpt><trkpt lat="37.45188272701346" lon="14.446301724903664"><ele>450.0</ele><time>2026-04-06T08:33:26Z</time></trkpt><trkpt lat="37.45203095340272" lon="14.446240996022809"><ele>454.66666666666663</ele><time>2026-04-06T08:33:27Z</time></trkpt><trkpt lat="37.45218421592747" lon="14.446170443036108"><ele>459.3333333333333</ele><time>2026-04-06T08:33:28Z</time></trkpt><trkpt lat="37.452349783113846" lon="14.446089860145463"><ele>464.0</ele><time>2026-04-06T08:33:29Z</time></trkpt><trkpt lat="37.45250313187726" lon="14.446007979206366"><ele>464.0</ele><time>2026-04-06T08:33:30Z</time></trkpt><trkpt lat="37.45266633242192" lon="14.445909790391102"><ele>464.0</ele><time>2026-04-06T08:33:31Z</time></trkpt><trkpt lat="37.452799094829274" lon="14.445802360825075"><ele>464.0</ele><time>2026-04-06T08:33:32Z</time></trkpt><trkpt lat="37.452942087427296" lon="14.4457131298393"><ele>467.0</ele><time>2026-04-06T08:33:33Z</time></trkpt><trkpt lat="37.45309061791561" lon="14.445620714124852"><ele>470.0</ele><time>2026-04-06T08:33:34Z</time></trkpt><trkpt lat="37.453223809237976" lon="14.445561153242846"><ele>473.0</ele><time>2026-04-06T08:33:35Z</time></trkpt><trkpt lat="37.45336109003529" lon="14.445476373653765"><ele>470.66666666666663</ele><time>2026-04-06T08:33:36Z</time></trkpt><trkpt lat="37.45349801841858" lon="14.445389697945169"><ele>468.33333333333337</ele><time>2026-04-06T08:33:37Z</time></trkpt><trkpt lat="37.453633277357895" lon="14.445303934731333"><ele>466.0</ele><time>2026-04-06T08:33:38Z</time></trkpt><trkpt lat="37.453768220662774" lon="14.445218371557274"><ele>467.75</ele><time>2026-04-06T08:33:39Z</time></trkpt><trkpt lat="37.45390101204359" lon="14.445134050677694"><ele>469.5</ele><time>2026-04-06T08:33:40Z</time></trkpt><trkpt lat="37.45403873214636" lon="14.445044037891943"><ele>471.25</ele><time>2026-04-06T08:33:41Z</time></trkpt><trkpt lat="37.454147509770955" lon="14.444952938076426"><ele>473.0</ele><time>2026-04-06T08:33:42Z</time></trkpt><trkpt lat="37.45426858436535" lon="14.444922959384673"><ele>473.0</ele><time>2026-04-06T08:33:43Z</time></trkpt><trkpt lat="37.45439520599296" lon="14.444888392932912"><ele>473.0</ele><time>2026-04-06T08:33:44Z</time></trkpt><trkpt lat="37.454536611063055" lon="14.444857472228827"><ele>473.0</ele><time>2026-04-06T08:33:45Z</time></trkpt><trkpt lat="37.45468264644568" lon="14.44482904701804"><ele>473.0</ele><time>2026-04-06T08:33:46Z</time></trkpt><trkpt lat="37.454826302343015" lon="14.444800512188095"><ele>474.0</ele><time>2026-04-06T08:33:47Z</time></trkpt><trkpt lat="37.4549651693752" lon="14.444772585635604"><ele>475.0</ele><time>2026-04-06T08:33:48Z</time></trkpt><trkpt lat="37.45510837846755" lon="14.444723692200782"><ele>476.0</ele><time>2026-04-06T08:33:49Z</time></trkpt><trkpt lat="37.455252227789124" lon="14.444697750886592"><ele>477.0</ele><time>2026-04-06T08:33:50Z</time></trkpt><trkpt lat="37.455381708778006" lon="14.444674451851181"><ele>476.8</ele><time>2026-04-06T08:33:51Z</time></trkpt><trkpt lat="37.455498433697166" lon="14.44464887294082"><ele>476.6</ele><time>2026-04-06T08:33:52Z</time></trkpt><trkpt lat="37.45560106039627" lon="14.444605373505803"><ele>476.40000000000003</ele><time>2026-04-06T08:33:53Z</time></trkpt><trkpt lat="37.455684098406806" lon="14.444545636034885"><ele>476.20000000000005</ele><time>2026-04-06T08:33:54Z</time></trkpt><trkpt lat="37.455758678154574" lon="14.444487156176502"><ele>476.0</ele><time>2026-04-06T08:33:55Z</time></trkpt><trkpt lat="37.45582433431514" lon="14.44435902920842"><ele>476.0</ele><time>2026-04-06T08:33:56Z</time></trkpt><trkpt lat="37.455905611403395" lon="14.44422651596239"><ele>476.0</ele><time>2026-04-06T08:33:57Z</time></trkpt><trkpt lat="37.45599241964929" lon="14.444119127172767"><ele>476.0</ele><time>2026-04-06T08:33:58Z</time></trkpt><trkpt lat="37.456072914443055" lon="14.444028165950728"><ele>476.0</ele><time>2026-04-06T08:33:59Z</time></trkpt><trkpt lat="37.45615554918997" lon="14.443956824898105"><ele>476.0</ele><time>2026-04-06T08:34:00Z</time></trkpt><trkpt lat="37.45626165979723" lon="14.44398295553931"><ele>476.0</ele><time>2026-04-06T08:34:01Z</time></trkpt><trkpt lat="37.456387898430236" lon="14.443982893645865"><ele>476.0</ele><time>2026-04-06T08:34:02Z</time></trkpt><trkpt lat="37.456527470498706" lon="14.443988354167919"><ele>476.0</ele><time>2026-04-06T08:34:03Z</time></trkpt><trkpt lat="37.45667285056323" lon="14.443989158551668"><ele>478.0</ele><time>2026-04-06T08:34:04Z</time></trkpt><trkpt lat="37.45680727860261" lon="14.443991598628669"><ele>480.0</ele><time>2026-04-06T08:34:05Z</time></trkpt><trkpt lat="37.45692998209124" lon="14.443991852671235"><ele>482.0</ele><time>2026-04-06T08:34:06Z</time></trkpt><trkpt lat="37.45705034765128" lon="14.444006536354081"><ele>484.0</ele><time>2026-04-06T08:34:07Z</time></trkpt><trkpt lat="37.45715341439637" lon="14.44400173735047"><ele>484.6</ele><time>2026-04-06T08:34:08Z</time></trkpt><trkpt lat="37.4572396838337" lon="14.444005064586536"><ele>485.2</ele><time>2026-04-06T08:34:09Z</time></trkpt><trkpt lat="37.457328295238845" lon="14.444014334416527"><ele>485.80000000000007</ele><time>2026-04-06T08:34:10Z</time></trkpt><trkpt lat="37.45742582012986" lon="14.444014886500904"><ele>486.40000000000003</ele><time>2026-04-06T08:34:11Z</time></trkpt><trkpt lat="37.45752335916901" lon="14.444024868635752"><ele>487.0</ele><time>2026-04-06T08:34:12Z</time></trkpt><trkpt lat="37.45763052270646" lon="14.444038845539612"><ele>487.0</ele><time>2026-04-06T08:34:13Z</time></trkpt><trkpt lat="37.457741518913785" lon="14.4440806842385"><ele>487.0</ele><time>2026-04-06T08:34:14Z</time></trkpt><trkpt lat="37.45785562847473" lon="14.44410981101131"><ele>487.0</ele><time>2026-04-06T08:34:15Z</time></trkpt><trkpt lat="37.45796534613691" lon="14.444157021254163"><ele>487.0</ele><time>2026-04-06T08:34:16Z</time></trkpt><trkpt lat="37.45807953106657" lon="14.444188330767936"><ele>488.5</ele><time>2026-04-06T08:34:17Z</time></trkpt><trkpt lat="37.45818758462867" lon="14.444247516584687"><ele>490.0</ele><time>2026-04-06T08:34:18Z</time></trkpt><trkpt lat="37.45829810423752" lon="14.444292251953295"><ele>491.5</ele><time>2026-04-06T08:34:19Z</time></trkpt><trkpt lat="37.458408762192526" lon="14.444329036313313"><ele>493.0</ele><time>2026-04-06T08:34:20Z</time></trkpt><trkpt lat="37.458518774424846" lon="14.444374132375094"><ele>493.0</ele><time>2026-04-06T08:34:21Z</time></trkpt><trkpt lat="37.4586233594168" lon="14.44441758286609"><ele>492.99999999999994</ele><time>2026-04-06T08:34:22Z</time></trkpt><trkpt lat="37.458727392711076" lon="14.444450794831402"><ele>492.99999999999994</ele><time>2026-04-06T08:34:23Z</time></trkpt><trkpt lat="37.458841945892864" lon="14.444449799147034"><ele>493.0</ele><time>2026-04-06T08:34:24Z</time></trkpt><trkpt lat="37.45894030669798" lon="14.444421158820822"><ele>493.0</ele><time>2026-04-06T08:34:25Z</time></trkpt><trkpt lat="37.45902616216415" lon="14.444358455428103"><ele>494.4</ele><time>2026-04-06T08:34:26Z</time></trkpt><trkpt lat="37.45911354978758" lon="14.444266959165022"><ele>495.79999999999995</ele><time>2026-04-06T08:34:27Z</time></trkpt><trkpt lat="37.45917875325174" lon="14.444156249089126"><ele>497.2</ele><time>2026-04-06T08:34:28Z</time></trkpt><trkpt lat="37.45921668739697" lon="14.444029750928895"><ele>498.6</ele><time>2026-04-06T08:34:29Z</time></trkpt><trkpt lat="37.45922849920436" lon="14.44389575347709"><ele>500.0</ele><time>2026-04-06T08:34:30Z</time></trkpt><trkpt lat="37.459233223325704" lon="14.44372139748147"><ele>501.0</ele><time>2026-04-06T08:34:31Z</time></trkpt><trkpt lat="37.45927240443928" lon="14.443541841192204"><ele>502.0</ele><time>2026-04-06T08:34:32Z</time></trkpt><trkpt lat="37.45932421216382" lon="14.443361589557023"><ele>503.0</ele><time>2026-04-06T08:34:33Z</time></trkpt><trkpt lat="37.45938255387837" lon="14.443156261003695"><ele>503.66666666666663</ele><time>2026-04-06T08:34:34Z</time></trkpt><trkpt lat="37.459438947999125" lon="14.442953070961995"><ele>504.33333333333337</ele><time>2026-04-06T08:34:35Z</time></trkpt><trkpt lat="37.4594868014631" lon="14.44277410511992"><ele>505.0</ele><time>2026-04-06T08:34:36Z</time></trkpt><trkpt lat="37.45952484605924" lon="14.442587689561583"><ele>505.0</ele><time>2026-04-06T08:34:37Z</time></trkpt><trkpt lat="37.45955286587171" lon="14.44239991829095"><ele>505.0</ele><time>2026-04-06T08:34:38Z</time></trkpt><trkpt lat="37.459579248589904" lon="14.442209346179514"><ele>505.0</ele><time>2026-04-06T08:34:39Z</time></trkpt><trkpt lat="37.45960444447161" lon="14.44201505841273"><ele>510.33333333333337</ele><time>2026-04-06T08:34:40Z</time></trkpt><trkpt lat="37.45962831156478" lon="14.441825426574326"><ele>515.6666666666666</ele><time>2026-04-06T08:34:41Z</time></trkpt><trkpt lat="37.45965224654802" lon="14.441626240494685"><ele>521.0</ele><time>2026-04-06T08:34:42Z</time></trkpt><trkpt lat="37.45967576661132" lon="14.441433263413657"><ele>522.0</ele><time>2026-04-06T08:34:43Z</time></trkpt><trkpt lat="37.45970340869579" lon="14.441230836583644"><ele>523.0</ele><time>2026-04-06T08:34:44Z</time></trkpt><trkpt lat="37.45973324847994" lon="14.441041077508437"><ele>524.0</ele><time>2026-04-06T08:34:45Z</time></trkpt><trkpt lat="37.4597690625034" lon="14.440856476758913"><ele>524.0</ele><time>2026-04-06T08:34:46Z</time></trkpt><trkpt lat="37.4598243949516" lon="14.440668759326774"><ele>524.0</ele><time>2026-04-06T08:34:47Z</time></trkpt><trkpt lat="37.45988939999998" lon="14.440493545790828"><ele>524.0</ele><time>2026-04-06T08:34:48Z</time></trkpt><trkpt lat="37.45996066894315" lon="14.440358049035959"><ele>524.0</ele><time>2026-04-06T08:34:49Z</time></trkpt><trkpt lat="37.460044766828865" lon="14.440234842703603"><ele>525.0</ele><time>2026-04-06T08:34:50Z</time></trkpt><trkpt lat="37.460121763266685" lon="14.440125563206465"><ele>526.0</ele><time>2026-04-06T08:34:51Z</time></trkpt><trkpt lat="37.4601634026306" lon="14.440039098777074"><ele>527.0</ele><time>2026-04-06T08:34:52Z</time></trkpt><trkpt lat="37.4602520492094" lon="14.440014492585458"><ele>528.0</ele><time>2026-04-06T08:34:54Z</time></trkpt><trkpt lat="37.46034755083882" lon="14.440082866021243"><ele>529.0</ele><time>2026-04-06T08:34:56Z</time></trkpt><trkpt lat="37.46043490857328" lon="14.44014922323177"><ele>530.5</ele><time>2026-04-06T08:34:57Z</time></trkpt><trkpt lat="37.460544898504686" lon="14.44021056491602"><ele>532.0</ele><time>2026-04-06T08:34:58Z</time></trkpt><trkpt lat="37.46061909749362" lon="14.440347490922091"><ele>533.5</ele><time>2026-04-06T08:34:59Z</time></trkpt><trkpt lat="37.460693799834885" lon="14.440506771795187"><ele>535.0</ele><time>2026-04-06T08:35:00Z</time></trkpt><trkpt lat="37.460802364378345" lon="14.440656437703536"><ele>535.0</ele><time>2026-04-06T08:35:01Z</time></trkpt><trkpt lat="37.460911750990164" lon="14.440831138456904"><ele>535.0</ele><time>2026-04-06T08:35:02Z</time></trkpt><trkpt lat="37.461009321888895" lon="14.440979334819042"><ele>535.0</ele><time>2026-04-06T08:35:03Z</time></trkpt><trkpt lat="37.461095601470035" lon="14.441099688203908"><ele>535.0</ele><time>2026-04-06T08:35:04Z</time></trkpt><trkpt lat="37.46117917756228" lon="14.44119301654847"><ele>535.0</ele><time>2026-04-06T08:35:05Z</time></trkpt><trkpt lat="37.46126701722726" lon="14.441257772570747"><ele>535.0</ele><time>2026-04-06T08:35:06Z</time></trkpt><trkpt lat="37.46137173521284" lon="14.44130771561676"><ele>535.0</ele><time>2026-04-06T08:35:07Z</time></trkpt><trkpt lat="37.46151534352578" lon="14.44134602541084"><ele>535.5</ele><time>2026-04-06T08:35:08Z</time></trkpt><trkpt lat="37.46165549845651" lon="14.441387677417001"><ele>536.0</ele><time>2026-04-06T08:35:09Z</time></trkpt><trkpt lat="37.46177095608966" lon="14.441357531148432"><ele>536.5</ele><time>2026-04-06T08:35:10Z</time></trkpt><trkpt lat="37.46184195621673" lon="14.441329421943992"><ele>537.0</ele><time>2026-04-06T08:35:11Z</time></trkpt><trkpt lat="37.46195198208419" lon="14.441248915527297"><ele>537.6</ele><time>2026-04-06T08:35:13Z</time></trkpt><trkpt lat="37.46203538021784" lon="14.441214033225236"><ele>538.2</ele><time>2026-04-06T08:35:14Z</time></trkpt><trkpt lat="37.46212546504902" lon="14.441152180713411"><ele>538.8</ele><time>2026-04-06T08:35:15Z</time></trkpt><trkpt lat="37.4622332515911" lon="14.441076751501024"><ele>539.4</ele><time>2026-04-06T08:35:16Z</time></trkpt><trkpt lat="37.462341546448236" lon="14.441002384490934"><ele>540.0</ele><time>2026-04-06T08:35:17Z</time></trkpt><trkpt lat="37.46245550440783" lon="14.440928478731683"><ele>540.0</ele><time>2026-04-06T08:35:18Z</time></trkpt><trkpt lat="37.46256444229246" lon="14.440860053223883"><ele>540.0</ele><time>2026-04-06T08:35:19Z</time></trkpt><trkpt lat="37.46266139769586" lon="14.44080757173594"><ele>540.0</ele><time>2026-04-06T08:35:20Z</time></trkpt><trkpt lat="37.46274726562893" lon="14.440765824176744"><ele>540.0</ele><time>2026-04-06T08:35:21Z</time></trkpt><trkpt lat="37.462828460268774" lon="14.440721955920349"><ele>540.0</ele><time>2026-04-06T08:35:22Z</time></trkpt><trkpt lat="37.4629210662848" lon="14.44072083456841"><ele>539.4</ele><time>2026-04-06T08:35:23Z</time></trkpt><trkpt lat="37.46300887543222" lon="14.440741398467653"><ele>538.8</ele><time>2026-04-06T08:35:24Z</time></trkpt><trkpt lat="37.463101814572084" lon="14.440794571027576"><ele>538.2</ele><time>2026-04-06T08:35:25Z</time></trkpt><trkpt lat="37.46320259823169" lon="14.440838453513306"><ele>537.6</ele><time>2026-04-06T08:35:26Z</time></trkpt><trkpt lat="37.46329981956132" lon="14.440881465609353"><ele>537.0</ele><time>2026-04-06T08:35:27Z</time></trkpt><trkpt lat="37.463393875080385" lon="14.440901183480474"><ele>537.0</ele><time>2026-04-06T08:35:28Z</time></trkpt><trkpt lat="37.463476898183686" lon="14.440927237819611"><ele>537.0</ele><time>2026-04-06T08:35:29Z</time></trkpt><trkpt lat="37.46354964149186" lon="14.44094064792588"><ele>537.0</ele><time>2026-04-06T08:35:30Z</time></trkpt><trkpt lat="37.463630960535504" lon="14.440936299024738"><ele>537.0</ele><time>2026-04-06T08:35:31Z</time></trkpt><trkpt lat="37.46372461353317" lon="14.440901213179158"><ele>537.0</ele><time>2026-04-06T08:35:32Z</time></trkpt><trkpt lat="37.463809818740074" lon="14.440865580013169"><ele>537.0</ele><time>2026-04-06T08:35:33Z</time></trkpt><trkpt lat="37.463881799534306" lon="14.440834333808581"><ele>535.8571428571428</ele><time>2026-04-06T08:35:34Z</time></trkpt><trkpt lat="37.463951016162994" lon="14.440798783260481"><ele>534.7142857142857</ele><time>2026-04-06T08:35:35Z</time></trkpt><trkpt lat="37.464017087838336" lon="14.440760021244923"><ele>533.5714285714286</ele><time>2026-04-06T08:35:36Z</time></trkpt><trkpt lat="37.46408514286991" lon="14.440718624494833"><ele>532.4285714285713</ele><time>2026-04-06T08:35:37Z</time></trkpt><trkpt lat="37.46414135519904" lon="14.440681605850113"><ele>531.2857142857142</ele><time>2026-04-06T08:35:38Z</time></trkpt><trkpt lat="37.464202566616585" lon="14.440657284632461"><ele>530.1428571428571</ele><time>2026-04-06T08:35:39Z</time></trkpt><trkpt lat="37.464274825244196" lon="14.440610235706622"><ele>529.0</ele><time>2026-04-06T08:35:40Z</time></trkpt><trkpt lat="37.46433845224491" lon="14.440568807014188"><ele>529.0</ele><time>2026-04-06T08:35:41Z</time></trkpt><trkpt lat="37.464397957363246" lon="14.440524907682335"><ele>529.0</ele><time>2026-04-06T08:35:42Z</time></trkpt><trkpt lat="37.46447025680174" lon="14.440466799158486"><ele>529.0</ele><time>2026-04-06T08:35:44Z</time></trkpt><trkpt lat="37.464536072181765" lon="14.440418365765906"><ele>529.0</ele><time>2026-04-06T08:35:45Z</time></trkpt><trkpt lat="37.46459861732045" lon="14.440377089685782"><ele>529.0</ele><time>2026-04-06T08:35:46Z</time></trkpt><trkpt lat="37.464689525554824" lon="14.440411889986521"><ele>529.0</ele><time>2026-04-06T08:35:48Z</time></trkpt><trkpt lat="37.46475363308003" lon="14.440490556201889"><ele>529.0</ele><time>2026-04-06T08:35:50Z</time></trkpt><trkpt lat="37.46476213069239" lon="14.440572102955798"><ele>529.0</ele><time>2026-04-06T08:35:51Z</time></trkpt><trkpt lat="37.464747538107055" lon="14.440657203232165"><ele>529.0</ele><time>2026-04-06T08:35:52Z</time></trkpt><trkpt lat="37.46470079520813" lon="14.440738629614279"><ele>529.0</ele><time>2026-04-06T08:35:54Z</time></trkpt><trkpt lat="37.464622117759134" lon="14.440780428338963"><ele>529.0</ele><time>2026-04-06T08:35:56Z</time></trkpt><trkpt lat="37.46451072499147" lon="14.440837674618908"><ele>529.0</ele><time>2026-04-06T08:35:58Z</time></trkpt><trkpt lat="37.4644327275608" lon="14.440951329375396"><ele>529.0</ele><time>2026-04-06T08:36:00Z</time></trkpt><trkpt lat="37.46441119039861" lon="14.441048680277936"><ele>529.0</ele><time>2026-04-06T08:36:01Z</time></trkpt><trkpt lat="37.46436476568729" lon="14.441150545771984"><ele>529.0</ele><time>2026-04-06T08:36:02Z</time></trkpt><trkpt lat="37.46435482410563" lon="14.441249097826116"><ele>529.0</ele><time>2026-04-06T08:36:03Z</time></trkpt><trkpt lat="37.46432201685047" lon="14.441346744717308"><ele>529.0</ele><time>2026-04-06T08:36:04Z</time></trkpt><trkpt lat="37.46427056553498" lon="14.441502756907385"><ele>527.1666666666667</ele><time>2026-04-06T08:36:06Z</time></trkpt><trkpt lat="37.464247664559615" lon="14.441577347489183"><ele>525.3333333333334</ele><time>2026-04-06T08:36:07Z</time></trkpt><trkpt lat="37.46420680503544" lon="14.441672147251483"><ele>523.5</ele><time>2026-04-06T08:36:08Z</time></trkpt><trkpt lat="37.4641298045113" lon="14.441721577457376"><ele>521.6666666666666</ele><time>2026-04-06T08:36:09Z</time></trkpt><trkpt lat="37.464082862718435" lon="14.441784654046026"><ele>519.8333333333333</ele><time>2026-04-06T08:36:10Z</time></trkpt><trkpt lat="37.46401470656185" lon="14.441893186695513"><ele>518.0</ele><time>2026-04-06T08:36:11Z</time></trkpt><trkpt lat="37.463960749107635" lon="14.441964042048994"><ele>518.0</ele><time>2026-04-06T08:36:12Z</time></trkpt><trkpt lat="37.463933836856725" lon="14.44211310295925"><ele>518.0</ele><time>2026-04-06T08:36:14Z</time></trkpt><trkpt lat="37.463965415814165" lon="14.442256470600393"><ele>518.0</ele><time>2026-04-06T08:36:16Z</time></trkpt><trkpt lat="37.46408739499834" lon="14.442361509781863"><ele>518.0</ele><time>2026-04-06T08:36:18Z</time></trkpt><trkpt lat="37.464177222342094" lon="14.442344558897418"><ele>518.0</ele><time>2026-04-06T08:36:19Z</time></trkpt><trkpt lat="37.46425737901941" lon="14.442331696643748"><ele>518.0</ele><time>2026-04-06T08:36:20Z</time></trkpt><trkpt lat="37.46432253614982" lon="14.4422488283304"><ele>518.0</ele><time>2026-04-06T08:36:21Z</time></trkpt><trkpt lat="37.46439675575252" lon="14.442137072537639"><ele>518.0</ele><time>2026-04-06T08:36:23Z</time></trkpt><trkpt lat="37.4644722653615" lon="14.442079927189504"><ele>518.0</ele><time>2026-04-06T08:36:25Z</time></trkpt><trkpt lat="37.46454067911509" lon="14.44200873202796"><ele>518.0</ele><time>2026-04-06T08:36:27Z</time></trkpt><trkpt lat="37.464594263413915" lon="14.44196521906436"><ele>518.0</ele><time>2026-04-06T08:36:28Z</time></trkpt><trkpt lat="37.4647326639484" lon="14.441932130034356"><ele>518.0</ele><time>2026-04-06T08:36:30Z</time></trkpt><trkpt lat="37.46479586170371" lon="14.441930929689157"><ele>518.0</ele><time>2026-04-06T08:36:31Z</time></trkpt><trkpt lat="37.464862755594204" lon="14.441928729201043"><ele>518.0</ele><time>2026-04-06T08:36:34Z</time></trkpt><trkpt lat="37.464907836462224" lon="14.441985347072315"><ele>518.0</ele><time>2026-04-06T08:36:37Z</time></trkpt><trkpt lat="37.4649733017094" lon="14.441998386295406"><ele>516.3333333333333</ele><time>2026-04-06T08:36:39Z</time></trkpt><trkpt lat="37.46503977341777" lon="14.442016723179613"><ele>514.6666666666666</ele><time>2026-04-06T08:36:41Z</time></trkpt><trkpt lat="37.46510444334211" lon="14.44206479598365"><ele>513.0</ele><time>2026-04-06T08:36:44Z</time></trkpt><trkpt lat="37.46517440741908" lon="14.442118130786735"><ele>511.33333333333337</ele><time>2026-04-06T08:36:47Z</time></trkpt><trkpt lat="37.465231124561576" lon="14.44221083909134"><ele>509.6666666666667</ele><time>2026-04-06T08:36:50Z</time></trkpt><trkpt lat="37.46528660617487" lon="14.44234380656967"><ele>508.0</ele><time>2026-04-06T08:36:53Z</time></trkpt><trkpt lat="37.46532175773973" lon="14.442448453854574"><ele>507.2</ele><time>2026-04-06T08:36:55Z</time></trkpt><trkpt lat="37.46534540208946" lon="14.442625475144787"><ele>506.4</ele><time>2026-04-06T08:36:57Z</time></trkpt><trkpt lat="37.465350061497396" lon="14.442730163510245"><ele>505.59999999999997</ele><time>2026-04-06T08:36:58Z</time></trkpt><trkpt lat="37.46534695070088" lon="14.442844485279592"><ele>504.79999999999995</ele><time>2026-04-06T08:36:59Z</time></trkpt><trkpt lat="37.465343071275306" lon="14.442943587287632"><ele>504.0</ele><time>2026-04-06T08:37:00Z</time></trkpt><trkpt lat="37.465339404394356" lon="14.443044728494081"><ele>502.3333333333333</ele><time>2026-04-06T08:37:01Z</time></trkpt><trkpt lat="37.465331435748084" lon="14.443143942167033"><ele>500.66666666666663</ele><time>2026-04-06T08:37:02Z</time></trkpt><trkpt lat="37.465319519745925" lon="14.443239068406875"><ele>499.0</ele><time>2026-04-06T08:37:03Z</time></trkpt><trkpt lat="37.46529837503489" lon="14.443330375364738"><ele>497.3333333333333</ele><time>2026-04-06T08:37:04Z</time></trkpt><trkpt lat="37.46528591004835" lon="14.443449118812492"><ele>495.66666666666663</ele><time>2026-04-06T08:37:05Z</time></trkpt><trkpt lat="37.465278131479394" lon="14.443554804012708"><ele>494.0</ele><time>2026-04-06T08:37:06Z</time></trkpt><trkpt lat="37.46527527162721" lon="14.443647584644204"><ele>493.99999999999994</ele><time>2026-04-06T08:37:07Z</time></trkpt><trkpt lat="37.46528031699729" lon="14.44373748023391"><ele>494.0</ele><time>2026-04-06T08:37:08Z</time></trkpt><trkpt lat="37.46529617815156" lon="14.443836175779763"><ele>494.0</ele><time>2026-04-06T08:37:09Z</time></trkpt><trkpt lat="37.46533586436472" lon="14.443941893331253"><ele>494.0</ele><time>2026-04-06T08:37:10Z</time></trkpt><trkpt lat="37.465376351988766" lon="14.444025344173093"><ele>493.99999999999994</ele><time>2026-04-06T08:37:11Z</time></trkpt><trkpt lat="37.46543193414308" lon="14.444122295137106"><ele>494.0</ele><time>2026-04-06T08:37:13Z</time></trkpt><trkpt lat="37.46548077995966" lon="14.444212084171983"><ele>491.99999999999994</ele><time>2026-04-06T08:37:15Z</time></trkpt><trkpt lat="37.46555928105475" lon="14.444286424408432"><ele>490.0</ele><time>2026-04-06T08:37:17Z</time></trkpt><trkpt lat="37.46562173110527" lon="14.444314320303823"><ele>488.0</ele><time>2026-04-06T08:37:19Z</time></trkpt><trkpt lat="37.4657085750307" lon="14.444338297727581"><ele>486.0</ele><time>2026-04-06T08:37:21Z</time></trkpt><trkpt lat="37.46577496287448" lon="14.444356770846655"><ele>483.99999999999994</ele><time>2026-04-06T08:37:22Z</time></trkpt><trkpt lat="37.46584834600482" lon="14.444368217568963"><ele>482.0</ele><time>2026-04-06T08:37:23Z</time></trkpt><trkpt lat="37.46591734544994" lon="14.44437193887866"><ele>482.0</ele><time>2026-04-06T08:37:24Z</time></trkpt><trkpt lat="37.46598078303135" lon="14.444390710358483"><ele>482.00000000000006</ele><time>2026-04-06T08:37:25Z</time></trkpt><trkpt lat="37.46606748057885" lon="14.444390710361299"><ele>482.0</ele><time>2026-04-06T08:37:26Z</time></trkpt><trkpt lat="37.46615271400803" lon="14.444381485495965"><ele>482.0</ele><time>2026-04-06T08:37:27Z</time></trkpt><trkpt lat="37.46621912326547" lon="14.444372335473851"><ele>482.00000000000006</ele><time>2026-04-06T08:37:28Z</time></trkpt><trkpt lat="37.46629194336313" lon="14.44437400920914"><ele>482.0</ele><time>2026-04-06T08:37:29Z</time></trkpt><trkpt lat="37.466356707790446" lon="14.444376202771103"><ele>482.0</ele><time>2026-04-06T08:37:30Z</time></trkpt><trkpt lat="37.466463884304915" lon="14.444383728991554"><ele>480.99999999999994</ele><time>2026-04-06T08:37:32Z</time></trkpt><trkpt lat="37.46653546864668" lon="14.44436913343815"><ele>480.0</ele><time>2026-04-06T08:37:33Z</time></trkpt><trkpt lat="37.46665403336965" lon="14.444367914417844"><ele>479.0</ele><time>2026-04-06T08:37:35Z</time></trkpt><trkpt lat="37.466712119898446" lon="14.444320037693196"><ele>478.0</ele><time>2026-04-06T08:37:38Z</time></trkpt><trkpt lat="37.46676879452385" lon="14.44426576776847"><ele>476.99999999999994</ele><time>2026-04-06T08:37:49Z</time></trkpt><trkpt lat="37.46683399177021" lon="14.444227550345792"><ele>476.0</ele><time>2026-04-06T08:37:56Z</time></trkpt><trkpt lat="37.466894297073" lon="14.444164492994535"><ele>476.0</ele><time>2026-04-06T08:38:08Z</time></trkpt><trkpt lat="37.46695497781984" lon="14.444100496859466"><ele>476.0</ele><time>2026-04-06T08:38:11Z</time></trkpt><trkpt lat="37.46701169020737" lon="14.444040686017253"><ele>476.0</ele><time>2026-04-06T08:38:13Z</time></trkpt><trkpt lat="37.46706514068536" lon="14.443984315186588"><ele>476.0</ele><time>2026-04-06T08:38:15Z</time></trkpt><trkpt lat="37.467132648127425" lon="14.443926996842313"><ele>476.0</ele><time>2026-04-06T08:38:17Z</time></trkpt><trkpt lat="37.46720006371108" lon="14.443887666928491"><ele>476.0</ele><time>2026-04-06T08:38:19Z</time></trkpt><trkpt lat="37.4672644715921" lon="14.443860013655426"><ele>476.0</ele><time>2026-04-06T08:38:21Z</time></trkpt><trkpt lat="37.467345684947105" lon="14.443837421711613"><ele>474.49999999999994</ele><time>2026-04-06T08:38:24Z</time></trkpt><trkpt lat="37.46741327164465" lon="14.443821588280057"><ele>473.0</ele><time>2026-04-06T08:38:26Z</time></trkpt><trkpt lat="37.46749636950554" lon="14.443801137032203"><ele>471.5</ele><time>2026-04-06T08:38:29Z</time></trkpt><trkpt lat="37.46757262018359" lon="14.443781788400843"><ele>470.0</ele><time>2026-04-06T08:38:31Z</time></trkpt><trkpt lat="37.46764395254095" lon="14.443763688163035"><ele>468.49999999999994</ele><time>2026-04-06T08:38:33Z</time></trkpt><trkpt lat="37.46773518088753" lon="14.443731618525455"><ele>467.0</ele><time>2026-04-06T08:38:36Z</time></trkpt><trkpt lat="37.46781229867305" lon="14.443711045033854"><ele>467.0</ele><time>2026-04-06T08:38:38Z</time></trkpt><trkpt lat="37.467919702640906" lon="14.443697925199567"><ele>467.0</ele><time>2026-04-06T08:38:41Z</time></trkpt><trkpt lat="37.46820900005532" lon="14.444287879715459"><ele>464.16666666666663</ele><time>2026-04-06T08:38:42Z</time></trkpt><trkpt lat="37.46827660362092" lon="14.44428822663019"><ele>461.3333333333333</ele><time>2026-04-06T08:38:43Z</time></trkpt><trkpt lat="37.46840283386317" lon="14.444277823791271"><ele>458.5</ele><time>2026-04-06T08:38:45Z</time></trkpt><trkpt lat="37.46848425819663" lon="14.444264245049272"><ele>455.66666666666663</ele><time>2026-04-06T08:38:46Z</time></trkpt><trkpt lat="37.4685604626906" lon="14.444247991605307"><ele>452.8333333333333</ele><time>2026-04-06T08:38:47Z</time></trkpt><trkpt lat="37.468631324785626" lon="14.444234194437172"><ele>450.0</ele><time>2026-04-06T08:38:48Z</time></trkpt><trkpt lat="37.46869444412354" lon="14.444227388478678"><ele>448.0</ele><time>2026-04-06T08:38:49Z</time></trkpt><trkpt lat="37.46881407071314" lon="14.444197107763994"><ele>446.0</ele><time>2026-04-06T08:38:51Z</time></trkpt><trkpt lat="37.46891863649236" lon="14.44415474510413"><ele>444.0</ele><time>2026-04-06T08:38:53Z</time></trkpt><trkpt lat="37.46900149445152" lon="14.444124336322057"><ele>442.0</ele><time>2026-04-06T08:38:55Z</time></trkpt><trkpt lat="37.469089461877715" lon="14.444089836620533"><ele>440.0</ele><time>2026-04-06T08:38:57Z</time></trkpt><trkpt lat="37.469177154450996" lon="14.444056125416722"><ele>440.0</ele><time>2026-04-06T08:38:59Z</time></trkpt><trkpt lat="37.469259408011084" lon="14.444032849786659"><ele>440.0</ele><time>2026-04-06T08:39:01Z</time></trkpt><trkpt lat="37.469361742886214" lon="14.444003468802384"><ele>440.0</ele><time>2026-04-06T08:39:03Z</time></trkpt><trkpt lat="37.469424999058084" lon="14.443981449107033"><ele>440.0</ele><time>2026-04-06T08:39:04Z</time></trkpt><trkpt lat="37.46954022775768" lon="14.443937900037088"><ele>440.0</ele><time>2026-04-06T08:39:06Z</time></trkpt><trkpt lat="37.46962653596952" lon="14.44392974613381"><ele>439.16666666666663</ele><time>2026-04-06T08:39:08Z</time></trkpt><trkpt lat="37.46968976117443" lon="14.443925215550694"><ele>438.3333333333333</ele><time>2026-04-06T08:39:09Z</time></trkpt><trkpt lat="37.469776670447175" lon="14.443923728041007"><ele>437.5</ele><time>2026-04-06T08:39:11Z</time></trkpt><trkpt lat="37.46983948773853" lon="14.443903290890292"><ele>436.66666666666663</ele><time>2026-04-06T08:39:13Z</time></trkpt><trkpt lat="37.46988647656157" lon="14.44382007558859"><ele>435.8333333333333</ele><time>2026-04-06T08:39:17Z</time></trkpt><trkpt lat="37.46997165089903" lon="14.443768086273833"><ele>435.0</ele><time>2026-04-06T08:39:20Z</time></trkpt><trkpt lat="37.47011316246429" lon="14.443763106962638"><ele>435.0</ele><time>2026-04-06T08:39:22Z</time></trkpt><trkpt lat="37.47019701174465" lon="14.443769418787884"><ele>435.0</ele><time>2026-04-06T08:39:23Z</time></trkpt><trkpt lat="37.470352445702915" lon="14.443792873812201"><ele>435.0</ele><time>2026-04-06T08:39:25Z</time></trkpt><trkpt lat="37.47042459512835" lon="14.443820079784295"><ele>435.0</ele><time>2026-04-06T08:39:26Z</time></trkpt><trkpt lat="37.470508116073916" lon="14.443832680011731"><ele>435.0</ele><time>2026-04-06T08:39:27Z</time></trkpt><trkpt lat="37.47058116066124" lon="14.443854231120918"><ele>433.3333333333333</ele><time>2026-04-06T08:39:28Z</time></trkpt><trkpt lat="37.470659654837654" lon="14.443890500074613"><ele>431.66666666666663</ele><time>2026-04-06T08:39:29Z</time></trkpt><trkpt lat="37.470716041892985" lon="14.443929563521545"><ele>430.0</ele><time>2026-04-06T08:39:30Z</time></trkpt><trkpt lat="37.470785618758796" lon="14.443971725117503"><ele>428.3333333333333</ele><time>2026-04-06T08:39:31Z</time></trkpt><trkpt lat="37.4708779605511" lon="14.444027306639537"><ele>426.66666666666663</ele><time>2026-04-06T08:39:33Z</time></trkpt><trkpt lat="37.470954371492255" lon="14.44406620948547"><ele>425.0</ele><time>2026-04-06T08:39:35Z</time></trkpt><trkpt lat="37.471021411670925" lon="14.444109719690987"><ele>424.99999999999994</ele><time>2026-04-06T08:39:38Z</time></trkpt><trkpt lat="37.47109149939514" lon="14.444137571202203"><ele>425.0</ele><time>2026-04-06T08:39:41Z</time></trkpt><trkpt lat="37.47118549705129" lon="14.444173880427147"><ele>425.0</ele><time>2026-04-06T08:39:44Z</time></trkpt><trkpt lat="37.47125419150796" lon="14.44419984445109"><ele>425.0</ele><time>2026-04-06T08:39:46Z</time></trkpt><trkpt lat="37.471335994732286" lon="14.444205509312228"><ele>424.99999999999994</ele><time>2026-04-06T08:39:49Z</time></trkpt><trkpt lat="37.471422859139814" lon="14.444230634138567"><ele>425.0</ele><time>2026-04-06T08:39:51Z</time></trkpt><trkpt lat="37.47152490254283" lon="14.444249246014781"><ele>425.0</ele><time>2026-04-06T08:39:53Z</time></trkpt><trkpt lat="37.47159872764021" lon="14.44424640776596"><ele>425.0</ele><time>2026-04-06T08:39:55Z</time></trkpt><trkpt lat="37.471716976168764" lon="14.44424246484187"><ele>425.0</ele><time>2026-04-06T08:39:57Z</time></trkpt><trkpt lat="37.47183140536544" lon="14.444224662381636"><ele>425.0</ele><time>2026-04-06T08:39:59Z</time></trkpt><trkpt lat="37.471922241137776" lon="14.444220226199871"><ele>425.0</ele><time>2026-04-06T08:40:01Z</time></trkpt><trkpt lat="37.47200597065539" lon="14.444233681655184"><ele>424.99999999999994</ele><time>2026-04-06T08:40:03Z</time></trkpt><trkpt lat="37.47208240490482" lon="14.444275354369092"><ele>425.0</ele><time>2026-04-06T08:40:05Z</time></trkpt><trkpt lat="37.472138132685764" lon="14.444331791732642"><ele>425.0</ele><time>2026-04-06T08:40:07Z</time></trkpt><trkpt lat="37.472200169328836" lon="14.44440609979305"><ele>425.0</ele><time>2026-04-06T08:40:09Z</time></trkpt><trkpt lat="37.472259404178345" lon="14.444502146565195"><ele>424.99999999999994</ele><time>2026-04-06T08:40:11Z</time></trkpt><trkpt lat="37.47232996757854" lon="14.444578247799928"><ele>425.0</ele><time>2026-04-06T08:40:14Z</time></trkpt><trkpt lat="37.472381710439244" lon="14.444631955502837"><ele>425.16666666666663</ele><time>2026-04-06T08:40:16Z</time></trkpt><trkpt lat="37.47242932212768" lon="14.44468587372072"><ele>425.3333333333333</ele><time>2026-04-06T08:40:18Z</time></trkpt><trkpt lat="37.472489220276024" lon="14.444743351093448"><ele>425.5</ele><time>2026-04-06T08:41:19Z</time></trkpt><trkpt lat="37.47255135842405" lon="14.44480039190676"><ele>425.66666666666663</ele><time>2026-04-06T08:41:23Z</time></trkpt><trkpt lat="37.47262071980327" lon="14.444858103672196"><ele>425.8333333333333</ele><time>2026-04-06T08:41:27Z</time></trkpt><trkpt lat="37.47269430291749" lon="14.444913637847698"><ele>426.0</ele><time>2026-04-06T08:41:30Z</time></trkpt><trkpt lat="37.47276323072566" lon="14.444961434369128"><ele>426.0</ele><time>2026-04-06T08:41:33Z</time></trkpt><trkpt lat="37.47282884466718" lon="14.445011788416155"><ele>426.0</ele><time>2026-04-06T08:41:37Z</time></trkpt><trkpt lat="37.472908519402786" lon="14.445064549602733"><ele>426.0</ele><time>2026-04-06T08:41:40Z</time></trkpt><trkpt lat="37.47298003501945" lon="14.445101369695632"><ele>426.0</ele><time>2026-04-06T08:41:42Z</time></trkpt><trkpt lat="37.473038342367076" lon="14.445139242377907"><ele>426.0</ele><time>2026-04-06T08:41:44Z</time></trkpt><trkpt lat="37.47312315479192" lon="14.445174429315427"><ele>426.0</ele><time>2026-04-06T08:41:46Z</time></trkpt><trkpt lat="37.473232919323785" lon="14.445215207403216"><ele>426.6666666666667</ele><time>2026-04-06T08:41:48Z</time></trkpt><trkpt lat="37.47332141747711" lon="14.445236836012713"><ele>427.33333333333337</ele><time>2026-04-06T08:41:50Z</time></trkpt><trkpt lat="37.47338187198072" lon="14.445194799676939"><ele>428.0</ele><time>2026-04-06T08:41:53Z</time></trkpt><trkpt lat="37.47338410025049" lon="14.445103624700709"><ele>428.6666666666667</ele><time>2026-04-06T08:41:55Z</time></trkpt><trkpt lat="37.47336020472937" lon="14.445024164781257"><ele>429.33333333333337</ele><time>2026-04-06T08:41:56Z</time></trkpt><trkpt lat="37.4733299404905" lon="14.444934962250816"><ele>430.0</ele><time>2026-04-06T08:41:57Z</time></trkpt><trkpt lat="37.473305793425354" lon="14.444840126626957"><ele>430.00000000000006</ele><time>2026-04-06T08:41:58Z</time></trkpt><trkpt lat="37.47328849931652" lon="14.444763791008109"><ele>430.0</ele><time>2026-04-06T08:41:59Z</time></trkpt><trkpt lat="37.473268811097896" lon="14.444664297456793"><ele>430.0</ele><time>2026-04-06T08:42:00Z</time></trkpt><trkpt lat="37.47324555427549" lon="14.44456442315577"><ele>430.0</ele><time>2026-04-06T08:42:01Z</time></trkpt><trkpt lat="37.47321579877169" lon="14.444448970502462"><ele>430.00000000000006</ele><time>2026-04-06T08:42:02Z</time></trkpt><trkpt lat="37.47321912230411" lon="14.444346121907392"><ele>430.0</ele><time>2026-04-06T08:42:03Z</time></trkpt><trkpt lat="37.47320673414018" lon="14.444224202403529"><ele>431.4</ele><time>2026-04-06T08:42:04Z</time></trkpt><trkpt lat="37.47319878323953" lon="14.444111678129723"><ele>432.8</ele><time>2026-04-06T08:42:05Z</time></trkpt><trkpt lat="37.4731966435851" lon="14.44398679159547"><ele>434.20000000000005</ele><time>2026-04-06T08:42:06Z</time></trkpt><trkpt lat="37.473200668052534" lon="14.443878593667867"><ele>435.6</ele><time>2026-04-06T08:42:07Z</time></trkpt><trkpt lat="37.47321479711414" lon="14.44377035816288"><ele>437.0</ele><time>2026-04-06T08:42:08Z</time></trkpt><trkpt lat="37.47323427697867" lon="14.443643766288421"><ele>438.16666666666663</ele><time>2026-04-06T08:42:09Z</time></trkpt><trkpt lat="37.4732570905786" lon="14.443499914258922"><ele>439.3333333333333</ele><time>2026-04-06T08:42:10Z</time></trkpt><trkpt lat="37.473275766120544" lon="14.443382659688833"><ele>440.5</ele><time>2026-04-06T08:42:11Z</time></trkpt><trkpt lat="37.47329376954687" lon="14.443269624686101"><ele>441.66666666666663</ele><time>2026-04-06T08:42:12Z</time></trkpt><trkpt lat="37.47330805502346" lon="14.44318662414395"><ele>442.8333333333333</ele><time>2026-04-06T08:42:13Z</time></trkpt><trkpt lat="37.47332435567031" lon="14.44309676928642"><ele>444.0</ele><time>2026-04-06T08:42:14Z</time></trkpt><trkpt lat="37.47332968775219" lon="14.442999367569083"><ele>445.0</ele><time>2026-04-06T08:42:15Z</time></trkpt><trkpt lat="37.47337079283092" lon="14.442839627915284"><ele>446.0</ele><time>2026-04-06T08:42:17Z</time></trkpt><trkpt lat="37.473409548188265" lon="14.442752044677169"><ele>447.0</ele><time>2026-04-06T08:42:18Z</time></trkpt><trkpt lat="37.47343822069084" lon="14.442644859443455"><ele>448.0</ele><time>2026-04-06T08:42:19Z</time></trkpt><trkpt lat="37.47345928600116" lon="14.442566111748793"><ele>449.0</ele><time>2026-04-06T08:42:20Z</time></trkpt><trkpt lat="37.473486774783545" lon="14.442463352871679"><ele>449.0</ele><time>2026-04-06T08:42:21Z</time></trkpt><trkpt lat="37.47351231730416" lon="14.442370248722867"><ele>449.0</ele><time>2026-04-06T08:42:22Z</time></trkpt><trkpt lat="37.47354471800994" lon="14.442251401284373"><ele>449.0</ele><time>2026-04-06T08:42:23Z</time></trkpt><trkpt lat="37.47357388412486" lon="14.442144418223574"><ele>449.0</ele><time>2026-04-06T08:42:24Z</time></trkpt><trkpt lat="37.47358832328473" lon="14.442026633469407"><ele>449.0</ele><time>2026-04-06T08:42:25Z</time></trkpt><trkpt lat="37.47362574800544" lon="14.441892934401976"><ele>449.0</ele><time>2026-04-06T08:42:26Z</time></trkpt><trkpt lat="37.473658463583085" lon="14.441744556162512"><ele>449.0</ele><time>2026-04-06T08:42:27Z</time></trkpt><trkpt lat="37.47368426365574" lon="14.441611990450971"><ele>449.0</ele><time>2026-04-06T08:42:28Z</time></trkpt><trkpt lat="37.4737143046688" lon="14.441479531571623"><ele>449.0</ele><time>2026-04-06T08:42:29Z</time></trkpt><trkpt lat="37.47373771961236" lon="14.441328200972086"><ele>450.25</ele><time>2026-04-06T08:42:30Z</time></trkpt><trkpt lat="37.473742314778306" lon="14.441153749662403"><ele>451.5</ele><time>2026-04-06T08:42:31Z</time></trkpt><trkpt lat="37.47374536750293" lon="14.440992030641615"><ele>452.75</ele><time>2026-04-06T08:42:32Z</time></trkpt><trkpt lat="37.47372651234009" lon="14.440838683100086"><ele>454.0</ele><time>2026-04-06T08:42:33Z</time></trkpt><trkpt lat="37.473718236312564" lon="14.44069545887622"><ele>454.0</ele><time>2026-04-06T08:42:34Z</time></trkpt><trkpt lat="37.47369632052299" lon="14.440539516339042"><ele>454.0</ele><time>2026-04-06T08:42:35Z</time></trkpt><trkpt lat="37.47366158907767" lon="14.44035035926858"><ele>454.0</ele><time>2026-04-06T08:42:36Z</time></trkpt><trkpt lat="37.47361924512256" lon="14.440172993630624"><ele>454.0</ele><time>2026-04-06T08:42:37Z</time></trkpt><trkpt lat="37.47358285666112" lon="14.440001712679399"><ele>454.79999999999995</ele><time>2026-04-06T08:42:38Z</time></trkpt><trkpt lat="37.4735549670715" lon="14.43985377368108"><ele>455.59999999999997</ele><time>2026-04-06T08:42:39Z</time></trkpt><trkpt lat="37.47353210423856" lon="14.439736900004801"><ele>456.4</ele><time>2026-04-06T08:42:40Z</time></trkpt><trkpt lat="37.473504746317275" lon="14.439605797370486"><ele>457.2</ele><time>2026-04-06T08:42:41Z</time></trkpt><trkpt lat="37.4734803930362" lon="14.439467291055157"><ele>458.0</ele><time>2026-04-06T08:42:42Z</time></trkpt><trkpt lat="37.473455611880254" lon="14.439343615569246"><ele>457.8333333333333</ele><time>2026-04-06T08:42:43Z</time></trkpt><trkpt lat="37.47343215531685" lon="14.439230023498082"><ele>457.66666666666663</ele><time>2026-04-06T08:42:44Z</time></trkpt><trkpt lat="37.47340880796241" lon="14.439122208342937"><ele>457.5</ele><time>2026-04-06T08:42:45Z</time></trkpt><trkpt lat="37.47339454412199" lon="14.43904359891163"><ele>457.33333333333337</ele><time>2026-04-06T08:42:46Z</time></trkpt><trkpt lat="37.473365046811715" lon="14.438895228782709"><ele>457.1666666666667</ele><time>2026-04-06T08:42:48Z</time></trkpt><trkpt lat="37.47334715866262" lon="14.438802880148893"><ele>457.0</ele><time>2026-04-06T08:42:49Z</time></trkpt><trkpt lat="37.473314807459346" lon="14.438638510551554"><ele>457.00000000000006</ele><time>2026-04-06T08:42:51Z</time></trkpt><trkpt lat="37.47330066619328" lon="14.438532694019202"><ele>457.0</ele><time>2026-04-06T08:42:52Z</time></trkpt><trkpt lat="37.473289615391835" lon="14.438441057078663"><ele>457.0</ele><time>2026-04-06T08:42:53Z</time></trkpt><trkpt lat="37.47327577907368" lon="14.438320180687263"><ele>457.0</ele><time>2026-04-06T08:42:54Z</time></trkpt><trkpt lat="37.47328121601873" lon="14.438200061303448"><ele>457.00000000000006</ele><time>2026-04-06T08:42:55Z</time></trkpt><trkpt lat="37.47327277767294" lon="14.43809853586378"><ele>457.0</ele><time>2026-04-06T08:42:56Z</time></trkpt><trkpt lat="37.47325869967632" lon="14.437924374266158"><ele>455.8</ele><time>2026-04-06T08:42:58Z</time></trkpt><trkpt lat="37.473249262016566" lon="14.437800530484653"><ele>454.6</ele><time>2026-04-06T08:42:59Z</time></trkpt><trkpt lat="37.473227691760464" lon="14.437675470913964"><ele>453.40000000000003</ele><time>2026-04-06T08:43:00Z</time></trkpt><trkpt lat="37.47321922317994" lon="14.437562811630755"><ele>452.20000000000005</ele><time>2026-04-06T08:43:01Z</time></trkpt><trkpt lat="37.473254609909134" lon="14.437478210364342"><ele>451.0</ele><time>2026-04-06T08:43:02Z</time></trkpt><trkpt lat="37.47324450541044" lon="14.43734751215447"><ele>451.0</ele><time>2026-04-06T08:43:03Z</time></trkpt><trkpt lat="37.473247111853674" lon="14.437190325631594"><ele>451.0</ele><time>2026-04-06T08:43:04Z</time></trkpt><trkpt lat="37.4732474816164" lon="14.437066462305232"><ele>451.0</ele><time>2026-04-06T08:43:05Z</time></trkpt><trkpt lat="37.47324986892861" lon="14.436964867675234"><ele>451.0</ele><time>2026-04-06T08:43:06Z</time></trkpt><trkpt lat="37.473259837326744" lon="14.436864355389586"><ele>451.0</ele><time>2026-04-06T08:43:07Z</time></trkpt><trkpt lat="37.47326883835017" lon="14.43677281110832"><ele>450.25</ele><time>2026-04-06T08:43:08Z</time></trkpt><trkpt lat="37.4733330456975" lon="14.436641471731363"><ele>449.5</ele><time>2026-04-06T08:43:10Z</time></trkpt><trkpt lat="37.473462392733914" lon="14.436556008163105"><ele>448.75</ele><time>2026-04-06T08:43:12Z</time></trkpt><trkpt lat="37.473561362353315" lon="14.436526137869583"><ele>448.0</ele><time>2026-04-06T08:43:13Z</time></trkpt><trkpt lat="37.47366796506173" lon="14.43649309920729"><ele>446.75</ele><time>2026-04-06T08:43:14Z</time></trkpt><trkpt lat="37.47378860291976" lon="14.436456130298447"><ele>445.5</ele><time>2026-04-06T08:43:15Z</time></trkpt><trkpt lat="37.47390548326357" lon="14.436420312891105"><ele>444.25</ele><time>2026-04-06T08:43:16Z</time></trkpt><trkpt lat="37.4740178382444" lon="14.436371321498426"><ele>443.0</ele><time>2026-04-06T08:43:17Z</time></trkpt><trkpt lat="37.47412206796529" lon="14.436346930147256"><ele>443.0</ele><time>2026-04-06T08:43:18Z</time></trkpt><trkpt lat="37.47420974297203" lon="14.43631799462343"><ele>443.0</ele><time>2026-04-06T08:43:19Z</time></trkpt><trkpt lat="37.47429878078474" lon="14.436274474311572"><ele>443.0</ele><time>2026-04-06T08:43:20Z</time></trkpt><trkpt lat="37.4744316016866" lon="14.43624743587723"><ele>443.0</ele><time>2026-04-06T08:43:21Z</time></trkpt><trkpt lat="37.47457600758663" lon="14.43619398951501"><ele>443.25</ele><time>2026-04-06T08:43:22Z</time></trkpt><trkpt lat="37.474712169359094" lon="14.43614851281937"><ele>443.5</ele><time>2026-04-06T08:43:23Z</time></trkpt><trkpt lat="37.47483516904476" lon="14.43609297697507"><ele>443.75</ele><time>2026-04-06T08:43:24Z</time></trkpt><trkpt lat="37.474957364830175" lon="14.43605083140593"><ele>444.0</ele><time>2026-04-06T08:43:25Z</time></trkpt><trkpt lat="37.475070719558296" lon="14.436032627025005"><ele>444.0</ele><time>2026-04-06T08:43:26Z</time></trkpt><trkpt lat="37.47516133746855" lon="14.436003133152235"><ele>444.0</ele><time>2026-04-06T08:43:27Z</time></trkpt><trkpt lat="37.47523805927833" lon="14.43598549688079"><ele>444.0</ele><time>2026-04-06T08:43:28Z</time></trkpt><trkpt lat="37.475304626838536" lon="14.435981613887934"><ele>444.0</ele><time>2026-04-06T08:43:29Z</time></trkpt><trkpt lat="37.475397278505426" lon="14.436012415324026"><ele>444.0</ele><time>2026-04-06T08:43:31Z</time></trkpt><trkpt lat="37.47548184963461" lon="14.436070331661963"><ele>444.0</ele><time>2026-04-06T08:43:34Z</time></trkpt><trkpt lat="37.47555488891143" lon="14.43611248186578"><ele>443.75</ele><time>2026-04-06T08:43:35Z</time></trkpt><trkpt lat="37.475646069117495" lon="14.436180428799585"><ele>443.5</ele><time>2026-04-06T08:43:36Z</time></trkpt><trkpt lat="37.47574296828741" lon="14.43626174418049"><ele>443.25</ele><time>2026-04-06T08:43:37Z</time></trkpt><trkpt lat="37.475848085022236" lon="14.436348890697092"><ele>443.0</ele><time>2026-04-06T08:43:38Z</time></trkpt><trkpt lat="37.47593105694629" lon="14.436442091842096"><ele>442.2</ele><time>2026-04-06T08:43:39Z</time></trkpt><trkpt lat="37.47601290756878" lon="14.436485618559793"><ele>441.4</ele><time>2026-04-06T08:43:40Z</time></trkpt><trkpt lat="37.47607052117079" lon="14.436555136342898"><ele>440.59999999999997</ele><time>2026-04-06T08:43:41Z</time></trkpt><trkpt lat="37.476195428936165" lon="14.436645755491107"><ele>439.79999999999995</ele><time>2026-04-06T08:43:43Z</time></trkpt><trkpt lat="37.476298465895724" lon="14.436714660681085"><ele>439.0</ele><time>2026-04-06T08:43:44Z</time></trkpt><trkpt lat="37.47641192995263" lon="14.436775428661784"><ele>439.0</ele><time>2026-04-06T08:43:45Z</time></trkpt><trkpt lat="37.47653552213443" lon="14.436817476809582"><ele>439.0</ele><time>2026-04-06T08:43:46Z</time></trkpt><trkpt lat="37.476643195244655" lon="14.43684856905012"><ele>439.0</ele><time>2026-04-06T08:43:47Z</time></trkpt><trkpt lat="37.47673338862859" lon="14.436882790167731"><ele>439.0</ele><time>2026-04-06T08:43:48Z</time></trkpt><trkpt lat="37.47682073269236" lon="14.436907701011412"><ele>439.0</ele><time>2026-04-06T08:43:49Z</time></trkpt><trkpt lat="37.476902340830044" lon="14.43693790362049"><ele>439.00000000000006</ele><time>2026-04-06T08:43:50Z</time></trkpt><trkpt lat="37.47698980121829" lon="14.436966396264276"><ele>439.0</ele><time>2026-04-06T08:43:52Z</time></trkpt><trkpt lat="37.477066863422564" lon="14.437000010135723"><ele>439.0</ele><time>2026-04-06T08:43:55Z</time></trkpt><trkpt lat="37.477165891171246" lon="14.437050531352916"><ele>439.0</ele><time>2026-04-06T08:43:57Z</time></trkpt><trkpt lat="37.477234996711466" lon="14.437111120577395"><ele>439.00000000000006</ele><time>2026-04-06T08:43:58Z</time></trkpt><trkpt lat="37.47729452289093" lon="14.43718606721957"><ele>439.0</ele><time>2026-04-06T08:43:59Z</time></trkpt><trkpt lat="37.47734343128435" lon="14.437286128512254"><ele>438.50000000000006</ele><time>2026-04-06T08:44:00Z</time></trkpt><trkpt lat="37.47738351723288" lon="14.43738754919717"><ele>438.0</ele><time>2026-04-06T08:44:01Z</time></trkpt><trkpt lat="37.477423192754074" lon="14.437505786479962"><ele>437.5</ele><time>2026-04-06T08:44:02Z</time></trkpt><trkpt lat="37.47745338076733" lon="14.437602096134096"><ele>437.0</ele><time>2026-04-06T08:44:03Z</time></trkpt><trkpt lat="37.47748016381153" lon="14.437686858531364"><ele>436.50000000000006</ele><time>2026-04-06T08:44:04Z</time></trkpt><trkpt lat="37.47752209454515" lon="14.43779798912409"><ele>436.0</ele><time>2026-04-06T08:44:05Z</time></trkpt><trkpt lat="37.477576674240105" lon="14.437930750565743"><ele>436.20000000000005</ele><time>2026-04-06T08:44:06Z</time></trkpt><trkpt lat="37.47762894222098" lon="14.438064731747373"><ele>436.40000000000003</ele><time>2026-04-06T08:44:07Z</time></trkpt><trkpt lat="37.477687079756656" lon="14.438178984433486"><ele>436.6</ele><time>2026-04-06T08:44:08Z</time></trkpt><trkpt lat="37.4777158109003" lon="14.438270048934946"><ele>436.8</ele><time>2026-04-06T08:44:09Z</time></trkpt><trkpt lat="37.47772661557281" lon="14.438381298129547"><ele>437.0</ele><time>2026-04-06T08:44:10Z</time></trkpt><trkpt lat="37.47773859556537" lon="14.438485060114083"><ele>437.0</ele><time>2026-04-06T08:44:11Z</time></trkpt><trkpt lat="37.47775604962628" lon="14.438657838606742"><ele>437.0</ele><time>2026-04-06T08:44:12Z</time></trkpt><trkpt lat="37.47776810139901" lon="14.438817852840362"><ele>437.0</ele><time>2026-04-06T08:44:13Z</time></trkpt><trkpt lat="37.47778200920472" lon="14.438968080312668"><ele>437.0</ele><time>2026-04-06T08:44:14Z</time></trkpt><trkpt lat="37.477798701688606" lon="14.439094650437937"><ele>437.0</ele><time>2026-04-06T08:44:15Z</time></trkpt><trkpt lat="37.477836966112385" lon="14.439216339232736"><ele>437.00000000000006</ele><time>2026-04-06T08:44:16Z</time></trkpt><trkpt lat="37.4778421301829" lon="14.439313827299838"><ele>437.00000000000006</ele><time>2026-04-06T08:44:17Z</time></trkpt><trkpt lat="37.477881880279284" lon="14.439415086698594"><ele>437.0</ele><time>2026-04-06T08:44:18Z</time></trkpt><trkpt lat="37.47791147891714" lon="14.439532162253876"><ele>437.0</ele><time>2026-04-06T08:44:19Z</time></trkpt><trkpt lat="37.47793207670863" lon="14.43964526962102"><ele>440.6</ele><time>2026-04-06T08:44:20Z</time></trkpt><trkpt lat="37.47794844481389" lon="14.439771949096778"><ele>444.20000000000005</ele><time>2026-04-06T08:44:21Z</time></trkpt><trkpt lat="37.477955088415094" lon="14.439878539073742"><ele>447.8</ele><time>2026-04-06T08:44:22Z</time></trkpt><trkpt lat="37.477960544648546" lon="14.440007517151"><ele>451.4</ele><time>2026-04-06T08:44:24Z</time></trkpt><trkpt lat="37.47796810316131" lon="14.440149322336335"><ele>455.0</ele><time>2026-04-06T08:44:26Z</time></trkpt><trkpt lat="37.478041486617876" lon="14.440264365940884"><ele>455.0</ele><time>2026-04-06T08:44:28Z</time></trkpt><trkpt lat="37.47809804653199" lon="14.440307610473152"><ele>455.0</ele><time>2026-04-06T08:44:29Z</time></trkpt><trkpt lat="37.47821481441031" lon="14.44033243527271"><ele>455.0</ele><time>2026-04-06T08:44:31Z</time></trkpt><trkpt lat="37.478284277616545" lon="14.440280534806794"><ele>455.0</ele><time>2026-04-06T08:44:32Z</time></trkpt><trkpt lat="37.478338257601266" lon="14.440175421360308"><ele>455.0</ele><time>2026-04-06T08:44:33Z</time></trkpt><trkpt lat="37.47839863866408" lon="14.440051577796735"><ele>455.0</ele><time>2026-04-06T08:44:34Z</time></trkpt><trkpt lat="37.47845789664251" lon="14.439901058674916"><ele>455.0</ele><time>2026-04-06T08:44:35Z</time></trkpt><trkpt lat="37.478541913811746" lon="14.439762588460557"><ele>455.0</ele><time>2026-04-06T08:44:36Z</time></trkpt><trkpt lat="37.47860781633823" lon="14.439641079644304"><ele>455.0</ele><time>2026-04-06T08:44:37Z</time></trkpt><trkpt lat="37.47867792349868" lon="14.43954066962817"><ele>454.66666666666663</ele><time>2026-04-06T08:44:38Z</time></trkpt><trkpt lat="37.4787498336277" lon="14.439440862729308"><ele>454.3333333333333</ele><time>2026-04-06T08:44:39Z</time></trkpt><trkpt lat="37.47881860902304" lon="14.439345895386927"><ele>454.0</ele><time>2026-04-06T08:44:40Z</time></trkpt><trkpt lat="37.47887986220317" lon="14.43926409320507"><ele>453.66666666666663</ele><time>2026-04-06T08:44:41Z</time></trkpt><trkpt lat="37.47892783290423" lon="14.439203329771669"><ele>453.3333333333333</ele><time>2026-04-06T08:44:42Z</time></trkpt><trkpt lat="37.4789817574699" lon="14.43913810184025"><ele>453.0</ele><time>2026-04-06T08:44:43Z</time></trkpt><trkpt lat="37.47905986265176" lon="14.43904302212597"><ele>455.2</ele><time>2026-04-06T08:44:44Z</time></trkpt><trkpt lat="37.4791445014781" lon="14.438935569132076"><ele>457.4</ele><time>2026-04-06T08:44:45Z</time></trkpt><trkpt lat="37.47921286510002" lon="14.438825216089057"><ele>459.59999999999997</ele><time>2026-04-06T08:44:46Z</time></trkpt><trkpt lat="37.47928144098483" lon="14.438761717879549"><ele>461.79999999999995</ele><time>2026-04-06T08:44:47Z</time></trkpt><trkpt lat="37.4793343298102" lon="14.438694572891778"><ele>464.0</ele><time>2026-04-06T08:44:48Z</time></trkpt><trkpt lat="37.479409732127365" lon="14.438603484170555"><ele>464.0</ele><time>2026-04-06T08:44:49Z</time></trkpt><trkpt lat="37.47946407256159" lon="14.438521477676993"><ele>464.0</ele><time>2026-04-06T08:44:50Z</time></trkpt><trkpt lat="37.479566242204484" lon="14.438431181915227"><ele>464.0</ele><time>2026-04-06T08:44:52Z</time></trkpt><trkpt lat="37.47964795760952" lon="14.438333239794721"><ele>464.0</ele><time>2026-04-06T08:44:53Z</time></trkpt><trkpt lat="37.479793606999294" lon="14.438274955648835"><ele>467.66666666666663</ele><time>2026-04-06T08:44:54Z</time></trkpt><trkpt lat="37.47994578793831" lon="14.43819065674606"><ele>471.33333333333337</ele><time>2026-04-06T08:44:55Z</time></trkpt><trkpt lat="37.480100593960366" lon="14.438086990773845"><ele>475.0</ele><time>2026-04-06T08:44:56Z</time></trkpt><trkpt lat="37.48027955982138" lon="14.437998928319972"><ele>473.33333333333337</ele><time>2026-04-06T08:44:57Z</time></trkpt><trkpt lat="37.480487477949616" lon="14.437908791115202"><ele>471.66666666666663</ele><time>2026-04-06T08:44:58Z</time></trkpt><trkpt lat="37.480673554686945" lon="14.43783953316401"><ele>470.0</ele><time>2026-04-06T08:44:59Z</time></trkpt><trkpt lat="37.48083866684066" lon="14.437786950251397"><ele>470.0</ele><time>2026-04-06T08:45:00Z</time></trkpt><trkpt lat="37.480983723522456" lon="14.437771661652224"><ele>470.0</ele><time>2026-04-06T08:45:01Z</time></trkpt><trkpt lat="37.48109668815005" lon="14.43777291439605"><ele>470.0</ele><time>2026-04-06T08:45:02Z</time></trkpt><trkpt lat="37.481211197160725" lon="14.437792735149776"><ele>470.0</ele><time>2026-04-06T08:45:03Z</time></trkpt><trkpt lat="37.48133387315403" lon="14.43780649879876"><ele>472.8</ele><time>2026-04-06T08:45:04Z</time></trkpt><trkpt lat="37.481434900996284" lon="14.437802876593155"><ele>475.6</ele><time>2026-04-06T08:45:05Z</time></trkpt><trkpt lat="37.48151519681973" lon="14.437778562333996"><ele>478.4</ele><time>2026-04-06T08:45:06Z</time></trkpt><trkpt lat="37.48159649095845" lon="14.437730459650332"><ele>481.2</ele><time>2026-04-06T08:45:07Z</time></trkpt><trkpt lat="37.481710266813856" lon="14.43765561386258"><ele>484.0</ele><time>2026-04-06T08:45:08Z</time></trkpt><trkpt lat="37.4818330653211" lon="14.437549642927989"><ele>484.0</ele><time>2026-04-06T08:45:09Z</time></trkpt><trkpt lat="37.48198949736234" lon="14.43744437763002"><ele>484.0</ele><time>2026-04-06T08:45:10Z</time></trkpt><trkpt lat="37.48215185921621" lon="14.437337297021376"><ele>484.0</ele><time>2026-04-06T08:45:11Z</time></trkpt><trkpt lat="37.48232414325447" lon="14.437225259934065"><ele>485.75</ele><time>2026-04-06T08:45:12Z</time></trkpt><trkpt lat="37.48246297539949" lon="14.437128986430706"><ele>487.5</ele><time>2026-04-06T08:45:13Z</time></trkpt><trkpt lat="37.48257812963472" lon="14.437053802343154"><ele>489.25</ele><time>2026-04-06T08:45:14Z</time></trkpt><trkpt lat="37.482684989023745" lon="14.43700490156329"><ele>491.0</ele><time>2026-04-06T08:45:15Z</time></trkpt><trkpt lat="37.482824876094206" lon="14.437000499860455"><ele>492.75</ele><time>2026-04-06T08:45:16Z</time></trkpt><trkpt lat="37.4829684137973" lon="14.436990659215907"><ele>494.5</ele><time>2026-04-06T08:45:17Z</time></trkpt><trkpt lat="37.48312316420072" lon="14.436986220906558"><ele>496.25</ele><time>2026-04-06T08:45:18Z</time></trkpt><trkpt lat="37.48326124949083" lon="14.436982907135748"><ele>498.0</ele><time>2026-04-06T08:45:19Z</time></trkpt><trkpt lat="37.48335526630468" lon="14.436980650925674"><ele>498.0</ele><time>2026-04-06T08:45:20Z</time></trkpt><trkpt lat="37.48344791030036" lon="14.436989095794033"><ele>497.99999999999994</ele><time>2026-04-06T08:45:22Z</time></trkpt><trkpt lat="37.483527087238734" lon="14.43701699169105"><ele>497.99999999999994</ele><time>2026-04-06T08:45:41Z</time></trkpt><trkpt lat="37.48359532619029" lon="14.437041074914715"><ele>498.0</ele><time>2026-04-06T08:45:43Z</time></trkpt><trkpt lat="37.483699729788064" lon="14.437149542483645"><ele>498.0</ele><time>2026-04-06T08:45:46Z</time></trkpt><trkpt lat="37.483742724599715" lon="14.437222403942286"><ele>500.4</ele><time>2026-04-06T08:45:47Z</time></trkpt><trkpt lat="37.48377729304834" lon="14.437309677234008"><ele>502.79999999999995</ele><time>2026-04-06T08:45:48Z</time></trkpt><trkpt lat="37.483847440173285" lon="14.43741448328036"><ele>505.2</ele><time>2026-04-06T08:45:49Z</time></trkpt><trkpt lat="37.48391714979796" lon="14.437511128453886"><ele>507.6</ele><time>2026-04-06T08:45:50Z</time></trkpt><trkpt lat="37.48399476165459" lon="14.437615601173626"><ele>510.0</ele><time>2026-04-06T08:45:51Z</time></trkpt><trkpt lat="37.484075743875955" lon="14.437717741873744"><ele>527.0</ele><time>2026-04-06T08:45:52Z</time></trkpt><trkpt lat="37.48463694778892" lon="14.437406844788773"><ele>527.0</ele><time>2026-04-06T08:45:53Z</time></trkpt><trkpt lat="37.48478776292633" lon="14.437471164236024"><ele>527.0</ele><time>2026-04-06T08:45:54Z</time></trkpt><trkpt lat="37.48492724755235" lon="14.437526155262304"><ele>527.0</ele><time>2026-04-06T08:45:55Z</time></trkpt><trkpt lat="37.48506245421822" lon="14.437583118019171"><ele>527.0</ele><time>2026-04-06T08:45:56Z</time></trkpt><trkpt lat="37.48520472927997" lon="14.437644172886358"><ele>527.0</ele><time>2026-04-06T08:45:57Z</time></trkpt><trkpt lat="37.48532383108813" lon="14.437683948497451"><ele>527.0</ele><time>2026-04-06T08:45:58Z</time></trkpt><trkpt lat="37.48541584915721" lon="14.43772450525495"><ele>527.0</ele><time>2026-04-06T08:45:59Z</time></trkpt><trkpt lat="37.48550179134197" lon="14.437747997757066"><ele>527.0</ele><time>2026-04-06T08:46:00Z</time></trkpt><trkpt lat="37.485589026484206" lon="14.437760425226296"><ele>527.0</ele><time>2026-04-06T08:46:01Z</time></trkpt><trkpt lat="37.485657307911374" lon="14.437760639074634"><ele>528.4</ele><time>2026-04-06T08:46:02Z</time></trkpt><trkpt lat="37.48572710467488" lon="14.437752651592483"><ele>529.8000000000001</ele><time>2026-04-06T08:46:03Z</time></trkpt><trkpt lat="37.48586275242633" lon="14.437717535605382"><ele>531.2</ele><time>2026-04-06T08:46:05Z</time></trkpt><trkpt lat="37.48593398370143" lon="14.437689663073511"><ele>532.6</ele><time>2026-04-06T08:46:06Z</time></trkpt><trkpt lat="37.48599477992546" lon="14.437667411659692"><ele>534.0</ele><time>2026-04-06T08:46:07Z</time></trkpt><trkpt lat="37.486113931538576" lon="14.43761241356935"><ele>534.0</ele><time>2026-04-06T08:46:09Z</time></trkpt><trkpt lat="37.48617612545313" lon="14.437582878771074"><ele>534.0</ele><time>2026-04-06T08:46:10Z</time></trkpt><trkpt lat="37.486238171481446" lon="14.437553977098224"><ele>534.0</ele><time>2026-04-06T08:46:11Z</time></trkpt><trkpt lat="37.48632726854448" lon="14.43750501540939"><ele>534.0</ele><time>2026-04-06T08:46:13Z</time></trkpt><trkpt lat="37.486405792586766" lon="14.437478264851366"><ele>534.0</ele><time>2026-04-06T08:46:15Z</time></trkpt><trkpt lat="37.48649405584324" lon="14.43743982162414"><ele>534.0</ele><time>2026-04-06T08:46:17Z</time></trkpt><trkpt lat="37.48657119336692" lon="14.437382591502423"><ele>534.4</ele><time>2026-04-06T08:46:19Z</time></trkpt><trkpt lat="37.48665055785176" lon="14.437308417277121"><ele>534.8</ele><time>2026-04-06T08:46:21Z</time></trkpt><trkpt lat="37.486782258377886" lon="14.437251507978694"><ele>535.2</ele><time>2026-04-06T08:46:23Z</time></trkpt><trkpt lat="37.486870503387244" lon="14.437205889494475"><ele>535.6</ele><time>2026-04-06T08:46:24Z</time></trkpt><trkpt lat="37.4869562490648" lon="14.437161099166238"><ele>536.0</ele><time>2026-04-06T08:46:25Z</time></trkpt><trkpt lat="37.48703541668058" lon="14.437120321069315"><ele>536.5</ele><time>2026-04-06T08:46:26Z</time></trkpt><trkpt lat="37.4871142711904" lon="14.437078099742902"><ele>537.0</ele><time>2026-04-06T08:46:27Z</time></trkpt><trkpt lat="37.487227201172615" lon="14.437019375682615"><ele>537.5</ele><time>2026-04-06T08:46:28Z</time></trkpt><trkpt lat="37.48735506383725" lon="14.436954626746358"><ele>538.0</ele><time>2026-04-06T08:46:29Z</time></trkpt><trkpt lat="37.48747747812102" lon="14.43689265826801"><ele>538.0</ele><time>2026-04-06T08:46:30Z</time></trkpt><trkpt lat="37.487592795110444" lon="14.436835456880967"><ele>538.0</ele><time>2026-04-06T08:46:31Z</time></trkpt><trkpt lat="37.4876795002834" lon="14.4367901904984"><ele>538.0</ele><time>2026-04-06T08:46:32Z</time></trkpt><trkpt lat="37.48776894895486" lon="14.43674454261737"><ele>538.0</ele><time>2026-04-06T08:46:33Z</time></trkpt><trkpt lat="37.48788001629646" lon="14.436688951997247"><ele>538.0</ele><time>2026-04-06T08:46:34Z</time></trkpt><trkpt lat="37.488007217436795" lon="14.436623665710037"><ele>539.5</ele><time>2026-04-06T08:46:35Z</time></trkpt><trkpt lat="37.48812621890744" lon="14.43656245952208"><ele>541.0</ele><time>2026-04-06T08:46:36Z</time></trkpt><trkpt lat="37.488239007531234" lon="14.436505674896964"><ele>542.5</ele><time>2026-04-06T08:46:37Z</time></trkpt><trkpt lat="37.48834711277807" lon="14.436445738506436"><ele>544.0</ele><time>2026-04-06T08:46:38Z</time></trkpt><trkpt lat="37.48844522758557" lon="14.436390969177957"><ele>544.0</ele><time>2026-04-06T08:46:39Z</time></trkpt><trkpt lat="37.48854217337206" lon="14.436336324899573"><ele>544.0</ele><time>2026-04-06T08:46:40Z</time></trkpt><trkpt lat="37.48863330352711" lon="14.436285827172384"><ele>544.0</ele><time>2026-04-06T08:46:41Z</time></trkpt><trkpt lat="37.488725893563696" lon="14.43623666420957"><ele>544.0</ele><time>2026-04-06T08:46:42Z</time></trkpt><trkpt lat="37.48882523453231" lon="14.436180288868993"><ele>544.0</ele><time>2026-04-06T08:46:43Z</time></trkpt><trkpt lat="37.488925106294744" lon="14.43612444054963"><ele>545.4</ele><time>2026-04-06T08:46:44Z</time></trkpt><trkpt lat="37.489020761650096" lon="14.436069542079645"><ele>546.8</ele><time>2026-04-06T08:46:45Z</time></trkpt><trkpt lat="37.48910443726956" lon="14.436020178737051"><ele>548.2</ele><time>2026-04-06T08:46:46Z</time></trkpt><trkpt lat="37.48916659110119" lon="14.435979404303874"><ele>549.6</ele><time>2026-04-06T08:46:47Z</time></trkpt><trkpt lat="37.489228466586134" lon="14.435930497855026"><ele>551.0</ele><time>2026-04-06T08:46:48Z</time></trkpt><trkpt lat="37.48930799080344" lon="14.43582730984269"><ele>551.0</ele><time>2026-04-06T08:46:50Z</time></trkpt><trkpt lat="37.48936007670508" lon="14.435737299879504"><ele>551.0</ele><time>2026-04-06T08:46:52Z</time></trkpt><trkpt lat="37.48939163627414" lon="14.435659019573492"><ele>551.0</ele><time>2026-04-06T08:46:54Z</time></trkpt><trkpt lat="37.489457276160586" lon="14.435619322159104"><ele>551.0</ele><time>2026-04-06T08:46:56Z</time></trkpt><trkpt lat="37.48956904296488" lon="14.435611660065122"><ele>551.0</ele><time>2026-04-06T08:46:58Z</time></trkpt><trkpt lat="37.48963804162835" lon="14.435607850396554"><ele>551.0</ele><time>2026-04-06T08:46:59Z</time></trkpt><trkpt lat="37.489712795651634" lon="14.435597995338542"><ele>552.2</ele><time>2026-04-06T08:47:00Z</time></trkpt><trkpt lat="37.48980737347284" lon="14.435580887818226"><ele>553.4000000000001</ele><time>2026-04-06T08:47:01Z</time></trkpt><trkpt lat="37.489883865747316" lon="14.435567359420855"><ele>554.6</ele><time>2026-04-06T08:47:02Z</time></trkpt><trkpt lat="37.489998081081715" lon="14.435548138227167"><ele>555.8000000000001</ele><time>2026-04-06T08:47:04Z</time></trkpt><trkpt lat="37.49008731889306" lon="14.435530735804385"><ele>557.0</ele><time>2026-04-06T08:47:05Z</time></trkpt><trkpt lat="37.49016379817612" lon="14.435512550662358"><ele>557.0</ele><time>2026-04-06T08:47:06Z</time></trkpt><trkpt lat="37.49025006326422" lon="14.435492891594231"><ele>557.0</ele><time>2026-04-06T08:47:07Z</time></trkpt><trkpt lat="37.490319759249644" lon="14.43547846004745"><ele>557.0</ele><time>2026-04-06T08:47:08Z</time></trkpt><trkpt lat="37.49039553454611" lon="14.435461630876945"><ele>557.0</ele><time>2026-04-06T08:47:09Z</time></trkpt><trkpt lat="37.490463447897646" lon="14.435443056227603"><ele>557.0</ele><time>2026-04-06T08:47:10Z</time></trkpt><trkpt lat="37.49057630177838" lon="14.435444205872447"><ele>557.0</ele><time>2026-04-06T08:47:12Z</time></trkpt><trkpt lat="37.49065879072094" lon="14.43546247367202"><ele>556.6666666666666</ele><time>2026-04-06T08:47:14Z</time></trkpt><trkpt lat="37.49071532049309" lon="14.43550098693969"><ele>556.3333333333333</ele><time>2026-04-06T08:47:21Z</time></trkpt><trkpt lat="37.49066158463588" lon="14.435605388262704"><ele>556.0</ele><time>2026-04-06T08:47:23Z</time></trkpt><trkpt lat="37.49060022374754" lon="14.435675709802943"><ele>555.6666666666666</ele><time>2026-04-06T08:47:24Z</time></trkpt><trkpt lat="37.49056279192019" lon="14.435751465363362"><ele>555.3333333333334</ele><time>2026-04-06T08:47:25Z</time></trkpt><trkpt lat="37.49052555594854" lon="14.435845408715446"><ele>555.0</ele><time>2026-04-06T08:47:26Z</time></trkpt><trkpt lat="37.4904789053735" lon="14.435955911385584"><ele>555.0</ele><time>2026-04-06T08:47:27Z</time></trkpt><trkpt lat="37.49043724328026" lon="14.436052774531317"><ele>555.0</ele><time>2026-04-06T08:47:28Z</time></trkpt><trkpt lat="37.49037972026728" lon="14.436102534169613"><ele>555.0</ele><time>2026-04-06T08:47:29Z</time></trkpt><trkpt lat="37.49032761113399" lon="14.436193455256584"><ele>555.0</ele><time>2026-04-06T08:47:30Z</time></trkpt><trkpt lat="37.490260517315136" lon="14.436267386298232"><ele>555.0</ele><time>2026-04-06T08:47:31Z</time></trkpt><trkpt lat="37.49019586945949" lon="14.436335898392622"><ele>555.0</ele><time>2026-04-06T08:47:32Z</time></trkpt><trkpt lat="37.49012230640499" lon="14.436410752940015"><ele>554.0</ele><time>2026-04-06T08:47:33Z</time></trkpt><trkpt lat="37.49004225522967" lon="14.436491067173545"><ele>553.0</ele><time>2026-04-06T08:47:34Z</time></trkpt><trkpt lat="37.48995829937835" lon="14.436570884592154"><ele>552.0</ele><time>2026-04-06T08:47:35Z</time></trkpt><trkpt lat="37.489868728646194" lon="14.436644675298842"><ele>551.0</ele><time>2026-04-06T08:47:36Z</time></trkpt><trkpt lat="37.48977688398564" lon="14.436708769955962"><ele>550.0</ele><time>2026-04-06T08:47:37Z</time></trkpt><trkpt lat="37.48968180526154" lon="14.436769421579704"><ele>549.8</ele><time>2026-04-06T08:47:38Z</time></trkpt><trkpt lat="37.48958613562367" lon="14.436812615324381"><ele>549.6</ele><time>2026-04-06T08:47:39Z</time></trkpt><trkpt lat="37.48947800753689" lon="14.436845892894642"><ele>549.4</ele><time>2026-04-06T08:47:40Z</time></trkpt><trkpt lat="37.489369905766914" lon="14.436844652218076"><ele>549.2</ele><time>2026-04-06T08:47:41Z</time></trkpt><trkpt lat="37.489273544475346" lon="14.436875531994383"><ele>549.0</ele><time>2026-04-06T08:47:42Z</time></trkpt><trkpt lat="37.48917023271998" lon="14.436884925259427"><ele>549.0</ele><time>2026-04-06T08:47:43Z</time></trkpt><trkpt lat="37.48905818613375" lon="14.436907831490599"><ele>549.0</ele><time>2026-04-06T08:47:44Z</time></trkpt><trkpt lat="37.488944991388095" lon="14.436927400744128"><ele>549.0</ele><time>2026-04-06T08:47:45Z</time></trkpt><trkpt lat="37.48882456027924" lon="14.436945732051171"><ele>549.0</ele><time>2026-04-06T08:47:46Z</time></trkpt><trkpt lat="37.48869934889622" lon="14.436967893287429"><ele>547.75</ele><time>2026-04-06T08:47:47Z</time></trkpt><trkpt lat="37.488573313353946" lon="14.436990849165626"><ele>546.5</ele><time>2026-04-06T08:47:48Z</time></trkpt><trkpt lat="37.48845069486837" lon="14.43701343932762"><ele>545.25</ele><time>2026-04-06T08:47:49Z</time></trkpt><trkpt lat="37.48832526327542" lon="14.437048577286488"><ele>544.0</ele><time>2026-04-06T08:47:50Z</time></trkpt><trkpt lat="37.48820322276597" lon="14.437108719223927"><ele>541.6666666666667</ele><time>2026-04-06T08:47:51Z</time></trkpt><trkpt lat="37.4880625204584" lon="14.437205394543644"><ele>539.3333333333334</ele><time>2026-04-06T08:47:52Z</time></trkpt><trkpt lat="37.487903363642346" lon="14.437311516293168"><ele>537.0</ele><time>2026-04-06T08:47:53Z</time></trkpt><trkpt lat="37.4877512625494" lon="14.437390394869745"><ele>537.0</ele><time>2026-04-06T08:47:54Z</time></trkpt><trkpt lat="37.48761616800436" lon="14.437492695019378"><ele>537.0</ele><time>2026-04-06T08:47:55Z</time></trkpt><trkpt lat="37.487473371495035" lon="14.437562834437239"><ele>537.0</ele><time>2026-04-06T08:47:56Z</time></trkpt><trkpt lat="37.48735165886129" lon="14.43765877374"><ele>537.0</ele><time>2026-04-06T08:47:57Z</time></trkpt><trkpt lat="37.48722227661235" lon="14.43773006570815"><ele>537.0</ele><time>2026-04-06T08:47:58Z</time></trkpt><trkpt lat="37.48709807656274" lon="14.437805699581274"><ele>537.0</ele><time>2026-04-06T08:47:59Z</time></trkpt><trkpt lat="37.48698440559032" lon="14.43789810801682"><ele>537.0</ele><time>2026-04-06T08:48:00Z</time></trkpt><trkpt lat="37.48687786809724" lon="14.438009020558518"><ele>535.5</ele><time>2026-04-06T08:48:01Z</time></trkpt><trkpt lat="37.48677991711696" lon="14.438124995838688"><ele>534.0</ele><time>2026-04-06T08:48:02Z</time></trkpt><trkpt lat="37.486687062459666" lon="14.438213121975828"><ele>532.5</ele><time>2026-04-06T08:48:03Z</time></trkpt><trkpt lat="37.486615017951785" lon="14.438307683952925"><ele>531.0</ele><time>2026-04-06T08:48:04Z</time></trkpt><trkpt lat="37.48655808152688" lon="14.438410798472267"><ele>531.0</ele><time>2026-04-06T08:48:05Z</time></trkpt><trkpt lat="37.48649487978711" lon="14.438490848998073"><ele>531.0</ele><time>2026-04-06T08:48:06Z</time></trkpt><trkpt lat="37.48643517411535" lon="14.438568648297286"><ele>531.0</ele><time>2026-04-06T08:48:07Z</time></trkpt><trkpt lat="37.48637118788462" lon="14.438680592524317"><ele>531.0</ele><time>2026-04-06T08:48:09Z</time></trkpt><trkpt lat="37.48627744323894" lon="14.438785489452883"><ele>531.0</ele><time>2026-04-06T08:48:11Z</time></trkpt><trkpt lat="37.48620727442177" lon="14.438876802728874"><ele>529.75</ele><time>2026-04-06T08:48:12Z</time></trkpt><trkpt lat="37.48613819381723" lon="14.438971046630042"><ele>528.5</ele><time>2026-04-06T08:48:13Z</time></trkpt><trkpt lat="37.48604052458908" lon="14.439048965165107"><ele>527.25</ele><time>2026-04-06T08:48:15Z</time></trkpt><trkpt lat="37.48590908565306" lon="14.43919277049267"><ele>526.0</ele><time>2026-04-06T08:48:16Z</time></trkpt><trkpt lat="37.48577602699836" lon="14.439289390104285"><ele>526.0</ele><time>2026-04-06T08:48:17Z</time></trkpt><trkpt lat="37.485676616210185" lon="14.439367060048376"><ele>526.0</ele><time>2026-04-06T08:48:18Z</time></trkpt><trkpt lat="37.48558065121912" lon="14.439427003403082"><ele>526.0</ele><time>2026-04-06T08:48:19Z</time></trkpt><trkpt lat="37.48547631330531" lon="14.439501305254245"><ele>526.0</ele><time>2026-04-06T08:48:20Z</time></trkpt><trkpt lat="37.48535019987581" lon="14.439594353450646"><ele>524.4</ele><time>2026-04-06T08:48:21Z</time></trkpt><trkpt lat="37.485242227915464" lon="14.43967377909873"><ele>522.8</ele><time>2026-04-06T08:48:22Z</time></trkpt><trkpt lat="37.48514731696063" lon="14.43973488322689"><ele>521.1999999999999</ele><time>2026-04-06T08:48:23Z</time></trkpt><trkpt lat="37.48505452508765" lon="14.439785024975965"><ele>519.6</ele><time>2026-04-06T08:48:24Z</time></trkpt><trkpt lat="37.484952028895215" lon="14.439813059694915"><ele>518.0</ele><time>2026-04-06T08:48:25Z</time></trkpt><trkpt lat="37.48485521425829" lon="14.4398295732086"><ele>518.0</ele><time>2026-04-06T08:48:26Z</time></trkpt><trkpt lat="37.484766896038764" lon="14.439862348362242"><ele>518.0</ele><time>2026-04-06T08:48:27Z</time></trkpt><trkpt lat="37.48468469611089" lon="14.439884026254157"><ele>518.0</ele><time>2026-04-06T08:48:28Z</time></trkpt><trkpt lat="37.48461204348192" lon="14.439898521069505"><ele>518.0</ele><time>2026-04-06T08:48:29Z</time></trkpt><trkpt lat="37.4845641040475" lon="14.439950366267283"><ele>518.0</ele><time>2026-04-06T08:48:30Z</time></trkpt><trkpt lat="37.48455844293681" lon="14.44005299759243"><ele>518.0</ele><time>2026-04-06T08:48:31Z</time></trkpt><trkpt lat="37.48458419406593" lon="14.440139826989117"><ele>518.0</ele><time>2026-04-06T08:48:32Z</time></trkpt><trkpt lat="37.48464209977627" lon="14.44022330054678"><ele>518.0</ele><time>2026-04-06T08:48:33Z</time></trkpt><trkpt lat="37.484752929863454" lon="14.440222233358115"><ele>518.0</ele><time>2026-04-06T08:48:34Z</time></trkpt><trkpt lat="37.484834418568944" lon="14.440214080902926"><ele>518.0</ele><time>2026-04-06T08:48:35Z</time></trkpt><trkpt lat="37.48492878974074" lon="14.440218931037712"><ele>518.0</ele><time>2026-04-06T08:48:36Z</time></trkpt><trkpt lat="37.485015126400725" lon="14.440198097161142"><ele>518.0</ele><time>2026-04-06T08:48:37Z</time></trkpt><trkpt lat="37.48507677718252" lon="14.440181263489448"><ele>518.0</ele><time>2026-04-06T08:48:38Z</time></trkpt><trkpt lat="37.48518094525126" lon="14.440152017080706"><ele>518.0</ele><time>2026-04-06T08:48:40Z</time></trkpt><trkpt lat="37.48533284575229" lon="14.44010901198379"><ele>518.0</ele><time>2026-04-06T08:48:42Z</time></trkpt><trkpt lat="37.485454747880524" lon="14.440093007155479"><ele>518.0</ele><time>2026-04-06T08:48:43Z</time></trkpt><trkpt lat="37.48560811598744" lon="14.440106842220858"><ele>517.0</ele><time>2026-04-06T08:48:44Z</time></trkpt><trkpt lat="37.4857074705752" lon="14.440137614347226"><ele>516.0</ele><time>2026-04-06T08:48:45Z</time></trkpt><trkpt lat="37.48586659453661" lon="14.440175763133617"><ele>515.0</ele><time>2026-04-06T08:48:46Z</time></trkpt><trkpt lat="37.48602627968262" lon="14.440204859419817"><ele>514.0</ele><time>2026-04-06T08:48:47Z</time></trkpt><trkpt lat="37.48617788977262" lon="14.440227364522858"><ele>513.5</ele><time>2026-04-06T08:48:48Z</time></trkpt><trkpt lat="37.48632420613613" lon="14.440238115692505"><ele>513.0</ele><time>2026-04-06T08:48:49Z</time></trkpt><trkpt lat="37.48645242115029" lon="14.440234986925976"><ele>512.5</ele><time>2026-04-06T08:48:50Z</time></trkpt><trkpt lat="37.48658483930681" lon="14.440222247224392"><ele>512.0</ele><time>2026-04-06T08:48:51Z</time></trkpt><trkpt lat="37.486717996244415" lon="14.440204179988932"><ele>512.0</ele><time>2026-04-06T08:48:52Z</time></trkpt><trkpt lat="37.486878466372225" lon="14.440173395416556"><ele>512.0</ele><time>2026-04-06T08:48:53Z</time></trkpt><trkpt lat="37.48703105914375" lon="14.440142290268644"><ele>512.0</ele><time>2026-04-06T08:48:54Z</time></trkpt><trkpt lat="37.487179929335504" lon="14.440112116721785"><ele>511.0</ele><time>2026-04-06T08:48:55Z</time></trkpt><trkpt lat="37.487314139760315" lon="14.440105315707472"><ele>510.00000000000006</ele><time>2026-04-06T08:48:56Z</time></trkpt><trkpt lat="37.48742108720382" lon="14.440115602038738"><ele>509.00000000000006</ele><time>2026-04-06T08:48:57Z</time></trkpt><trkpt lat="37.48752407690678" lon="14.440130405479662"><ele>508.0</ele><time>2026-04-06T08:48:58Z</time></trkpt><trkpt lat="37.48761122147563" lon="14.440143076162622"><ele>507.0</ele><time>2026-04-06T08:48:59Z</time></trkpt><trkpt lat="37.487735916391294" lon="14.440159449391443"><ele>507.0</ele><time>2026-04-06T08:49:00Z</time></trkpt><trkpt lat="37.48786632341167" lon="14.440173114447141"><ele>507.0</ele><time>2026-04-06T08:49:01Z</time></trkpt><trkpt lat="37.48800947962622" lon="14.440188115455221"><ele>507.0</ele><time>2026-04-06T08:49:02Z</time></trkpt><trkpt lat="37.48816559109224" lon="14.440217262236201"><ele>507.0</ele><time>2026-04-06T08:49:03Z</time></trkpt><trkpt lat="37.488282646906356" lon="14.440263711128429"><ele>506.6666666666667</ele><time>2026-04-06T08:49:04Z</time></trkpt><trkpt lat="37.48835846128152" lon="14.440313513152873"><ele>506.33333333333337</ele><time>2026-04-06T08:49:05Z</time></trkpt><trkpt lat="37.48841559860797" lon="14.440352738525519"><ele>506.0</ele><time>2026-04-06T08:49:06Z</time></trkpt><trkpt lat="37.48833315861664" lon="14.440487109316564"><ele>505.6666666666667</ele><time>2026-04-06T08:49:13Z</time></trkpt><trkpt lat="37.488272932997255" lon="14.440521519774807"><ele>505.33333333333337</ele><time>2026-04-06T08:49:14Z</time></trkpt><trkpt lat="37.48820969607487" lon="14.440526024938073"><ele>505.0</ele><time>2026-04-06T08:49:19Z</time></trkpt><trkpt lat="37.488109699680514" lon="14.440614518264315"><ele>503.8</ele><time>2026-04-06T08:49:23Z</time></trkpt><trkpt lat="37.48802109389101" lon="14.440672761042835"><ele>502.6</ele><time>2026-04-06T08:49:24Z</time></trkpt><trkpt lat="37.48795013635029" lon="14.4407372823135"><ele>501.4</ele><time>2026-04-06T08:49:25Z</time></trkpt><trkpt lat="37.487893895580434" lon="14.44081790705109"><ele>500.2</ele><time>2026-04-06T08:49:26Z</time></trkpt><trkpt lat="37.48782034702872" lon="14.440909610004093"><ele>499.0</ele><time>2026-04-06T08:49:27Z</time></trkpt><trkpt lat="37.48775416937585" lon="14.441001444880573"><ele>499.0</ele><time>2026-04-06T08:49:28Z</time></trkpt><trkpt lat="37.487685038357355" lon="14.441110805329108"><ele>499.0</ele><time>2026-04-06T08:49:29Z</time></trkpt><trkpt lat="37.48763334778027" lon="14.441207571366128"><ele>499.0</ele><time>2026-04-06T08:49:30Z</time></trkpt><trkpt lat="37.4875732904007" lon="14.441299974304279"><ele>499.0</ele><time>2026-04-06T08:49:31Z</time></trkpt><trkpt lat="37.487494268270694" lon="14.441425601003463"><ele>499.0</ele><time>2026-04-06T08:49:33Z</time></trkpt><trkpt lat="37.48741798451743" lon="14.441529756980533"><ele>497.79999999999995</ele><time>2026-04-06T08:49:34Z</time></trkpt><trkpt lat="37.4873363654242" lon="14.44159995344722"><ele>496.59999999999997</ele><time>2026-04-06T08:49:35Z</time></trkpt><trkpt lat="37.48726112099827" lon="14.441675595350105"><ele>495.4</ele><time>2026-04-06T08:49:36Z</time></trkpt><trkpt lat="37.48716588092012" lon="14.441768389709015"><ele>494.2</ele><time>2026-04-06T08:49:37Z</time></trkpt><trkpt lat="37.48709346185806" lon="14.441838390806325"><ele>493.0</ele><time>2026-04-06T08:49:38Z</time></trkpt><trkpt lat="37.48703289698263" lon="14.441925634858604"><ele>493.0</ele><time>2026-04-06T08:49:39Z</time></trkpt><trkpt lat="37.48696079708861" lon="14.442005946426438"><ele>492.99999999999994</ele><time>2026-04-06T08:49:40Z</time></trkpt><trkpt lat="37.486900459628735" lon="14.442117823891643"><ele>492.99999999999994</ele><time>2026-04-06T08:49:41Z</time></trkpt><trkpt lat="37.486827340692386" lon="14.442223345360379"><ele>493.0</ele><time>2026-04-06T08:49:42Z</time></trkpt><trkpt lat="37.48676432596072" lon="14.442289138762767"><ele>493.0</ele><time>2026-04-06T08:49:43Z</time></trkpt><trkpt lat="37.48670465479565" lon="14.44236253360679"><ele>490.59999999999997</ele><time>2026-04-06T08:49:44Z</time></trkpt><trkpt lat="37.48660196164222" lon="14.442452932439759"><ele>488.19999999999993</ele><time>2026-04-06T08:49:46Z</time></trkpt><trkpt lat="37.486545876429716" lon="14.44250230039882"><ele>485.8</ele><time>2026-04-06T08:49:47Z</time></trkpt><trkpt lat="37.48643959141681" lon="14.442509523522885"><ele>483.4</ele><time>2026-04-06T08:49:49Z</time></trkpt><trkpt lat="37.486370347818045" lon="14.442525572399756"><ele>481.0</ele><time>2026-04-06T08:49:50Z</time></trkpt><trkpt lat="37.48624974820039" lon="14.442564771595311"><ele>481.0</ele><time>2026-04-06T08:49:52Z</time></trkpt><trkpt lat="37.486128928172924" lon="14.442591076371663"><ele>481.0</ele><time>2026-04-06T08:49:54Z</time></trkpt><trkpt lat="37.48597977266637" lon="14.442606245517704"><ele>481.0</ele><time>2026-04-06T08:49:56Z</time></trkpt><trkpt lat="37.48586640227129" lon="14.442576891835643"><ele>481.0</ele><time>2026-04-06T08:49:57Z</time></trkpt><trkpt lat="37.48576104204579" lon="14.442596841827514"><ele>481.0</ele><time>2026-04-06T08:49:59Z</time></trkpt><trkpt lat="37.48570301303976" lon="14.442636582114888"><ele>481.0</ele><time>2026-04-06T08:50:00Z</time></trkpt><trkpt lat="37.48565491233496" lon="14.442757891286934"><ele>481.0</ele><time>2026-04-06T08:50:02Z</time></trkpt><trkpt lat="37.485627956761306" lon="14.442843762342386"><ele>481.0</ele><time>2026-04-06T08:50:03Z</time></trkpt><trkpt lat="37.485583245704774" lon="14.4429685970723"><ele>481.0</ele><time>2026-04-06T08:50:04Z</time></trkpt><trkpt lat="37.48552145909331" lon="14.443081212906431"><ele>481.20000000000005</ele><time>2026-04-06T08:50:05Z</time></trkpt><trkpt lat="37.48546269368137" lon="14.443197798168264"><ele>481.40000000000003</ele><time>2026-04-06T08:50:06Z</time></trkpt><trkpt lat="37.485418145678544" lon="14.443327144475766"><ele>481.6</ele><time>2026-04-06T08:50:07Z</time></trkpt><trkpt lat="37.48536630372639" lon="14.443420035516791"><ele>481.8</ele><time>2026-04-06T08:50:08Z</time></trkpt><trkpt lat="37.48532630924668" lon="14.443519038484713"><ele>482.0</ele><time>2026-04-06T08:50:09Z</time></trkpt><trkpt lat="37.48531178288" lon="14.44361857333759"><ele>482.0</ele><time>2026-04-06T08:50:10Z</time></trkpt><trkpt lat="37.48529295530968" lon="14.443740861989456"><ele>482.00000000000006</ele><time>2026-04-06T08:50:11Z</time></trkpt><trkpt lat="37.48526869267549" lon="14.443877848455976"><ele>482.00000000000006</ele><time>2026-04-06T08:50:12Z</time></trkpt><trkpt lat="37.48524395165006" lon="14.444044978640441"><ele>482.0</ele><time>2026-04-06T08:50:14Z</time></trkpt><trkpt lat="37.48522131327548" lon="14.444124585419283"><ele>482.0</ele><time>2026-04-06T08:50:15Z</time></trkpt><trkpt lat="37.4852021669424" lon="14.444259185676627"><ele>479.8</ele><time>2026-04-06T08:50:17Z</time></trkpt><trkpt lat="37.48516593901421" lon="14.444359748537332"><ele>477.6</ele><time>2026-04-06T08:50:19Z</time></trkpt><trkpt lat="37.48511223823179" lon="14.444444171961923"><ele>475.40000000000003</ele><time>2026-04-06T08:50:22Z</time></trkpt><trkpt lat="37.4849908143528" lon="14.444405134909578"><ele>473.20000000000005</ele><time>2026-04-06T08:50:23Z</time></trkpt><trkpt lat="37.48489880050847" lon="14.444442207650704"><ele>471.0</ele><time>2026-04-06T08:50:26Z</time></trkpt><trkpt lat="37.48479443163965" lon="14.444377770196947"><ele>471.0</ele><time>2026-04-06T08:50:28Z</time></trkpt><trkpt lat="37.484753677527415" lon="14.44427984325255"><ele>471.0</ele><time>2026-04-06T08:50:31Z</time></trkpt><trkpt lat="37.48469824369793" lon="14.444373645625893"><ele>471.0</ele><time>2026-04-06T08:50:32Z</time></trkpt><trkpt lat="37.48462837914693" lon="14.444394271595735"><ele>471.0</ele><time>2026-04-06T08:50:34Z</time></trkpt><trkpt lat="37.48452389530987" lon="14.444388246006994"><ele>471.0</ele><time>2026-04-06T08:50:36Z</time></trkpt><trkpt lat="37.48446289608666" lon="14.444185958320645"><ele>470.6666666666667</ele><time>2026-04-06T08:50:38Z</time></trkpt><trkpt lat="37.48439811247576" lon="14.444175150702522"><ele>470.33333333333337</ele><time>2026-04-06T08:50:40Z</time></trkpt><trkpt lat="37.48432483473212" lon="14.444162926068483"><ele>470.0</ele><time>2026-04-06T08:50:43Z</time></trkpt><trkpt lat="37.48425705284118" lon="14.444109105274894"><ele>469.6666666666667</ele><time>2026-04-06T08:50:48Z</time></trkpt><trkpt lat="37.48428286714573" lon="14.443982125537273"><ele>469.33333333333337</ele><time>2026-04-06T08:50:50Z</time></trkpt><trkpt lat="37.48432957575515" lon="14.443913021412337"><ele>469.0</ele><time>2026-04-06T08:50:51Z</time></trkpt><trkpt lat="37.48435558189078" lon="14.443802891900066"><ele>471.4</ele><time>2026-04-06T08:50:53Z</time></trkpt><trkpt lat="37.484299674029806" lon="14.443733612872018"><ele>473.79999999999995</ele><time>2026-04-06T08:50:55Z</time></trkpt><trkpt lat="37.48415176227371" lon="14.443709380748205"><ele>476.20000000000005</ele><time>2026-04-06T08:50:57Z</time></trkpt><trkpt lat="37.48405391599883" lon="14.443701140989665"><ele>478.6</ele><time>2026-04-06T08:50:58Z</time></trkpt><trkpt lat="37.4839765315705" lon="14.443698547891929"><ele>481.0</ele><time>2026-04-06T08:50:59Z</time></trkpt><trkpt lat="37.4838863973332" lon="14.443681068796876"><ele>481.00000000000006</ele><time>2026-04-06T08:51:00Z</time></trkpt><trkpt lat="37.48379203511784" lon="14.443648721573902"><ele>481.0</ele><time>2026-04-06T08:51:01Z</time></trkpt><trkpt lat="37.483678515856376" lon="14.443618003461587"><ele>481.0</ele><time>2026-04-06T08:51:02Z</time></trkpt><trkpt lat="37.48359342589607" lon="14.443595585293584"><ele>481.0</ele><time>2026-04-06T08:51:03Z</time></trkpt><trkpt lat="37.48352824250387" lon="14.443574426278111"><ele>481.00000000000006</ele><time>2026-04-06T08:51:04Z</time></trkpt><trkpt lat="37.48345934196895" lon="14.443542536000894"><ele>481.0</ele><time>2026-04-06T08:51:05Z</time></trkpt><trkpt lat="37.48336524864225" lon="14.443499217234221"><ele>480.1666666666667</ele><time>2026-04-06T08:51:06Z</time></trkpt><trkpt lat="37.483290955997575" lon="14.443463202408008"><ele>479.33333333333337</ele><time>2026-04-06T08:51:07Z</time></trkpt><trkpt lat="37.48322764552431" lon="14.443437414699181"><ele>478.5</ele><time>2026-04-06T08:51:08Z</time></trkpt><trkpt lat="37.483140933352736" lon="14.443450581559766"><ele>477.66666666666663</ele><time>2026-04-06T08:51:10Z</time></trkpt><trkpt lat="37.48310030020293" lon="14.443589840109775"><ele>476.8333333333333</ele><time>2026-04-06T08:51:12Z</time></trkpt><trkpt lat="37.48308387681401" lon="14.443690810871907"><ele>476.0</ele><time>2026-04-06T08:51:13Z</time></trkpt><trkpt lat="37.48306385831057" lon="14.4438067375941"><ele>474.2857142857143</ele><time>2026-04-06T08:51:14Z</time></trkpt><trkpt lat="37.4830469827418" lon="14.443889784634498"><ele>472.57142857142856</ele><time>2026-04-06T08:51:15Z</time></trkpt><trkpt lat="37.48302584323019" lon="14.443986097367922"><ele>470.8571428571429</ele><time>2026-04-06T08:51:16Z</time></trkpt><trkpt lat="37.48300776566862" lon="14.44407237191012"><ele>469.14285714285717</ele><time>2026-04-06T08:51:17Z</time></trkpt><trkpt lat="37.48298909488263" lon="14.444149430762614"><ele>467.42857142857144</ele><time>2026-04-06T08:51:18Z</time></trkpt><trkpt lat="37.48296818751047" lon="14.444237290124116"><ele>465.7142857142858</ele><time>2026-04-06T08:51:19Z</time></trkpt><trkpt lat="37.48293958261541" lon="14.44430848179145"><ele>464.00000000000006</ele><time>2026-04-06T08:51:20Z</time></trkpt><trkpt lat="37.48290496709937" lon="14.444384637772334"><ele>463.0</ele><time>2026-04-06T08:51:21Z</time></trkpt><trkpt lat="37.482863343492056" lon="14.444484808761219"><ele>462.0</ele><time>2026-04-06T08:51:22Z</time></trkpt><trkpt lat="37.48284631442106" lon="14.444627753676183"><ele>461.0</ele><time>2026-04-06T08:51:24Z</time></trkpt><trkpt lat="37.482841515266884" lon="14.444711835837246"><ele>460.0</ele><time>2026-04-06T08:51:25Z</time></trkpt><trkpt lat="37.482830725054036" lon="14.444809184831467"><ele>459.0</ele><time>2026-04-06T08:51:26Z</time></trkpt><trkpt lat="37.482773305069934" lon="14.44497811312469"><ele>457.2</ele><time>2026-04-06T08:51:28Z</time></trkpt><trkpt lat="37.482745575883605" lon="14.445069689125974"><ele>455.4</ele><time>2026-04-06T08:51:29Z</time></trkpt><trkpt lat="37.4826984712031" lon="14.445197204973969"><ele>453.6</ele><time>2026-04-06T08:51:30Z</time></trkpt><trkpt lat="37.482666015149206" lon="14.445293350440485"><ele>451.8</ele><time>2026-04-06T08:51:31Z</time></trkpt><trkpt lat="37.48263366506245" lon="14.445423436408824"><ele>450.0</ele><time>2026-04-06T08:51:32Z</time></trkpt><trkpt lat="37.482603077249195" lon="14.445539204399388"><ele>448.5</ele><time>2026-04-06T08:51:33Z</time></trkpt><trkpt lat="37.482572508204484" lon="14.445641213574984"><ele>447.0</ele><time>2026-04-06T08:51:34Z</time></trkpt><trkpt lat="37.48254159045681" lon="14.445750217324147"><ele>445.5</ele><time>2026-04-06T08:51:35Z</time></trkpt><trkpt lat="37.48251480796369" lon="14.445856588995865"><ele>444.0</ele><time>2026-04-06T08:51:36Z</time></trkpt><trkpt lat="37.4824975540859" lon="14.445936976762649"><ele>442.5</ele><time>2026-04-06T08:51:37Z</time></trkpt><trkpt lat="37.48247472720471" lon="14.446014786727776"><ele>441.0</ele><time>2026-04-06T08:51:38Z</time></trkpt><trkpt lat="37.48244216296736" lon="14.446117060407506"><ele>441.0</ele><time>2026-04-06T08:51:39Z</time></trkpt><trkpt lat="37.48240700396529" lon="14.446238057272428"><ele>441.0</ele><time>2026-04-06T08:51:41Z</time></trkpt><trkpt lat="37.482360928317725" lon="14.446328729613136"><ele>441.0</ele><time>2026-04-06T08:51:44Z</time></trkpt><trkpt lat="37.48233352663563" lon="14.446400582406842"><ele>441.0</ele><time>2026-04-06T08:51:45Z</time></trkpt><trkpt lat="37.482320803326765" lon="14.446490369202232"><ele>441.0</ele><time>2026-04-06T08:51:46Z</time></trkpt><trkpt lat="37.48228695993191" lon="14.446581555356154"><ele>441.0</ele><time>2026-04-06T08:51:47Z</time></trkpt><trkpt lat="37.4822412615671" lon="14.446674325843205"><ele>439.5</ele><time>2026-04-06T08:51:48Z</time></trkpt><trkpt lat="37.482202353972696" lon="14.446796552339189"><ele>438.0</ele><time>2026-04-06T08:51:50Z</time></trkpt><trkpt lat="37.482159924671954" lon="14.446866693267337"><ele>436.5</ele><time>2026-04-06T08:51:52Z</time></trkpt><trkpt lat="37.48213829330719" lon="14.446942909853437"><ele>435.0</ele><time>2026-04-06T08:51:54Z</time></trkpt><trkpt lat="37.482140662464474" lon="14.447044553552908"><ele>433.5</ele><time>2026-04-06T08:51:57Z</time></trkpt><trkpt lat="37.48209207948821" lon="14.447155597219233"><ele>432.0</ele><time>2026-04-06T08:51:59Z</time></trkpt><trkpt lat="37.48205880265626" lon="14.447278334543137"><ele>430.3333333333333</ele><time>2026-04-06T08:52:01Z</time></trkpt><trkpt lat="37.48208641838323" lon="14.447386888137315"><ele>428.66666666666663</ele><time>2026-04-06T08:52:03Z</time></trkpt><trkpt lat="37.48211096869634" lon="14.447467977579398"><ele>427.0</ele><time>2026-04-06T08:52:04Z</time></trkpt><trkpt lat="37.482104912723365" lon="14.447560357447774"><ele>425.3333333333333</ele><time>2026-04-06T08:52:05Z</time></trkpt><trkpt lat="37.48208229891947" lon="14.44766835128371"><ele>423.66666666666663</ele><time>2026-04-06T08:52:06Z</time></trkpt><trkpt lat="37.482052685533816" lon="14.44778153136985"><ele>422.0</ele><time>2026-04-06T08:52:07Z</time></trkpt><trkpt lat="37.48201943728683" lon="14.447882674227593"><ele>418.8</ele><time>2026-04-06T08:52:08Z</time></trkpt><trkpt lat="37.481984418020524" lon="14.447983910693916"><ele>415.6</ele><time>2026-04-06T08:52:09Z</time></trkpt><trkpt lat="37.48195203796249" lon="14.448085875077163"><ele>412.40000000000003</ele><time>2026-04-06T08:52:10Z</time></trkpt><trkpt lat="37.481925088111595" lon="14.448162834317406"><ele>409.20000000000005</ele><time>2026-04-06T08:52:11Z</time></trkpt><trkpt lat="37.48182114816932" lon="14.44828214993015"><ele>406.0</ele><time>2026-04-06T08:52:13Z</time></trkpt><trkpt lat="37.481774251629226" lon="14.448356492010857"><ele>406.0</ele><time>2026-04-06T08:52:14Z</time></trkpt><trkpt lat="37.48174380894972" lon="14.448468113558846"><ele>406.0</ele><time>2026-04-06T08:52:15Z</time></trkpt><trkpt lat="37.48170702003776" lon="14.448597668613862"><ele>406.0</ele><time>2026-04-06T08:52:16Z</time></trkpt><trkpt lat="37.481683383440355" lon="14.448705172792607"><ele>406.0</ele><time>2026-04-06T08:52:17Z</time></trkpt><trkpt lat="37.481678546334" lon="14.448822221086528"><ele>406.0</ele><time>2026-04-06T08:52:19Z</time></trkpt><trkpt lat="37.48173566627713" lon="14.448916062340608"><ele>405.4</ele><time>2026-04-06T08:52:21Z</time></trkpt><trkpt lat="37.481795980988046" lon="14.449024292032345"><ele>404.8</ele><time>2026-04-06T08:52:22Z</time></trkpt><trkpt lat="37.481863228592026" lon="14.4491171096842"><ele>404.2</ele><time>2026-04-06T08:52:23Z</time></trkpt><trkpt lat="37.48192846797815" lon="14.449210219518339"><ele>403.59999999999997</ele><time>2026-04-06T08:52:24Z</time></trkpt><trkpt lat="37.48198156570596" lon="14.449279704051836"><ele>403.0</ele><time>2026-04-06T08:52:25Z</time></trkpt><trkpt lat="37.48205935546538" lon="14.449372661037081"><ele>403.1666666666667</ele><time>2026-04-06T08:52:27Z</time></trkpt><trkpt lat="37.482120657258484" lon="14.449423326352525"><ele>403.33333333333337</ele><time>2026-04-06T08:52:29Z</time></trkpt><trkpt lat="37.48219107294099" lon="14.449513453217754"><ele>403.5</ele><time>2026-04-06T08:52:48Z</time></trkpt><trkpt lat="37.482245190107335" lon="14.449563591095522"><ele>403.66666666666663</ele><time>2026-04-06T08:52:51Z</time></trkpt><trkpt lat="37.48229154137868" lon="14.44964788266362"><ele>403.8333333333333</ele><time>2026-04-06T08:52:53Z</time></trkpt><trkpt lat="37.48230796303659" lon="14.449787673274205"><ele>404.0</ele><time>2026-04-06T08:52:55Z</time></trkpt><trkpt lat="37.482321275455625" lon="14.449866833262604"><ele>403.49999999999994</ele><time>2026-04-06T08:52:56Z</time></trkpt><trkpt lat="37.482321855049136" lon="14.449969075690255"><ele>403.0</ele><time>2026-04-06T08:52:58Z</time></trkpt><trkpt lat="37.48228473421023" lon="14.450037669625171"><ele>402.5</ele><time>2026-04-06T08:53:00Z</time></trkpt><trkpt lat="37.48219745439674" lon="14.450107030841325"><ele>402.0</ele><time>2026-04-06T08:53:02Z</time></trkpt><trkpt lat="37.482109756414715" lon="14.450148250666514"><ele>401.49999999999994</ele><time>2026-04-06T08:53:03Z</time></trkpt><trkpt lat="37.4820112740067" lon="14.45018955429502"><ele>401.0</ele><time>2026-04-06T08:53:04Z</time></trkpt><trkpt lat="37.48193382255567" lon="14.450219582468781"><ele>400.8333333333333</ele><time>2026-04-06T08:53:05Z</time></trkpt><trkpt lat="37.48184362990717" lon="14.450255526808336"><ele>400.66666666666663</ele><time>2026-04-06T08:53:06Z</time></trkpt><trkpt lat="37.481777190388875" lon="14.450294306623709"><ele>400.5</ele><time>2026-04-06T08:53:07Z</time></trkpt><trkpt lat="37.48172063928216" lon="14.450403957544387"><ele>400.33333333333337</ele><time>2026-04-06T08:53:09Z</time></trkpt><trkpt lat="37.481702127156" lon="14.4504916498565"><ele>400.1666666666667</ele><time>2026-04-06T08:53:10Z</time></trkpt><trkpt lat="37.481706173803865" lon="14.450588188593303"><ele>400.0</ele><time>2026-04-06T08:53:11Z</time></trkpt><trkpt lat="37.481728477556466" lon="14.450686775545554"><ele>401.0</ele><time>2026-04-06T08:53:12Z</time></trkpt><trkpt lat="37.481762355041255" lon="14.450773466487679"><ele>402.0</ele><time>2026-04-06T08:53:13Z</time></trkpt><trkpt lat="37.48179986518671" lon="14.450838936035854"><ele>403.0</ele><time>2026-04-06T08:53:15Z</time></trkpt><trkpt lat="37.48182913628178" lon="14.450959331401481"><ele>404.0</ele><time>2026-04-06T08:53:17Z</time></trkpt><trkpt lat="37.48188104188838" lon="14.451087579309487"><ele>405.0</ele><time>2026-04-06T08:53:18Z</time></trkpt><trkpt lat="37.48193724351772" lon="14.451216436574597"><ele>406.4</ele><time>2026-04-06T08:53:19Z</time></trkpt><trkpt lat="37.48198551913806" lon="14.451367414059474"><ele>407.8</ele><time>2026-04-06T08:53:20Z</time></trkpt><trkpt lat="37.48200945824901" lon="14.451471556005302"><ele>409.20000000000005</ele><time>2026-04-06T08:53:21Z</time></trkpt><trkpt lat="37.482015585644476" lon="14.45155820793405"><ele>410.6</ele><time>2026-04-06T08:53:22Z</time></trkpt><trkpt lat="37.48200987257925" lon="14.451642098114522"><ele>412.0</ele><time>2026-04-06T08:53:23Z</time></trkpt><trkpt lat="37.48199205032568" lon="14.451776896045963"><ele>412.0</ele><time>2026-04-06T08:53:24Z</time></trkpt><trkpt lat="37.48197018063022" lon="14.451912697522673"><ele>412.0</ele><time>2026-04-06T08:53:25Z</time></trkpt><trkpt lat="37.481940314661635" lon="14.452016730979661"><ele>412.0</ele><time>2026-04-06T08:53:26Z</time></trkpt><trkpt lat="37.48186144319676" lon="14.45214944831157"><ele>412.0</ele><time>2026-04-06T08:53:28Z</time></trkpt><trkpt lat="37.48175718957992" lon="14.452230643288216"><ele>412.6</ele><time>2026-04-06T08:53:30Z</time></trkpt><trkpt lat="37.48167355376026" lon="14.45223914462973"><ele>413.20000000000005</ele><time>2026-04-06T08:53:31Z</time></trkpt><trkpt lat="37.481578802717465" lon="14.45224723359655"><ele>413.8</ele><time>2026-04-06T08:53:32Z</time></trkpt><trkpt lat="37.48145579555384" lon="14.452280358499229"><ele>414.4</ele><time>2026-04-06T08:53:33Z</time></trkpt><trkpt lat="37.48135312846534" lon="14.452310468955137"><ele>415.0</ele><time>2026-04-06T08:53:34Z</time></trkpt><trkpt lat="37.48126523449809" lon="14.452329706771595"><ele>415.0</ele><time>2026-04-06T08:53:35Z</time></trkpt><trkpt lat="37.48117719714224" lon="14.452349771705551"><ele>415.0</ele><time>2026-04-06T08:53:36Z</time></trkpt><trkpt lat="37.48108171723808" lon="14.452404798701531"><ele>415.0</ele><time>2026-04-06T08:53:38Z</time></trkpt><trkpt lat="37.48099287689057" lon="14.45249735503965"><ele>415.0</ele><time>2026-04-06T08:53:40Z</time></trkpt><trkpt lat="37.48090237171363" lon="14.452566818524359"><ele>415.0</ele><time>2026-04-06T08:53:42Z</time></trkpt><trkpt lat="37.480843302018876" lon="14.452611863399866"><ele>415.0</ele><time>2026-04-06T08:53:43Z</time></trkpt><trkpt lat="37.48078364510904" lon="14.452672475730536"><ele>415.0</ele><time>2026-04-06T08:53:44Z</time></trkpt><trkpt lat="37.480724738472766" lon="14.452740939050992"><ele>415.0</ele><time>2026-04-06T08:53:46Z</time></trkpt><trkpt lat="37.48063484512566" lon="14.45282260544945"><ele>415.0</ele><time>2026-04-06T08:53:48Z</time></trkpt><trkpt lat="37.48056736927929" lon="14.452874084941103"><ele>415.0</ele><time>2026-04-06T08:53:49Z</time></trkpt><trkpt lat="37.48046877980463" lon="14.452951826153468"><ele>417.0</ele><time>2026-04-06T08:53:50Z</time></trkpt><trkpt lat="37.48037125146604" lon="14.453042265990291"><ele>419.0</ele><time>2026-04-06T08:53:51Z</time></trkpt><trkpt lat="37.48026158448273" lon="14.453132270725373"><ele>421.0</ele><time>2026-04-06T08:53:52Z</time></trkpt><trkpt lat="37.480171164570464" lon="14.453209691745847"><ele>423.0</ele><time>2026-04-06T08:53:53Z</time></trkpt><trkpt lat="37.480085220091446" lon="14.45329250865704"><ele>423.0</ele><time>2026-04-06T08:53:54Z</time></trkpt><trkpt lat="37.47999382061318" lon="14.453376353546542"><ele>423.0</ele><time>2026-04-06T08:53:55Z</time></trkpt><trkpt lat="37.47989668970411" lon="14.453435225641124"><ele>423.0</ele><time>2026-04-06T08:53:56Z</time></trkpt><trkpt lat="37.47981713518324" lon="14.453520587351262"><ele>423.0</ele><time>2026-04-06T08:53:57Z</time></trkpt><trkpt lat="37.47974709226101" lon="14.453573786811948"><ele>423.0</ele><time>2026-04-06T08:53:58Z</time></trkpt><trkpt lat="37.479656544102916" lon="14.453683654311257"><ele>423.0</ele><time>2026-04-06T08:54:00Z</time></trkpt><trkpt lat="37.479635428509326" lon="14.453787014534461"><ele>423.0</ele><time>2026-04-06T08:54:02Z</time></trkpt><trkpt lat="37.4796577784034" lon="14.453874406627312"><ele>423.0</ele><time>2026-04-06T08:54:06Z</time></trkpt><trkpt lat="37.47969273560239" lon="14.453963107248104"><ele>423.0</ele><time>2026-04-06T08:54:08Z</time></trkpt><trkpt lat="37.47970875599344" lon="14.454113958569952"><ele>423.0</ele><time>2026-04-06T08:54:10Z</time></trkpt><trkpt lat="37.479758031918635" lon="14.454210814250008"><ele>423.0</ele><time>2026-04-06T08:54:12Z</time></trkpt><trkpt lat="37.47979398406413" lon="14.454277145197185"><ele>423.2</ele><time>2026-04-06T08:54:14Z</time></trkpt><trkpt lat="37.47983876987106" lon="14.454354523879848"><ele>423.4</ele><time>2026-04-06T08:54:16Z</time></trkpt><trkpt lat="37.479890954169676" lon="14.45443025066335"><ele>423.59999999999997</ele><time>2026-04-06T08:54:18Z</time></trkpt><trkpt lat="37.47994292770722" lon="14.454525132486623"><ele>423.79999999999995</ele><time>2026-04-06T08:54:20Z</time></trkpt><trkpt lat="37.48000220253338" lon="14.454618256762254"><ele>424.0</ele><time>2026-04-06T08:54:21Z</time></trkpt><trkpt lat="37.48007686212956" lon="14.454736629428673"><ele>424.0</ele><time>2026-04-06T08:54:22Z</time></trkpt><trkpt lat="37.48015111177377" lon="14.454860423786611"><ele>424.0</ele><time>2026-04-06T08:54:23Z</time></trkpt><trkpt lat="37.480193751656195" lon="14.454959236136073"><ele>424.0</ele><time>2026-04-06T08:54:24Z</time></trkpt><trkpt lat="37.48021092271232" lon="14.455065537213962"><ele>424.0</ele><time>2026-04-06T08:54:25Z</time></trkpt><trkpt lat="37.480213311908834" lon="14.455182410877626"><ele>424.0</ele><time>2026-04-06T08:54:26Z</time></trkpt><trkpt lat="37.480205761370016" lon="14.455324206920704"><ele>423.5</ele><time>2026-04-06T08:54:27Z</time></trkpt><trkpt lat="37.48017916198444" lon="14.455464454577216"><ele>423.0</ele><time>2026-04-06T08:54:28Z</time></trkpt><trkpt lat="37.480149080107545" lon="14.455629651376439"><ele>422.5</ele><time>2026-04-06T08:54:29Z</time></trkpt><trkpt lat="37.48012044687733" lon="14.455828977137225"><ele>422.0</ele><time>2026-04-06T08:54:30Z</time></trkpt><trkpt lat="37.48009939456473" lon="14.456029549475778"><ele>422.0</ele><time>2026-04-06T08:54:31Z</time></trkpt><trkpt lat="37.480080814250584" lon="14.456186966901733"><ele>422.0</ele><time>2026-04-06T08:54:32Z</time></trkpt><trkpt lat="37.48004345227906" lon="14.456307425011326"><ele>422.0</ele><time>2026-04-06T08:54:33Z</time></trkpt><trkpt lat="37.48001456302294" lon="14.456410211231818"><ele>422.0</ele><time>2026-04-06T08:54:34Z</time></trkpt><trkpt lat="37.4799729112443" lon="14.456495934340811"><ele>422.0</ele><time>2026-04-06T08:54:35Z</time></trkpt><trkpt lat="37.47991183671326" lon="14.456543252653233"><ele>421.0</ele><time>2026-04-06T08:54:36Z</time></trkpt><trkpt lat="37.47977813352618" lon="14.45659466221475"><ele>420.0</ele><time>2026-04-06T08:54:38Z</time></trkpt><trkpt lat="37.47970933223633" lon="14.456612322999959"><ele>419.0</ele><time>2026-04-06T08:54:39Z</time></trkpt><trkpt lat="37.47964588401622" lon="14.456606321653146"><ele>418.0</ele><time>2026-04-06T08:54:40Z</time></trkpt><trkpt lat="37.479537910695456" lon="14.456616283154018"><ele>417.0</ele><time>2026-04-06T08:54:41Z</time></trkpt><trkpt lat="37.47943882416791" lon="14.456636693339453"><ele>417.0</ele><time>2026-04-06T08:54:42Z</time></trkpt><trkpt lat="37.47935630712558" lon="14.456647492013778"><ele>417.0</ele><time>2026-04-06T08:54:43Z</time></trkpt><trkpt lat="37.47928128130809" lon="14.45665824089584"><ele>417.0</ele><time>2026-04-06T08:54:44Z</time></trkpt><trkpt lat="37.47918302443578" lon="14.456672597491881"><ele>417.0</ele><time>2026-04-06T08:54:45Z</time></trkpt><trkpt lat="37.47911856929523" lon="14.45668333533362"><ele>417.0</ele><time>2026-04-06T08:54:46Z</time></trkpt><trkpt lat="37.47903695078041" lon="14.456699734983433"><ele>417.0</ele><time>2026-04-06T08:54:48Z</time></trkpt><trkpt lat="37.47897432830156" lon="14.456713146122926"><ele>417.0</ele><time>2026-04-06T08:54:51Z</time></trkpt><trkpt lat="37.47890862735853" lon="14.456738720948577"><ele>417.0</ele><time>2026-04-06T08:55:06Z</time></trkpt><trkpt lat="37.47883817524339" lon="14.456754232315328"><ele>417.0</ele><time>2026-04-06T08:56:59Z</time></trkpt><trkpt lat="37.47876818564616" lon="14.456756658233353"><ele>417.0</ele><time>2026-04-06T08:57:02Z</time></trkpt><trkpt lat="37.47870327664599" lon="14.456762247133744"><ele>417.0</ele><time>2026-04-06T08:57:04Z</time></trkpt><trkpt lat="37.47862340226853" lon="14.456777872434397"><ele>417.0</ele><time>2026-04-06T08:57:06Z</time></trkpt><trkpt lat="37.47853444107206" lon="14.456799298762881"><ele>417.0</ele><time>2026-04-06T08:57:08Z</time></trkpt><trkpt lat="37.478468801488454" lon="14.456807501717066"><ele>415.6</ele><time>2026-04-06T08:57:10Z</time></trkpt><trkpt lat="37.47838086625956" lon="14.45682106122162"><ele>414.20000000000005</ele><time>2026-04-06T08:57:13Z</time></trkpt><trkpt lat="37.478289016766084" lon="14.456855595033451"><ele>412.8</ele><time>2026-04-06T08:57:15Z</time></trkpt><trkpt lat="37.47817131028976" lon="14.456922378216108"><ele>411.4</ele><time>2026-04-06T08:57:17Z</time></trkpt><trkpt lat="37.478077199344206" lon="14.45699962999068"><ele>410.0</ele><time>2026-04-06T08:57:18Z</time></trkpt><trkpt lat="37.47800530908286" lon="14.457074634315713"><ele>408.66666666666663</ele><time>2026-04-06T08:57:19Z</time></trkpt><trkpt lat="37.47795280209299" lon="14.45712953774487"><ele>407.3333333333333</ele><time>2026-04-06T08:57:20Z</time></trkpt><trkpt lat="37.47789804249557" lon="14.457183325161719"><ele>406.0</ele><time>2026-04-06T08:57:21Z</time></trkpt><trkpt lat="37.477822761604735" lon="14.457277901163252"><ele>404.66666666666663</ele><time>2026-04-06T08:57:23Z</time></trkpt><trkpt lat="37.477742990200554" lon="14.457379216277292"><ele>403.3333333333333</ele><time>2026-04-06T08:57:25Z</time></trkpt><trkpt lat="37.477751913297425" lon="14.457474666875573"><ele>402.0</ele><time>2026-04-06T08:57:26Z</time></trkpt><trkpt lat="37.47776553343144" lon="14.457615763216165"><ele>401.40000000000003</ele><time>2026-04-06T08:57:28Z</time></trkpt><trkpt lat="37.477795495224605" lon="14.457712906796385"><ele>400.8</ele><time>2026-04-06T08:57:29Z</time></trkpt><trkpt lat="37.47784949315778" lon="14.457890176669153"><ele>400.2</ele><time>2026-04-06T08:57:31Z</time></trkpt><trkpt lat="37.47788445994283" lon="14.458010945772099"><ele>399.6</ele><time>2026-04-06T08:57:33Z</time></trkpt><trkpt lat="37.4779167705307" lon="14.458120918886928"><ele>399.0</ele><time>2026-04-06T08:57:35Z</time></trkpt><trkpt lat="37.47794906311226" lon="14.458230505852763"><ele>398.75</ele><time>2026-04-06T08:57:38Z</time></trkpt><trkpt lat="37.47799585404145" lon="14.458384065700672"><ele>398.5</ele><time>2026-04-06T08:57:40Z</time></trkpt><trkpt lat="37.47803131852706" lon="14.458500454103278"><ele>398.25</ele><time>2026-04-06T08:57:41Z</time></trkpt><trkpt lat="37.47809167144453" lon="14.45863496877324"><ele>398.0</ele><time>2026-04-06T08:57:42Z</time></trkpt><trkpt lat="37.47813128592198" lon="14.458798116519525"><ele>398.4</ele><time>2026-04-06T08:57:43Z</time></trkpt><trkpt lat="37.47817774610654" lon="14.458923899908916"><ele>398.79999999999995</ele><time>2026-04-06T08:57:44Z</time></trkpt><trkpt lat="37.47822515219639" lon="14.459027416803833"><ele>399.2</ele><time>2026-04-06T08:57:45Z</time></trkpt><trkpt lat="37.47827161365217" lon="14.459125237540977"><ele>399.6</ele><time>2026-04-06T08:57:46Z</time></trkpt><trkpt lat="37.47829507497263" lon="14.459246526834425"><ele>400.0</ele><time>2026-04-06T08:57:47Z</time></trkpt><trkpt lat="37.478334772525365" lon="14.45937065998956"><ele>400.0</ele><time>2026-04-06T08:57:48Z</time></trkpt><trkpt lat="37.47837829773944" lon="14.459506762143844"><ele>400.0</ele><time>2026-04-06T08:57:49Z</time></trkpt><trkpt lat="37.478432034869265" lon="14.459654184867613"><ele>400.0</ele><time>2026-04-06T08:57:50Z</time></trkpt><trkpt lat="37.47848293229731" lon="14.459787934359941"><ele>400.0</ele><time>2026-04-06T08:57:51Z</time></trkpt><trkpt lat="37.47852194070423" lon="14.459906230823869"><ele>401.0</ele><time>2026-04-06T08:57:52Z</time></trkpt><trkpt lat="37.478565305305885" lon="14.460048578399428"><ele>402.0</ele><time>2026-04-06T08:57:53Z</time></trkpt><trkpt lat="37.478620935195785" lon="14.46022395520389"><ele>403.0</ele><time>2026-04-06T08:57:54Z</time></trkpt><trkpt lat="37.478659493541386" lon="14.46034615760125"><ele>404.0</ele><time>2026-04-06T08:57:55Z</time></trkpt><trkpt lat="37.478679412392644" lon="14.460455061859816"><ele>404.0</ele><time>2026-04-06T08:57:56Z</time></trkpt><trkpt lat="37.47869782125942" lon="14.460581942010549"><ele>404.0</ele><time>2026-04-06T08:57:57Z</time></trkpt><trkpt lat="37.47870988114842" lon="14.460704323364943"><ele>404.0</ele><time>2026-04-06T08:57:58Z</time></trkpt><trkpt lat="37.47871089722872" lon="14.460838674425094"><ele>404.0</ele><time>2026-04-06T08:57:59Z</time></trkpt><trkpt lat="37.47869922318384" lon="14.460973681321214"><ele>404.0</ele><time>2026-04-06T08:58:00Z</time></trkpt><trkpt lat="37.47868285403869" lon="14.461159466926606"><ele>404.66666666666663</ele><time>2026-04-06T08:58:01Z</time></trkpt><trkpt lat="37.47866174761514" lon="14.461361442538811"><ele>405.33333333333337</ele><time>2026-04-06T08:58:02Z</time></trkpt><trkpt lat="37.47863460411809" lon="14.46158129197958"><ele>406.0</ele><time>2026-04-06T08:58:03Z</time></trkpt><trkpt lat="37.47861163424269" lon="14.461757275719425"><ele>406.0</ele><time>2026-04-06T08:58:04Z</time></trkpt><trkpt lat="37.47859597536877" lon="14.46191897004593"><ele>406.0</ele><time>2026-04-06T08:58:05Z</time></trkpt><trkpt lat="37.47857599221141" lon="14.46207914001967"><ele>406.0</ele><time>2026-04-06T08:58:06Z</time></trkpt><trkpt lat="37.47855979803127" lon="14.462215992793567"><ele>406.0</ele><time>2026-04-06T08:58:07Z</time></trkpt><trkpt lat="37.478543355266666" lon="14.462348659619847"><ele>406.6666666666667</ele><time>2026-04-06T08:58:08Z</time></trkpt><trkpt lat="37.478527485637635" lon="14.462468563788438"><ele>407.33333333333337</ele><time>2026-04-06T08:58:09Z</time></trkpt><trkpt lat="37.47851416277419" lon="14.462570600605362"><ele>408.0</ele><time>2026-04-06T08:58:10Z</time></trkpt><trkpt lat="37.47851004662065" lon="14.46265117948481"><ele>408.66666666666663</ele><time>2026-04-06T08:58:11Z</time></trkpt><trkpt lat="37.47850006845805" lon="14.462766782561717"><ele>409.3333333333333</ele><time>2026-04-06T08:58:12Z</time></trkpt><trkpt lat="37.47849797629426" lon="14.462879124724061"><ele>410.0</ele><time>2026-04-06T08:58:13Z</time></trkpt><trkpt lat="37.47851039379985" lon="14.463007273252883"><ele>410.0</ele><time>2026-04-06T08:58:14Z</time></trkpt><trkpt lat="37.478528038785434" lon="14.463123543131635"><ele>410.0</ele><time>2026-04-06T08:58:15Z</time></trkpt><trkpt lat="37.47854951112441" lon="14.463244440275654"><ele>410.0</ele><time>2026-04-06T08:58:16Z</time></trkpt><trkpt lat="37.478575629704" lon="14.463359445246045"><ele>410.0</ele><time>2026-04-06T08:58:17Z</time></trkpt><trkpt lat="37.47859689979464" lon="14.463449714828183"><ele>410.0</ele><time>2026-04-06T08:58:18Z</time></trkpt><trkpt lat="37.47863058200542" lon="14.463587136724819"><ele>409.99999999999994</ele><time>2026-04-06T08:58:20Z</time></trkpt><trkpt lat="37.47867201042807" lon="14.463714005136582"><ele>410.0</ele><time>2026-04-06T08:58:22Z</time></trkpt><trkpt lat="37.47870679209395" lon="14.463798445201332"><ele>410.0</ele><time>2026-04-06T08:58:23Z</time></trkpt><trkpt lat="37.47874091738326" lon="14.463877200975443"><ele>410.0</ele><time>2026-04-06T08:58:24Z</time></trkpt><trkpt lat="37.478778442550976" lon="14.463964332587391"><ele>409.99999999999994</ele><time>2026-04-06T08:58:25Z</time></trkpt><trkpt lat="37.47881303016229" lon="14.46404349503285"><ele>410.0</ele><time>2026-04-06T08:58:26Z</time></trkpt><trkpt lat="37.478848058718754" lon="14.46412339121555"><ele>410.3333333333333</ele><time>2026-04-06T08:58:27Z</time></trkpt><trkpt lat="37.478886997732495" lon="14.464213962960157"><ele>410.66666666666663</ele><time>2026-04-06T08:58:28Z</time></trkpt><trkpt lat="37.47893036348826" lon="14.464327033483297"><ele>411.0</ele><time>2026-04-06T08:58:29Z</time></trkpt><trkpt lat="37.478974941718675" lon="14.46445481568456"><ele>411.33333333333337</ele><time>2026-04-06T08:58:30Z</time></trkpt><trkpt lat="37.47899517153333" lon="14.464533960195158"><ele>411.6666666666667</ele><time>2026-04-06T08:58:31Z</time></trkpt><trkpt lat="37.479009825400475" lon="14.464624967627104"><ele>412.0</ele><time>2026-04-06T08:58:34Z</time></trkpt><trkpt lat="37.479016232188016" lon="14.464718908580044"><ele>411.1666666666667</ele><time>2026-04-06T08:58:41Z</time></trkpt><trkpt lat="37.47901398061488" lon="14.464821119625169"><ele>410.33333333333337</ele><time>2026-04-06T08:58:43Z</time></trkpt><trkpt lat="37.47899994074833" lon="14.464927429380214"><ele>409.5</ele><time>2026-04-06T08:58:45Z</time></trkpt><trkpt lat="37.47897445957685" lon="14.465073652458916"><ele>408.66666666666663</ele><time>2026-04-06T08:58:47Z</time></trkpt><trkpt lat="37.47897419398719" lon="14.465171183156032"><ele>407.8333333333333</ele><time>2026-04-06T08:58:49Z</time></trkpt><trkpt lat="37.4789504894379" lon="14.465266787152768"><ele>407.0</ele><time>2026-04-06T08:58:50Z</time></trkpt><trkpt lat="37.478933138445726" lon="14.465343962288209"><ele>407.3333333333333</ele><time>2026-04-06T08:58:51Z</time></trkpt><trkpt lat="37.478924114878694" lon="14.46546627785822"><ele>407.66666666666663</ele><time>2026-04-06T08:58:53Z</time></trkpt><trkpt lat="37.47889864995118" lon="14.465592238971988"><ele>408.0</ele><time>2026-04-06T08:58:55Z</time></trkpt><trkpt lat="37.47888816620394" lon="14.465684257186284"><ele>408.33333333333337</ele><time>2026-04-06T08:58:56Z</time></trkpt><trkpt lat="37.4788797445076" lon="14.465808061766987"><ele>408.6666666666667</ele><time>2026-04-06T08:58:57Z</time></trkpt><trkpt lat="37.47887057812393" lon="14.465900295223758"><ele>409.0</ele><time>2026-04-06T08:58:58Z</time></trkpt><trkpt lat="37.47886109222749" lon="14.46598770221588"><ele>409.0</ele><time>2026-04-06T08:58:59Z</time></trkpt><trkpt lat="37.47885429796447" lon="14.466069081291861"><ele>409.0</ele><time>2026-04-06T08:59:00Z</time></trkpt><trkpt lat="37.47883147110707" lon="14.466167580393414"><ele>409.0</ele><time>2026-04-06T08:59:02Z</time></trkpt><trkpt lat="37.478821828389265" lon="14.466266872372517"><ele>409.0</ele><time>2026-04-06T08:59:38Z</time></trkpt><trkpt lat="37.478809282413096" lon="14.466383929626486"><ele>409.0</ele><time>2026-04-06T08:59:49Z</time></trkpt><trkpt lat="37.47878261511559" lon="14.466551473127911"><ele>409.25</ele><time>2026-04-06T08:59:51Z</time></trkpt><trkpt lat="37.47876061716135" lon="14.466682448955588"><ele>409.5</ele><time>2026-04-06T08:59:52Z</time></trkpt><trkpt lat="37.47873846551707" lon="14.466820611773976"><ele>409.75</ele><time>2026-04-06T08:59:53Z</time></trkpt><trkpt lat="37.47871462536198" lon="14.466976408213641"><ele>410.0</ele><time>2026-04-06T08:59:54Z</time></trkpt><trkpt lat="37.478691556816656" lon="14.467127162159882"><ele>411.5</ele><time>2026-04-06T08:59:55Z</time></trkpt><trkpt lat="37.47867149737729" lon="14.467279844630996"><ele>413.0</ele><time>2026-04-06T08:59:56Z</time></trkpt><trkpt lat="37.47865499449082" lon="14.467424904506993"><ele>414.5</ele><time>2026-04-06T08:59:57Z</time></trkpt><trkpt lat="37.478636349847" lon="14.467578730986032"><ele>416.0</ele><time>2026-04-06T08:59:58Z</time></trkpt><trkpt lat="37.47861387734739" lon="14.46773061919734"><ele>416.0</ele><time>2026-04-06T08:59:59Z</time></trkpt><trkpt lat="37.47858815831425" lon="14.467872678331101"><ele>416.0</ele><time>2026-04-06T09:00:00Z</time></trkpt><trkpt lat="37.478559506228926" lon="14.468012044281544"><ele>416.0</ele><time>2026-04-06T09:00:01Z</time></trkpt><trkpt lat="37.47852483377559" lon="14.468158486962196"><ele>416.0</ele><time>2026-04-06T09:00:02Z</time></trkpt><trkpt lat="37.47848220070269" lon="14.468303149702464"><ele>417.16666666666663</ele><time>2026-04-06T09:00:03Z</time></trkpt><trkpt lat="37.47844430878531" lon="14.468413750384599"><ele>418.3333333333333</ele><time>2026-04-06T09:00:04Z</time></trkpt><trkpt lat="37.47843032523555" lon="14.468499354856307"><ele>419.5</ele><time>2026-04-06T09:00:05Z</time></trkpt><trkpt lat="37.4783908631227" lon="14.468582437116442"><ele>420.66666666666663</ele><time>2026-04-06T09:00:06Z</time></trkpt><trkpt lat="37.47834778793758" lon="14.468683056951654"><ele>421.8333333333333</ele><time>2026-04-06T09:00:07Z</time></trkpt><trkpt lat="37.47830178976218" lon="14.468748731462847"><ele>423.0</ele><time>2026-04-06T09:00:08Z</time></trkpt><trkpt lat="37.47823512311823" lon="14.468864692731934"><ele>424.0</ele><time>2026-04-06T09:00:10Z</time></trkpt><trkpt lat="37.47817917508492" lon="14.46893533956709"><ele>425.0</ele><time>2026-04-06T09:00:11Z</time></trkpt><trkpt lat="37.4781110772663" lon="14.468976916690155"><ele>425.99999999999994</ele><time>2026-04-06T09:00:12Z</time></trkpt><trkpt lat="37.478015278740834" lon="14.469077318306063"><ele>427.0</ele><time>2026-04-06T09:00:14Z</time></trkpt><trkpt lat="37.477944536111195" lon="14.469137244524687"><ele>428.0</ele><time>2026-04-06T09:00:16Z</time></trkpt><trkpt lat="37.47783989379987" lon="14.469256479502103"><ele>428.0</ele><time>2026-04-06T09:00:18Z</time></trkpt><trkpt lat="37.47777001912085" lon="14.469314742120304"><ele>427.99999999999994</ele><time>2026-04-06T09:00:19Z</time></trkpt><trkpt lat="37.47769467323118" lon="14.469380803780824"><ele>427.99999999999994</ele><time>2026-04-06T09:00:20Z</time></trkpt><trkpt lat="37.47761620074565" lon="14.469458659629746"><ele>428.0</ele><time>2026-04-06T09:00:21Z</time></trkpt><trkpt lat="37.477535877540056" lon="14.46953838887073"><ele>428.0</ele><time>2026-04-06T09:00:22Z</time></trkpt><trkpt lat="37.477442727759076" lon="14.469637536881987"><ele>431.66666666666663</ele><time>2026-04-06T09:00:23Z</time></trkpt><trkpt lat="37.47732496107864" lon="14.469746607294015"><ele>435.33333333333337</ele><time>2026-04-06T09:00:24Z</time></trkpt><trkpt lat="37.47721158487338" lon="14.469860695531738"><ele>439.0</ele><time>2026-04-06T09:00:25Z</time></trkpt><trkpt lat="37.47708289526222" lon="14.46999281504152"><ele>439.0</ele><time>2026-04-06T09:00:26Z</time></trkpt><trkpt lat="37.47695452189659" lon="14.470125088454992"><ele>439.0</ele><time>2026-04-06T09:00:27Z</time></trkpt><trkpt lat="37.476852645080896" lon="14.47022908689766"><ele>439.0</ele><time>2026-04-06T09:00:28Z</time></trkpt><trkpt lat="37.4767583656295" lon="14.470315909657508"><ele>439.0</ele><time>2026-04-06T09:00:29Z</time></trkpt><trkpt lat="37.47664571443551" lon="14.47042488472382"><ele>442.6</ele><time>2026-04-06T09:00:30Z</time></trkpt><trkpt lat="37.47654467603298" lon="14.470510607154981"><ele>446.2</ele><time>2026-04-06T09:00:31Z</time></trkpt><trkpt lat="37.47645408960997" lon="14.47056055496041"><ele>449.80000000000007</ele><time>2026-04-06T09:00:32Z</time></trkpt><trkpt lat="37.476346989352464" lon="14.470596597807713"><ele>453.40000000000003</ele><time>2026-04-06T09:00:33Z</time></trkpt><trkpt lat="37.476240617197526" lon="14.470572296223263"><ele>457.0</ele><time>2026-04-06T09:00:34Z</time></trkpt><trkpt lat="37.47615410514094" lon="14.470539383493998"><ele>459.5</ele><time>2026-04-06T09:00:35Z</time></trkpt><trkpt lat="37.476052656136794" lon="14.470492239989548"><ele>462.0</ele><time>2026-04-06T09:00:36Z</time></trkpt><trkpt lat="37.47593925233925" lon="14.470446647870682"><ele>464.5</ele><time>2026-04-06T09:00:37Z</time></trkpt><trkpt lat="37.47582596988223" lon="14.470397619543718"><ele>467.0</ele><time>2026-04-06T09:00:38Z</time></trkpt><trkpt lat="37.47573962173661" lon="14.470298274264126"><ele>462.0</ele><time>2026-04-06T09:00:39Z</time></trkpt><trkpt lat="37.47563154533347" lon="14.47018042750356"><ele>457.0</ele><time>2026-04-06T09:00:40Z</time></trkpt><trkpt lat="37.4755544508316" lon="14.470078866215665"><ele>452.0</ele><time>2026-04-06T09:00:41Z</time></trkpt><trkpt lat="37.47547644824177" lon="14.469961895601063"><ele>447.0</ele><time>2026-04-06T09:00:42Z</time></trkpt><trkpt lat="37.475388464827766" lon="14.469851056464922"><ele>447.0</ele><time>2026-04-06T09:00:43Z</time></trkpt><trkpt lat="37.47530987388295" lon="14.469758926979557"><ele>447.00000000000006</ele><time>2026-04-06T09:00:44Z</time></trkpt><trkpt lat="37.475247077549604" lon="14.469767669484218"><ele>447.00000000000006</ele><time>2026-04-06T09:00:45Z</time></trkpt><trkpt lat="37.475206720252146" lon="14.469830317821824"><ele>447.0</ele><time>2026-04-06T09:16:27Z</time></trkpt><trkpt lat="37.475167080291016" lon="14.469941042515476"><ele>447.0</ele><time>2026-04-06T09:16:29Z</time></trkpt><trkpt lat="37.47503786420292" lon="14.470095905603973"><ele>447.0</ele><time>2026-04-06T09:16:32Z</time></trkpt><trkpt lat="37.47502818887519" lon="14.470202004351496"><ele>447.00000000000006</ele><time>2026-04-06T09:16:33Z</time></trkpt><trkpt lat="37.475016005433005" lon="14.470367838619353"><ele>447.00000000000006</ele><time>2026-04-06T09:16:35Z</time></trkpt><trkpt lat="37.4750113665456" lon="14.470468315436127"><ele>447.0</ele><time>2026-04-06T09:16:36Z</time></trkpt><trkpt lat="37.4750067437462" lon="14.470575242783722"><ele>447.0</ele><time>2026-04-06T09:16:37Z</time></trkpt><trkpt lat="37.47500228178436" lon="14.470678449897106"><ele>448.40000000000003</ele><time>2026-04-06T09:16:38Z</time></trkpt><trkpt lat="37.47499977997898" lon="14.47079411739207"><ele>449.80000000000007</ele><time>2026-04-06T09:16:39Z</time></trkpt><trkpt lat="37.47499804659165" lon="14.470907816721757"><ele>451.2</ele><time>2026-04-06T09:16:40Z</time></trkpt><trkpt lat="37.474996350173065" lon="14.47101909113615"><ele>452.6</ele><time>2026-04-06T09:16:41Z</time></trkpt><trkpt lat="37.47499465615678" lon="14.471130208030132"><ele>454.0</ele><time>2026-04-06T09:16:42Z</time></trkpt><trkpt lat="37.47499763179891" lon="14.471249824076455"><ele>453.50000000000006</ele><time>2026-04-06T09:16:43Z</time></trkpt><trkpt lat="37.47501123714689" lon="14.471357437185418"><ele>453.0</ele><time>2026-04-06T09:16:44Z</time></trkpt><trkpt lat="37.47502820701115" lon="14.47145832658502"><ele>452.5</ele><time>2026-04-06T09:16:45Z</time></trkpt><trkpt lat="37.47504605376939" lon="14.471559556234512"><ele>452.0</ele><time>2026-04-06T09:16:46Z</time></trkpt><trkpt lat="37.47506290735311" lon="14.471663526217682"><ele>451.50000000000006</ele><time>2026-04-06T09:16:47Z</time></trkpt><trkpt lat="37.47507628574356" lon="14.471750336383815"><ele>451.0</ele><time>2026-04-06T09:16:48Z</time></trkpt><trkpt lat="37.47509436387314" lon="14.471869642310141"><ele>451.00000000000006</ele><time>2026-04-06T09:16:49Z</time></trkpt><trkpt lat="37.47511301721653" lon="14.471983547693279"><ele>451.0</ele><time>2026-04-06T09:16:50Z</time></trkpt><trkpt lat="37.47512864940429" lon="14.472071486065655"><ele>451.0</ele><time>2026-04-06T09:16:51Z</time></trkpt><trkpt lat="37.475142875161026" lon="14.472162533541466"><ele>451.0</ele><time>2026-04-06T09:16:52Z</time></trkpt><trkpt lat="37.475165739019495" lon="14.47223765999597"><ele>451.00000000000006</ele><time>2026-04-06T09:16:53Z</time></trkpt><trkpt lat="37.475127358170134" lon="14.472368065240715"><ele>451.0</ele><time>2026-04-06T09:16:55Z</time></trkpt><trkpt lat="37.475082330304694" lon="14.472494575608088"><ele>451.83333333333337</ele><time>2026-04-06T09:16:57Z</time></trkpt><trkpt lat="37.4750479379898" lon="14.472591535305925"><ele>452.6666666666667</ele><time>2026-04-06T09:16:59.001Z</time></trkpt><trkpt lat="37.474983017781504" lon="14.472641772174507"><ele>453.5</ele><time>2026-04-06T09:17:01Z</time></trkpt><trkpt lat="37.47489708675587" lon="14.472694860776192"><ele>454.33333333333337</ele><time>2026-04-06T09:17:02Z</time></trkpt><trkpt lat="37.47482380514496" lon="14.47275354606305"><ele>455.1666666666667</ele><time>2026-04-06T09:17:03Z</time></trkpt><trkpt lat="37.47475797792829" lon="14.472809383229507"><ele>456.0</ele><time>2026-04-06T09:17:05Z</time></trkpt><trkpt lat="37.47470408996538" lon="14.472856528631644"><ele>455.0</ele><time>2026-04-06T09:17:07Z</time></trkpt><trkpt lat="37.47460553604148" lon="14.472944992530218"><ele>454.0</ele><time>2026-04-06T09:17:10Z</time></trkpt><trkpt lat="37.474546076914926" lon="14.473002768218768"><ele>453.0</ele><time>2026-04-06T09:17:11Z</time></trkpt><trkpt lat="37.47448713690981" lon="14.47306251928953"><ele>452.0</ele><time>2026-04-06T09:17:12Z</time></trkpt><trkpt lat="37.47441702020402" lon="14.47313701272201"><ele>451.0</ele><time>2026-04-06T09:17:13Z</time></trkpt><trkpt lat="37.47435755087934" lon="14.473204804066587"><ele>450.0</ele><time>2026-04-06T09:17:14Z</time></trkpt><trkpt lat="37.474293986381156" lon="14.47328887809373"><ele>450.0</ele><time>2026-04-06T09:17:15Z</time></trkpt><trkpt lat="37.47423010910019" lon="14.473383917100756"><ele>450.0</ele><time>2026-04-06T09:17:16Z</time></trkpt><trkpt lat="37.47415992929037" lon="14.473493522538007"><ele>450.0</ele><time>2026-04-06T09:17:17Z</time></trkpt><trkpt lat="37.47409270779584" lon="14.47359938753814"><ele>450.0</ele><time>2026-04-06T09:17:18Z</time></trkpt><trkpt lat="37.474026389499436" lon="14.473701744992868"><ele>450.0</ele><time>2026-04-06T09:17:19Z</time></trkpt><trkpt lat="37.473957075112395" lon="14.473804195194766"><ele>451.6</ele><time>2026-04-06T09:17:20Z</time></trkpt><trkpt lat="37.473882294160504" lon="14.473914725241931"><ele>453.2</ele><time>2026-04-06T09:17:21Z</time></trkpt><trkpt lat="37.47381461164499" lon="14.474014930013345"><ele>454.79999999999995</ele><time>2026-04-06T09:17:22Z</time></trkpt><trkpt lat="37.473755797582434" lon="14.474103600908414"><ele>456.4</ele><time>2026-04-06T09:17:23Z</time></trkpt><trkpt lat="37.473699434137245" lon="14.474188577092441"><ele>458.0</ele><time>2026-04-06T09:17:24Z</time></trkpt><trkpt lat="37.4736451469019" lon="14.474270423144008"><ele>454.25</ele><time>2026-04-06T09:17:25Z</time></trkpt><trkpt lat="37.47359001631081" lon="14.47438031018202"><ele>450.5</ele><time>2026-04-06T09:17:26Z</time></trkpt><trkpt lat="37.47351424159984" lon="14.474498655391569"><ele>446.75</ele><time>2026-04-06T09:17:27Z</time></trkpt><trkpt lat="37.473432953289986" lon="14.474590336278188"><ele>443.0</ele><time>2026-04-06T09:17:28Z</time></trkpt><trkpt lat="37.47335613742311" lon="14.474703325296979"><ele>443.0</ele><time>2026-04-06T09:17:29Z</time></trkpt><trkpt lat="37.47326442558306" lon="14.474831977769087"><ele>443.0</ele><time>2026-04-06T09:17:30Z</time></trkpt><trkpt lat="37.47316804660321" lon="14.474963864791365"><ele>443.0</ele><time>2026-04-06T09:17:31Z</time></trkpt><trkpt lat="37.47307426395218" lon="14.475094574386459"><ele>443.0</ele><time>2026-04-06T09:17:32Z</time></trkpt><trkpt lat="37.47299281545173" lon="14.475248764069255"><ele>441.75</ele><time>2026-04-06T09:17:33Z</time></trkpt><trkpt lat="37.472897775413486" lon="14.475378561585241"><ele>440.5</ele><time>2026-04-06T09:17:34Z</time></trkpt><trkpt lat="37.47280970896808" lon="14.475505873821978"><ele>439.25</ele><time>2026-04-06T09:17:35Z</time></trkpt><trkpt lat="37.4727186606225" lon="14.47565391918463"><ele>438.0</ele><time>2026-04-06T09:17:36Z</time></trkpt><trkpt lat="37.47263606382833" lon="14.475798103087708"><ele>438.0</ele><time>2026-04-06T09:17:37Z</time></trkpt><trkpt lat="37.47254277743059" lon="14.475917488811282"><ele>437.99999999999994</ele><time>2026-04-06T09:17:38Z</time></trkpt><trkpt lat="37.4724638846329" lon="14.476036591554157"><ele>437.99999999999994</ele><time>2026-04-06T09:17:39Z</time></trkpt><trkpt lat="37.47239875736413" lon="14.47613074899655"><ele>438.0</ele><time>2026-04-06T09:17:40Z</time></trkpt><trkpt lat="37.47234846004482" lon="14.476209269738902"><ele>438.0</ele><time>2026-04-06T09:17:41Z</time></trkpt><trkpt lat="37.47226721354683" lon="14.476251638358686"><ele>438.0</ele><time>2026-04-06T09:17:42Z</time></trkpt><trkpt lat="37.47215775731009" lon="14.476249007866727"><ele>438.0</ele><time>2026-04-06T09:17:43Z</time></trkpt><trkpt lat="37.472019603697" lon="14.4762641891443"><ele>438.0</ele><time>2026-04-06T09:17:44Z</time></trkpt><trkpt lat="37.471858885535816" lon="14.476284360671636"><ele>438.0</ele><time>2026-04-06T09:17:45Z</time></trkpt><trkpt lat="37.4717143114305" lon="14.476306467158388"><ele>437.5</ele><time>2026-04-06T09:17:46Z</time></trkpt><trkpt lat="37.47158146330352" lon="14.476321445605745"><ele>437.0</ele><time>2026-04-06T09:17:47Z</time></trkpt><trkpt lat="37.47145586606589" lon="14.476323690277363"><ele>436.5</ele><time>2026-04-06T09:17:48Z</time></trkpt><trkpt lat="37.47134175833548" lon="14.476314491636519"><ele>436.0</ele><time>2026-04-06T09:17:49Z</time></trkpt><trkpt lat="37.47120735542292" lon="14.476304625283488"><ele>433.8</ele><time>2026-04-06T09:17:50Z</time></trkpt><trkpt lat="37.47108031013199" lon="14.47626707748767"><ele>431.6</ele><time>2026-04-06T09:17:51Z</time></trkpt><trkpt lat="37.470981463513134" lon="14.476199314729449"><ele>429.4</ele><time>2026-04-06T09:17:52Z</time></trkpt><trkpt lat="37.47087914031809" lon="14.476151165059335"><ele>427.2</ele><time>2026-04-06T09:17:53Z</time></trkpt><trkpt lat="37.47079036157509" lon="14.476111602978907"><ele>425.0</ele><time>2026-04-06T09:17:54Z</time></trkpt><trkpt lat="37.47070548607629" lon="14.476105209153552"><ele>425.0</ele><time>2026-04-06T09:17:55Z</time></trkpt><trkpt lat="37.470629457351095" lon="14.476104281721655"><ele>425.0</ele><time>2026-04-06T09:17:56Z</time></trkpt><trkpt lat="37.470562419513534" lon="14.476114945413137"><ele>425.0</ele><time>2026-04-06T09:17:57Z</time></trkpt><trkpt lat="37.47047258094247" lon="14.476181443851804"><ele>425.0</ele><time>2026-04-06T09:17:58Z</time></trkpt><trkpt lat="37.470380152307364" lon="14.476289416719432"><ele>425.0</ele><time>2026-04-06T09:17:59Z</time></trkpt><trkpt lat="37.47026216609609" lon="14.47639194305346"><ele>425.8</ele><time>2026-04-06T09:18:00Z</time></trkpt><trkpt lat="37.470161099681185" lon="14.476482854778787"><ele>426.6</ele><time>2026-04-06T09:18:01Z</time></trkpt><trkpt lat="37.47008326537183" lon="14.476589200983188"><ele>427.4</ele><time>2026-04-06T09:18:02Z</time></trkpt><trkpt lat="37.47001223552745" lon="14.476664169575905"><ele>428.2</ele><time>2026-04-06T09:18:03Z</time></trkpt><trkpt lat="37.4699516102872" lon="14.47671588295634"><ele>429.0</ele><time>2026-04-06T09:18:04Z</time></trkpt><trkpt lat="37.46991680219826" lon="14.476788916043617"><ele>429.0</ele><time>2026-04-06T09:18:05Z</time></trkpt><trkpt lat="37.46986844809334" lon="14.476879094236217"><ele>429.0</ele><time>2026-04-06T09:18:06Z</time></trkpt><trkpt lat="37.46985982045991" lon="14.476983762008485"><ele>429.0</ele><time>2026-04-06T09:18:07Z</time></trkpt><trkpt lat="37.469875483143994" lon="14.477111362107424"><ele>429.0</ele><time>2026-04-06T09:18:08Z</time></trkpt><trkpt lat="37.46989181736672" lon="14.477243737478547"><ele>429.0</ele><time>2026-04-06T09:18:09Z</time></trkpt><trkpt lat="37.469923731336436" lon="14.477397106951072"><ele>429.2</ele><time>2026-04-06T09:18:10Z</time></trkpt><trkpt lat="37.46994168879588" lon="14.47753811347664"><ele>429.4</ele><time>2026-04-06T09:18:11Z</time></trkpt><trkpt lat="37.46994210785442" lon="14.477674638743958"><ele>429.6</ele><time>2026-04-06T09:18:12Z</time></trkpt><trkpt lat="37.46991980044457" lon="14.477789939810474"><ele>429.8</ele><time>2026-04-06T09:18:13Z</time></trkpt><trkpt lat="37.469865914607304" lon="14.47792655846569"><ele>430.0</ele><time>2026-04-06T09:18:14Z</time></trkpt><trkpt lat="37.46979803374775" lon="14.47810131427984"><ele>428.75</ele><time>2026-04-06T09:18:15Z</time></trkpt><trkpt lat="37.469726095681835" lon="14.478270537536094"><ele>427.5</ele><time>2026-04-06T09:18:16Z</time></trkpt><trkpt lat="37.469641558337116" lon="14.478422023834668"><ele>426.25</ele><time>2026-04-06T09:18:17Z</time></trkpt><trkpt lat="37.46955583108272" lon="14.478552839319722"><ele>425.0</ele><time>2026-04-06T09:18:18Z</time></trkpt><trkpt lat="37.46948538491186" lon="14.478657631998217"><ele>423.0</ele><time>2026-04-06T09:18:19Z</time></trkpt><trkpt lat="37.469417262875965" lon="14.47875614748767"><ele>421.0</ele><time>2026-04-06T09:18:20Z</time></trkpt><trkpt lat="37.46933937078358" lon="14.47886735579053"><ele>419.0</ele><time>2026-04-06T09:18:21Z</time></trkpt><trkpt lat="37.469275694787896" lon="14.478956669680729"><ele>417.0</ele><time>2026-04-06T09:18:22Z</time></trkpt><trkpt lat="37.46922219875125" lon="14.479031704789646"><ele>415.0</ele><time>2026-04-06T09:18:23Z</time></trkpt><trkpt lat="37.469164145388646" lon="14.479118179341995"><ele>415.0</ele><time>2026-04-06T09:18:24Z</time></trkpt><trkpt lat="37.46911113052924" lon="14.479198971000322"><ele>415.0</ele><time>2026-04-06T09:18:25Z</time></trkpt><trkpt lat="37.46906002962818" lon="14.479268971616378"><ele>415.0</ele><time>2026-04-06T09:18:26Z</time></trkpt><trkpt lat="37.4690053102246" lon="14.479322409449551"><ele>415.0</ele><time>2026-04-06T09:18:27Z</time></trkpt><trkpt lat="37.468910705330174" lon="14.479373292725452"><ele>415.0</ele><time>2026-04-06T09:18:29Z</time></trkpt><trkpt lat="37.46879662303476" lon="14.479306652377085"><ele>415.0</ele><time>2026-04-06T09:18:31Z</time></trkpt><trkpt lat="37.46877323086485" lon="14.479206865786804"><ele>415.0</ele><time>2026-04-06T09:18:32Z</time></trkpt><trkpt lat="37.468754950007465" lon="14.47909262657006"><ele>415.0</ele><time>2026-04-06T09:18:33Z</time></trkpt><trkpt lat="37.4687876463279" lon="14.478950865197199"><ele>415.0</ele><time>2026-04-06T09:18:34Z</time></trkpt><trkpt lat="37.468831407247066" lon="14.478806727072346"><ele>415.0</ele><time>2026-04-06T09:18:35Z</time></trkpt><trkpt lat="37.46888190729206" lon="14.478678357526753"><ele>414.4</ele><time>2026-04-06T09:18:36Z</time></trkpt><trkpt lat="37.46891719794563" lon="14.478574682788262"><ele>413.8</ele><time>2026-04-06T09:18:37Z</time></trkpt><trkpt lat="37.46891205595674" lon="14.47848005972856"><ele>413.20000000000005</ele><time>2026-04-06T09:18:38Z</time></trkpt><trkpt lat="37.4688823584002" lon="14.478351644011813"><ele>412.6</ele><time>2026-04-06T09:18:40Z</time></trkpt><trkpt lat="37.46875301006156" lon="14.478299110395021"><ele>412.0</ele><time>2026-04-06T09:18:42Z</time></trkpt><trkpt lat="37.468675641003244" lon="14.478296580928982"><ele>408.0</ele><time>2026-04-06T09:18:43Z</time></trkpt><trkpt lat="37.4685671495207" lon="14.478358479631023"><ele>404.0</ele><time>2026-04-06T09:18:44Z</time></trkpt><trkpt lat="37.468474150927634" lon="14.478462138689691"><ele>400.0</ele><time>2026-04-06T09:18:45Z</time></trkpt><trkpt lat="37.468392563881004" lon="14.478571329759871"><ele>396.0</ele><time>2026-04-06T09:18:46Z</time></trkpt><trkpt lat="37.468320902011335" lon="14.478691032953614"><ele>396.75</ele><time>2026-04-06T09:18:47Z</time></trkpt><trkpt lat="37.468275668602196" lon="14.478811838199256"><ele>397.5</ele><time>2026-04-06T09:18:48Z</time></trkpt><trkpt lat="37.46825855921707" lon="14.478967717785363"><ele>398.25</ele><time>2026-04-06T09:18:49Z</time></trkpt><trkpt lat="37.46827415979314" lon="14.47913651251352"><ele>399.0</ele><time>2026-04-06T09:18:50Z</time></trkpt><trkpt lat="37.468284372035185" lon="14.479289855741213"><ele>399.0</ele><time>2026-04-06T09:18:51Z</time></trkpt><trkpt lat="37.46829693138649" lon="14.479457061348434"><ele>399.0</ele><time>2026-04-06T09:18:52Z</time></trkpt><trkpt lat="37.46831186420202" lon="14.479630880083374"><ele>399.0</ele><time>2026-04-06T09:18:53Z</time></trkpt><trkpt lat="37.46832843250282" lon="14.47977757178584"><ele>399.0</ele><time>2026-04-06T09:18:54Z</time></trkpt><trkpt lat="37.468349125823465" lon="14.479925760900139"><ele>397.75</ele><time>2026-04-06T09:18:55Z</time></trkpt><trkpt lat="37.46838865182769" lon="14.480088286522662"><ele>396.5</ele><time>2026-04-06T09:18:56Z</time></trkpt><trkpt lat="37.46845073044732" lon="14.480222649021584"><ele>395.25</ele><time>2026-04-06T09:18:57Z</time></trkpt><trkpt lat="37.468532597242344" lon="14.480338890818446"><ele>394.0</ele><time>2026-04-06T09:18:58Z</time></trkpt><trkpt lat="37.46861945678609" lon="14.480436944109618"><ele>392.0</ele><time>2026-04-06T09:18:59Z</time></trkpt><trkpt lat="37.46872974938766" lon="14.480517203657673"><ele>390.0</ele><time>2026-04-06T09:19:00Z</time></trkpt><trkpt lat="37.46886328943836" lon="14.480587224192794"><ele>388.0</ele><time>2026-04-06T09:19:01Z</time></trkpt><trkpt lat="37.46903169802368" lon="14.4806645231264"><ele>388.0</ele><time>2026-04-06T09:19:02Z</time></trkpt><trkpt lat="37.469212479812136" lon="14.480747692651482"><ele>388.0</ele><time>2026-04-06T09:19:03Z</time></trkpt><trkpt lat="37.4693990654716" lon="14.480834117814306"><ele>388.0</ele><time>2026-04-06T09:19:04Z</time></trkpt><trkpt lat="37.469566666926866" lon="14.480912976198661"><ele>389.5</ele><time>2026-04-06T09:19:05Z</time></trkpt><trkpt lat="37.469712401087314" lon="14.48098158688026"><ele>391.0</ele><time>2026-04-06T09:19:06Z</time></trkpt><trkpt lat="37.46985449616718" lon="14.481048484311174"><ele>392.5</ele><time>2026-04-06T09:19:06.999Z</time></trkpt><trkpt lat="37.46998538945665" lon="14.481111053615347"><ele>394.0</ele><time>2026-04-06T09:19:07.999Z</time></trkpt><trkpt lat="37.47011132751636" lon="14.4811713255406"><ele>394.0</ele><time>2026-04-06T09:19:08.999Z</time></trkpt><trkpt lat="37.47023368228393" lon="14.48123149689629"><ele>394.0</ele><time>2026-04-06T09:19:09.999Z</time></trkpt><trkpt lat="37.470334628781764" lon="14.481299378895335"><ele>394.0</ele><time>2026-04-06T09:19:10.999Z</time></trkpt><trkpt lat="37.47039892781085" lon="14.48139905450679"><ele>394.0</ele><time>2026-04-06T09:19:11.999Z</time></trkpt><trkpt lat="37.470468613064014" lon="14.481503146524853"><ele>393.0</ele><time>2026-04-06T09:19:12.999Z</time></trkpt><trkpt lat="37.4705213242436" lon="14.481610393584015"><ele>392.0</ele><time>2026-04-06T09:19:13.999Z</time></trkpt><trkpt lat="37.4705438615348" lon="14.481712968395913"><ele>391.0</ele><time>2026-04-06T09:19:14.999Z</time></trkpt><trkpt lat="37.470548248264116" lon="14.481814500413003"><ele>390.0</ele><time>2026-04-06T09:19:15.999Z</time></trkpt><trkpt lat="37.47050635309692" lon="14.48191537956664"><ele>389.0</ele><time>2026-04-06T09:19:16.999Z</time></trkpt><trkpt lat="37.470467408419154" lon="14.482079769794652"><ele>385.6</ele><time>2026-04-06T09:19:17.999Z</time></trkpt><trkpt lat="37.47043956340034" lon="14.482221718708276"><ele>382.2</ele><time>2026-04-06T09:19:18.999Z</time></trkpt><trkpt lat="37.47040983693088" lon="14.482348912896562"><ele>378.8</ele><time>2026-04-06T09:19:19.999Z</time></trkpt><trkpt lat="37.47038106018379" lon="14.482459058232005"><ele>375.40000000000003</ele><time>2026-04-06T09:19:20.999Z</time></trkpt><trkpt lat="37.47034866119864" lon="14.482554967448863"><ele>372.0</ele><time>2026-04-06T09:19:21.999Z</time></trkpt><trkpt lat="37.47029952729517" lon="14.482635650620072"><ele>372.0</ele><time>2026-04-06T09:19:22.999Z</time></trkpt><trkpt lat="37.4702411761064" lon="14.482700412799371"><ele>372.0</ele><time>2026-04-06T09:19:23.999Z</time></trkpt><trkpt lat="37.470162255069305" lon="14.48271443701755"><ele>372.0</ele><time>2026-04-06T09:19:24.999Z</time></trkpt><trkpt lat="37.470067042236856" lon="14.482695691945308"><ele>372.0</ele><time>2026-04-06T09:19:25.999Z</time></trkpt><trkpt lat="37.469937650621375" lon="14.48265426255902"><ele>372.0</ele><time>2026-04-06T09:19:26.999Z</time></trkpt><trkpt lat="37.469810556944324" lon="14.48261879165883"><ele>372.0</ele><time>2026-04-06T09:19:27.999Z</time></trkpt><trkpt lat="37.469701355530304" lon="14.482612501186024"><ele>372.0</ele><time>2026-04-06T09:19:28.999Z</time></trkpt><trkpt lat="37.46959327714411" lon="14.482633789253242"><ele>372.0</ele><time>2026-04-06T09:19:30Z</time></trkpt><trkpt lat="37.46944424312337" lon="14.482660075489663"><ele>372.0</ele><time>2026-04-06T09:19:31Z</time></trkpt><trkpt lat="37.46927138313773" lon="14.482761877880616"><ele>369.6666666666667</ele><time>2026-04-06T09:19:32Z</time></trkpt><trkpt lat="37.46911560001563" lon="14.482858240594163"><ele>367.33333333333337</ele><time>2026-04-06T09:19:33Z</time></trkpt><trkpt lat="37.4689885780421" lon="14.482960566122571"><ele>365.0</ele><time>2026-04-06T09:19:34Z</time></trkpt><trkpt lat="37.46886764601413" lon="14.483025716918693"><ele>362.0</ele><time>2026-04-06T09:19:35Z</time></trkpt><trkpt lat="37.46875714882932" lon="14.48309335584636"><ele>359.0</ele><time>2026-04-06T09:19:36Z</time></trkpt><trkpt lat="37.468653619583314" lon="14.483180763893152"><ele>356.0</ele><time>2026-04-06T09:19:37Z</time></trkpt><trkpt lat="37.468521393404586" lon="14.48328454364216"><ele>353.0</ele><time>2026-04-06T09:19:38Z</time></trkpt><trkpt lat="37.468410987778746" lon="14.483446544128716"><ele>353.0</ele><time>2026-04-06T09:19:39Z</time></trkpt><trkpt lat="37.46832999366683" lon="14.48358851405318"><ele>353.0</ele><time>2026-04-06T09:19:40Z</time></trkpt><trkpt lat="37.46825730600182" lon="14.483716314475647"><ele>353.0</ele><time>2026-04-06T09:19:41Z</time></trkpt><trkpt lat="37.46818454037004" lon="14.483843219110055"><ele>353.0</ele><time>2026-04-06T09:19:42Z</time></trkpt><trkpt lat="37.46812650710477" lon="14.48398220099527"><ele>353.5</ele><time>2026-04-06T09:19:43Z</time></trkpt><trkpt lat="37.468081544423335" lon="14.484123024000843"><ele>354.0</ele><time>2026-04-06T09:19:44Z</time></trkpt><trkpt lat="37.4680583178789" lon="14.484272537370758"><ele>354.5</ele><time>2026-04-06T09:19:45Z</time></trkpt><trkpt lat="37.46807521621745" lon="14.484452215355569"><ele>355.0</ele><time>2026-04-06T09:19:46Z</time></trkpt><trkpt lat="37.4681140067784" lon="14.484656997142826"><ele>352.0</ele><time>2026-04-06T09:19:47Z</time></trkpt><trkpt lat="37.46816162289494" lon="14.484867692531083"><ele>349.0</ele><time>2026-04-06T09:19:48Z</time></trkpt><trkpt lat="37.46820077536589" lon="14.485088965556741"><ele>346.0</ele><time>2026-04-06T09:19:49Z</time></trkpt><trkpt lat="37.4682342143904" lon="14.485285253140992"><ele>343.25</ele><time>2026-04-06T09:19:50Z</time></trkpt><trkpt lat="37.468270112152254" lon="14.485490414897258"><ele>340.5</ele><time>2026-04-06T09:19:51Z</time></trkpt><trkpt lat="37.468294606781726" lon="14.48561089865629"><ele>337.75</ele><time>2026-04-06T09:19:52Z</time></trkpt><trkpt lat="37.46832428695695" lon="14.485756888977571"><ele>335.0</ele><time>2026-04-06T09:19:53Z</time></trkpt><trkpt lat="37.46835125524316" lon="14.485894316938476"><ele>335.0</ele><time>2026-04-06T09:19:54Z</time></trkpt><trkpt lat="37.468370219797535" lon="14.48602092413524"><ele>335.0</ele><time>2026-04-06T09:19:55Z</time></trkpt><trkpt lat="37.46838949846075" lon="14.486128309833155"><ele>335.0</ele><time>2026-04-06T09:19:56Z</time></trkpt><trkpt lat="37.468371439341595" lon="14.486250420684629"><ele>335.0</ele><time>2026-04-06T09:19:57Z</time></trkpt><trkpt lat="37.46833281873178" lon="14.486348925020877"><ele>335.0</ele><time>2026-04-06T09:19:58Z</time></trkpt><trkpt lat="37.468262077494714" lon="14.486400906091148"><ele>333.2</ele><time>2026-04-06T09:19:59Z</time></trkpt><trkpt lat="37.46820010824526" lon="14.486454052370117"><ele>331.4</ele><time>2026-04-06T09:20:00Z</time></trkpt><trkpt lat="37.468105381511386" lon="14.486452279774786"><ele>329.6</ele><time>2026-04-06T09:20:01Z</time></trkpt><trkpt lat="37.46800008733497" lon="14.48643761996789"><ele>327.8</ele><time>2026-04-06T09:20:02Z</time></trkpt><trkpt lat="37.46784909319447" lon="14.486425584464332"><ele>326.0</ele><time>2026-04-06T09:20:03Z</time></trkpt><trkpt lat="37.46768577764468" lon="14.486410373446477"><ele>325.0</ele><time>2026-04-06T09:20:04Z</time></trkpt><trkpt lat="37.46755104256227" lon="14.486415042951139"><ele>324.0</ele><time>2026-04-06T09:20:05Z</time></trkpt><trkpt lat="37.46740657390495" lon="14.48640316625133"><ele>323.0</ele><time>2026-04-06T09:20:06Z</time></trkpt><trkpt lat="37.467244979629925" lon="14.486389353627807"><ele>322.0</ele><time>2026-04-06T09:20:07Z</time></trkpt><trkpt lat="37.46708965296708" lon="14.486373788738483"><ele>320.75</ele><time>2026-04-06T09:20:08Z</time></trkpt><trkpt lat="37.466953104005825" lon="14.486351352267922"><ele>319.5</ele><time>2026-04-06T09:20:09Z</time></trkpt><trkpt lat="37.46682467745144" lon="14.486346117687203"><ele>318.25</ele><time>2026-04-06T09:20:10Z</time></trkpt><trkpt lat="37.46669826681275" lon="14.486359090994172"><ele>317.0</ele><time>2026-04-06T09:20:11Z</time></trkpt><trkpt lat="37.466587302412044" lon="14.486406449620006"><ele>317.0</ele><time>2026-04-06T09:20:12Z</time></trkpt><trkpt lat="37.46650085926289" lon="14.486486192100388"><ele>317.0</ele><time>2026-04-06T09:20:13Z</time></trkpt><trkpt lat="37.466417368922976" lon="14.486593655329747"><ele>317.0</ele><time>2026-04-06T09:20:14Z</time></trkpt><trkpt lat="37.46633445901366" lon="14.486737947558357"><ele>317.0</ele><time>2026-04-06T09:20:15Z</time></trkpt><trkpt lat="37.46625121561601" lon="14.486915715950992"><ele>315.0</ele><time>2026-04-06T09:20:16Z</time></trkpt><trkpt lat="37.466154446313176" lon="14.48712706330035"><ele>313.0</ele><time>2026-04-06T09:20:17Z</time></trkpt><trkpt lat="37.46606294930823" lon="14.487311241670007"><ele>311.0</ele><time>2026-04-06T09:20:18Z</time></trkpt><trkpt lat="37.46596152622045" lon="14.487502974139785"><ele>311.0</ele><time>2026-04-06T09:20:19Z</time></trkpt><trkpt lat="37.46585037089606" lon="14.487703206770988"><ele>311.0</ele><time>2026-04-06T09:20:20Z</time></trkpt><trkpt lat="37.46575600123363" lon="14.48787827968739"><ele>311.0</ele><time>2026-04-06T09:20:21Z</time></trkpt><trkpt lat="37.46568018862377" lon="14.488050199975234"><ele>310.33333333333337</ele><time>2026-04-06T09:20:22Z</time></trkpt><trkpt lat="37.46560222986549" lon="14.488192119861166"><ele>309.6666666666667</ele><time>2026-04-06T09:20:23Z</time></trkpt><trkpt lat="37.46550887230846" lon="14.48833072883323"><ele>309.0</ele><time>2026-04-06T09:20:24Z</time></trkpt><trkpt lat="37.465380999977384" lon="14.488596586550523"><ele>308.0</ele><time>2026-04-06T09:20:25Z</time></trkpt><trkpt lat="37.46528838444421" lon="14.488770163693488"><ele>307.0</ele><time>2026-04-06T09:20:26Z</time></trkpt><trkpt lat="37.465184966608945" lon="14.488926834944742"><ele>306.0</ele><time>2026-04-06T09:20:27Z</time></trkpt><trkpt lat="37.465091503181945" lon="14.489103294593898"><ele>306.0</ele><time>2026-04-06T09:20:28Z</time></trkpt><trkpt lat="37.46500298812455" lon="14.4893070458109"><ele>306.0</ele><time>2026-04-06T09:20:29Z</time></trkpt><trkpt lat="37.46488759871355" lon="14.489488185509108"><ele>306.0</ele><time>2026-04-06T09:20:30Z</time></trkpt><trkpt lat="37.46477322774559" lon="14.48969912939445"><ele>305.0</ele><time>2026-04-06T09:20:31Z</time></trkpt><trkpt lat="37.46468629511316" lon="14.489895914241544"><ele>304.0</ele><time>2026-04-06T09:20:32Z</time></trkpt><trkpt lat="37.46458028549833" lon="14.490084888090864"><ele>303.0</ele><time>2026-04-06T09:20:33Z</time></trkpt><trkpt lat="37.46447180373958" lon="14.490283586544013"><ele>302.3333333333333</ele><time>2026-04-06T09:20:34Z</time></trkpt><trkpt lat="37.46435775582229" lon="14.490493625284374"><ele>301.66666666666663</ele><time>2026-04-06T09:20:35Z</time></trkpt><trkpt lat="37.4642617332934" lon="14.490683017364148"><ele>301.0</ele><time>2026-04-06T09:20:36Z</time></trkpt><trkpt lat="37.464146058230654" lon="14.490861565547904"><ele>301.0</ele><time>2026-04-06T09:20:37Z</time></trkpt><trkpt lat="37.46405309687503" lon="14.491033836273681"><ele>301.0</ele><time>2026-04-06T09:20:38Z</time></trkpt><trkpt lat="37.463948108272" lon="14.491228099113153"><ele>301.0</ele><time>2026-04-06T09:20:39Z</time></trkpt><trkpt lat="37.46380991185697" lon="14.491483935525643"><ele>299.3333333333333</ele><time>2026-04-06T09:20:40Z</time></trkpt><trkpt lat="37.46368176929041" lon="14.491721159636354"><ele>297.6666666666667</ele><time>2026-04-06T09:20:41Z</time></trkpt><trkpt lat="37.463557958799456" lon="14.491949773919893"><ele>296.0</ele><time>2026-04-06T09:20:42Z</time></trkpt><trkpt lat="37.46346125024703" lon="14.4921272320053"><ele>295.0</ele><time>2026-04-06T09:20:43Z</time></trkpt><trkpt lat="37.46335890920787" lon="14.492315025663958"><ele>294.0</ele><time>2026-04-06T09:20:44Z</time></trkpt><trkpt lat="37.463254225423285" lon="14.492507118197612"><ele>293.0</ele><time>2026-04-06T09:20:45Z</time></trkpt><trkpt lat="37.46315419244316" lon="14.492691161826318"><ele>293.0</ele><time>2026-04-06T09:20:46Z</time></trkpt><trkpt lat="37.46306597933223" lon="14.492885321173402"><ele>293.0</ele><time>2026-04-06T09:20:47Z</time></trkpt><trkpt lat="37.46295090516749" lon="14.493091522357279"><ele>293.0</ele><time>2026-04-06T09:20:48Z</time></trkpt><trkpt lat="37.46284224059829" lon="14.493270927337381"><ele>292.6666666666667</ele><time>2026-04-06T09:20:49Z</time></trkpt><trkpt lat="37.46275445732383" lon="14.493464164471472"><ele>292.3333333333333</ele><time>2026-04-06T09:20:50Z</time></trkpt><trkpt lat="37.46265257777189" lon="14.493634768764146"><ele>292.0</ele><time>2026-04-06T09:20:51Z</time></trkpt><trkpt lat="37.46255231043662" lon="14.49382361347026"><ele>292.0</ele><time>2026-04-06T09:20:52Z</time></trkpt><trkpt lat="37.46244598489142" lon="14.49401456351707"><ele>292.0</ele><time>2026-04-06T09:20:53Z</time></trkpt><trkpt lat="37.462337920594024" lon="14.494199197442674"><ele>292.0</ele><time>2026-04-06T09:20:54Z</time></trkpt><trkpt lat="37.46220799426971" lon="14.494405983426383"><ele>290.0</ele><time>2026-04-06T09:20:55Z</time></trkpt><trkpt lat="37.46206830801753" lon="14.494611909368196"><ele>288.0</ele><time>2026-04-06T09:20:56Z</time></trkpt><trkpt lat="37.46193912710037" lon="14.494799577267521"><ele>286.0</ele><time>2026-04-06T09:20:57Z</time></trkpt><trkpt lat="37.46181289489779" lon="14.49497932614981"><ele>286.0</ele><time>2026-04-06T09:20:58Z</time></trkpt><trkpt lat="37.46168779636024" lon="14.495157460541233"><ele>286.0</ele><time>2026-04-06T09:20:59Z</time></trkpt><trkpt lat="37.461570570122326" lon="14.495328418806"><ele>286.0</ele><time>2026-04-06T09:21:00Z</time></trkpt><trkpt lat="37.461442617979316" lon="14.495518500255029"><ele>285.0</ele><time>2026-04-06T09:21:01Z</time></trkpt><trkpt lat="37.46131218680677" lon="14.495714441472701"><ele>284.0</ele><time>2026-04-06T09:21:02Z</time></trkpt><trkpt lat="37.46118118001524" lon="14.495910084481118"><ele>283.0</ele><time>2026-04-06T09:21:03Z</time></trkpt><trkpt lat="37.46105980083948" lon="14.49608723629562"><ele>281.66666666666663</ele><time>2026-04-06T09:21:04Z</time></trkpt><trkpt lat="37.460945544261484" lon="14.496253924786307"><ele>280.3333333333333</ele><time>2026-04-06T09:21:05Z</time></trkpt><trkpt lat="37.460833927236614" lon="14.496416243387804"><ele>279.0</ele><time>2026-04-06T09:21:06Z</time></trkpt><trkpt lat="37.460729355890955" lon="14.496575307761182"><ele>279.0</ele><time>2026-04-06T09:21:07Z</time></trkpt><trkpt lat="37.46062702132584" lon="14.49672665814743"><ele>279.0</ele><time>2026-04-06T09:21:08Z</time></trkpt><trkpt lat="37.46052769360429" lon="14.496852241714217"><ele>279.0</ele><time>2026-04-06T09:21:09Z</time></trkpt><trkpt lat="37.460416187508706" lon="14.496951742575126"><ele>279.0</ele><time>2026-04-06T09:21:10Z</time></trkpt><trkpt lat="37.46029481238475" lon="14.497022873425452"><ele>278.0</ele><time>2026-04-06T09:21:11Z</time></trkpt><trkpt lat="37.46014792590733" lon="14.497121782274176"><ele>277.0</ele><time>2026-04-06T09:21:12Z</time></trkpt><trkpt lat="37.45997253545739" lon="14.497197097690135"><ele>276.0</ele><time>2026-04-06T09:21:12.999Z</time></trkpt><trkpt lat="37.45982000715967" lon="14.497262604009787"><ele>276.0</ele><time>2026-04-06T09:21:13.999Z</time></trkpt><trkpt lat="37.45968993846454" lon="14.49732598715854"><ele>276.0</ele><time>2026-04-06T09:21:14.999Z</time></trkpt><trkpt lat="37.459575680940496" lon="14.497396203094764"><ele>276.0</ele><time>2026-04-06T09:21:15.999Z</time></trkpt><trkpt lat="37.45947862637368" lon="14.497495606727822"><ele>276.0</ele><time>2026-04-06T09:21:16.999Z</time></trkpt><trkpt lat="37.459383397377515" lon="14.497609248151154"><ele>273.0</ele><time>2026-04-06T09:21:17.999Z</time></trkpt><trkpt lat="37.459284172253355" lon="14.497765557900463"><ele>270.0</ele><time>2026-04-06T09:21:18.999Z</time></trkpt><trkpt lat="37.45916861960923" lon="14.497963295116445"><ele>267.0</ele><time>2026-04-06T09:21:19.999Z</time></trkpt><trkpt lat="37.45906857066596" lon="14.498156951623693"><ele>267.0</ele><time>2026-04-06T09:21:20.999Z</time></trkpt><trkpt lat="37.458951352750816" lon="14.498316234421589"><ele>267.0</ele><time>2026-04-06T09:21:21.999Z</time></trkpt><trkpt lat="37.45884626473622" lon="14.498486186890466"><ele>267.0</ele><time>2026-04-06T09:21:22.999Z</time></trkpt><trkpt lat="37.45874171400418" lon="14.498658100595893"><ele>264.3333333333333</ele><time>2026-04-06T09:21:23.999Z</time></trkpt><trkpt lat="37.458633686296096" lon="14.498836019747882"><ele>261.66666666666663</ele><time>2026-04-06T09:21:24.999Z</time></trkpt><trkpt lat="37.458534375057155" lon="14.498999976703319"><ele>259.0</ele><time>2026-04-06T09:21:25.999Z</time></trkpt><trkpt lat="37.45844355165195" lon="14.499149969604739"><ele>259.0</ele><time>2026-04-06T09:21:26.999Z</time></trkpt><trkpt lat="37.458358011863815" lon="14.49929123667681"><ele>259.0</ele><time>2026-04-06T09:21:27.999Z</time></trkpt><trkpt lat="37.45827154021913" lon="14.499436123914649"><ele>259.0</ele><time>2026-04-06T09:21:28.999Z</time></trkpt><trkpt lat="37.458187251521736" lon="14.49958053516913"><ele>259.0</ele><time>2026-04-06T09:21:29.999Z</time></trkpt><trkpt lat="37.45811132641673" lon="14.499713095226573"><ele>258.8</ele><time>2026-04-06T09:21:30.999Z</time></trkpt><trkpt lat="37.45804302005922" lon="14.499836365483926"><ele>258.59999999999997</ele><time>2026-04-06T09:21:31.999Z</time></trkpt><trkpt lat="37.45798644208452" lon="14.499951707519507"><ele>258.4</ele><time>2026-04-06T09:21:32.999Z</time></trkpt><trkpt lat="37.457944580730924" lon="14.500054267922446"><ele>258.2</ele><time>2026-04-06T09:21:34Z</time></trkpt><trkpt lat="37.45791963392195" lon="14.500142576704166"><ele>258.0</ele><time>2026-04-06T09:21:35Z</time></trkpt><trkpt lat="37.457902156007265" lon="14.50023123619275"><ele>257.4</ele><time>2026-04-06T09:21:36Z</time></trkpt><trkpt lat="37.45788542209635" lon="14.500341568652455"><ele>256.8</ele><time>2026-04-06T09:21:37Z</time></trkpt><trkpt lat="37.457867798190996" lon="14.500459998792003"><ele>256.2</ele><time>2026-04-06T09:21:38Z</time></trkpt><trkpt lat="37.457844819498504" lon="14.500579558442329"><ele>255.6</ele><time>2026-04-06T09:21:39Z</time></trkpt><trkpt lat="37.45781992124736" lon="14.50070617918951"><ele>255.0</ele><time>2026-04-06T09:21:40Z</time></trkpt><trkpt lat="37.457821441405805" lon="14.50085511007157"><ele>254.8</ele><time>2026-04-06T09:21:41Z</time></trkpt><trkpt lat="37.45780224219293" lon="14.500964825159226"><ele>254.6</ele><time>2026-04-06T09:21:42Z</time></trkpt><trkpt lat="37.457819415138815" lon="14.50107651708681"><ele>254.39999999999998</ele><time>2026-04-06T09:21:43Z</time></trkpt><trkpt lat="37.457873498457445" lon="14.501178166260352"><ele>254.2</ele><time>2026-04-06T09:21:44Z</time></trkpt><trkpt lat="37.45795580016235" lon="14.501294599769718"><ele>254.0</ele><time>2026-04-06T09:21:45Z</time></trkpt><trkpt lat="37.45806748866731" lon="14.501437783548338"><ele>255.0</ele><time>2026-04-06T09:21:46Z</time></trkpt><trkpt lat="37.45817453795456" lon="14.501624572609977"><ele>256.0</ele><time>2026-04-06T09:21:47Z</time></trkpt><trkpt lat="37.458240243285985" lon="14.501764243264597"><ele>257.0</ele><time>2026-04-06T09:21:48Z</time></trkpt><trkpt lat="37.45827265551778" lon="14.50189525554585"><ele>258.0</ele><time>2026-04-06T09:21:49Z</time></trkpt><trkpt lat="37.458291101852666" lon="14.502044211226705"><ele>256.75</ele><time>2026-04-06T09:21:50Z</time></trkpt><trkpt lat="37.45831375630032" lon="14.502212474748205"><ele>255.5</ele><time>2026-04-06T09:21:51Z</time></trkpt><trkpt lat="37.45833777710959" lon="14.502391315503393"><ele>254.25</ele><time>2026-04-06T09:21:52Z</time></trkpt><trkpt lat="37.45836348558896" lon="14.502602988898746"><ele>253.0</ele><time>2026-04-06T09:21:53Z</time></trkpt><trkpt lat="37.45841625396883" lon="14.502796670821807"><ele>252.66666666666666</ele><time>2026-04-06T09:21:54Z</time></trkpt><trkpt lat="37.458435543683485" lon="14.502974551398633"><ele>252.33333333333331</ele><time>2026-04-06T09:21:55Z</time></trkpt><trkpt lat="37.45849373903552" lon="14.503193270587907"><ele>252.0</ele><time>2026-04-06T09:21:56Z</time></trkpt><trkpt lat="37.45856122348211" lon="14.503413405311898"><ele>252.0</ele><time>2026-04-06T09:21:57Z</time></trkpt><trkpt lat="37.458623835851604" lon="14.503614604419933"><ele>252.0</ele><time>2026-04-06T09:21:58Z</time></trkpt><trkpt lat="37.45868847783065" lon="14.503821458938212"><ele>252.0</ele><time>2026-04-06T09:21:59Z</time></trkpt><trkpt lat="37.45874909918329" lon="14.504016990828216"><ele>252.33333333333331</ele><time>2026-04-06T09:22:00Z</time></trkpt><trkpt lat="37.4588049745452" lon="14.504204263454275"><ele>252.66666666666666</ele><time>2026-04-06T09:22:01Z</time></trkpt><trkpt lat="37.45886460371859" lon="14.504407047088996"><ele>253.0</ele><time>2026-04-06T09:22:02Z</time></trkpt><trkpt lat="37.45892380826121" lon="14.504593654649032"><ele>253.0</ele><time>2026-04-06T09:22:03Z</time></trkpt><trkpt lat="37.45897516623693" lon="14.504761273256117"><ele>253.0</ele><time>2026-04-06T09:22:04Z</time></trkpt><trkpt lat="37.45901806014879" lon="14.504908131788588"><ele>253.0</ele><time>2026-04-06T09:22:05Z</time></trkpt><trkpt lat="37.459049056991766" lon="14.505046160648108"><ele>253.0</ele><time>2026-04-06T09:22:06Z</time></trkpt><trkpt lat="37.45906089598094" lon="14.505181491038174"><ele>253.0</ele><time>2026-04-06T09:22:07Z</time></trkpt><trkpt lat="37.45906654939137" lon="14.505311053953626"><ele>253.0</ele><time>2026-04-06T09:22:08Z</time></trkpt><trkpt lat="37.45908184789665" lon="14.505442848221952"><ele>253.0</ele><time>2026-04-06T09:22:09Z</time></trkpt><trkpt lat="37.45907285093389" lon="14.505563829064604"><ele>253.0</ele><time>2026-04-06T09:22:10Z</time></trkpt><trkpt lat="37.45907580084321" lon="14.50569670542279"><ele>253.0</ele><time>2026-04-06T09:22:11Z</time></trkpt><trkpt lat="37.45907760408637" lon="14.50580856301667"><ele>252.5</ele><time>2026-04-06T09:22:12Z</time></trkpt><trkpt lat="37.45907868580811" lon="14.505920455165066"><ele>252.0</ele><time>2026-04-06T09:22:13Z</time></trkpt><trkpt lat="37.45909537817104" lon="14.506081320245789"><ele>251.5</ele><time>2026-04-06T09:22:14Z</time></trkpt><trkpt lat="37.45907817359675" lon="14.506218212144647"><ele>251.0</ele><time>2026-04-06T09:22:15Z</time></trkpt><trkpt lat="37.45907690021253" lon="14.506377007745536"><ele>251.0</ele><time>2026-04-06T09:22:16Z</time></trkpt><trkpt lat="37.45907531616843" lon="14.506574542623563"><ele>251.0</ele><time>2026-04-06T09:22:17Z</time></trkpt><trkpt lat="37.45907373160762" lon="14.506772142274162"><ele>251.0</ele><time>2026-04-06T09:22:18Z</time></trkpt><trkpt lat="37.45907208670906" lon="14.506977261600275"><ele>251.66666666666669</ele><time>2026-04-06T09:22:19Z</time></trkpt><trkpt lat="37.45909108329412" lon="14.507215931204211"><ele>252.33333333333331</ele><time>2026-04-06T09:22:20Z</time></trkpt><trkpt lat="37.45908812641428" lon="14.507435750802761"><ele>253.0</ele><time>2026-04-06T09:22:21Z</time></trkpt><trkpt lat="37.459063478323166" lon="14.50766215113682"><ele>253.0</ele><time>2026-04-06T09:22:22Z</time></trkpt><trkpt lat="37.4590510270714" lon="14.50786827691403"><ele>253.0</ele><time>2026-04-06T09:22:23Z</time></trkpt><trkpt lat="37.45903535944355" lon="14.508040771610538"><ele>253.0</ele><time>2026-04-06T09:22:24Z</time></trkpt><trkpt lat="37.45902227519374" lon="14.508192087295052"><ele>253.0</ele><time>2026-04-06T09:22:25Z</time></trkpt><trkpt lat="37.45901218337838" lon="14.508359245766409"><ele>253.2</ele><time>2026-04-06T09:22:26Z</time></trkpt><trkpt lat="37.45900548722925" lon="14.508504994023419"><ele>253.4</ele><time>2026-04-06T09:22:27Z</time></trkpt><trkpt lat="37.4590040031103" lon="14.508645394672268"><ele>253.59999999999997</ele><time>2026-04-06T09:22:28Z</time></trkpt><trkpt lat="37.45900675460751" lon="14.508768124029913"><ele>253.79999999999998</ele><time>2026-04-06T09:22:29Z</time></trkpt><trkpt lat="37.459005869961146" lon="14.508894785275885"><ele>254.0</ele><time>2026-04-06T09:22:30Z</time></trkpt><trkpt lat="37.4590112907356" lon="14.509022814582028"><ele>254.00000000000003</ele><time>2026-04-06T09:22:31Z</time></trkpt><trkpt lat="37.45898517714819" lon="14.509130705419189"><ele>254.0</ele><time>2026-04-06T09:22:32Z</time></trkpt><trkpt lat="37.45899371925209" lon="14.509226475243878"><ele>254.0</ele><time>2026-04-06T09:22:33Z</time></trkpt><trkpt lat="37.458979429688306" lon="14.50931387513305"><ele>254.0</ele><time>2026-04-06T09:22:34Z</time></trkpt><trkpt lat="37.45896043080055" lon="14.509425628929677"><ele>254.00000000000003</ele><time>2026-04-06T09:22:35Z</time></trkpt><trkpt lat="37.45895018458711" lon="14.509548904765161"><ele>254.0</ele><time>2026-04-06T09:22:36Z</time></trkpt><trkpt lat="37.4589426365022" lon="14.509659665629538"><ele>254.00000000000003</ele><time>2026-04-06T09:22:37Z</time></trkpt><trkpt lat="37.4589356567208" lon="14.509762087255847"><ele>254.0</ele><time>2026-04-06T09:22:38Z</time></trkpt><trkpt lat="37.4589403525611" lon="14.509859239068705"><ele>254.0</ele><time>2026-04-06T09:22:39Z</time></trkpt><trkpt lat="37.45892710541822" lon="14.509950783421157"><ele>254.0</ele><time>2026-04-06T09:22:40Z</time></trkpt><trkpt lat="37.45891593611342" lon="14.510034343204383"><ele>254.00000000000003</ele><time>2026-04-06T09:22:41Z</time></trkpt><trkpt lat="37.458913941956844" lon="14.510145460909744"><ele>254.0</ele><time>2026-04-06T09:22:42Z</time></trkpt><trkpt lat="37.458912489296345" lon="14.510291237440171"><ele>254.39999999999998</ele><time>2026-04-06T09:22:43Z</time></trkpt><trkpt lat="37.45890067563457" lon="14.510455234970655"><ele>254.79999999999998</ele><time>2026-04-06T09:22:44Z</time></trkpt><trkpt lat="37.45887689711754" lon="14.510600673416961"><ele>255.20000000000002</ele><time>2026-04-06T09:22:45Z</time></trkpt><trkpt lat="37.45888193993115" lon="14.510705789522843"><ele>255.60000000000002</ele><time>2026-04-06T09:22:46Z</time></trkpt><trkpt lat="37.45885957835828" lon="14.51078409546919"><ele>256.0</ele><time>2026-04-06T09:22:47Z</time></trkpt><trkpt lat="37.45886347247523" lon="14.510905739980913"><ele>255.99999999999997</ele><time>2026-04-06T09:22:49Z</time></trkpt><trkpt lat="37.45885481066189" lon="14.51098554558221"><ele>256.0</ele><time>2026-04-06T09:22:51Z</time></trkpt><trkpt lat="37.458844363341754" lon="14.51106831701305"><ele>256.0</ele><time>2026-04-06T09:22:53Z</time></trkpt><trkpt lat="37.458841028810625" lon="14.511148481721317"><ele>256.0</ele><time>2026-04-06T09:22:54Z</time></trkpt><trkpt lat="37.45882735467233" lon="14.51127579685429"><ele>255.99999999999997</ele><time>2026-04-06T09:22:55Z</time></trkpt><trkpt lat="37.45879708311988" lon="14.511400115635567"><ele>256.0</ele><time>2026-04-06T09:22:56Z</time></trkpt><trkpt lat="37.4587595559165" lon="14.511575938005837"><ele>253.33333333333331</ele><time>2026-04-06T09:22:57Z</time></trkpt><trkpt lat="37.458699787626585" lon="14.511772426553021"><ele>250.66666666666669</ele><time>2026-04-06T09:22:58Z</time></trkpt><trkpt lat="37.45862580482885" lon="14.511995241641266"><ele>248.0</ele><time>2026-04-06T09:22:59Z</time></trkpt><trkpt lat="37.45854523455495" lon="14.512240282300715"><ele>247.0</ele><time>2026-04-06T09:23:00Z</time></trkpt><trkpt lat="37.45846749967736" lon="14.512473995712611"><ele>246.0</ele><time>2026-04-06T09:23:01Z</time></trkpt><trkpt lat="37.45838713432693" lon="14.512718456187645"><ele>245.0</ele><time>2026-04-06T09:23:02Z</time></trkpt><trkpt lat="37.458306791067194" lon="14.512963591851598"><ele>244.66666666666669</ele><time>2026-04-06T09:23:03Z</time></trkpt><trkpt lat="37.45823658370564" lon="14.513177985926704"><ele>244.33333333333331</ele><time>2026-04-06T09:23:04Z</time></trkpt><trkpt lat="37.45817370927978" lon="14.513369987760997"><ele>244.0</ele><time>2026-04-06T09:23:05Z</time></trkpt><trkpt lat="37.458118110270696" lon="14.513539771500005"><ele>244.0</ele><time>2026-04-06T09:23:06Z</time></trkpt><trkpt lat="37.458067514747306" lon="14.513694277130954"><ele>244.0</ele><time>2026-04-06T09:23:07Z</time></trkpt><trkpt lat="37.45801587266913" lon="14.513853857555244"><ele>244.0</ele><time>2026-04-06T09:23:08Z</time></trkpt><trkpt lat="37.45796731337522" lon="14.514004281708347"><ele>244.0</ele><time>2026-04-06T09:23:09Z</time></trkpt><trkpt lat="37.457918943815734" lon="14.514154118576997"><ele>243.5</ele><time>2026-04-06T09:23:10Z</time></trkpt><trkpt lat="37.457883312647866" lon="14.514315291804271"><ele>243.0</ele><time>2026-04-06T09:23:11Z</time></trkpt><trkpt lat="37.45782526917412" lon="14.514484737017572"><ele>242.5</ele><time>2026-04-06T09:23:12Z</time></trkpt><trkpt lat="37.45776915777137" lon="14.51464886400943"><ele>242.0</ele><time>2026-04-06T09:23:13Z</time></trkpt><trkpt lat="37.45771589786464" lon="14.514793053533586"><ele>241.75</ele><time>2026-04-06T09:23:14Z</time></trkpt><trkpt lat="37.45767140723823" lon="14.514919482969635"><ele>241.5</ele><time>2026-04-06T09:23:15Z</time></trkpt><trkpt lat="37.45762465488368" lon="14.515059158422034"><ele>241.25</ele><time>2026-04-06T09:23:16Z</time></trkpt><trkpt lat="37.457575096381504" lon="14.515221570486714"><ele>241.0</ele><time>2026-04-06T09:23:17Z</time></trkpt><trkpt lat="37.457526059493865" lon="14.515374532431107"><ele>241.25</ele><time>2026-04-06T09:23:18Z</time></trkpt><trkpt lat="37.45747818154473" lon="14.515525921841112"><ele>241.5</ele><time>2026-04-06T09:23:19Z</time></trkpt><trkpt lat="37.45748750485734" lon="14.515706783595833"><ele>241.75</ele><time>2026-04-06T09:23:20Z</time></trkpt><trkpt lat="37.45746993007258" lon="14.515898126294516"><ele>242.0</ele><time>2026-04-06T09:23:21Z</time></trkpt><trkpt lat="37.45744951315026" lon="14.516080352012866"><ele>242.66666666666669</ele><time>2026-04-06T09:23:22Z</time></trkpt><trkpt lat="37.45742680191694" lon="14.516264771396477"><ele>243.33333333333331</ele><time>2026-04-06T09:23:23Z</time></trkpt><trkpt lat="37.45737581821218" lon="14.51643141098482"><ele>244.0</ele><time>2026-04-06T09:23:24Z</time></trkpt><trkpt lat="37.457345620762545" lon="14.51663309709799"><ele>244.0</ele><time>2026-04-06T09:23:25Z</time></trkpt><trkpt lat="37.45731312898687" lon="14.516850106706867"><ele>244.0</ele><time>2026-04-06T09:23:26Z</time></trkpt><trkpt lat="37.45728656278547" lon="14.51705278002514"><ele>244.0</ele><time>2026-04-06T09:23:27Z</time></trkpt><trkpt lat="37.457262950333714" lon="14.517240617413668"><ele>244.25</ele><time>2026-04-06T09:23:28Z</time></trkpt><trkpt lat="37.4572390538429" lon="14.517432641674239"><ele>244.5</ele><time>2026-04-06T09:23:29Z</time></trkpt><trkpt lat="37.45721836087892" lon="14.517607006749195"><ele>244.75</ele><time>2026-04-06T09:23:30Z</time></trkpt><trkpt lat="37.45713641338253" lon="14.517741372595578"><ele>245.0</ele><time>2026-04-06T09:23:31Z</time></trkpt><trkpt lat="37.457041983968914" lon="14.517874582622845"><ele>241.0</ele><time>2026-04-06T09:23:32Z</time></trkpt><trkpt lat="37.45691268759943" lon="14.518042747056844"><ele>237.0</ele><time>2026-04-06T09:23:33Z</time></trkpt><trkpt lat="37.45677062025553" lon="14.51823009673686"><ele>233.0</ele><time>2026-04-06T09:23:34Z</time></trkpt><trkpt lat="37.45661115866802" lon="14.518442117464424"><ele>233.0</ele><time>2026-04-06T09:23:35Z</time></trkpt><trkpt lat="37.456445028467535" lon="14.518663004950344"><ele>233.0</ele><time>2026-04-06T09:23:36Z</time></trkpt><trkpt lat="37.45626984968562" lon="14.518898145627544"><ele>233.66666666666669</ele><time>2026-04-06T09:23:37Z</time></trkpt><trkpt lat="37.456125437470654" lon="14.519093790343124"><ele>234.33333333333331</ele><time>2026-04-06T09:23:38Z</time></trkpt><trkpt lat="37.455995190815734" lon="14.519264173763661"><ele>235.0</ele><time>2026-04-06T09:23:39Z</time></trkpt><trkpt lat="37.455903781666166" lon="14.519411544162836"><ele>235.0</ele><time>2026-04-06T09:23:40Z</time></trkpt><trkpt lat="37.45581226069471" lon="14.519525727174566"><ele>235.0</ele><time>2026-04-06T09:23:41Z</time></trkpt><trkpt lat="37.45574033697866" lon="14.519640354707281"><ele>235.0</ele><time>2026-04-06T09:23:42Z</time></trkpt><trkpt lat="37.45568987744285" lon="14.519777955092398"><ele>235.0</ele><time>2026-04-06T09:23:43Z</time></trkpt><trkpt lat="37.455658903060005" lon="14.519948261280968"><ele>236.66666666666666</ele><time>2026-04-06T09:23:44Z</time></trkpt><trkpt lat="37.45563748847338" lon="14.520153663993636"><ele>238.33333333333331</ele><time>2026-04-06T09:23:45Z</time></trkpt><trkpt lat="37.45561809387415" lon="14.520397507713676"><ele>240.0</ele><time>2026-04-06T09:23:46Z</time></trkpt><trkpt lat="37.45557090984265" lon="14.520646424098233"><ele>240.33333333333331</ele><time>2026-04-06T09:23:47Z</time></trkpt><trkpt lat="37.45553920134514" lon="14.520879636283846"><ele>240.66666666666666</ele><time>2026-04-06T09:23:48Z</time></trkpt><trkpt lat="37.45551231027189" lon="14.521068463371074"><ele>241.0</ele><time>2026-04-06T09:23:49Z</time></trkpt><trkpt lat="37.455491116309545" lon="14.52122790218315"><ele>241.0</ele><time>2026-04-06T09:23:50Z</time></trkpt><trkpt lat="37.455466731922535" lon="14.521405445528057"><ele>241.0</ele><time>2026-04-06T09:23:51Z</time></trkpt><trkpt lat="37.45543552712903" lon="14.521616759268403"><ele>241.0</ele><time>2026-04-06T09:23:52Z</time></trkpt><trkpt lat="37.45540671111159" lon="14.52181570290872"><ele>237.33333333333331</ele><time>2026-04-06T09:23:53Z</time></trkpt><trkpt lat="37.45538036317688" lon="14.522010628842601"><ele>233.66666666666669</ele><time>2026-04-06T09:23:54Z</time></trkpt><trkpt lat="37.45535183196067" lon="14.52222170697517"><ele>230.0</ele><time>2026-04-06T09:23:55Z</time></trkpt><trkpt lat="37.45532547274022" lon="14.522424042799924"><ele>230.0</ele><time>2026-04-06T09:23:56Z</time></trkpt><trkpt lat="37.45530179109259" lon="14.522622424884014"><ele>230.0</ele><time>2026-04-06T09:23:57Z</time></trkpt><trkpt lat="37.455276333957" lon="14.52284449984637"><ele>230.0</ele><time>2026-04-06T09:23:58Z</time></trkpt><trkpt lat="37.45525074129575" lon="14.523058188711707"><ele>230.66666666666669</ele><time>2026-04-06T09:23:59Z</time></trkpt><trkpt lat="37.45521937244798" lon="14.523242054262713"><ele>231.33333333333331</ele><time>2026-04-06T09:24:00Z</time></trkpt><trkpt lat="37.455167978323914" lon="14.52340787088727"><ele>232.0</ele><time>2026-04-06T09:24:01Z</time></trkpt><trkpt lat="37.455089025680756" lon="14.523589490936748"><ele>232.0</ele><time>2026-04-06T09:24:02Z</time></trkpt><trkpt lat="37.4549798632679" lon="14.523799835769216"><ele>232.0</ele><time>2026-04-06T09:24:03Z</time></trkpt><trkpt lat="37.45486725782433" lon="14.524024333377355"><ele>232.0</ele><time>2026-04-06T09:24:04Z</time></trkpt><trkpt lat="37.454756511567986" lon="14.524245825991464"><ele>232.0</ele><time>2026-04-06T09:24:05Z</time></trkpt><trkpt lat="37.45465267446061" lon="14.524454660559488"><ele>232.0</ele><time>2026-04-06T09:24:06Z</time></trkpt><trkpt lat="37.45455797657348" lon="14.52464596792166"><ele>232.0</ele><time>2026-04-06T09:24:07Z</time></trkpt><trkpt lat="37.45446551999702" lon="14.524832747400371"><ele>229.66666666666666</ele><time>2026-04-06T09:24:08Z</time></trkpt><trkpt lat="37.4543767200273" lon="14.525012887279098"><ele>227.33333333333331</ele><time>2026-04-06T09:24:09Z</time></trkpt><trkpt lat="37.454293901124004" lon="14.525181012447382"><ele>225.0</ele><time>2026-04-06T09:24:10Z</time></trkpt><trkpt lat="37.454216246213385" lon="14.525338654690628"><ele>224.5</ele><time>2026-04-06T09:24:11Z</time></trkpt><trkpt lat="37.454141644111616" lon="14.52549448229474"><ele>224.0</ele><time>2026-04-06T09:24:12Z</time></trkpt><trkpt lat="37.45407671400404" lon="14.525635075996597"><ele>223.5</ele><time>2026-04-06T09:24:13Z</time></trkpt><trkpt lat="37.45403312664479" lon="14.525771068227206"><ele>223.0</ele><time>2026-04-06T09:24:14Z</time></trkpt><trkpt lat="37.45396340604089" lon="14.525881304027882"><ele>223.0</ele><time>2026-04-06T09:24:15Z</time></trkpt><trkpt lat="37.45390751691721" lon="14.525995012953944"><ele>223.0</ele><time>2026-04-06T09:24:16Z</time></trkpt><trkpt lat="37.4538411156517" lon="14.526113492057014"><ele>223.0</ele><time>2026-04-06T09:24:17Z</time></trkpt><trkpt lat="37.453795651997325" lon="14.526236884786746"><ele>223.0</ele><time>2026-04-06T09:24:18Z</time></trkpt><trkpt lat="37.45375147575382" lon="14.526328926682131"><ele>223.0</ele><time>2026-04-06T09:24:19Z</time></trkpt><trkpt lat="37.45370120847231" lon="14.526394731893179"><ele>222.8</ele><time>2026-04-06T09:24:20Z</time></trkpt><trkpt lat="37.453661115685755" lon="14.526514771651145"><ele>222.60000000000002</ele><time>2026-04-06T09:24:22Z</time></trkpt><trkpt lat="37.45360551702834" lon="14.526591916789634"><ele>222.39999999999998</ele><time>2026-04-06T09:24:23Z</time></trkpt><trkpt lat="37.45355766243674" lon="14.526730032567931"><ele>222.2</ele><time>2026-04-06T09:24:24Z</time></trkpt><trkpt lat="37.45348563861479" lon="14.526870952686325"><ele>222.0</ele><time>2026-04-06T09:24:25Z</time></trkpt><trkpt lat="37.453416092151464" lon="14.527005019132227"><ele>222.0</ele><time>2026-04-06T09:24:26Z</time></trkpt><trkpt lat="37.45333514324216" lon="14.527156463765865"><ele>222.0</ele><time>2026-04-06T09:24:27Z</time></trkpt><trkpt lat="37.453262764738" lon="14.527327582475397"><ele>222.0</ele><time>2026-04-06T09:24:28Z</time></trkpt><trkpt lat="37.453147558108725" lon="14.52753560298309"><ele>222.0</ele><time>2026-04-06T09:24:29Z</time></trkpt><trkpt lat="37.45306149704901" lon="14.52775073851326"><ele>222.0</ele><time>2026-04-06T09:24:30Z</time></trkpt><trkpt lat="37.452965743212964" lon="14.527940005585178"><ele>222.0</ele><time>2026-04-06T09:24:31Z</time></trkpt><trkpt lat="37.452882319936236" lon="14.528082438319302"><ele>221.33333333333331</ele><time>2026-04-06T09:24:32Z</time></trkpt><trkpt lat="37.45279628108658" lon="14.528261664672383"><ele>220.66666666666666</ele><time>2026-04-06T09:24:33Z</time></trkpt><trkpt lat="37.45270917809551" lon="14.528484724698469"><ele>220.0</ele><time>2026-04-06T09:24:34Z</time></trkpt><trkpt lat="37.452618087007906" lon="14.52867234211185"><ele>220.0</ele><time>2026-04-06T09:24:35Z</time></trkpt><trkpt lat="37.452528276814306" lon="14.528848502184902"><ele>220.0</ele><time>2026-04-06T09:24:36Z</time></trkpt><trkpt lat="37.452443921261825" lon="14.529014064634199"><ele>220.0</ele><time>2026-04-06T09:24:37Z</time></trkpt><trkpt lat="37.45236646206625" lon="14.529168355427725"><ele>220.0</ele><time>2026-04-06T09:24:38Z</time></trkpt><trkpt lat="37.452294841397716" lon="14.52930901553318"><ele>220.0</ele><time>2026-04-06T09:24:39Z</time></trkpt><trkpt lat="37.45222180068052" lon="14.529421687843998"><ele>220.0</ele><time>2026-04-06T09:24:40Z</time></trkpt><trkpt lat="37.45214011102443" lon="14.52950830914809"><ele>220.0</ele><time>2026-04-06T09:24:41Z</time></trkpt><trkpt lat="37.45203990410337" lon="14.529575540057795"><ele>220.0</ele><time>2026-04-06T09:24:42Z</time></trkpt><trkpt lat="37.45191823432758" lon="14.529613548560116"><ele>220.0</ele><time>2026-04-06T09:24:43Z</time></trkpt><trkpt lat="37.45177668998564" lon="14.529607992271202"><ele>220.0</ele><time>2026-04-06T09:24:44Z</time></trkpt><trkpt lat="37.45162105681614" lon="14.529622478340135"><ele>220.0</ele><time>2026-04-06T09:24:45Z</time></trkpt><trkpt lat="37.45144109074205" lon="14.529606801258735"><ele>220.66666666666666</ele><time>2026-04-06T09:24:46Z</time></trkpt><trkpt lat="37.45128227520564" lon="14.529591364321812"><ele>221.33333333333331</ele><time>2026-04-06T09:24:47Z</time></trkpt><trkpt lat="37.45110778430788" lon="14.529589037326039"><ele>222.0</ele><time>2026-04-06T09:24:48Z</time></trkpt><trkpt lat="37.450951185214414" lon="14.52958974738155"><ele>222.0</ele><time>2026-04-06T09:24:49Z</time></trkpt><trkpt lat="37.450832384746306" lon="14.529586412352684"><ele>222.0</ele><time>2026-04-06T09:24:50Z</time></trkpt><trkpt lat="37.4507287787959" lon="14.529578353782785"><ele>222.0</ele><time>2026-04-06T09:24:51Z</time></trkpt><trkpt lat="37.45063340116089" lon="14.529585304791311"><ele>222.0</ele><time>2026-04-06T09:24:52Z</time></trkpt><trkpt lat="37.45055241824213" lon="14.52957797301996"><ele>222.0</ele><time>2026-04-06T09:24:54Z</time></trkpt><trkpt lat="37.45054006409008" lon="14.529779324241392"><ele>222.0</ele><time>2026-04-06T09:24:56Z</time></trkpt><trkpt lat="37.450555160611124" lon="14.529902182432295"><ele>222.0</ele><time>2026-04-06T09:24:57Z</time></trkpt><trkpt lat="37.45057942280045" lon="14.53006860651373"><ele>222.0</ele><time>2026-04-06T09:24:58Z</time></trkpt><trkpt lat="37.45061450574434" lon="14.530271874484766"><ele>222.0</ele><time>2026-04-06T09:24:59Z</time></trkpt><trkpt lat="37.450645244702095" lon="14.530493922415785"><ele>222.75</ele><time>2026-04-06T09:25:00Z</time></trkpt><trkpt lat="37.450649093050544" lon="14.530669416298569"><ele>223.5</ele><time>2026-04-06T09:25:01Z</time></trkpt><trkpt lat="37.45064428430398" lon="14.53079798392385"><ele>224.25</ele><time>2026-04-06T09:25:02Z</time></trkpt><trkpt lat="37.4507050637754" lon="14.530987734682714"><ele>225.0</ele><time>2026-04-06T09:25:04Z</time></trkpt><trkpt lat="37.4507482987955" lon="14.531075644758966"><ele>225.0</ele><time>2026-04-06T09:25:10Z</time></trkpt><trkpt lat="37.45080770496163" lon="14.531196434354353"><ele>225.0</ele><time>2026-04-06T09:25:11Z</time></trkpt><trkpt lat="37.450890558486414" lon="14.531362932421827"><ele>225.0</ele><time>2026-04-06T09:25:12Z</time></trkpt><trkpt lat="37.45099052701176" lon="14.531560881927609"><ele>226.33333333333331</ele><time>2026-04-06T09:25:13Z</time></trkpt><trkpt lat="37.45110145802629" lon="14.531766898359061"><ele>227.66666666666666</ele><time>2026-04-06T09:25:14Z</time></trkpt><trkpt lat="37.4511931549247" lon="14.531991031173046"><ele>229.0</ele><time>2026-04-06T09:25:15.001Z</time></trkpt><trkpt lat="37.45123686586946" lon="14.532222603602422"><ele>229.0</ele><time>2026-04-06T09:25:16.001Z</time></trkpt><trkpt lat="37.45128983196692" lon="14.53247270537397"><ele>229.0</ele><time>2026-04-06T09:25:17.001Z</time></trkpt><trkpt lat="37.45136279219776" lon="14.532677461092979"><ele>229.0</ele><time>2026-04-06T09:25:18.001Z</time></trkpt><trkpt lat="37.45142432409852" lon="14.532869191264954"><ele>225.66666666666666</ele><time>2026-04-06T09:25:19.001Z</time></trkpt><trkpt lat="37.451519315194815" lon="14.53306067178968"><ele>222.33333333333331</ele><time>2026-04-06T09:25:20.001Z</time></trkpt><trkpt lat="37.45164730120787" lon="14.533267073915201"><ele>219.0</ele><time>2026-04-06T09:25:21.001Z</time></trkpt><trkpt lat="37.45181049216684" lon="14.53347809118728"><ele>219.0</ele><time>2026-04-06T09:25:22.001Z</time></trkpt><trkpt lat="37.451995922655726" lon="14.533699679691171"><ele>219.0</ele><time>2026-04-06T09:25:23.001Z</time></trkpt><trkpt lat="37.45214535158545" lon="14.533922267184934"><ele>218.75</ele><time>2026-04-06T09:25:24.001Z</time></trkpt><trkpt lat="37.45226529351444" lon="14.534078571597606"><ele>218.5</ele><time>2026-04-06T09:25:25Z</time></trkpt><trkpt lat="37.45236901648739" lon="14.534213561697356"><ele>218.25</ele><time>2026-04-06T09:25:26Z</time></trkpt><trkpt lat="37.45245462985288" lon="14.534324978056599"><ele>218.0</ele><time>2026-04-06T09:25:27Z</time></trkpt><trkpt lat="37.4525276205282" lon="14.534419967406901"><ele>218.0</ele><time>2026-04-06T09:25:28Z</time></trkpt><trkpt lat="37.452608446064644" lon="14.53449692886306"><ele>218.0</ele><time>2026-04-06T09:25:29Z</time></trkpt><trkpt lat="37.45264044414762" lon="14.534579876332737"><ele>218.0</ele><time>2026-04-06T09:25:30Z</time></trkpt><trkpt lat="37.45265124952855" lon="14.534684627680154"><ele>218.0</ele><time>2026-04-06T09:25:32Z</time></trkpt><trkpt lat="37.45251815967729" lon="14.534825202937268"><ele>218.0</ele><time>2026-04-06T09:25:35Z</time></trkpt><trkpt lat="37.45245551291451" lon="14.534933380631914"><ele>217.66666666666669</ele><time>2026-04-06T09:25:36Z</time></trkpt><trkpt lat="37.45236983998936" lon="14.535091201279325"><ele>217.33333333333331</ele><time>2026-04-06T09:25:37Z</time></trkpt><trkpt lat="37.45226417170206" lon="14.53528834232054"><ele>217.0</ele><time>2026-04-06T09:25:38Z</time></trkpt><trkpt lat="37.45214616445829" lon="14.535508503466083"><ele>216.5</ele><time>2026-04-06T09:25:39Z</time></trkpt><trkpt lat="37.45201495754283" lon="14.53575329113476"><ele>216.0</ele><time>2026-04-06T09:25:40Z</time></trkpt><trkpt lat="37.45188251764307" lon="14.536026475000744"><ele>215.66666666666669</ele><time>2026-04-06T09:25:41Z</time></trkpt><trkpt lat="37.45176406634669" lon="14.536247175175252"><ele>215.33333333333334</ele><time>2026-04-06T09:25:42Z</time></trkpt><trkpt lat="37.45164245422101" lon="14.53647166506091"><ele>215.0</ele><time>2026-04-06T09:25:43Z</time></trkpt><trkpt lat="37.451516615637665" lon="14.536709972903688"><ele>215.0</ele><time>2026-04-06T09:25:44Z</time></trkpt><trkpt lat="37.45138889070533" lon="14.536912425676404"><ele>215.0</ele><time>2026-04-06T09:25:45Z</time></trkpt><trkpt lat="37.45127925875802" lon="14.53711485499147"><ele>215.0</ele><time>2026-04-06T09:25:46Z</time></trkpt><trkpt lat="37.451176513074145" lon="14.5373045691979"><ele>215.25</ele><time>2026-04-06T09:25:47Z</time></trkpt><trkpt lat="37.451087706888586" lon="14.537468544893091"><ele>215.5</ele><time>2026-04-06T09:25:48Z</time></trkpt><trkpt lat="37.45100767766854" lon="14.5376149084254"><ele>215.75</ele><time>2026-04-06T09:25:49Z</time></trkpt><trkpt lat="37.4509283396523" lon="14.537757989315121"><ele>216.0</ele><time>2026-04-06T09:25:50Z</time></trkpt><trkpt lat="37.450850568788695" lon="14.537897077506"><ele>215.60000000000002</ele><time>2026-04-06T09:25:51Z</time></trkpt><trkpt lat="37.450782602385246" lon="14.538014349144172"><ele>215.20000000000002</ele><time>2026-04-06T09:25:52Z</time></trkpt><trkpt lat="37.45071908433605" lon="14.538113702588342"><ele>214.79999999999998</ele><time>2026-04-06T09:25:53Z</time></trkpt><trkpt lat="37.450658529572884" lon="14.538199284110323"><ele>214.39999999999998</ele><time>2026-04-06T09:25:54Z</time></trkpt><trkpt lat="37.45058736170669" lon="14.538292457368984"><ele>214.0</ele><time>2026-04-06T09:25:55Z</time></trkpt><trkpt lat="37.450491801632985" lon="14.538402485195398"><ele>213.33333333333331</ele><time>2026-04-06T09:25:56Z</time></trkpt><trkpt lat="37.450362397901294" lon="14.538533968955223"><ele>212.66666666666669</ele><time>2026-04-06T09:25:57Z</time></trkpt><trkpt lat="37.45023277293116" lon="14.538659599543147"><ele>212.0</ele><time>2026-04-06T09:25:58Z</time></trkpt><trkpt lat="37.450110572335845" lon="14.538804085514835"><ele>212.0</ele><time>2026-04-06T09:25:59Z</time></trkpt><trkpt lat="37.449957593353105" lon="14.538927462378158"><ele>212.0</ele><time>2026-04-06T09:26:00Z</time></trkpt><trkpt lat="37.44979779192057" lon="14.539098249875163"><ele>212.0</ele><time>2026-04-06T09:26:01Z</time></trkpt><trkpt lat="37.44966471940582" lon="14.539257704209252"><ele>211.75</ele><time>2026-04-06T09:26:02Z</time></trkpt><trkpt lat="37.44954299547897" lon="14.539378361209604"><ele>211.5</ele><time>2026-04-06T09:26:03Z</time></trkpt><trkpt lat="37.44943000369914" lon="14.539508202683665"><ele>211.25</ele><time>2026-04-06T09:26:04Z</time></trkpt><trkpt lat="37.44932889882154" lon="14.539623594687002"><ele>211.0</ele><time>2026-04-06T09:26:05Z</time></trkpt><trkpt lat="37.44924999617169" lon="14.539739549176037"><ele>211.0</ele><time>2026-04-06T09:26:06Z</time></trkpt><trkpt lat="37.44918061701134" lon="14.53984150804908"><ele>211.0</ele><time>2026-04-06T09:26:07Z</time></trkpt><trkpt lat="37.44912005340711" lon="14.539928103894022"><ele>211.0</ele><time>2026-04-06T09:26:08Z</time></trkpt><trkpt lat="37.44907026379809" lon="14.539997706646881"><ele>211.0</ele><time>2026-04-06T09:26:09Z</time></trkpt><trkpt lat="37.44900414196237" lon="14.54009014071455"><ele>211.0</ele><time>2026-04-06T09:26:11Z</time></trkpt><trkpt lat="37.4489258835242" lon="14.540202421399615"><ele>211.0</ele><time>2026-04-06T09:26:13Z</time></trkpt><trkpt lat="37.448866227352454" lon="14.540289759470424"><ele>211.0</ele><time>2026-04-06T09:26:14Z</time></trkpt><trkpt lat="37.448792672264844" lon="14.540396811735276"><ele>211.0</ele><time>2026-04-06T09:26:15Z</time></trkpt><trkpt lat="37.44869899108238" lon="14.540529308146793"><ele>211.0</ele><time>2026-04-06T09:26:16Z</time></trkpt><trkpt lat="37.44861511983874" lon="14.540649177017055"><ele>211.5</ele><time>2026-04-06T09:26:17Z</time></trkpt><trkpt lat="37.44853060157329" lon="14.540770241903031"><ele>212.0</ele><time>2026-04-06T09:26:18Z</time></trkpt><trkpt lat="37.44844055254025" lon="14.540929769963578"><ele>212.5</ele><time>2026-04-06T09:26:19Z</time></trkpt><trkpt lat="37.44835029948045" lon="14.54106717066144"><ele>213.0</ele><time>2026-04-06T09:26:20Z</time></trkpt><trkpt lat="37.448285557162684" lon="14.54121020376819"><ele>212.5</ele><time>2026-04-06T09:26:21Z</time></trkpt><trkpt lat="37.44823851651767" lon="14.541370383666536"><ele>212.0</ele><time>2026-04-06T09:26:22Z</time></trkpt><trkpt lat="37.448192249853506" lon="14.541542739513192"><ele>211.5</ele><time>2026-04-06T09:26:23Z</time></trkpt><trkpt lat="37.44817149294235" lon="14.54172074815689"><ele>211.0</ele><time>2026-04-06T09:26:24Z</time></trkpt><trkpt lat="37.4481568153073" lon="14.541913060661702"><ele>210.75</ele><time>2026-04-06T09:26:25Z</time></trkpt><trkpt lat="37.44814919839369" lon="14.542085075700948"><ele>210.5</ele><time>2026-04-06T09:26:26Z</time></trkpt><trkpt lat="37.448147042428694" lon="14.542234227235788"><ele>210.25</ele><time>2026-04-06T09:26:27Z</time></trkpt><trkpt lat="37.44814372993464" lon="14.542382556639213"><ele>210.0</ele><time>2026-04-06T09:26:28Z</time></trkpt><trkpt lat="37.44813026699364" lon="14.542516871286573"><ele>210.0</ele><time>2026-04-06T09:26:29Z</time></trkpt><trkpt lat="37.44811110263931" lon="14.54263178980069"><ele>210.0</ele><time>2026-04-06T09:26:30Z</time></trkpt><trkpt lat="37.44808592364823" lon="14.542766233474598"><ele>210.0</ele><time>2026-04-06T09:26:31Z</time></trkpt><trkpt lat="37.448044364930695" lon="14.542905395109447"><ele>210.0</ele><time>2026-04-06T09:26:32Z</time></trkpt><trkpt lat="37.44799577441475" lon="14.543051859964919"><ele>210.0</ele><time>2026-04-06T09:26:33Z</time></trkpt><trkpt lat="37.44794426806001" lon="14.543215335143792"><ele>212.0</ele><time>2026-04-06T09:26:34Z</time></trkpt><trkpt lat="37.44789747832089" lon="14.543370400286307"><ele>214.0</ele><time>2026-04-06T09:26:35Z</time></trkpt><trkpt lat="37.44785264510137" lon="14.543522275958939"><ele>216.0</ele><time>2026-04-06T09:26:36Z</time></trkpt><trkpt lat="37.447804324664375" lon="14.543692225670753"><ele>218.0</ele><time>2026-04-06T09:26:37Z</time></trkpt><trkpt lat="37.44775156481762" lon="14.543881977361446"><ele>218.0</ele><time>2026-04-06T09:26:38Z</time></trkpt><trkpt lat="37.447708243116416" lon="14.544037582458913"><ele>218.0</ele><time>2026-04-06T09:26:39Z</time></trkpt><trkpt lat="37.447662784881324" lon="14.54418975587834"><ele>218.0</ele><time>2026-04-06T09:26:40Z</time></trkpt><trkpt lat="37.44761249341723" lon="14.544329656205202"><ele>218.0</ele><time>2026-04-06T09:26:41Z</time></trkpt><trkpt lat="37.44754686766905" lon="14.54446583890857"><ele>217.0</ele><time>2026-04-06T09:26:42Z</time></trkpt><trkpt lat="37.44746340034079" lon="14.544624156745943"><ele>216.0</ele><time>2026-04-06T09:26:43Z</time></trkpt><trkpt lat="37.44737215951093" lon="14.544759955776051"><ele>215.0</ele><time>2026-04-06T09:26:44Z</time></trkpt><trkpt lat="37.44728241481018" lon="14.544882723011968"><ele>214.0</ele><time>2026-04-06T09:26:45Z</time></trkpt><trkpt lat="37.447190032812564" lon="14.54500545086833"><ele>215.25</ele><time>2026-04-06T09:26:46Z</time></trkpt><trkpt lat="37.447073415697645" lon="14.545155536213"><ele>216.5</ele><time>2026-04-06T09:26:47Z</time></trkpt><trkpt lat="37.446973130750266" lon="14.545284602125587"><ele>217.75</ele><time>2026-04-06T09:26:48Z</time></trkpt><trkpt lat="37.44687993709149" lon="14.545398389526754"><ele>219.0</ele><time>2026-04-06T09:26:49Z</time></trkpt><trkpt lat="37.44680636605462" lon="14.54550501853191"><ele>219.0</ele><time>2026-04-06T09:26:50Z</time></trkpt><trkpt lat="37.44671796680153" lon="14.545581513656122"><ele>218.99999999999997</ele><time>2026-04-06T09:26:51Z</time></trkpt><trkpt lat="37.44662570604246" lon="14.54565363622105"><ele>218.99999999999997</ele><time>2026-04-06T09:26:52Z</time></trkpt><trkpt lat="37.4465220966204" lon="14.545700205512714"><ele>219.0</ele><time>2026-04-06T09:26:53Z</time></trkpt><trkpt lat="37.446429637820124" lon="14.545755901258074"><ele>219.0</ele><time>2026-04-06T09:26:54Z</time></trkpt><trkpt lat="37.446337858402295" lon="14.545808742980842"><ele>221.5</ele><time>2026-04-06T09:26:55Z</time></trkpt><trkpt lat="37.4462532419044" lon="14.545871084314385"><ele>224.0</ele><time>2026-04-06T09:26:56Z</time></trkpt><trkpt lat="37.44616315465946" lon="14.545906962044583"><ele>226.5</ele><time>2026-04-06T09:26:57Z</time></trkpt><trkpt lat="37.44597695245084" lon="14.546031311780665"><ele>229.0</ele><time>2026-04-06T09:26:58Z</time></trkpt><trkpt lat="37.445824501865836" lon="14.54612823862726"><ele>227.0</ele><time>2026-04-06T09:26:59Z</time></trkpt><trkpt lat="37.4456420486379" lon="14.546217428531554"><ele>225.0</ele><time>2026-04-06T09:27:00Z</time></trkpt><trkpt lat="37.44550334366403" lon="14.54629972912532"><ele>223.0</ele><time>2026-04-06T09:27:01Z</time></trkpt><trkpt lat="37.44537826401499" lon="14.546373945127163"><ele>223.0</ele><time>2026-04-06T09:27:02Z</time></trkpt><trkpt lat="37.445266829201216" lon="14.546440064971035"><ele>223.0</ele><time>2026-04-06T09:27:03Z</time></trkpt><trkpt lat="37.44516783498458" lon="14.546516368359418"><ele>223.0</ele><time>2026-04-06T09:27:04.001Z</time></trkpt><trkpt lat="37.44504342575355" lon="14.546584043591022"><ele>223.0</ele><time>2026-04-06T09:27:05.001Z</time></trkpt><trkpt lat="37.444889605176336" lon="14.54667797047384"><ele>223.0</ele><time>2026-04-06T09:27:06.001Z</time></trkpt><trkpt lat="37.44470980860678" lon="14.546790821163635"><ele>223.0</ele><time>2026-04-06T09:27:07.001Z</time></trkpt><trkpt lat="37.44453803947445" lon="14.546896001711156"><ele>223.0</ele><time>2026-04-06T09:27:08.001Z</time></trkpt><trkpt lat="37.444378323394886" lon="14.546987610530866"><ele>221.33333333333331</ele><time>2026-04-06T09:27:09.001Z</time></trkpt><trkpt lat="37.444232507893126" lon="14.547073119789058"><ele>219.66666666666669</ele><time>2026-04-06T09:27:10.001Z</time></trkpt><trkpt lat="37.444096053415905" lon="14.54716115570416"><ele>218.0</ele><time>2026-04-06T09:27:11.001Z</time></trkpt><trkpt lat="37.44395264860378" lon="14.547222135824146"><ele>218.0</ele><time>2026-04-06T09:27:12.001Z</time></trkpt><trkpt lat="37.44383123967222" lon="14.547275885279612"><ele>218.0</ele><time>2026-04-06T09:27:13.001Z</time></trkpt><trkpt lat="37.44370470949758" lon="14.547331933880105"><ele>218.0</ele><time>2026-04-06T09:27:14.001Z</time></trkpt><trkpt lat="37.44357055129731" lon="14.547337307410949"><ele>218.0</ele><time>2026-04-06T09:27:15.001Z</time></trkpt><trkpt lat="37.44345188546515" lon="14.547304697376571"><ele>218.0</ele><time>2026-04-06T09:27:16.001Z</time></trkpt><trkpt lat="37.443338216006026" lon="14.547286675834794"><ele>218.0</ele><time>2026-04-06T09:27:17.001Z</time></trkpt><trkpt lat="37.44324580072257" lon="14.547226537691293"><ele>218.0</ele><time>2026-04-06T09:27:18.001Z</time></trkpt><trkpt lat="37.44317067092733" lon="14.547130527879755"><ele>218.0</ele><time>2026-04-06T09:27:19.001Z</time></trkpt><trkpt lat="37.44310243547813" lon="14.547034786476326"><ele>218.0</ele><time>2026-04-06T09:27:20.001Z</time></trkpt><trkpt lat="37.4430090803254" lon="14.546924019019729"><ele>217.25</ele><time>2026-04-06T09:27:21.001Z</time></trkpt><trkpt lat="37.442888271795304" lon="14.546780775645942"><ele>216.5</ele><time>2026-04-06T09:27:22.001Z</time></trkpt><trkpt lat="37.44278086695525" lon="14.546651933737632"><ele>215.75</ele><time>2026-04-06T09:27:23.001Z</time></trkpt><trkpt lat="37.44269410401693" lon="14.546565807324924"><ele>215.0</ele><time>2026-04-06T09:27:24.001Z</time></trkpt><trkpt lat="37.442608189220906" lon="14.546507453911818"><ele>215.0</ele><time>2026-04-06T09:27:25.001Z</time></trkpt><trkpt lat="37.44252309113215" lon="14.546475595036043"><ele>215.0</ele><time>2026-04-06T09:27:26.001Z</time></trkpt><trkpt lat="37.44245382416381" lon="14.546445187143318"><ele>215.0</ele><time>2026-04-06T09:27:27.001Z</time></trkpt><trkpt lat="37.44237552603173" lon="14.546425173744554"><ele>215.0</ele><time>2026-04-06T09:27:28.001Z</time></trkpt><trkpt lat="37.44224954044327" lon="14.54642350036535"><ele>215.0</ele><time>2026-04-06T09:27:29.001Z</time></trkpt><trkpt lat="37.442136225789255" lon="14.546437602187979"><ele>216.0</ele><time>2026-04-06T09:27:30.001Z</time></trkpt><trkpt lat="37.442015175571605" lon="14.546488629342486"><ele>217.0</ele><time>2026-04-06T09:27:31Z</time></trkpt><trkpt lat="37.441885006778655" lon="14.546593511296111"><ele>218.0</ele><time>2026-04-06T09:27:32Z</time></trkpt><trkpt lat="37.44177924624623" lon="14.546724963383538"><ele>219.0</ele><time>2026-04-06T09:27:33Z</time></trkpt><trkpt lat="37.44170587224017" lon="14.546884096909162"><ele>219.0</ele><time>2026-04-06T09:27:34Z</time></trkpt><trkpt lat="37.441647078940164" lon="14.547023076877803"><ele>219.0</ele><time>2026-04-06T09:27:35Z</time></trkpt><trkpt lat="37.44160261820529" lon="14.547172493894205"><ele>219.0</ele><time>2026-04-06T09:27:36Z</time></trkpt><trkpt lat="37.4415569341688" lon="14.547332991310723"><ele>219.0</ele><time>2026-04-06T09:27:37Z</time></trkpt><trkpt lat="37.44155465798712" lon="14.547528200119315"><ele>219.0</ele><time>2026-04-06T09:27:38Z</time></trkpt><trkpt lat="37.44157298836254" lon="14.547730287015845"><ele>219.0</ele><time>2026-04-06T09:27:39Z</time></trkpt><trkpt lat="37.441577254971655" lon="14.547920936655013"><ele>219.0</ele><time>2026-04-06T09:27:40Z</time></trkpt><trkpt lat="37.44156006176039" lon="14.548078839775647"><ele>219.0</ele><time>2026-04-06T09:27:41Z</time></trkpt><trkpt lat="37.4415210390468" lon="14.54822209289053"><ele>219.0</ele><time>2026-04-06T09:27:42Z</time></trkpt><trkpt lat="37.441459511173896" lon="14.548376164624873"><ele>219.0</ele><time>2026-04-06T09:27:43Z</time></trkpt><trkpt lat="37.4413706974633" lon="14.5485483158343"><ele>219.0</ele><time>2026-04-06T09:27:44Z</time></trkpt><trkpt lat="37.44128095743044" lon="14.54869245622354"><ele>219.0</ele><time>2026-04-06T09:27:45Z</time></trkpt><trkpt lat="37.441189236950926" lon="14.548808742859675"><ele>219.75</ele><time>2026-04-06T09:27:46Z</time></trkpt><trkpt lat="37.4410813168485" lon="14.548902204607403"><ele>220.5</ele><time>2026-04-06T09:27:47Z</time></trkpt><trkpt lat="37.440978110998905" lon="14.548993947594818"><ele>221.25</ele><time>2026-04-06T09:27:48Z</time></trkpt><trkpt lat="37.44082660143581" lon="14.549082571364398"><ele>222.0</ele><time>2026-04-06T09:27:49Z</time></trkpt><trkpt lat="37.44064284677363" lon="14.549192064544929"><ele>224.66666666666669</ele><time>2026-04-06T09:27:50Z</time></trkpt><trkpt lat="37.44044852114674" lon="14.549309149479965"><ele>227.33333333333334</ele><time>2026-04-06T09:27:51Z</time></trkpt><trkpt lat="37.440256899710725" lon="14.54942138838726"><ele>230.0</ele><time>2026-04-06T09:27:52Z</time></trkpt><trkpt lat="37.44008806216182" lon="14.549520978880865"><ele>227.33333333333334</ele><time>2026-04-06T09:27:53Z</time></trkpt><trkpt lat="37.439934398969775" lon="14.549614914045831"><ele>224.66666666666669</ele><time>2026-04-06T09:27:54Z</time></trkpt><trkpt lat="37.43979611648471" lon="14.549701032903645"><ele>222.0</ele><time>2026-04-06T09:27:55Z</time></trkpt><trkpt lat="37.439663890352804" lon="14.549782604045765"><ele>223.0</ele><time>2026-04-06T09:27:56Z</time></trkpt><trkpt lat="37.439535764719196" lon="14.549859202748877"><ele>224.0</ele><time>2026-04-06T09:27:57Z</time></trkpt><trkpt lat="37.43941068087832" lon="14.549934266383964"><ele>225.0</ele><time>2026-04-06T09:27:58Z</time></trkpt><trkpt lat="37.43928394456437" lon="14.550010423373433"><ele>226.0</ele><time>2026-04-06T09:27:59Z</time></trkpt><trkpt lat="37.439162921084865" lon="14.550075648689893"><ele>226.0</ele><time>2026-04-06T09:28:00Z</time></trkpt><trkpt lat="37.43904367614677" lon="14.55013990350315"><ele>226.0</ele><time>2026-04-06T09:28:01Z</time></trkpt><trkpt lat="37.43891083561073" lon="14.5502171276897"><ele>226.0</ele><time>2026-04-06T09:28:02Z</time></trkpt><trkpt lat="37.43876137776432" lon="14.550300889291888"><ele>226.0</ele><time>2026-04-06T09:28:03Z</time></trkpt><trkpt lat="37.43862790101546" lon="14.550360591660302"><ele>225.75</ele><time>2026-04-06T09:28:04Z</time></trkpt><trkpt lat="37.43851124150097" lon="14.550380354301817"><ele>225.5</ele><time>2026-04-06T09:28:05Z</time></trkpt><trkpt lat="37.43840776246044" lon="14.55040714083626"><ele>225.25</ele><time>2026-04-06T09:28:06Z</time></trkpt><trkpt lat="37.43828094898971" lon="14.55044348166125"><ele>225.0</ele><time>2026-04-06T09:28:07Z</time></trkpt><trkpt lat="37.43815553512524" lon="14.550442289808828"><ele>225.0</ele><time>2026-04-06T09:28:08Z</time></trkpt><trkpt lat="37.43801482714837" lon="14.550434879482378"><ele>225.0</ele><time>2026-04-06T09:28:09Z</time></trkpt><trkpt lat="37.43783679116618" lon="14.550420517022877"><ele>225.0</ele><time>2026-04-06T09:28:10Z</time></trkpt><trkpt lat="37.437648653168424" lon="14.550391322787728"><ele>226.0</ele><time>2026-04-06T09:28:11Z</time></trkpt><trkpt lat="37.43746029177533" lon="14.550356422723672"><ele>227.0</ele><time>2026-04-06T09:28:12Z</time></trkpt><trkpt lat="37.437287001003206" lon="14.550323539095965"><ele>228.0</ele><time>2026-04-06T09:28:13Z</time></trkpt><trkpt lat="37.43712906462784" lon="14.550298543137492"><ele>226.5</ele><time>2026-04-06T09:28:14Z</time></trkpt><trkpt lat="37.43697768563858" lon="14.550276165943279"><ele>225.0</ele><time>2026-04-06T09:28:15Z</time></trkpt><trkpt lat="37.436832704065694" lon="14.550256490225108"><ele>223.5</ele><time>2026-04-06T09:28:16Z</time></trkpt><trkpt lat="37.436700219829426" lon="14.550238452172758"><ele>222.0</ele><time>2026-04-06T09:28:17Z</time></trkpt><trkpt lat="37.436553879699254" lon="14.55021636953861"><ele>222.0</ele><time>2026-04-06T09:28:18Z</time></trkpt><trkpt lat="37.4364140683716" lon="14.550193026369932"><ele>222.0</ele><time>2026-04-06T09:28:19Z</time></trkpt><trkpt lat="37.43628922958189" lon="14.550169373702015"><ele>222.0</ele><time>2026-04-06T09:28:20Z</time></trkpt><trkpt lat="37.43617507103335" lon="14.55014658484266"><ele>222.0</ele><time>2026-04-06T09:28:21Z</time></trkpt><trkpt lat="37.43601071780063" lon="14.550119889957575"><ele>221.66666666666669</ele><time>2026-04-06T09:28:22Z</time></trkpt><trkpt lat="37.43583087924262" lon="14.550097162833167"><ele>221.33333333333334</ele><time>2026-04-06T09:28:23Z</time></trkpt><trkpt lat="37.43563729078784" lon="14.550069400608534"><ele>221.0</ele><time>2026-04-06T09:28:24Z</time></trkpt><trkpt lat="37.43545590145974" lon="14.550035576515032"><ele>221.0</ele><time>2026-04-06T09:28:25Z</time></trkpt><trkpt lat="37.43528692884517" lon="14.550023275163964"><ele>221.0</ele><time>2026-04-06T09:28:26Z</time></trkpt><trkpt lat="37.43511930763081" lon="14.54999440509739"><ele>221.0</ele><time>2026-04-06T09:28:27Z</time></trkpt><trkpt lat="37.43495990860575" lon="14.54996849502008"><ele>221.0</ele><time>2026-04-06T09:28:28Z</time></trkpt><trkpt lat="37.434794894241655" lon="14.549942879277193"><ele>221.0</ele><time>2026-04-06T09:28:29Z</time></trkpt><trkpt lat="37.43466017699444" lon="14.549920030695498"><ele>221.0</ele><time>2026-04-06T09:28:30Z</time></trkpt><trkpt lat="37.43453380291753" lon="14.54989210505898"><ele>221.0</ele><time>2026-04-06T09:28:31Z</time></trkpt><trkpt lat="37.43441673545257" lon="14.549870766874763"><ele>220.0</ele><time>2026-04-06T09:28:32Z</time></trkpt><trkpt lat="37.434305445637875" lon="14.549853492340558"><ele>219.0</ele><time>2026-04-06T09:28:33Z</time></trkpt><trkpt lat="37.43417603115572" lon="14.54983736564189"><ele>218.0</ele><time>2026-04-06T09:28:34Z</time></trkpt><trkpt lat="37.434002307048466" lon="14.549807791194096"><ele>217.0</ele><time>2026-04-06T09:28:35Z</time></trkpt><trkpt lat="37.43382192205399" lon="14.549776583608198"><ele>217.33333333333331</ele><time>2026-04-06T09:28:36Z</time></trkpt><trkpt lat="37.43365169871296" lon="14.549747090358384"><ele>217.66666666666669</ele><time>2026-04-06T09:28:37Z</time></trkpt><trkpt lat="37.43350184175195" lon="14.549731221580368"><ele>218.0</ele><time>2026-04-06T09:28:38Z</time></trkpt><trkpt lat="37.43336598582888" lon="14.5497154375188"><ele>218.00000000000003</ele><time>2026-04-06T09:28:39Z</time></trkpt><trkpt lat="37.43325895881814" lon="14.549701370852045"><ele>218.0</ele><time>2026-04-06T09:28:40Z</time></trkpt><trkpt lat="37.43317923044519" lon="14.549692531333642"><ele>218.0</ele><time>2026-04-06T09:28:41Z</time></trkpt><trkpt lat="37.433113018948035" lon="14.549680011019221"><ele>218.0</ele><time>2026-04-06T09:28:42Z</time></trkpt><trkpt lat="37.4330447503755" lon="14.549669360571885"><ele>218.00000000000003</ele><time>2026-04-06T09:28:43Z</time></trkpt><trkpt lat="37.4329599377074" lon="14.549650854344893"><ele>218.0</ele><time>2026-04-06T09:28:44Z</time></trkpt><trkpt lat="37.4328445964772" lon="14.549635684439826"><ele>216.66666666666669</ele><time>2026-04-06T09:28:45Z</time></trkpt><trkpt lat="37.43270039186056" lon="14.549612823885141"><ele>215.33333333333331</ele><time>2026-04-06T09:28:46Z</time></trkpt><trkpt lat="37.432545029058474" lon="14.54958650558622"><ele>214.0</ele><time>2026-04-06T09:28:47Z</time></trkpt><trkpt lat="37.43238287413933" lon="14.549559913396694"><ele>215.66666666666666</ele><time>2026-04-06T09:28:48Z</time></trkpt><trkpt lat="37.43219732783236" lon="14.549531812774507"><ele>217.33333333333331</ele><time>2026-04-06T09:28:49Z</time></trkpt><trkpt lat="37.43201811475175" lon="14.549504451340292"><ele>219.0</ele><time>2026-04-06T09:28:50Z</time></trkpt><trkpt lat="37.43183580710043" lon="14.54948452606632"><ele>219.0</ele><time>2026-04-06T09:28:51Z</time></trkpt><trkpt lat="37.431672367310945" lon="14.54944190904444"><ele>219.0</ele><time>2026-04-06T09:28:52Z</time></trkpt><trkpt lat="37.43144859508681" lon="14.54940590187763"><ele>219.0</ele><time>2026-04-06T09:28:53Z</time></trkpt><trkpt lat="37.43125386130536" lon="14.54939263815948"><ele>219.66666666666669</ele><time>2026-04-06T09:28:54Z</time></trkpt><trkpt lat="37.43105850333996" lon="14.549366647653962"><ele>220.33333333333334</ele><time>2026-04-06T09:28:55Z</time></trkpt><trkpt lat="37.43088128446982" lon="14.549341863989623"><ele>221.0</ele><time>2026-04-06T09:28:56Z</time></trkpt><trkpt lat="37.43071657426559" lon="14.549328320812865"><ele>221.0</ele><time>2026-04-06T09:28:57Z</time></trkpt><trkpt lat="37.43055216702847" lon="14.549331129887845"><ele>221.0</ele><time>2026-04-06T09:28:58Z</time></trkpt><trkpt lat="37.43037961406266" lon="14.549360878500995"><ele>221.0</ele><time>2026-04-06T09:28:59Z</time></trkpt><trkpt lat="37.43021780231256" lon="14.549397659621249"><ele>222.33333333333334</ele><time>2026-04-06T09:29:00Z</time></trkpt><trkpt lat="37.43006324682024" lon="14.54943628903062"><ele>223.66666666666669</ele><time>2026-04-06T09:29:01Z</time></trkpt><trkpt lat="37.429916622935934" lon="14.549482949935603"><ele>225.0</ele><time>2026-04-06T09:29:02Z</time></trkpt><trkpt lat="37.42977399358352" lon="14.549538180842536"><ele>223.0</ele><time>2026-04-06T09:29:03Z</time></trkpt><trkpt lat="37.42962212753228" lon="14.54957081306978"><ele>221.0</ele><time>2026-04-06T09:29:04Z</time></trkpt><trkpt lat="37.42946889129403" lon="14.549617298114981"><ele>219.0</ele><time>2026-04-06T09:29:05Z</time></trkpt><trkpt lat="37.429324881893244" lon="14.549658747063905"><ele>219.0</ele><time>2026-04-06T09:29:06.001Z</time></trkpt><trkpt lat="37.42918310537474" lon="14.54969995983723"><ele>219.0</ele><time>2026-04-06T09:29:07.001Z</time></trkpt><trkpt lat="37.42903395640789" lon="14.549749000910985"><ele>219.0</ele><time>2026-04-06T09:29:08.001Z</time></trkpt><trkpt lat="37.42890251624781" lon="14.549791814164646"><ele>219.0</ele><time>2026-04-06T09:29:09.001Z</time></trkpt><trkpt lat="37.4287559520293" lon="14.549838816163257"><ele>220.0</ele><time>2026-04-06T09:29:10.001Z</time></trkpt><trkpt lat="37.428590475374655" lon="14.54988799281183"><ele>221.0</ele><time>2026-04-06T09:29:11.001Z</time></trkpt><trkpt lat="37.428426815472086" lon="14.549936629523204"><ele>222.0</ele><time>2026-04-06T09:29:12.001Z</time></trkpt><trkpt lat="37.42823872554246" lon="14.549992634749055"><ele>222.0</ele><time>2026-04-06T09:29:13.001Z</time></trkpt><trkpt lat="37.42806748228621" lon="14.550044685216749"><ele>222.0</ele><time>2026-04-06T09:29:14.001Z</time></trkpt><trkpt lat="37.42789583944102" lon="14.550096857138712"><ele>222.0</ele><time>2026-04-06T09:29:15.001Z</time></trkpt><trkpt lat="37.42773774651631" lon="14.550144910481162"><ele>223.66666666666669</ele><time>2026-04-06T09:29:16.001Z</time></trkpt><trkpt lat="37.42757213966043" lon="14.550195247733747"><ele>225.33333333333334</ele><time>2026-04-06T09:29:17.001Z</time></trkpt><trkpt lat="37.42740582602095" lon="14.550245799810941"><ele>227.0</ele><time>2026-04-06T09:29:18.001Z</time></trkpt><trkpt lat="37.427252449435954" lon="14.550292419585078"><ele>227.33333333333334</ele><time>2026-04-06T09:29:19.001Z</time></trkpt><trkpt lat="37.42709240301949" lon="14.55034106670534"><ele>227.66666666666669</ele><time>2026-04-06T09:29:20.001Z</time></trkpt><trkpt lat="37.426948525799624" lon="14.550384799113635"><ele>228.0</ele><time>2026-04-06T09:29:21.001Z</time></trkpt><trkpt lat="37.426799511957206" lon="14.550447087160213"><ele>225.66666666666669</ele><time>2026-04-06T09:29:22.001Z</time></trkpt><trkpt lat="37.42663427553031" lon="14.550480808613138"><ele>223.33333333333334</ele><time>2026-04-06T09:29:23.001Z</time></trkpt><trkpt lat="37.426458169978005" lon="14.550534662691648"><ele>221.0</ele><time>2026-04-06T09:29:24.001Z</time></trkpt><trkpt lat="37.42625940024269" lon="14.550594324956487"><ele>220.33333333333334</ele><time>2026-04-06T09:29:25.001Z</time></trkpt><trkpt lat="37.426061481521565" lon="14.550652976257545"><ele>219.66666666666669</ele><time>2026-04-06T09:29:26.001Z</time></trkpt><trkpt lat="37.425902953402066" lon="14.550700308540371"><ele>219.0</ele><time>2026-04-06T09:29:27.001Z</time></trkpt><trkpt lat="37.42578284407867" lon="14.550736685262438"><ele>219.0</ele><time>2026-04-06T09:29:28.001Z</time></trkpt><trkpt lat="37.425681493305305" lon="14.550767380705263"><ele>218.99999999999997</ele><time>2026-04-06T09:29:29.001Z</time></trkpt><trkpt lat="37.42559459241915" lon="14.550793699792614"><ele>218.99999999999997</ele><time>2026-04-06T09:29:30.001Z</time></trkpt><trkpt lat="37.42549160453452" lon="14.5508394714764"><ele>219.0</ele><time>2026-04-06T09:29:31.001Z</time></trkpt><trkpt lat="37.42537115823699" lon="14.550875247686784"><ele>219.0</ele><time>2026-04-06T09:29:32.001Z</time></trkpt><trkpt lat="37.425252288858324" lon="14.550912555841494"><ele>218.75</ele><time>2026-04-06T09:29:33.001Z</time></trkpt><trkpt lat="37.42514259307247" lon="14.55094310305319"><ele>218.5</ele><time>2026-04-06T09:29:34.001Z</time></trkpt><trkpt lat="37.42500607062756" lon="14.550968310451276"><ele>218.25</ele><time>2026-04-06T09:29:35.001Z</time></trkpt><trkpt lat="37.42486750158232" lon="14.551011631633662"><ele>218.0</ele><time>2026-04-06T09:29:36.001Z</time></trkpt><trkpt lat="37.42473782758632" lon="14.551052171924457"><ele>218.33333333333334</ele><time>2026-04-06T09:29:37Z</time></trkpt><trkpt lat="37.42458642124361" lon="14.551098732687322"><ele>218.66666666666669</ele><time>2026-04-06T09:29:38Z</time></trkpt><trkpt lat="37.42443264561897" lon="14.551145162538601"><ele>219.0</ele><time>2026-04-06T09:29:39Z</time></trkpt><trkpt lat="37.42427402449161" lon="14.551193055210089"><ele>217.66666666666669</ele><time>2026-04-06T09:29:40Z</time></trkpt><trkpt lat="37.42413930206019" lon="14.551243203501134"><ele>216.33333333333334</ele><time>2026-04-06T09:29:41Z</time></trkpt><trkpt lat="37.42398034526137" lon="14.551291302370261"><ele>215.0</ele><time>2026-04-06T09:29:42Z</time></trkpt><trkpt lat="37.42382999250736" lon="14.551341064059532"><ele>215.25</ele><time>2026-04-06T09:29:43Z</time></trkpt><trkpt lat="37.42368085983973" lon="14.551393984161049"><ele>215.5</ele><time>2026-04-06T09:29:44Z</time></trkpt><trkpt lat="37.4235454657201" lon="14.551416454026628"><ele>215.75</ele><time>2026-04-06T09:29:45Z</time></trkpt><trkpt lat="37.423421788022345" lon="14.55145466540368"><ele>216.0</ele><time>2026-04-06T09:29:46Z</time></trkpt><trkpt lat="37.42330959527041" lon="14.551489328433869"><ele>216.0</ele><time>2026-04-06T09:29:47Z</time></trkpt><trkpt lat="37.42319486715454" lon="14.551540130099552"><ele>216.0</ele><time>2026-04-06T09:29:48Z</time></trkpt><trkpt lat="37.42306447863764" lon="14.551565545396599"><ele>216.0</ele><time>2026-04-06T09:29:49Z</time></trkpt><trkpt lat="37.42294336006546" lon="14.551593433228305"><ele>216.0</ele><time>2026-04-06T09:29:50Z</time></trkpt><trkpt lat="37.42281204947054" lon="14.5516265143591"><ele>215.75</ele><time>2026-04-06T09:29:51Z</time></trkpt><trkpt lat="37.42264877799576" lon="14.551678182805388"><ele>215.5</ele><time>2026-04-06T09:29:52Z</time></trkpt><trkpt lat="37.422508405177" lon="14.551726044144251"><ele>215.25</ele><time>2026-04-06T09:29:53Z</time></trkpt><trkpt lat="37.422385114300326" lon="14.551766957342556"><ele>215.0</ele><time>2026-04-06T09:29:54Z</time></trkpt><trkpt lat="37.42225144920511" lon="14.551802833351777"><ele>215.25</ele><time>2026-04-06T09:29:55Z</time></trkpt><trkpt lat="37.42213303068475" lon="14.551840422011141"><ele>215.5</ele><time>2026-04-06T09:29:56Z</time></trkpt><trkpt lat="37.42200666007274" lon="14.551890667458464"><ele>215.75</ele><time>2026-04-06T09:29:57Z</time></trkpt><trkpt lat="37.421872710222594" lon="14.551939873521977"><ele>216.0</ele><time>2026-04-06T09:29:58Z</time></trkpt><trkpt lat="37.42175747461132" lon="14.551978083759142"><ele>216.0</ele><time>2026-04-06T09:29:59Z</time></trkpt><trkpt lat="37.42166052324575" lon="14.552014987440035"><ele>216.00000000000003</ele><time>2026-04-06T09:30:00Z</time></trkpt><trkpt lat="37.421573661016055" lon="14.552042892222179"><ele>216.00000000000003</ele><time>2026-04-06T09:30:01Z</time></trkpt><trkpt lat="37.42146080837337" lon="14.552066556437033"><ele>216.0</ele><time>2026-04-06T09:30:02Z</time></trkpt><trkpt lat="37.42134497439532" lon="14.552086816560935"><ele>216.0</ele><time>2026-04-06T09:30:03Z</time></trkpt><trkpt lat="37.4212476598189" lon="14.552120808965016"><ele>216.25</ele><time>2026-04-06T09:30:04Z</time></trkpt><trkpt lat="37.42113963873478" lon="14.552159474612873"><ele>216.5</ele><time>2026-04-06T09:30:05Z</time></trkpt><trkpt lat="37.421044244479845" lon="14.55218816509471"><ele>216.75</ele><time>2026-04-06T09:30:06Z</time></trkpt><trkpt lat="37.42091953798572" lon="14.552227351949211"><ele>217.0</ele><time>2026-04-06T09:30:07Z</time></trkpt><trkpt lat="37.420768471061486" lon="14.552272056561645"><ele>217.0</ele><time>2026-04-06T09:30:08Z</time></trkpt><trkpt lat="37.42059035336502" lon="14.552325363241815"><ele>217.0</ele><time>2026-04-06T09:30:09Z</time></trkpt><trkpt lat="37.42049774788261" lon="14.552351582798273"><ele>217.0</ele><time>2026-04-06T09:30:11Z</time></trkpt><trkpt lat="37.420378602627004" lon="14.55238616022842"><ele>217.0</ele><time>2026-04-06T09:30:12Z</time></trkpt><trkpt lat="37.420257593582335" lon="14.552440540968364"><ele>217.0</ele><time>2026-04-06T09:30:13Z</time></trkpt><trkpt lat="37.42015054734625" lon="14.552468275157882"><ele>217.0</ele><time>2026-04-06T09:30:14Z</time></trkpt><trkpt lat="37.420025981438286" lon="14.552487118925503"><ele>217.0</ele><time>2026-04-06T09:30:15Z</time></trkpt><trkpt lat="37.41990803868973" lon="14.552520887020203"><ele>217.0</ele><time>2026-04-06T09:30:16Z</time></trkpt><trkpt lat="37.41978536206775" lon="14.552557490242796"><ele>217.66666666666666</ele><time>2026-04-06T09:30:17Z</time></trkpt><trkpt lat="37.41962447818095" lon="14.552606297388458"><ele>218.33333333333331</ele><time>2026-04-06T09:30:18Z</time></trkpt><trkpt lat="37.41945548012673" lon="14.552687046377999"><ele>219.0</ele><time>2026-04-06T09:30:19Z</time></trkpt><trkpt lat="37.419318754935354" lon="14.552735077841842"><ele>219.0</ele><time>2026-04-06T09:30:20Z</time></trkpt><trkpt lat="37.419198274495066" lon="14.552776395107104"><ele>219.0</ele><time>2026-04-06T09:30:21Z</time></trkpt><trkpt lat="37.41909230809646" lon="14.552836457580035"><ele>219.0</ele><time>2026-04-06T09:30:22Z</time></trkpt><trkpt lat="37.418975443372645" lon="14.552913180661122"><ele>219.0</ele><time>2026-04-06T09:30:23Z</time></trkpt><trkpt lat="37.41882934132185" lon="14.553031628712118"><ele>219.0</ele><time>2026-04-06T09:30:24Z</time></trkpt><trkpt lat="37.41867643486808" lon="14.553173520605887"><ele>219.0</ele><time>2026-04-06T09:30:25Z</time></trkpt><trkpt lat="37.418522714687654" lon="14.553313367429206"><ele>219.0</ele><time>2026-04-06T09:30:26Z</time></trkpt><trkpt lat="37.41837644526296" lon="14.553440837251607"><ele>219.0</ele><time>2026-04-06T09:30:27Z</time></trkpt><trkpt lat="37.41822866649598" lon="14.553567517409371"><ele>219.0</ele><time>2026-04-06T09:30:28Z</time></trkpt><trkpt lat="37.41808914925206" lon="14.553685435905583"><ele>219.0</ele><time>2026-04-06T09:30:29Z</time></trkpt><trkpt lat="37.41794560031871" lon="14.55380030804388"><ele>219.33333333333331</ele><time>2026-04-06T09:30:30Z</time></trkpt><trkpt lat="37.417798951104906" lon="14.553922014134729"><ele>219.66666666666666</ele><time>2026-04-06T09:30:31Z</time></trkpt><trkpt lat="37.41764815236688" lon="14.55403872691913"><ele>220.0</ele><time>2026-04-06T09:30:32Z</time></trkpt><trkpt lat="37.41750486937512" lon="14.55415629805387"><ele>220.0</ele><time>2026-04-06T09:30:33Z</time></trkpt><trkpt lat="37.417360743791946" lon="14.554278769944208"><ele>220.0</ele><time>2026-04-06T09:30:34Z</time></trkpt><trkpt lat="37.41718914334122" lon="14.554399075007902"><ele>220.0</ele><time>2026-04-06T09:30:35Z</time></trkpt><trkpt lat="37.41704602230051" lon="14.554516625229589"><ele>220.0</ele><time>2026-04-06T09:30:36Z</time></trkpt><trkpt lat="37.41691191227314" lon="14.55462654510571"><ele>220.0</ele><time>2026-04-06T09:30:37Z</time></trkpt><trkpt lat="37.41679144014858" lon="14.554725286981716"><ele>220.0</ele><time>2026-04-06T09:30:38Z</time></trkpt><trkpt lat="37.41668198799455" lon="14.554814459663064"><ele>220.0</ele><time>2026-04-06T09:30:39Z</time></trkpt><trkpt lat="37.41658340721541" lon="14.55489427546599"><ele>220.0</ele><time>2026-04-06T09:30:40Z</time></trkpt><trkpt lat="37.416486116840424" lon="14.554975489313014"><ele>220.0</ele><time>2026-04-06T09:30:41Z</time></trkpt><trkpt lat="37.416365890535026" lon="14.555068299023535"><ele>220.0</ele><time>2026-04-06T09:30:42Z</time></trkpt><trkpt lat="37.41623800385634" lon="14.555193514621594"><ele>220.0</ele><time>2026-04-06T09:30:43Z</time></trkpt><trkpt lat="37.41606545116789" lon="14.555313637953363"><ele>219.66666666666666</ele><time>2026-04-06T09:30:44Z</time></trkpt><trkpt lat="37.415909299410046" lon="14.555440357286145"><ele>219.33333333333331</ele><time>2026-04-06T09:30:45Z</time></trkpt><trkpt lat="37.41576787597407" lon="14.555556419983814"><ele>219.0</ele><time>2026-04-06T09:30:46Z</time></trkpt><trkpt lat="37.41561459157422" lon="14.555682216671869"><ele>219.66666666666669</ele><time>2026-04-06T09:30:47Z</time></trkpt><trkpt lat="37.41546248348511" lon="14.555807047989688"><ele>220.33333333333334</ele><time>2026-04-06T09:30:48Z</time></trkpt><trkpt lat="37.41530670398232" lon="14.55593477420652"><ele>221.0</ele><time>2026-04-06T09:30:49Z</time></trkpt><trkpt lat="37.4151593621656" lon="14.556075162876832"><ele>221.0</ele><time>2026-04-06T09:30:50Z</time></trkpt><trkpt lat="37.41501550539142" lon="14.556191834949916"><ele>221.0</ele><time>2026-04-06T09:30:51Z</time></trkpt><trkpt lat="37.414886036163416" lon="14.556296106281604"><ele>221.0</ele><time>2026-04-06T09:30:52Z</time></trkpt><trkpt lat="37.41474219079236" lon="14.556411158690187"><ele>220.5</ele><time>2026-04-06T09:30:53Z</time></trkpt><trkpt lat="37.41462091724317" lon="14.556529167227977"><ele>220.0</ele><time>2026-04-06T09:30:54Z</time></trkpt><trkpt lat="37.414490690922506" lon="14.556633848372842"><ele>219.5</ele><time>2026-04-06T09:30:55Z</time></trkpt><trkpt lat="37.41438659062947" lon="14.556751450856282"><ele>219.0</ele><time>2026-04-06T09:30:56Z</time></trkpt><trkpt lat="37.4143060477862" lon="14.55687961987087"><ele>219.0</ele><time>2026-04-06T09:30:57Z</time></trkpt><trkpt lat="37.414239735924426" lon="14.557009109585676"><ele>219.0</ele><time>2026-04-06T09:30:58Z</time></trkpt><trkpt lat="37.414184897690724" lon="14.557154609926059"><ele>219.0</ele><time>2026-04-06T09:30:59Z</time></trkpt><trkpt lat="37.41415349413049" lon="14.557341776322028"><ele>219.0</ele><time>2026-04-06T09:31:00Z</time></trkpt><trkpt lat="37.41409982242372" lon="14.557522468898808"><ele>219.25</ele><time>2026-04-06T09:31:01Z</time></trkpt><trkpt lat="37.41407460483178" lon="14.557701657153913"><ele>219.5</ele><time>2026-04-06T09:31:02Z</time></trkpt><trkpt lat="37.414054478488936" lon="14.557882742798466"><ele>219.75</ele><time>2026-04-06T09:31:03Z</time></trkpt><trkpt lat="37.414037966300675" lon="14.558051276072716"><ele>220.0</ele><time>2026-04-06T09:31:04Z</time></trkpt><trkpt lat="37.41402485301696" lon="14.55819985808881"><ele>220.25</ele><time>2026-04-06T09:31:05Z</time></trkpt><trkpt lat="37.414011511533865" lon="14.558368103915132"><ele>220.5</ele><time>2026-04-06T09:31:06Z</time></trkpt><trkpt lat="37.41399924459774" lon="14.558538826642266"><ele>220.75</ele><time>2026-04-06T09:31:07Z</time></trkpt><trkpt lat="37.41399029196986" lon="14.558660252335958"><ele>221.0</ele><time>2026-04-06T09:31:08Z</time></trkpt><trkpt lat="37.4139778186935" lon="14.558792442866235"><ele>221.0</ele><time>2026-04-06T09:31:09Z</time></trkpt><trkpt lat="37.41397729968788" lon="14.558945148211615"><ele>221.0</ele><time>2026-04-06T09:31:10Z</time></trkpt><trkpt lat="37.41393931580957" lon="14.559121496230619"><ele>221.0</ele><time>2026-04-06T09:31:11Z</time></trkpt><trkpt lat="37.413917687850926" lon="14.559298501963465"><ele>221.0</ele><time>2026-04-06T09:31:12Z</time></trkpt><trkpt lat="37.41389222647824" lon="14.559487167626996"><ele>222.0</ele><time>2026-04-06T09:31:13Z</time></trkpt><trkpt lat="37.41386875356318" lon="14.559660627739516"><ele>223.0</ele><time>2026-04-06T09:31:14.001Z</time></trkpt><trkpt lat="37.41384810995553" lon="14.559825346669454"><ele>224.0</ele><time>2026-04-06T09:31:15.001Z</time></trkpt><trkpt lat="37.41383016447781" lon="14.560003331880887"><ele>225.0</ele><time>2026-04-06T09:31:16.001Z</time></trkpt><trkpt lat="37.413812778902326" lon="14.560183990082237"><ele>223.2</ele><time>2026-04-06T09:31:17.001Z</time></trkpt><trkpt lat="37.41379916468028" lon="14.560331301964979"><ele>221.4</ele><time>2026-04-06T09:31:18.001Z</time></trkpt><trkpt lat="37.413785896732556" lon="14.560474867017165"><ele>219.60000000000002</ele><time>2026-04-06T09:31:19.001Z</time></trkpt><trkpt lat="37.41377341644657" lon="14.560609660745536"><ele>217.8</ele><time>2026-04-06T09:31:20.001Z</time></trkpt><trkpt lat="37.41376740249308" lon="14.560734628998047"><ele>216.0</ele><time>2026-04-06T09:31:21.001Z</time></trkpt><trkpt lat="37.413781753465635" lon="14.560857085271582"><ele>215.83333333333334</ele><time>2026-04-06T09:31:22.001Z</time></trkpt><trkpt lat="37.41379834097262" lon="14.560959539913945"><ele>215.66666666666669</ele><time>2026-04-06T09:31:23.001Z</time></trkpt><trkpt lat="37.41380320005414" lon="14.561040085080101"><ele>215.5</ele><time>2026-04-06T09:31:24.001Z</time></trkpt><trkpt lat="37.413791560884896" lon="14.561132189119787"><ele>215.33333333333334</ele><time>2026-04-06T09:31:26.001Z</time></trkpt><trkpt lat="37.413677212333724" lon="14.56113041241227"><ele>215.16666666666669</ele><time>2026-04-06T09:31:30.001Z</time></trkpt><trkpt lat="37.41361539141367" lon="14.561114406351667"><ele>215.0</ele><time>2026-04-06T09:31:31.001Z</time></trkpt><trkpt lat="37.41355111379264" lon="14.561061645367502"><ele>215.0</ele><time>2026-04-06T09:31:32.001Z</time></trkpt><trkpt lat="37.41344824563299" lon="14.560977489087515"><ele>215.0</ele><time>2026-04-06T09:31:33.001Z</time></trkpt><trkpt lat="37.41333093052883" lon="14.560887916330875"><ele>215.0</ele><time>2026-04-06T09:31:34.001Z</time></trkpt><trkpt lat="37.41320813198126" lon="14.560798853480595"><ele>215.0</ele><time>2026-04-06T09:31:35.001Z</time></trkpt><trkpt lat="37.4130998090036" lon="14.560724795267774"><ele>214.75</ele><time>2026-04-06T09:31:36.001Z</time></trkpt><trkpt lat="37.412981737730895" lon="14.560637754035062"><ele>214.5</ele><time>2026-04-06T09:31:37.001Z</time></trkpt><trkpt lat="37.4128667780457" lon="14.560561944293644"><ele>214.25</ele><time>2026-04-06T09:31:38.001Z</time></trkpt><trkpt lat="37.412753460570585" lon="14.56051075074155"><ele>214.0</ele><time>2026-04-06T09:31:39.001Z</time></trkpt><trkpt lat="37.41262158629505" lon="14.560449552522336"><ele>214.0</ele><time>2026-04-06T09:31:40.001Z</time></trkpt><trkpt lat="37.41248822096969" lon="14.560396327529016"><ele>214.0</ele><time>2026-04-06T09:31:41.001Z</time></trkpt><trkpt lat="37.412335679762286" lon="14.56034771614286"><ele>214.0</ele><time>2026-04-06T09:31:42.001Z</time></trkpt><trkpt lat="37.41219758581569" lon="14.560302948493083"><ele>214.0</ele><time>2026-04-06T09:31:43Z</time></trkpt><trkpt lat="37.41206249476038" lon="14.560261676491114"><ele>214.2</ele><time>2026-04-06T09:31:44Z</time></trkpt><trkpt lat="37.411940725076164" lon="14.560215885425414"><ele>214.39999999999998</ele><time>2026-04-06T09:31:45Z</time></trkpt><trkpt lat="37.41184702286693" lon="14.560190994897718"><ele>214.6</ele><time>2026-04-06T09:31:46Z</time></trkpt><trkpt lat="37.41177418319489" lon="14.560173990969446"><ele>214.8</ele><time>2026-04-06T09:31:47Z</time></trkpt><trkpt lat="37.41168655289167" lon="14.560159318919538"><ele>215.0</ele><time>2026-04-06T09:31:49Z</time></trkpt><trkpt lat="37.41161149634983" lon="14.56013964735025"><ele>215.0</ele><time>2026-04-06T09:31:51Z</time></trkpt><trkpt lat="37.41147993329928" lon="14.560094330096536"><ele>215.0</ele><time>2026-04-06T09:31:53Z</time></trkpt><trkpt lat="37.41137930051898" lon="14.56006371545703"><ele>215.0</ele><time>2026-04-06T09:31:54Z</time></trkpt><trkpt lat="37.41126773374088" lon="14.56002225523745"><ele>215.0</ele><time>2026-04-06T09:31:55Z</time></trkpt><trkpt lat="37.41116138956784" lon="14.559975678144495"><ele>216.0</ele><time>2026-04-06T09:31:56Z</time></trkpt><trkpt lat="37.41105270537195" lon="14.559937825409081"><ele>217.0</ele><time>2026-04-06T09:31:57Z</time></trkpt><trkpt lat="37.410936417834634" lon="14.559906376197548"><ele>218.0</ele><time>2026-04-06T09:31:58Z</time></trkpt><trkpt lat="37.41081342141501" lon="14.55987131240095"><ele>219.0</ele><time>2026-04-06T09:31:59Z</time></trkpt><trkpt lat="37.410671363415055" lon="14.559823939170535"><ele>219.0</ele><time>2026-04-06T09:32:00Z</time></trkpt><trkpt lat="37.41052268570753" lon="14.559774987649902"><ele>219.0</ele><time>2026-04-06T09:32:01Z</time></trkpt><trkpt lat="37.41036617136122" lon="14.559717312328996"><ele>219.0</ele><time>2026-04-06T09:32:02Z</time></trkpt><trkpt lat="37.41021327925364" lon="14.559671178495789"><ele>219.33333333333331</ele><time>2026-04-06T09:32:03Z</time></trkpt><trkpt lat="37.41007235533328" lon="14.55962642613204"><ele>219.66666666666666</ele><time>2026-04-06T09:32:04Z</time></trkpt><trkpt lat="37.409915849003895" lon="14.55957714681405"><ele>220.0</ele><time>2026-04-06T09:32:05Z</time></trkpt><trkpt lat="37.409750166439935" lon="14.559509680179652"><ele>220.0</ele><time>2026-04-06T09:32:06Z</time></trkpt><trkpt lat="37.40958159924233" lon="14.559454394951583"><ele>220.0</ele><time>2026-04-06T09:32:07Z</time></trkpt><trkpt lat="37.40943196137622" lon="14.559405316894182"><ele>220.0</ele><time>2026-04-06T09:32:08Z</time></trkpt><trkpt lat="37.40929383530531" lon="14.559360014455207"><ele>220.0</ele><time>2026-04-06T09:32:09Z</time></trkpt><trkpt lat="37.409171360147944" lon="14.559315197739586"><ele>220.0</ele><time>2026-04-06T09:32:10Z</time></trkpt><trkpt lat="37.40906359110901" lon="14.559267947532145"><ele>220.0</ele><time>2026-04-06T09:32:11Z</time></trkpt><trkpt lat="37.408975397738395" lon="14.559239046395216"><ele>220.0</ele><time>2026-04-06T09:32:12Z</time></trkpt><trkpt lat="37.40888132890072" lon="14.559184196854801"><ele>220.0</ele><time>2026-04-06T09:32:13Z</time></trkpt><trkpt lat="37.40878401055254" lon="14.559121914271449"><ele>220.2</ele><time>2026-04-06T09:32:14Z</time></trkpt><trkpt lat="37.40870307894493" lon="14.559069774346888"><ele>220.4</ele><time>2026-04-06T09:32:15Z</time></trkpt><trkpt lat="37.408607864479194" lon="14.55900996253984"><ele>220.60000000000002</ele><time>2026-04-06T09:32:16Z</time></trkpt><trkpt lat="37.40851058689668" lon="14.558960593483821"><ele>220.8</ele><time>2026-04-06T09:32:17Z</time></trkpt><trkpt lat="37.40839564808936" lon="14.55890146545257"><ele>221.0</ele><time>2026-04-06T09:32:18Z</time></trkpt><trkpt lat="37.408251256842775" lon="14.558824522994943"><ele>221.0</ele><time>2026-04-06T09:32:19Z</time></trkpt><trkpt lat="37.408086251100606" lon="14.558739579460603"><ele>221.0</ele><time>2026-04-06T09:32:20Z</time></trkpt><trkpt lat="37.40792417005088" lon="14.558650458163314"><ele>221.0</ele><time>2026-04-06T09:32:21Z</time></trkpt><trkpt lat="37.40777613014433" lon="14.558576743102801"><ele>222.33333333333334</ele><time>2026-04-06T09:32:22Z</time></trkpt><trkpt lat="37.40762224106735" lon="14.558498038265466"><ele>223.66666666666669</ele><time>2026-04-06T09:32:23Z</time></trkpt><trkpt lat="37.40748149212673" lon="14.558420272381223"><ele>225.0</ele><time>2026-04-06T09:32:24Z</time></trkpt><trkpt lat="37.40734392518637" lon="14.558340999720894"><ele>225.0</ele><time>2026-04-06T09:32:25Z</time></trkpt><trkpt lat="37.40719710129087" lon="14.558263520329538"><ele>225.0</ele><time>2026-04-06T09:32:26Z</time></trkpt><trkpt lat="37.40706024379433" lon="14.55818953856721"><ele>225.0</ele><time>2026-04-06T09:32:27Z</time></trkpt><trkpt lat="37.4069231045056" lon="14.55811614188105"><ele>224.0</ele><time>2026-04-06T09:32:28Z</time></trkpt><trkpt lat="37.40677855052932" lon="14.558031465169508"><ele>223.0</ele><time>2026-04-06T09:32:29Z</time></trkpt><trkpt lat="37.40664775186968" lon="14.557969038897351"><ele>222.0</ele><time>2026-04-06T09:32:30Z</time></trkpt><trkpt lat="37.40650466917484" lon="14.557888988434259"><ele>223.33333333333331</ele><time>2026-04-06T09:32:31Z</time></trkpt><trkpt lat="37.40635244962765" lon="14.55780812812553"><ele>224.66666666666666</ele><time>2026-04-06T09:32:32Z</time></trkpt><trkpt lat="37.40620356659703" lon="14.557727688086088"><ele>226.0</ele><time>2026-04-06T09:32:33Z</time></trkpt><trkpt lat="37.40606751107994" lon="14.55764754726931"><ele>227.0</ele><time>2026-04-06T09:32:34Z</time></trkpt><trkpt lat="37.40592118453563" lon="14.557566835859223"><ele>228.0</ele><time>2026-04-06T09:32:35Z</time></trkpt><trkpt lat="37.40576350944624" lon="14.557480775753486"><ele>229.0</ele><time>2026-04-06T09:32:36Z</time></trkpt><trkpt lat="37.40561726253952" lon="14.557393449883872"><ele>229.0</ele><time>2026-04-06T09:32:37Z</time></trkpt><trkpt lat="37.40549462545907" lon="14.557317662896235"><ele>229.0</ele><time>2026-04-06T09:32:38Z</time></trkpt><trkpt lat="37.405375999306685" lon="14.557237269249143"><ele>229.0</ele><time>2026-04-06T09:32:39Z</time></trkpt><trkpt lat="37.405264343530476" lon="14.557140934094642"><ele>229.0</ele><time>2026-04-06T09:32:40Z</time></trkpt><trkpt lat="37.405165477577334" lon="14.557014355039927"><ele>229.5</ele><time>2026-04-06T09:32:41Z</time></trkpt><trkpt lat="37.40507102825938" lon="14.556892672601922"><ele>230.0</ele><time>2026-04-06T09:32:42Z</time></trkpt><trkpt lat="37.40497635987331" lon="14.556752754247043"><ele>230.5</ele><time>2026-04-06T09:32:43Z</time></trkpt><trkpt lat="37.40488839902307" lon="14.556641102547665"><ele>231.0</ele><time>2026-04-06T09:32:44Z</time></trkpt><trkpt lat="37.40483517207634" lon="14.556520602756281"><ele>231.0</ele><time>2026-04-06T09:32:45Z</time></trkpt><trkpt lat="37.404781477936666" lon="14.556424206998722"><ele>231.0</ele><time>2026-04-06T09:32:46Z</time></trkpt><trkpt lat="37.404723064662136" lon="14.556362660657"><ele>231.0</ele><time>2026-04-06T09:32:47Z</time></trkpt><trkpt lat="37.404682707368856" lon="14.556272603667201"><ele>231.0</ele><time>2026-04-06T09:32:48Z</time></trkpt><trkpt lat="37.40464024783942" lon="14.556203269538322"><ele>231.0</ele><time>2026-04-06T09:32:49Z</time></trkpt><trkpt lat="37.40459886886021" lon="14.556135699447102"><ele>231.0</ele><time>2026-04-06T09:32:50Z</time></trkpt><trkpt lat="37.40455125222469" lon="14.556057942939319"><ele>231.0</ele><time>2026-04-06T09:32:51Z</time></trkpt><trkpt lat="37.404490291250575" lon="14.555957752555884"><ele>231.0</ele><time>2026-04-06T09:32:52Z</time></trkpt><trkpt lat="37.40439741560558" lon="14.55580210247744"><ele>231.0</ele><time>2026-04-06T09:32:53Z</time></trkpt><trkpt lat="37.40429932446476" lon="14.55563771251192"><ele>231.0</ele><time>2026-04-06T09:32:54Z</time></trkpt><trkpt lat="37.40422204130448" lon="14.55550819438399"><ele>231.0</ele><time>2026-04-06T09:32:55Z</time></trkpt><trkpt lat="37.40415135790422" lon="14.555389736390374"><ele>231.00000000000003</ele><time>2026-04-06T09:32:56Z</time></trkpt><trkpt lat="37.404085705658616" lon="14.555279710755867"><ele>231.00000000000003</ele><time>2026-04-06T09:32:57Z</time></trkpt><trkpt lat="37.40402059911604" lon="14.555170598855678"><ele>231.0</ele><time>2026-04-06T09:32:58Z</time></trkpt><trkpt lat="37.40396544207845" lon="14.555076704618333"><ele>231.0</ele><time>2026-04-06T09:32:59Z</time></trkpt><trkpt lat="37.40390741325411" lon="14.554977410190217"><ele>230.75</ele><time>2026-04-06T09:33:00Z</time></trkpt><trkpt lat="37.40385353099146" lon="14.554885210967319"><ele>230.5</ele><time>2026-04-06T09:33:01Z</time></trkpt><trkpt lat="37.40378829914562" lon="14.554774895036552"><ele>230.25</ele><time>2026-04-06T09:33:03Z</time></trkpt><trkpt lat="37.403738329030936" lon="14.554700282655975"><ele>230.0</ele><time>2026-04-06T09:33:05Z</time></trkpt><trkpt lat="37.403617271739876" lon="14.55453693392871"><ele>230.0</ele><time>2026-04-06T09:33:07Z</time></trkpt><trkpt lat="37.403546771130415" lon="14.55446120053449"><ele>230.0</ele><time>2026-04-06T09:33:08Z</time></trkpt><trkpt lat="37.40344727348807" lon="14.554374473394947"><ele>230.0</ele><time>2026-04-06T09:33:09Z</time></trkpt><trkpt lat="37.40336645711709" lon="14.554312960816752"><ele>230.0</ele><time>2026-04-06T09:33:10Z</time></trkpt><trkpt lat="37.403285970004404" lon="14.554255494036676"><ele>230.0</ele><time>2026-04-06T09:33:11Z</time></trkpt><trkpt lat="37.40318182050011" lon="14.554189127269597"><ele>230.0</ele><time>2026-04-06T09:33:12Z</time></trkpt><trkpt lat="37.40307757460996" lon="14.554121786696912"><ele>230.0</ele><time>2026-04-06T09:33:13Z</time></trkpt><trkpt lat="37.40295760663427" lon="14.55404428998297"><ele>230.0</ele><time>2026-04-06T09:33:14Z</time></trkpt><trkpt lat="37.40284988817147" lon="14.553974710936988"><ele>230.0</ele><time>2026-04-06T09:33:15Z</time></trkpt><trkpt lat="37.40274608348039" lon="14.553907665742328"><ele>230.16666666666669</ele><time>2026-04-06T09:33:16Z</time></trkpt><trkpt lat="37.40265659311043" lon="14.553849865852179"><ele>230.33333333333334</ele><time>2026-04-06T09:33:17Z</time></trkpt><trkpt lat="37.40258373727118" lon="14.553803013674527"><ele>230.5</ele><time>2026-04-06T09:33:18Z</time></trkpt><trkpt lat="37.402515385845525" lon="14.553757529433474"><ele>230.66666666666669</ele><time>2026-04-06T09:33:19Z</time></trkpt><trkpt lat="37.402455904977906" lon="14.553717948168636"><ele>230.83333333333334</ele><time>2026-04-06T09:33:20Z</time></trkpt><trkpt lat="37.40237620922608" lon="14.55366491506512"><ele>231.0</ele><time>2026-04-06T09:33:21Z</time></trkpt><trkpt lat="37.40230259312519" lon="14.553613440573463"><ele>231.20000000000002</ele><time>2026-04-06T09:33:22Z</time></trkpt><trkpt lat="37.40222801227474" lon="14.553553418240309"><ele>231.40000000000003</ele><time>2026-04-06T09:33:23Z</time></trkpt><trkpt lat="37.402139050534" lon="14.553506637599757"><ele>231.6</ele><time>2026-04-06T09:33:24Z</time></trkpt><trkpt lat="37.402077619832106" lon="14.553487417810208"><ele>231.8</ele><time>2026-04-06T09:33:25Z</time></trkpt><trkpt lat="37.40202127675647" lon="14.553435831104075"><ele>232.0</ele><time>2026-04-06T09:33:27Z</time></trkpt><trkpt lat="37.401922911233015" lon="14.553629157009542"><ele>231.66666666666666</ele><time>2026-04-06T09:33:29Z</time></trkpt><trkpt lat="37.401861231289104" lon="14.55378115369781"><ele>231.33333333333331</ele><time>2026-04-06T09:33:30Z</time></trkpt><trkpt lat="37.401787829883226" lon="14.553961031572806"><ele>231.0</ele><time>2026-04-06T09:33:31Z</time></trkpt><trkpt lat="37.40171044653574" lon="14.554155323689868"><ele>231.0</ele><time>2026-04-06T09:33:32Z</time></trkpt><trkpt lat="37.40163241690413" lon="14.554341447570467"><ele>231.0</ele><time>2026-04-06T09:33:33Z</time></trkpt><trkpt lat="37.401572867971964" lon="14.554513751487322"><ele>231.0</ele><time>2026-04-06T09:33:34Z</time></trkpt><trkpt lat="37.40152451104431" lon="14.554680357147031"><ele>230.33333333333331</ele><time>2026-04-06T09:33:35Z</time></trkpt><trkpt lat="37.401476044053126" lon="14.554878945126147"><ele>229.66666666666666</ele><time>2026-04-06T09:33:36Z</time></trkpt><trkpt lat="37.401418229352174" lon="14.555069959136791"><ele>229.0</ele><time>2026-04-06T09:33:37Z</time></trkpt><trkpt lat="37.40133611728165" lon="14.555281243207705"><ele>230.33333333333331</ele><time>2026-04-06T09:33:38.001Z</time></trkpt><trkpt lat="37.40124294767381" lon="14.555505260570277"><ele>231.66666666666669</ele><time>2026-04-06T09:33:39.001Z</time></trkpt><trkpt lat="37.401149597275" lon="14.55572465181591"><ele>233.0</ele><time>2026-04-06T09:33:40.001Z</time></trkpt><trkpt lat="37.40104006164803" lon="14.555961931673089"><ele>233.0</ele><time>2026-04-06T09:33:41.001Z</time></trkpt><trkpt lat="37.40091734006094" lon="14.556198902224892"><ele>233.0</ele><time>2026-04-06T09:33:42.001Z</time></trkpt><trkpt lat="37.40079314461584" lon="14.556442809127619"><ele>233.33333333333334</ele><time>2026-04-06T09:33:43.001Z</time></trkpt><trkpt lat="37.40068404481621" lon="14.556681344974065"><ele>233.66666666666669</ele><time>2026-04-06T09:33:44.001Z</time></trkpt><trkpt lat="37.40057769545706" lon="14.55691634040351"><ele>234.0</ele><time>2026-04-06T09:33:45.001Z</time></trkpt><trkpt lat="37.40046628281451" lon="14.557160350477186"><ele>234.66666666666669</ele><time>2026-04-06T09:33:46.001Z</time></trkpt><trkpt lat="37.4003480502772" lon="14.557410193324522"><ele>235.33333333333334</ele><time>2026-04-06T09:33:47.001Z</time></trkpt><trkpt lat="37.40025312870384" lon="14.557626029708508"><ele>236.0</ele><time>2026-04-06T09:33:48.001Z</time></trkpt><trkpt lat="37.40016616145152" lon="14.557855204990565"><ele>237.0</ele><time>2026-04-06T09:33:49Z</time></trkpt><trkpt lat="37.40008284731468" lon="14.558081629067997"><ele>238.0</ele><time>2026-04-06T09:33:50Z</time></trkpt><trkpt lat="37.40000723991593" lon="14.558286377554827"><ele>239.0</ele><time>2026-04-06T09:33:51Z</time></trkpt><trkpt lat="37.39993663884218" lon="14.558482307282459"><ele>239.0</ele><time>2026-04-06T09:33:52Z</time></trkpt><trkpt lat="37.39986760292208" lon="14.558671396920921"><ele>239.0</ele><time>2026-04-06T09:33:53Z</time></trkpt><trkpt lat="37.39978521570982" lon="14.558882641443676"><ele>239.0</ele><time>2026-04-06T09:33:54Z</time></trkpt><trkpt lat="37.399713116480115" lon="14.55908992039948"><ele>240.0</ele><time>2026-04-06T09:33:55Z</time></trkpt><trkpt lat="37.39965844904072" lon="14.559262731990163"><ele>241.0</ele><time>2026-04-06T09:33:56Z</time></trkpt><trkpt lat="37.39961078086554" lon="14.559415916341232"><ele>242.0</ele><time>2026-04-06T09:33:57Z</time></trkpt><trkpt lat="37.39957748706491" lon="14.559536872967108"><ele>243.0</ele><time>2026-04-06T09:33:58Z</time></trkpt><trkpt lat="37.399556931944446" lon="14.559621597229208"><ele>243.8</ele><time>2026-04-06T09:33:59Z</time></trkpt><trkpt lat="37.39948687046963" lon="14.559691079314026"><ele>244.60000000000002</ele><time>2026-04-06T09:34:01Z</time></trkpt><trkpt lat="37.39937639148085" lon="14.559681886757733"><ele>245.39999999999998</ele><time>2026-04-06T09:34:03Z</time></trkpt><trkpt lat="37.399299448592174" lon="14.559651989771927"><ele>246.2</ele><time>2026-04-06T09:34:05Z</time></trkpt><trkpt lat="37.39919568992368" lon="14.559614288854682"><ele>247.0</ele><time>2026-04-06T09:41:46Z</time></trkpt><trkpt lat="37.39911449146914" lon="14.559602976749133"><ele>247.0</ele><time>2026-04-06T09:41:47Z</time></trkpt><trkpt lat="37.39904271932746" lon="14.55958140766435"><ele>247.0</ele><time>2026-04-06T09:41:48Z</time></trkpt><trkpt lat="37.398946682660934" lon="14.559550166115043"><ele>247.0</ele><time>2026-04-06T09:41:49Z</time></trkpt><trkpt lat="37.39882457659024" lon="14.559513892498394"><ele>247.0</ele><time>2026-04-06T09:41:50Z</time></trkpt><trkpt lat="37.39872849956276" lon="14.559489916603907"><ele>247.0</ele><time>2026-04-06T09:41:51Z</time></trkpt><trkpt lat="37.39863033802414" lon="14.559460241138034"><ele>248.16666666666666</ele><time>2026-04-06T09:41:52Z</time></trkpt><trkpt lat="37.39852924167925" lon="14.55943025632104"><ele>249.33333333333331</ele><time>2026-04-06T09:41:53Z</time></trkpt><trkpt lat="37.39844023737902" lon="14.559402483933741"><ele>250.5</ele><time>2026-04-06T09:41:54Z</time></trkpt><trkpt lat="37.398346149768756" lon="14.559376144924384"><ele>251.66666666666669</ele><time>2026-04-06T09:41:55Z</time></trkpt><trkpt lat="37.3982658728487" lon="14.559348552119683"><ele>252.83333333333334</ele><time>2026-04-06T09:41:56Z</time></trkpt><trkpt lat="37.3981932273314" lon="14.55932937770353"><ele>254.0</ele><time>2026-04-06T09:41:57Z</time></trkpt><trkpt lat="37.398129856892666" lon="14.559298266319345"><ele>255.79999999999998</ele><time>2026-04-06T09:41:58Z</time></trkpt><trkpt lat="37.397982995526775" lon="14.559274013572546"><ele>257.59999999999997</ele><time>2026-04-06T09:41:59Z</time></trkpt><trkpt lat="37.3978755413104" lon="14.559242352909811"><ele>259.4</ele><time>2026-04-06T09:42:00Z</time></trkpt><trkpt lat="37.397794445381145" lon="14.559217923865752"><ele>261.2</ele><time>2026-04-06T09:42:01Z</time></trkpt><trkpt lat="37.39772868645938" lon="14.559188959578137"><ele>263.0</ele><time>2026-04-06T09:42:02Z</time></trkpt><trkpt lat="37.39764997391745" lon="14.559142952110212"><ele>263.0</ele><time>2026-04-06T09:42:03Z</time></trkpt><trkpt lat="37.3975688453323" lon="14.55909205000798"><ele>263.0</ele><time>2026-04-06T09:42:04Z</time></trkpt><trkpt lat="37.3975011021652" lon="14.559063141699756"><ele>263.0</ele><time>2026-04-06T09:42:05Z</time></trkpt><trkpt lat="37.397426899751046" lon="14.559044210750557"><ele>263.0</ele><time>2026-04-06T09:42:06Z</time></trkpt><trkpt lat="37.39733599979304" lon="14.559021097947682"><ele>263.0</ele><time>2026-04-06T09:42:07Z</time></trkpt><trkpt lat="37.3972254088145" lon="14.558988858950404"><ele>263.0</ele><time>2026-04-06T09:42:08Z</time></trkpt><trkpt lat="37.39710630914752" lon="14.55895729625226"><ele>263.6666666666667</ele><time>2026-04-06T09:42:09Z</time></trkpt><trkpt lat="37.39701415730833" lon="14.558928152669981"><ele>264.33333333333337</ele><time>2026-04-06T09:42:10Z</time></trkpt><trkpt lat="37.39693486851663" lon="14.558900625754859"><ele>265.0</ele><time>2026-04-06T09:42:11Z</time></trkpt><trkpt lat="37.396848987390165" lon="14.558866092441878"><ele>265.6666666666667</ele><time>2026-04-06T09:42:12Z</time></trkpt><trkpt lat="37.39676093710799" lon="14.558824639392068"><ele>266.3333333333333</ele><time>2026-04-06T09:42:13Z</time></trkpt><trkpt lat="37.396699801129515" lon="14.558794084501816"><ele>267.0</ele><time>2026-04-06T09:42:14Z</time></trkpt><trkpt lat="37.39662301075807" lon="14.558772585236232"><ele>267.0</ele><time>2026-04-06T09:42:15Z</time></trkpt><trkpt lat="37.396562086742655" lon="14.558819802687301"><ele>267.0</ele><time>2026-04-06T09:42:16Z</time></trkpt><trkpt lat="37.39645711719248" lon="14.558804927494938"><ele>267.0</ele><time>2026-04-06T09:42:17Z</time></trkpt><trkpt lat="37.396391760281766" lon="14.558816507816124"><ele>267.0</ele><time>2026-04-06T09:42:18Z</time></trkpt><trkpt lat="37.39630929780163" lon="14.558896866211526"><ele>267.0</ele><time>2026-04-06T09:42:20Z</time></trkpt><trkpt lat="37.39628881153649" lon="14.55907470917919"><ele>265.75</ele><time>2026-04-06T09:42:22Z</time></trkpt><trkpt lat="37.396281666082636" lon="14.55923196351008"><ele>264.5</ele><time>2026-04-06T09:42:23Z</time></trkpt><trkpt lat="37.39627472243586" lon="14.559387404318626"><ele>263.25</ele><time>2026-04-06T09:42:24Z</time></trkpt><trkpt lat="37.39625911434501" lon="14.559500202648152"><ele>262.0</ele><time>2026-04-06T09:42:25Z</time></trkpt><trkpt lat="37.39624288001187" lon="14.559644526665297"><ele>261.8333333333333</ele><time>2026-04-06T09:42:26Z</time></trkpt><trkpt lat="37.39621716497474" lon="14.55978112156197"><ele>261.66666666666663</ele><time>2026-04-06T09:42:27Z</time></trkpt><trkpt lat="37.39619621247251" lon="14.5598799412522"><ele>261.5</ele><time>2026-04-06T09:42:28Z</time></trkpt><trkpt lat="37.39617752609426" lon="14.559957116031141"><ele>261.3333333333333</ele><time>2026-04-06T09:42:29Z</time></trkpt><trkpt lat="37.3961414569657" lon="14.56006470289977"><ele>261.1666666666667</ele><time>2026-04-06T09:42:30Z</time></trkpt><trkpt lat="37.396109278169725" lon="14.56016885071018"><ele>261.0</ele><time>2026-04-06T09:42:31Z</time></trkpt><trkpt lat="37.39606008199767" lon="14.560280449160846"><ele>261.75</ele><time>2026-04-06T09:42:33Z</time></trkpt><trkpt lat="37.39600111469136" lon="14.560468466310661"><ele>262.5</ele><time>2026-04-06T09:42:35Z</time></trkpt><trkpt lat="37.39595609259064" lon="14.560619886940241"><ele>263.25</ele><time>2026-04-06T09:42:36Z</time></trkpt><trkpt lat="37.395916301802046" lon="14.560738211718856"><ele>264.0</ele><time>2026-04-06T09:42:37Z</time></trkpt><trkpt lat="37.395882244623344" lon="14.560835969110913"><ele>264.0</ele><time>2026-04-06T09:42:38Z</time></trkpt><trkpt lat="37.395839081461965" lon="14.560956831023866"><ele>264.0</ele><time>2026-04-06T09:42:39Z</time></trkpt><trkpt lat="37.39579156766741" lon="14.561119213933047"><ele>264.0</ele><time>2026-04-06T09:42:40Z</time></trkpt><trkpt lat="37.395745840337106" lon="14.561259347820386"><ele>264.0</ele><time>2026-04-06T09:42:41Z</time></trkpt><trkpt lat="37.395702622380604" lon="14.561376693799426"><ele>263.8333333333333</ele><time>2026-04-06T09:42:42Z</time></trkpt><trkpt lat="37.39565941678969" lon="14.56148677738303"><ele>263.6666666666667</ele><time>2026-04-06T09:42:43Z</time></trkpt><trkpt lat="37.39562148736261" lon="14.56159663144958"><ele>263.5</ele><time>2026-04-06T09:42:44Z</time></trkpt><trkpt lat="37.39557285990466" lon="14.561704190039737"><ele>263.33333333333337</ele><time>2026-04-06T09:42:45Z</time></trkpt><trkpt lat="37.39552775226856" lon="14.561792029832747"><ele>263.1666666666667</ele><time>2026-04-06T09:42:46Z</time></trkpt><trkpt lat="37.395485862746774" lon="14.561864110315431"><ele>263.0</ele><time>2026-04-06T09:42:47Z</time></trkpt><trkpt lat="37.395439987903956" lon="14.561951002886403"><ele>263.0</ele><time>2026-04-06T09:42:48Z</time></trkpt><trkpt lat="37.39539870219314" lon="14.56203023995025"><ele>263.0</ele><time>2026-04-06T09:42:49Z</time></trkpt><trkpt lat="37.39534879515852" lon="14.56210326214824"><ele>263.0</ele><time>2026-04-06T09:42:51Z</time></trkpt><trkpt lat="37.39528967951871" lon="14.562180339833128"><ele>263.0</ele><time>2026-04-06T09:50:26Z</time></trkpt><trkpt lat="37.39524979228441" lon="14.562274823044902"><ele>263.0</ele><time>2026-04-06T09:50:28Z</time></trkpt><trkpt lat="37.39520238950695" lon="14.56236401255568"><ele>263.0</ele><time>2026-04-06T09:50:30Z</time></trkpt><trkpt lat="37.39515879741968" lon="14.562439531572208"><ele>263.0</ele><time>2026-04-06T09:50:33Z</time></trkpt><trkpt lat="37.39513022727277" lon="14.56251606552013"><ele>263.0</ele><time>2026-04-06T09:51:03Z</time></trkpt><trkpt lat="37.39507595070135" lon="14.56257360426285"><ele>263.0</ele><time>2026-04-06T09:51:24Z</time></trkpt><trkpt lat="37.39503280452736" lon="14.562648775025425"><ele>263.0</ele><time>2026-04-06T09:51:27Z</time></trkpt><trkpt lat="37.394992626759816" lon="14.562716974556793"><ele>263.0</ele><time>2026-04-06T09:51:29Z</time></trkpt><trkpt lat="37.39494385208721" lon="14.562792783365085"><ele>263.0</ele><time>2026-04-06T09:51:31Z</time></trkpt><trkpt lat="37.394878365905754" lon="14.56289084668072"><ele>263.0</ele><time>2026-04-06T09:51:33Z</time></trkpt><trkpt lat="37.39483099470659" lon="14.562959349640968"><ele>263.0</ele><time>2026-04-06T09:51:34Z</time></trkpt><trkpt lat="37.39478670950181" lon="14.563019045330186"><ele>263.0</ele><time>2026-04-06T09:51:35Z</time></trkpt><trkpt lat="37.39473548517801" lon="14.563083017969923"><ele>263.0</ele><time>2026-04-06T09:51:36Z</time></trkpt><trkpt lat="37.39468302014006" lon="14.563154237834816"><ele>263.0</ele><time>2026-04-06T09:51:37Z</time></trkpt><trkpt lat="37.39464156504945" lon="14.563222707363224"><ele>263.0</ele><time>2026-04-06T09:51:38Z</time></trkpt><trkpt lat="37.39458381719868" lon="14.563309861141528"><ele>263.0</ele><time>2026-04-06T09:51:39Z</time></trkpt><trkpt lat="37.39453491751352" lon="14.563380582749085"><ele>262.6</ele><time>2026-04-06T09:51:40Z</time></trkpt><trkpt lat="37.394493566749006" lon="14.563443711341101"><ele>262.20000000000005</ele><time>2026-04-06T09:51:41Z</time></trkpt><trkpt lat="37.394420586402994" lon="14.563540999592146"><ele>261.8</ele><time>2026-04-06T09:51:43Z</time></trkpt><trkpt lat="37.394336407189314" lon="14.563632710525177"><ele>261.40000000000003</ele><time>2026-04-06T09:51:45Z</time></trkpt><trkpt lat="37.394238042595866" lon="14.563743330486476"><ele>261.0</ele><time>2026-04-06T09:51:47Z</time></trkpt><trkpt lat="37.39418314904908" lon="14.563799884360522"><ele>262.0</ele><time>2026-04-06T09:51:48Z</time></trkpt><trkpt lat="37.394090110640335" lon="14.563875879784323"><ele>263.0</ele><time>2026-04-06T09:51:50Z</time></trkpt><trkpt lat="37.393990982725235" lon="14.563972844665216"><ele>264.0</ele><time>2026-04-06T09:51:52Z</time></trkpt><trkpt lat="37.393931207174276" lon="14.564021547564227"><ele>265.0</ele><time>2026-04-06T09:51:53Z</time></trkpt><trkpt lat="37.39386208439865" lon="14.564076669713218"><ele>266.0</ele><time>2026-04-06T09:51:54Z</time></trkpt><trkpt lat="37.39379847413566" lon="14.564130991349995"><ele>267.0</ele><time>2026-04-06T09:51:55Z</time></trkpt><trkpt lat="37.39373145040108" lon="14.564192193649031"><ele>268.0</ele><time>2026-04-06T09:51:56Z</time></trkpt><trkpt lat="37.393666402932716" lon="14.564248016541598"><ele>269.0</ele><time>2026-04-06T09:51:57Z</time></trkpt><trkpt lat="37.39359025892892" lon="14.564307071631749"><ele>270.0</ele><time>2026-04-06T09:51:58Z</time></trkpt><trkpt lat="37.39350459675739" lon="14.564384965407259"><ele>271.0</ele><time>2026-04-06T09:52:00Z</time></trkpt><trkpt lat="37.39340725638883" lon="14.56450255587601"><ele>271.8</ele><time>2026-04-06T09:52:02Z</time></trkpt><trkpt lat="37.393339882078" lon="14.56459238857423"><ele>272.6</ele><time>2026-04-06T09:52:03Z</time></trkpt><trkpt lat="37.39326742189822" lon="14.564697952827272"><ele>273.4</ele><time>2026-04-06T09:52:04Z</time></trkpt><trkpt lat="37.393187171843984" lon="14.564807873375797"><ele>274.2</ele><time>2026-04-06T09:52:05Z</time></trkpt><trkpt lat="37.393109393534544" lon="14.564890067068374"><ele>275.0</ele><time>2026-04-06T09:52:06Z</time></trkpt><trkpt lat="37.393027553047176" lon="14.564983525789994"><ele>275.33333333333337</ele><time>2026-04-06T09:52:07Z</time></trkpt><trkpt lat="37.39295602938758" lon="14.565053651487405"><ele>275.6666666666667</ele><time>2026-04-06T09:52:08Z</time></trkpt><trkpt lat="37.39290903208237" lon="14.56510692578615"><ele>276.0</ele><time>2026-04-06T09:52:09Z</time></trkpt><trkpt lat="37.39284695867421" lon="14.565170680669533"><ele>276.3333333333333</ele><time>2026-04-06T09:52:10Z</time></trkpt><trkpt lat="37.39278732023829" lon="14.56523465114907"><ele>276.66666666666663</ele><time>2026-04-06T09:52:11Z</time></trkpt><trkpt lat="37.39272024281641" lon="14.565304768523738"><ele>277.0</ele><time>2026-04-06T09:52:12Z</time></trkpt><trkpt lat="37.39265504899441" lon="14.565400992192313"><ele>277.6</ele><time>2026-04-06T09:52:13Z</time></trkpt><trkpt lat="37.39260618775887" lon="14.565481922023057"><ele>278.2</ele><time>2026-04-06T09:52:14Z</time></trkpt><trkpt lat="37.392564669719" lon="14.565582835478446"><ele>278.8</ele><time>2026-04-06T09:52:15Z</time></trkpt><trkpt lat="37.392509963734085" lon="14.56572274217851"><ele>279.4</ele><time>2026-04-06T09:52:16Z</time></trkpt><trkpt lat="37.39245504206624" lon="14.565857771845565"><ele>280.0</ele><time>2026-04-06T09:52:17Z</time></trkpt><trkpt lat="37.39239444179276" lon="14.565995882081715"><ele>280.0</ele><time>2026-04-06T09:52:18Z</time></trkpt><trkpt lat="37.392335031475696" lon="14.56614395357192"><ele>280.0</ele><time>2026-04-06T09:52:19Z</time></trkpt><trkpt lat="37.39228165583909" lon="14.566287691729208"><ele>280.0</ele><time>2026-04-06T09:52:20Z</time></trkpt><trkpt lat="37.39223307790144" lon="14.566374223886395"><ele>280.0</ele><time>2026-04-06T09:52:21Z</time></trkpt><trkpt lat="37.392186027903385" lon="14.56649022609912"><ele>280.0</ele><time>2026-04-06T09:52:22Z</time></trkpt><trkpt lat="37.39214269294968" lon="14.566582437019354"><ele>281.0</ele><time>2026-04-06T09:52:23Z</time></trkpt><trkpt lat="37.39210350306955" lon="14.566660919466036"><ele>282.0</ele><time>2026-04-06T09:52:24Z</time></trkpt><trkpt lat="37.392008255767955" lon="14.56675146247356"><ele>283.0</ele><time>2026-04-06T09:52:26Z</time></trkpt><trkpt lat="37.39194413170915" lon="14.566833617422668"><ele>284.0</ele><time>2026-04-06T09:52:27Z</time></trkpt><trkpt lat="37.39188112927395" lon="14.566914526877907"><ele>285.0</ele><time>2026-04-06T09:52:28Z</time></trkpt><trkpt lat="37.39181964034622" lon="14.566977258440096"><ele>285.6666666666667</ele><time>2026-04-06T09:52:29Z</time></trkpt><trkpt lat="37.39176369747038" lon="14.56704158934221"><ele>286.3333333333333</ele><time>2026-04-06T09:52:30Z</time></trkpt><trkpt lat="37.39170667285026" lon="14.56711218505559"><ele>287.0</ele><time>2026-04-06T09:52:31Z</time></trkpt><trkpt lat="37.391638604911414" lon="14.567192307916745"><ele>287.66666666666663</ele><time>2026-04-06T09:52:33Z</time></trkpt><trkpt lat="37.39158529560173" lon="14.567255824782638"><ele>288.3333333333333</ele><time>2026-04-06T09:52:36Z</time></trkpt><trkpt lat="37.391550768971854" lon="14.567327423082332"><ele>289.0</ele><time>2026-04-06T09:53:31Z</time></trkpt><trkpt lat="37.391505403402206" lon="14.567386704362667"><ele>289.0</ele><time>2026-04-06T09:54:00Z</time></trkpt><trkpt lat="37.39145691194218" lon="14.567453793013842"><ele>289.0</ele><time>2026-04-06T09:54:02Z</time></trkpt><trkpt lat="37.39140533362378" lon="14.567529991407902"><ele>289.0</ele><time>2026-04-06T09:54:04Z</time></trkpt><trkpt lat="37.391355186809726" lon="14.567614682675224"><ele>289.0</ele><time>2026-04-06T09:54:06Z</time></trkpt><trkpt lat="37.391307670997605" lon="14.56768310629355"><ele>289.0</ele><time>2026-04-06T09:54:19Z</time></trkpt><trkpt lat="37.391254956848165" lon="14.567731807806531"><ele>289.0</ele><time>2026-04-06T09:56:21.001Z</time></trkpt><trkpt lat="37.39119413794498" lon="14.567810442670108"><ele>289.16666666666663</ele><time>2026-04-06T09:56:24.001Z</time></trkpt><trkpt lat="37.39113565372771" lon="14.56787357541525"><ele>289.3333333333333</ele><time>2026-04-06T09:57:30.001Z</time></trkpt><trkpt lat="37.391076091739286" lon="14.567915371251035"><ele>289.5</ele><time>2026-04-06T09:57:42.001Z</time></trkpt><trkpt lat="37.39099958427211" lon="14.567955784415258"><ele>289.6666666666667</ele><time>2026-04-06T09:57:44.001Z</time></trkpt><trkpt lat="37.39092393697179" lon="14.56798385216112"><ele>289.83333333333337</ele><time>2026-04-06T09:57:46.001Z</time></trkpt><trkpt lat="37.39084226156332" lon="14.568001197463392"><ele>290.0</ele><time>2026-04-06T09:57:48.001Z</time></trkpt><trkpt lat="37.390765277374356" lon="14.568017738547242"><ele>290.0</ele><time>2026-04-06T09:57:50.001Z</time></trkpt><trkpt lat="37.39069773245651" lon="14.568025570141447"><ele>290.0</ele><time>2026-04-06T09:57:52.001Z</time></trkpt><trkpt lat="37.39061006410601" lon="14.568035256247828"><ele>290.0</ele><time>2026-04-06T09:57:55.001Z</time></trkpt><trkpt lat="37.39052841243701" lon="14.568039967452055"><ele>290.0</ele><time>2026-04-06T09:57:58.001Z</time></trkpt><trkpt lat="37.39044045021916" lon="14.568035539788045"><ele>290.0</ele><time>2026-04-06T09:58:01.001Z</time></trkpt><trkpt lat="37.39036953633352" lon="14.568039176698937"><ele>290.0</ele><time>2026-04-06T09:58:03.001Z</time></trkpt><trkpt lat="37.39027940139329" lon="14.56806371687054"><ele>289.1666666666667</ele><time>2026-04-06T09:58:06.001Z</time></trkpt><trkpt lat="37.39021832706464" lon="14.568084251628067"><ele>288.33333333333337</ele><time>2026-04-06T09:58:08.001Z</time></trkpt><trkpt lat="37.390155462216356" lon="14.568111372158114"><ele>287.5</ele><time>2026-04-06T09:58:10.001Z</time></trkpt><trkpt lat="37.390059627588116" lon="14.568168213988564"><ele>286.6666666666667</ele><time>2026-04-06T09:58:13.001Z</time></trkpt><trkpt lat="37.38998907171305" lon="14.568219131652125"><ele>285.8333333333333</ele><time>2026-04-06T09:58:15.001Z</time></trkpt><trkpt lat="37.38993042006103" lon="14.568260724460899"><ele>285.0</ele><time>2026-04-06T09:58:17.001Z</time></trkpt><trkpt lat="37.38986653833996" lon="14.568301255135719"><ele>285.0</ele><time>2026-04-06T09:58:19.001Z</time></trkpt><trkpt lat="37.38979300543205" lon="14.568359857756379"><ele>285.0</ele><time>2026-04-06T09:58:22.001Z</time></trkpt><trkpt lat="37.389721578013855" lon="14.568422879856367"><ele>285.0</ele><time>2026-04-06T09:58:25.001Z</time></trkpt><trkpt lat="37.38966857854544" lon="14.568472599661998"><ele>285.0</ele><time>2026-04-06T09:58:28.001Z</time></trkpt><trkpt lat="37.389605053130204" lon="14.568536297833727"><ele>285.0</ele><time>2026-04-06T09:58:31.001Z</time></trkpt><trkpt lat="37.38955838297397" lon="14.568591023417746"><ele>285.0</ele><time>2026-04-06T09:58:41.001Z</time></trkpt><trkpt lat="37.38952069382661" lon="14.568670670795141"><ele>282.1666666666667</ele><time>2026-04-06T09:58:51.001Z</time></trkpt><trkpt lat="37.38951405367524" lon="14.568766403514958"><ele>279.3333333333333</ele><time>2026-04-06T09:58:56.001Z</time></trkpt><trkpt lat="37.389537005343065" lon="14.568874699206699"><ele>276.5</ele><time>2026-04-06T09:59:00Z</time></trkpt><trkpt lat="37.38957493717132" lon="14.568964118222814"><ele>273.66666666666663</ele><time>2026-04-06T09:59:02Z</time></trkpt><trkpt lat="37.389605291733076" lon="14.56904542828198"><ele>270.8333333333333</ele><time>2026-04-06T09:59:04Z</time></trkpt><trkpt lat="37.389628350304086" lon="14.569122825069629"><ele>268.0</ele><time>2026-04-06T09:59:06Z</time></trkpt><trkpt lat="37.38964600177804" lon="14.569208425648103"><ele>268.0</ele><time>2026-04-06T09:59:09Z</time></trkpt><trkpt lat="37.38962948159332" lon="14.569312398535462"><ele>268.0</ele><time>2026-04-06T09:59:12Z</time></trkpt><trkpt lat="37.38955817808773" lon="14.569363150943019"><ele>268.0</ele><time>2026-04-06T09:59:16Z</time></trkpt><trkpt lat="37.3894944087548" lon="14.56939191837831"><ele>268.0</ele><time>2026-04-06T09:59:18Z</time></trkpt><trkpt lat="37.389425044793946" lon="14.569403951086358"><ele>268.0</ele><time>2026-04-06T09:59:21Z</time></trkpt><trkpt lat="37.38933666232861" lon="14.569360543740359"><ele>268.0</ele><time>2026-04-06T09:59:25.001Z</time></trkpt><trkpt lat="37.389226536587174" lon="14.569349613200727"><ele>268.0</ele><time>2026-04-06T09:59:27.001Z</time></trkpt><trkpt lat="37.38915143598845" lon="14.569317173361746"><ele>268.0</ele><time>2026-04-06T09:59:30.001Z</time></trkpt><trkpt lat="37.38903491838991" lon="14.569293129742945"><ele>268.0</ele><time>2026-04-06T09:59:32.001Z</time></trkpt><trkpt lat="37.388904831287036" lon="14.569256460116419"><ele>268.0</ele><time>2026-04-06T09:59:34.001Z</time></trkpt><trkpt lat="37.388826216143926" lon="14.569253640247789"><ele>268.0</ele><time>2026-04-06T09:59:35.001Z</time></trkpt><trkpt lat="37.38873229869266" lon="14.569255939730636"><ele>267.66666666666663</ele><time>2026-04-06T09:59:36.001Z</time></trkpt><trkpt lat="37.38863293580326" lon="14.569258257047698"><ele>267.3333333333333</ele><time>2026-04-06T09:59:37.001Z</time></trkpt><trkpt lat="37.38852112594119" lon="14.569269307927426"><ele>267.0</ele><time>2026-04-06T09:59:38.001Z</time></trkpt><trkpt lat="37.38845588509029" lon="14.569291841402531"><ele>266.6666666666667</ele><time>2026-04-06T09:59:39.001Z</time></trkpt><trkpt lat="37.38837990483585" lon="14.569292670769498"><ele>266.33333333333337</ele><time>2026-04-06T09:59:40.001Z</time></trkpt><trkpt lat="37.38829375538022" lon="14.569331135909596"><ele>266.0</ele><time>2026-04-06T09:59:41.001Z</time></trkpt><trkpt lat="37.38822086417478" lon="14.569335092506721"><ele>266.0</ele><time>2026-04-06T09:59:42.001Z</time></trkpt><trkpt lat="37.388152966680316" lon="14.569338770680513"><ele>266.0</ele><time>2026-04-06T09:59:43.001Z</time></trkpt><trkpt lat="37.38800675126323" lon="14.569337146683063"><ele>266.0</ele><time>2026-04-06T09:59:45.001Z</time></trkpt><trkpt lat="37.38791738555001" lon="14.569337667406225"><ele>266.0</ele><time>2026-04-06T09:59:46.001Z</time></trkpt><trkpt lat="37.387833372907444" lon="14.569336437194668"><ele>266.0</ele><time>2026-04-06T09:59:47.001Z</time></trkpt><trkpt lat="37.38775261334559" lon="14.569336005203414"><ele>266.0</ele><time>2026-04-06T09:59:48.001Z</time></trkpt><trkpt lat="37.3876481806767" lon="14.56933659325077"><ele>266.0</ele><time>2026-04-06T09:59:50.001Z</time></trkpt><trkpt lat="37.387566866661125" lon="14.569335797468069"><ele>266.0</ele><time>2026-04-06T09:59:51.001Z</time></trkpt><trkpt lat="37.38747908084142" lon="14.569334043860495"><ele>266.0</ele><time>2026-04-06T09:59:52.001Z</time></trkpt><trkpt lat="37.38740054709609" lon="14.569342228802402"><ele>266.0</ele><time>2026-04-06T09:59:53.001Z</time></trkpt><trkpt lat="37.38731442837909" lon="14.56935826940097"><ele>266.0</ele><time>2026-04-06T09:59:54.001Z</time></trkpt><trkpt lat="37.38724315961234" lon="14.569378758439376"><ele>265.2</ele><time>2026-04-06T09:59:55.001Z</time></trkpt><trkpt lat="37.387123121998336" lon="14.569398397204079"><ele>264.40000000000003</ele><time>2026-04-06T09:59:57.001Z</time></trkpt><trkpt lat="37.387045300351346" lon="14.56940529682943"><ele>263.6</ele><time>2026-04-06T09:59:58.001Z</time></trkpt><trkpt lat="37.38698134857498" lon="14.569411664703047"><ele>262.8</ele><time>2026-04-06T09:59:59.001Z</time></trkpt><trkpt lat="37.3868738422959" lon="14.569410568217085"><ele>262.0</ele><time>2026-04-06T10:00:01.001Z</time></trkpt><trkpt lat="37.386769053053904" lon="14.56940896785429"><ele>262.0</ele><time>2026-04-06T10:00:03.001Z</time></trkpt><trkpt lat="37.38664763938834" lon="14.569414241944816"><ele>262.0</ele><time>2026-04-06T10:00:05.001Z</time></trkpt><trkpt lat="37.38655921167659" lon="14.569406323290368"><ele>262.0</ele><time>2026-04-06T10:00:06.001Z</time></trkpt><trkpt lat="37.386473790324196" lon="14.569393291352792"><ele>262.0</ele><time>2026-04-06T10:00:07.001Z</time></trkpt><trkpt lat="37.38638402544899" lon="14.569382221422316"><ele>262.0</ele><time>2026-04-06T10:00:08.001Z</time></trkpt><trkpt lat="37.386305725728214" lon="14.569366909165652"><ele>260.8333333333333</ele><time>2026-04-06T10:00:09.001Z</time></trkpt><trkpt lat="37.3862360357635" lon="14.56935826953797"><ele>259.66666666666663</ele><time>2026-04-06T10:00:10.001Z</time></trkpt><trkpt lat="37.38614593316755" lon="14.569353590582173"><ele>258.5</ele><time>2026-04-06T10:00:11.001Z</time></trkpt><trkpt lat="37.386056695730176" lon="14.569354002241925"><ele>257.3333333333333</ele><time>2026-04-06T10:00:12.001Z</time></trkpt><trkpt lat="37.38596452675862" lon="14.56934633200961"><ele>256.1666666666667</ele><time>2026-04-06T10:00:13.001Z</time></trkpt><trkpt lat="37.38589159763838" lon="14.569339735640051"><ele>255.0</ele><time>2026-04-06T10:00:14.001Z</time></trkpt><trkpt lat="37.385805208409586" lon="14.569336200827308"><ele>255.0</ele><time>2026-04-06T10:00:15.001Z</time></trkpt><trkpt lat="37.38571894389389" lon="14.569341852083358"><ele>255.0</ele><time>2026-04-06T10:00:16.001Z</time></trkpt><trkpt lat="37.38563201335841" lon="14.569350386851648"><ele>255.0</ele><time>2026-04-06T10:00:17.001Z</time></trkpt><trkpt lat="37.38555570134559" lon="14.569356147928232"><ele>255.0</ele><time>2026-04-06T10:00:18.001Z</time></trkpt><trkpt lat="37.38548050430062" lon="14.569359791928006"><ele>255.0</ele><time>2026-04-06T10:00:19.001Z</time></trkpt><trkpt lat="37.38541760190767" lon="14.569377587067281"><ele>255.0</ele><time>2026-04-06T10:00:20.001Z</time></trkpt><trkpt lat="37.3853509028191" lon="14.569409806802891"><ele>255.33333333333334</ele><time>2026-04-06T10:00:21.001Z</time></trkpt><trkpt lat="37.385295243468306" lon="14.569455430346286"><ele>255.66666666666669</ele><time>2026-04-06T10:00:22.001Z</time></trkpt><trkpt lat="37.38523183846763" lon="14.56950916297574"><ele>256.0</ele><time>2026-04-06T10:00:23.001Z</time></trkpt><trkpt lat="37.3851585168733" lon="14.569568050555864"><ele>256.33333333333337</ele><time>2026-04-06T10:00:24.001Z</time></trkpt><trkpt lat="37.38508332421113" lon="14.569627490734481"><ele>256.6666666666667</ele><time>2026-04-06T10:00:25.001Z</time></trkpt><trkpt lat="37.38501097770144" lon="14.569684214401303"><ele>257.0</ele><time>2026-04-06T10:00:26.001Z</time></trkpt><trkpt lat="37.38494736464774" lon="14.569734243322694"><ele>257.0</ele><time>2026-04-06T10:00:27.001Z</time></trkpt><trkpt lat="37.384893076790185" lon="14.569780586936528"><ele>257.0</ele><time>2026-04-06T10:00:28.001Z</time></trkpt><trkpt lat="37.38483307431851" lon="14.569830264396211"><ele>257.0</ele><time>2026-04-06T10:00:29.001Z</time></trkpt><trkpt lat="37.38475376352412" lon="14.569886449932682"><ele>257.0</ele><time>2026-04-06T10:00:31.001Z</time></trkpt><trkpt lat="37.38469559141468" lon="14.569964382840324"><ele>257.0</ele><time>2026-04-06T10:00:36.001Z</time></trkpt><trkpt lat="37.38461942963298" lon="14.569988551802034"><ele>257.0</ele><time>2026-04-06T10:00:48.001Z</time></trkpt><trkpt lat="37.38455017577026" lon="14.570033975614136"><ele>257.83333333333337</ele><time>2026-04-06T10:00:50.001Z</time></trkpt><trkpt lat="37.38446388570723" lon="14.570086252311816"><ele>258.6666666666667</ele><time>2026-04-06T10:00:52.001Z</time></trkpt><trkpt lat="37.38439085988961" lon="14.570115999766271"><ele>259.5</ele><time>2026-04-06T10:01:24Z</time></trkpt><trkpt lat="37.38432703899331" lon="14.57016694478204"><ele>260.3333333333333</ele><time>2026-04-06T10:04:18.001Z</time></trkpt><trkpt lat="37.38424653637896" lon="14.570209454944207"><ele>261.16666666666663</ele><time>2026-04-06T10:04:20.001Z</time></trkpt><trkpt lat="37.384170597070394" lon="14.570254905482054"><ele>262.0</ele><time>2026-04-06T10:04:22.001Z</time></trkpt><trkpt lat="37.384086011823705" lon="14.570302846508822"><ele>262.0</ele><time>2026-04-06T10:04:24.001Z</time></trkpt><trkpt lat="37.3839997722733" lon="14.570353986637905"><ele>262.0</ele><time>2026-04-06T10:04:26.001Z</time></trkpt><trkpt lat="37.38393548197368" lon="14.570393033332262"><ele>262.0</ele><time>2026-04-06T10:04:28.001Z</time></trkpt><trkpt lat="37.383858625098746" lon="14.570441305369025"><ele>262.0</ele><time>2026-04-06T10:04:31.001Z</time></trkpt><trkpt lat="37.38380443573707" lon="14.570503919913778"><ele>262.0</ele><time>2026-04-06T10:04:34.001Z</time></trkpt><trkpt lat="37.38372226211098" lon="14.570527912202555"><ele>262.0</ele><time>2026-04-06T10:04:37.001Z</time></trkpt><trkpt lat="37.38364928972311" lon="14.570586011472747"><ele>263.6</ele><time>2026-04-06T10:04:39.001Z</time></trkpt><trkpt lat="37.38355589381854" lon="14.570656620671196"><ele>265.2</ele><time>2026-04-06T10:04:41.001Z</time></trkpt><trkpt lat="37.38346276724665" lon="14.570721392308242"><ele>266.8</ele><time>2026-04-06T10:04:43.001Z</time></trkpt><trkpt lat="37.38337801305211" lon="14.570775842441233"><ele>268.4</ele><time>2026-04-06T10:04:45.001Z</time></trkpt><trkpt lat="37.38331342250607" lon="14.570813810881534"><ele>270.0</ele><time>2026-04-06T10:04:47.001Z</time></trkpt><trkpt lat="37.38324841097663" lon="14.570853767087007"><ele>270.0</ele><time>2026-04-06T10:04:51.001Z</time></trkpt><trkpt lat="37.38319591226005" lon="14.570898911127712"><ele>270.0</ele><time>2026-04-06T10:10:33.001Z</time></trkpt><trkpt lat="37.38312532525595" lon="14.570949445042844"><ele>270.0</ele><time>2026-04-06T10:10:36.001Z</time></trkpt><trkpt lat="37.383039159327275" lon="14.571013215431533"><ele>270.0</ele><time>2026-04-06T10:10:38.001Z</time></trkpt><trkpt lat="37.38293841559167" lon="14.571094717704577"><ele>270.0</ele><time>2026-04-06T10:10:40.001Z</time></trkpt><trkpt lat="37.38288333775889" lon="14.57113855025919"><ele>270.0</ele><time>2026-04-06T10:10:41.001Z</time></trkpt><trkpt lat="37.382784651828885" lon="14.57122083424203"><ele>271.8333333333333</ele><time>2026-04-06T10:10:43.001Z</time></trkpt><trkpt lat="37.38270561834306" lon="14.571290400688937"><ele>273.6666666666667</ele><time>2026-04-06T10:10:45.001Z</time></trkpt><trkpt lat="37.38263993404343" lon="14.57135835525028"><ele>275.5</ele><time>2026-04-06T10:10:47.001Z</time></trkpt><trkpt lat="37.38255760099161" lon="14.571414529124343"><ele>277.33333333333337</ele><time>2026-04-06T10:10:49.001Z</time></trkpt><trkpt lat="37.3825371957355" lon="14.571500535433435"><ele>279.1666666666667</ele><time>2026-04-06T10:10:52.001Z</time></trkpt><trkpt lat="37.3825617213324" lon="14.571575665887744"><ele>281.0</ele><time>2026-04-06T10:10:54.001Z</time></trkpt><trkpt lat="37.3825952587212" lon="14.571643174519648"><ele>281.00000000000006</ele><time>2026-04-06T10:10:59.001Z</time></trkpt><trkpt lat="37.382556357477775" lon="14.571576275514222"><ele>281.0</ele><time>2026-04-06T10:11:44Z</time></trkpt><trkpt lat="37.382517411757114" lon="14.571513091938549"><ele>281.0</ele><time>2026-04-06T10:11:48Z</time></trkpt><trkpt lat="37.38245094834166" lon="14.57152092649914"><ele>281.0</ele><time>2026-04-06T10:11:54Z</time></trkpt><trkpt lat="37.38238522317581" lon="14.57157031160317"><ele>281.0</ele><time>2026-04-06T10:11:56Z</time></trkpt><trkpt lat="37.3823110094511" lon="14.5716271727174"><ele>281.00000000000006</ele><time>2026-04-06T10:11:59Z</time></trkpt><trkpt lat="37.3822481199524" lon="14.571676496755943"><ele>281.0</ele><time>2026-04-06T10:12:02Z</time></trkpt><trkpt lat="37.38216720741731" lon="14.571728901816275"><ele>279.0</ele><time>2026-04-06T10:12:05Z</time></trkpt><trkpt lat="37.38209617091442" lon="14.5717610933223"><ele>277.0</ele><time>2026-04-06T10:12:08.001Z</time></trkpt><trkpt lat="37.382022245368155" lon="14.571778374040884"><ele>275.0</ele><time>2026-04-06T10:12:11.001Z</time></trkpt><trkpt lat="37.38195151248429" lon="14.571774709802026"><ele>273.0</ele><time>2026-04-06T10:12:14.001Z</time></trkpt><trkpt lat="37.381868441111344" lon="14.571782342206195"><ele>271.0</ele><time>2026-04-06T10:12:17.001Z</time></trkpt><trkpt lat="37.381784734308944" lon="14.571795527973132"><ele>269.0</ele><time>2026-04-06T10:12:20.001Z</time></trkpt><trkpt lat="37.381700803552256" lon="14.571822611101107"><ele>269.0</ele><time>2026-04-06T10:12:24.001Z</time></trkpt><trkpt lat="37.38161597384597" lon="14.571856935924474"><ele>269.0</ele><time>2026-04-06T10:12:27.001Z</time></trkpt><trkpt lat="37.38154906574874" lon="14.571901380015873"><ele>269.0</ele><time>2026-04-06T10:12:30.001Z</time></trkpt><trkpt lat="37.381481001017775" lon="14.571939210537462"><ele>269.0</ele><time>2026-04-06T10:12:33.001Z</time></trkpt><trkpt lat="37.38142966337786" lon="14.571985822465484"><ele>269.0</ele><time>2026-04-06T10:12:35.001Z</time></trkpt><trkpt lat="37.38136471514975" lon="14.572046899120366"><ele>269.0</ele><time>2026-04-06T10:12:38.001Z</time></trkpt><trkpt lat="37.38130421500196" lon="14.572107450177722"><ele>265.5</ele><time>2026-04-06T10:12:40.001Z</time></trkpt><trkpt lat="37.38124247836673" lon="14.572167612497356"><ele>262.0</ele><time>2026-04-06T10:12:42.001Z</time></trkpt><trkpt lat="37.3811802322697" lon="14.572227978898779"><ele>258.5</ele><time>2026-04-06T10:12:44.001Z</time></trkpt><trkpt lat="37.38110738902864" lon="14.57229865005756"><ele>255.0</ele><time>2026-04-06T10:12:46.001Z</time></trkpt><trkpt lat="37.38105405484324" lon="14.572353956183917"><ele>251.50000000000003</ele><time>2026-04-06T10:12:48.001Z</time></trkpt><trkpt lat="37.380989158053524" lon="14.572426785272603"><ele>248.0</ele><time>2026-04-06T10:12:51.001Z</time></trkpt><trkpt lat="37.38093326848334" lon="14.572485130975128"><ele>248.00000000000003</ele><time>2026-04-06T10:12:54.001Z</time></trkpt><trkpt lat="37.38089202180741" lon="14.572574360666628"><ele>248.0</ele><time>2026-04-06T10:12:59.001Z</time></trkpt><trkpt lat="37.380841671993224" lon="14.572661395994649"><ele>248.0</ele><time>2026-04-06T10:13:11.001Z</time></trkpt><trkpt lat="37.380807040050016" lon="14.572728935729108"><ele>248.0</ele><time>2026-04-06T10:13:13.001Z</time></trkpt><trkpt lat="37.380764433518166" lon="14.572818026415232"><ele>248.00000000000003</ele><time>2026-04-06T10:13:16.001Z</time></trkpt><trkpt lat="37.38071954761274" lon="14.572894697866614"><ele>248.0</ele><time>2026-04-06T10:14:08Z</time></trkpt><trkpt lat="37.3806596140428" lon="14.572947238879932"><ele>247.0</ele><time>2026-04-06T10:14:13Z</time></trkpt><trkpt lat="37.380583037269325" lon="14.572963588904706"><ele>246.00000000000003</ele><time>2026-04-06T10:14:19Z</time></trkpt><trkpt lat="37.380522574268355" lon="14.572996793342073"><ele>245.0</ele><time>2026-04-06T10:14:34.001Z</time></trkpt><trkpt lat="37.38048612824094" lon="14.573062349445646"><ele>244.0</ele><time>2026-04-06T10:15:53Z</time></trkpt><trkpt lat="37.38044886621601" lon="14.573140073844533"><ele>243.00000000000003</ele><time>2026-04-06T10:15:57Z</time></trkpt><trkpt lat="37.38041489638468" lon="14.573223807679181"><ele>242.0</ele><time>2026-04-06T10:16:00Z</time></trkpt><trkpt lat="37.380373334518936" lon="14.573289267840075"><ele>241.0</ele><time>2026-04-06T10:16:03Z</time></trkpt><trkpt lat="37.38031590164587" lon="14.573362896583701"><ele>239.57142857142858</ele><time>2026-04-06T10:16:06Z</time></trkpt><trkpt lat="37.38025408382147" lon="14.573432117293251"><ele>238.14285714285717</ele><time>2026-04-06T10:16:09Z</time></trkpt><trkpt lat="37.38018371349183" lon="14.573502051758316"><ele>236.71428571428572</ele><time>2026-04-06T10:16:12Z</time></trkpt><trkpt lat="37.3801359703297" lon="14.573566544299055"><ele>235.28571428571428</ele><time>2026-04-06T10:16:14Z</time></trkpt><trkpt lat="37.380098516200746" lon="14.573630249585134"><ele>233.85714285714286</ele><time>2026-04-06T10:16:16Z</time></trkpt><trkpt lat="37.38006251568813" lon="14.57369768323081"><ele>232.42857142857144</ele><time>2026-04-06T10:16:18Z</time></trkpt><trkpt lat="37.38002425891691" lon="14.57377303440016"><ele>231.0</ele><time>2026-04-06T10:16:20Z</time></trkpt><trkpt lat="37.37998997489306" lon="14.57384989256646"><ele>230.16666666666666</ele><time>2026-04-06T10:16:22Z</time></trkpt><trkpt lat="37.379944197309584" lon="14.573944024815653"><ele>229.33333333333331</ele><time>2026-04-06T10:16:25Z</time></trkpt><trkpt lat="37.379879912675186" lon="14.573991018911427"><ele>228.5</ele><time>2026-04-06T10:16:28Z</time></trkpt><trkpt lat="37.37980947261502" lon="14.57405225585471"><ele>227.66666666666666</ele><time>2026-04-06T10:16:30Z</time></trkpt><trkpt lat="37.379736699994226" lon="14.574116006222793"><ele>226.83333333333331</ele><time>2026-04-06T10:16:32Z</time></trkpt><trkpt lat="37.379656796179525" lon="14.574157696488472"><ele>226.0</ele><time>2026-04-06T10:16:34Z</time></trkpt><trkpt lat="37.37959262225666" lon="14.574165143941904"><ele>225.99999999999997</ele><time>2026-04-06T10:16:36.001Z</time></trkpt><trkpt lat="37.37951044236279" lon="14.574168828629736"><ele>226.0</ele><time>2026-04-06T10:16:38.001Z</time></trkpt><trkpt lat="37.37943359271798" lon="14.574195730692663"><ele>226.0</ele><time>2026-04-06T10:16:40.001Z</time></trkpt><trkpt lat="37.37936096136046" lon="14.574234463240874"><ele>226.0</ele><time>2026-04-06T10:16:42.001Z</time></trkpt><trkpt lat="37.37928198540195" lon="14.574280650399963"><ele>225.99999999999997</ele><time>2026-04-06T10:16:44.001Z</time></trkpt><trkpt lat="37.379218627980244" lon="14.57432376954667"><ele>226.0</ele><time>2026-04-06T10:16:46.001Z</time></trkpt><trkpt lat="37.37915839695745" lon="14.574382948832824"><ele>226.0</ele><time>2026-04-06T10:16:48.001Z</time></trkpt><trkpt lat="37.379106265954626" lon="14.57444673326276"><ele>226.0</ele><time>2026-04-06T10:16:50.001Z</time></trkpt><trkpt lat="37.3790588113772" lon="14.57450057295549"><ele>226.0</ele><time>2026-04-06T10:16:52.001Z</time></trkpt><trkpt lat="37.37901152490406" lon="14.574571897394328"><ele>226.0</ele><time>2026-04-06T10:16:55.001Z</time></trkpt><trkpt lat="37.378965371635985" lon="14.57464592899762"><ele>226.0</ele><time>2026-04-06T10:16:58.001Z</time></trkpt><trkpt lat="37.3789210781981" lon="14.574717979233009"><ele>226.0</ele><time>2026-04-06T10:17:01.001Z</time></trkpt><trkpt lat="37.3788750802094" lon="14.574783158969066"><ele>226.0</ele><time>2026-04-06T10:17:04.001Z</time></trkpt><trkpt lat="37.37882899346582" lon="14.574838459902974"><ele>224.16666666666666</ele><time>2026-04-06T10:17:07.001Z</time></trkpt><trkpt lat="37.37878561135068" lon="14.574916034447524"><ele>222.33333333333331</ele><time>2026-04-06T10:17:41.001Z</time></trkpt><trkpt lat="37.378762848425225" lon="14.575005854093286"><ele>220.5</ele><time>2026-04-06T10:17:44.001Z</time></trkpt><trkpt lat="37.37872398322637" lon="14.575099392904008"><ele>218.66666666666669</ele><time>2026-04-06T10:17:47.001Z</time></trkpt><trkpt lat="37.378747752146154" lon="14.57521699555632"><ele>216.83333333333334</ele><time>2026-04-06T10:17:50.001Z</time></trkpt><trkpt lat="37.37876050840393" lon="14.575322206753981"><ele>215.0</ele><time>2026-04-06T10:17:53Z</time></trkpt><trkpt lat="37.37876271533034" lon="14.5754193145884"><ele>213.83333333333334</ele><time>2026-04-06T10:17:56Z</time></trkpt><trkpt lat="37.378757555229235" lon="14.575507263965887"><ele>212.66666666666669</ele><time>2026-04-06T10:17:58Z</time></trkpt><trkpt lat="37.37874400984438" lon="14.575606152741528"><ele>211.5</ele><time>2026-04-06T10:18:01Z</time></trkpt><trkpt lat="37.37874912936048" lon="14.575713269027613"><ele>210.33333333333331</ele><time>2026-04-06T10:18:04Z</time></trkpt><trkpt lat="37.378748393149166" lon="14.575823274336651"><ele>209.16666666666666</ele><time>2026-04-06T10:18:07Z</time></trkpt><trkpt lat="37.37873436488386" lon="14.575932844610206"><ele>208.0</ele><time>2026-04-06T10:18:10Z</time></trkpt><trkpt lat="37.37872704204923" lon="14.57603368990497"><ele>208.0</ele><time>2026-04-06T10:18:13Z</time></trkpt><trkpt lat="37.37870721174538" lon="14.576133620819114"><ele>208.0</ele><time>2026-04-06T10:18:16Z</time></trkpt><trkpt lat="37.37867240251956" lon="14.576200053817663"><ele>208.0</ele><time>2026-04-06T10:18:19Z</time></trkpt><trkpt lat="37.37862214165172" lon="14.57625763629395"><ele>208.0</ele><time>2026-04-06T10:18:22Z</time></trkpt><trkpt lat="37.37856188627436" lon="14.576295054001747"><ele>208.0</ele><time>2026-04-06T10:18:25Z</time></trkpt><trkpt lat="37.378495356743294" lon="14.576291899008051"><ele>208.0</ele><time>2026-04-06T10:18:28Z</time></trkpt><trkpt lat="37.37841311487349" lon="14.576267392248162"><ele>208.0</ele><time>2026-04-06T10:18:33Z</time></trkpt><trkpt lat="37.37834055692551" lon="14.576223090386108"><ele>207.99999999999997</ele><time>2026-04-06T10:18:36Z</time></trkpt><trkpt lat="37.37823340288197" lon="14.576193433565663"><ele>208.0</ele><time>2026-04-06T10:18:39Z</time></trkpt><trkpt lat="37.37816149335358" lon="14.576153932081926"><ele>208.0</ele><time>2026-04-06T10:18:42Z</time></trkpt><trkpt lat="37.378094124286086" lon="14.57610129142682"><ele>208.0</ele><time>2026-04-06T10:18:45Z</time></trkpt><trkpt lat="37.37803649033277" lon="14.576020365378486"><ele>207.99999999999997</ele><time>2026-04-06T10:18:48.001Z</time></trkpt><trkpt lat="37.37798167222871" lon="14.575933636645969"><ele>208.0</ele><time>2026-04-06T10:18:51.001Z</time></trkpt><trkpt lat="37.3779372483244" lon="14.575858903279796"><ele>206.42857142857142</ele><time>2026-04-06T10:18:54.001Z</time></trkpt><trkpt lat="37.37789487562571" lon="14.575785620978856"><ele>204.85714285714286</ele><time>2026-04-06T10:18:57.001Z</time></trkpt><trkpt lat="37.377853277900364" lon="14.575722053318101"><ele>203.28571428571428</ele><time>2026-04-06T10:19:00.001Z</time></trkpt><trkpt lat="37.37780804135646" lon="14.575665942360025"><ele>201.71428571428572</ele><time>2026-04-06T10:19:02.001Z</time></trkpt><trkpt lat="37.37774905717874" lon="14.575593803252616"><ele>200.14285714285717</ele><time>2026-04-06T10:19:04.001Z</time></trkpt><trkpt lat="37.37770626842777" lon="14.575530043255718"><ele>198.57142857142858</ele><time>2026-04-06T10:19:06.001Z</time></trkpt><trkpt lat="37.377675229715656" lon="14.575455233111553"><ele>197.0</ele><time>2026-04-06T10:19:09.001Z</time></trkpt><trkpt lat="37.3776504515732" lon="14.575370590061844"><ele>196.83333333333334</ele><time>2026-04-06T10:19:26.001Z</time></trkpt><trkpt lat="37.37762704331018" lon="14.575277886413017"><ele>196.66666666666669</ele><time>2026-04-06T10:19:30.001Z</time></trkpt><trkpt lat="37.37761040051679" lon="14.575188490980581"><ele>196.5</ele><time>2026-04-06T10:19:34.001Z</time></trkpt><trkpt lat="37.37759290190012" lon="14.575084323259155"><ele>196.33333333333331</ele><time>2026-04-06T10:19:37.001Z</time></trkpt><trkpt lat="37.377578031551515" lon="14.574979122386754"><ele>196.16666666666666</ele><time>2026-04-06T10:19:40.001Z</time></trkpt><trkpt lat="37.377567160493214" lon="14.574891282711445"><ele>196.0</ele><time>2026-04-06T10:19:46.001Z</time></trkpt><trkpt lat="37.377546556696885" lon="14.574763351871908"><ele>195.99999999999997</ele><time>2026-04-06T10:19:48.001Z</time></trkpt><trkpt lat="37.37752545821196" lon="14.574649196734974"><ele>196.0</ele><time>2026-04-06T10:19:50.001Z</time></trkpt><trkpt lat="37.37751077236608" lon="14.574558461165704"><ele>196.0</ele><time>2026-04-06T10:19:52.001Z</time></trkpt><trkpt lat="37.37750326746337" lon="14.574474881874954"><ele>196.0</ele><time>2026-04-06T10:20:03Z</time></trkpt><trkpt lat="37.37749771339073" lon="14.574370851864279"><ele>195.99999999999997</ele><time>2026-04-06T10:20:05Z</time></trkpt><trkpt lat="37.37749760157349" lon="14.57424922154888"><ele>196.0</ele><time>2026-04-06T10:20:07Z</time></trkpt><trkpt lat="37.377515787535124" lon="14.57417142387552"><ele>196.14285714285714</ele><time>2026-04-06T10:20:09Z</time></trkpt><trkpt lat="37.377497012657386" lon="14.574089310351962"><ele>196.28571428571428</ele><time>2026-04-06T10:20:23Z</time></trkpt><trkpt lat="37.37743229647885" lon="14.574102602468153"><ele>196.42857142857144</ele><time>2026-04-06T10:20:27Z</time></trkpt><trkpt lat="37.37736713902722" lon="14.574126694538965"><ele>196.57142857142856</ele><time>2026-04-06T10:20:29Z</time></trkpt><trkpt lat="37.377288517124256" lon="14.574153224795785"><ele>196.71428571428572</ele><time>2026-04-06T10:20:33Z</time></trkpt><trkpt lat="37.377223062818096" lon="14.574153373884132"><ele>196.85714285714286</ele><time>2026-04-06T10:20:37Z</time></trkpt><trkpt lat="37.377142770836805" lon="14.57416971509997"><ele>197.0</ele><time>2026-04-06T10:20:41Z</time></trkpt><trkpt lat="37.37707692429153" lon="14.574229171341008"><ele>196.66666666666669</ele><time>2026-04-06T10:20:50Z</time></trkpt><trkpt lat="37.376974685432465" lon="14.574321375102167"><ele>196.33333333333334</ele><time>2026-04-06T10:20:52Z</time></trkpt><trkpt lat="37.37689238335191" lon="14.574403091738363"><ele>196.0</ele><time>2026-04-06T10:20:54Z</time></trkpt><trkpt lat="37.37683195662264" lon="14.574435511173808"><ele>195.66666666666669</ele><time>2026-04-06T10:20:56Z</time></trkpt><trkpt lat="37.37676214621525" lon="14.574438035020135"><ele>195.33333333333334</ele><time>2026-04-06T10:20:59.001Z</time></trkpt><trkpt lat="37.37669502218863" lon="14.574437593484154"><ele>195.0</ele><time>2026-04-06T10:22:48Z</time></trkpt><trkpt lat="37.376621898664595" lon="14.574430041487583"><ele>195.0</ele><time>2026-04-06T10:31:42.001Z</time></trkpt><trkpt lat="37.37652584817495" lon="14.574459551511204"><ele>195.0</ele><time>2026-04-06T10:31:44.001Z</time></trkpt><trkpt lat="37.37643212774627" lon="14.574461962789877"><ele>195.0</ele><time>2026-04-06T10:31:47.001Z</time></trkpt><trkpt lat="37.37632964702251" lon="14.574472522867886"><ele>195.0</ele><time>2026-04-06T10:31:49.001Z</time></trkpt><trkpt lat="37.376234574124666" lon="14.574476698086276"><ele>195.0</ele><time>2026-04-06T10:31:51.001Z</time></trkpt><trkpt lat="37.37611018379705" lon="14.574470700887163"><ele>194.6</ele><time>2026-04-06T10:31:53.001Z</time></trkpt><trkpt lat="37.3759937627593" lon="14.574465452558107"><ele>194.2</ele><time>2026-04-06T10:31:55.001Z</time></trkpt><trkpt lat="37.37591258310575" lon="14.574479785650835"><ele>193.8</ele><time>2026-04-06T10:31:56.001Z</time></trkpt><trkpt lat="37.37582595805104" lon="14.574498644150122"><ele>193.4</ele><time>2026-04-06T10:31:57.001Z</time></trkpt><trkpt lat="37.375717723383715" lon="14.574520990471337"><ele>193.0</ele><time>2026-04-06T10:31:59.001Z</time></trkpt><trkpt lat="37.37563706393775" lon="14.574553345747548"><ele>192.66666666666666</ele><time>2026-04-06T10:32:01.001Z</time></trkpt><trkpt lat="37.375566181607496" lon="14.574683951886083"><ele>192.33333333333331</ele><time>2026-04-06T10:32:03.001Z</time></trkpt><trkpt lat="37.37552531843457" lon="14.574752258183873"><ele>192.0</ele><time>2026-04-06T10:32:04.001Z</time></trkpt><trkpt lat="37.375468558025226" lon="14.574810862890034"><ele>191.66666666666666</ele><time>2026-04-06T10:32:06.001Z</time></trkpt><trkpt lat="37.37541661793462" lon="14.574858542224666"><ele>191.33333333333331</ele><time>2026-04-06T10:32:08.001Z</time></trkpt><trkpt lat="37.375355182167716" lon="14.574927171594078"><ele>191.0</ele><time>2026-04-06T10:32:10.001Z</time></trkpt><trkpt lat="37.37529159081931" lon="14.575003902448564"><ele>190.8</ele><time>2026-04-06T10:32:12.002Z</time></trkpt><trkpt lat="37.37523203797483" lon="14.575096657642272"><ele>190.60000000000002</ele><time>2026-04-06T10:32:14.002Z</time></trkpt><trkpt lat="37.37515958013304" lon="14.575208904392445"><ele>190.4</ele><time>2026-04-06T10:32:16.002Z</time></trkpt><trkpt lat="37.37511409116661" lon="14.575277350252678"><ele>190.2</ele><time>2026-04-06T10:32:17.002Z</time></trkpt><trkpt lat="37.375060560177715" lon="14.5753500160412"><ele>190.0</ele><time>2026-04-06T10:32:18.002Z</time></trkpt><trkpt lat="37.374968671652375" lon="14.575444895260658"><ele>190.0</ele><time>2026-04-06T10:32:20.002Z</time></trkpt><trkpt lat="37.374885993866286" lon="14.575523318049177"><ele>190.0</ele><time>2026-04-06T10:32:22.002Z</time></trkpt><trkpt lat="37.37483574156247" lon="14.5755859594804"><ele>190.0</ele><time>2026-04-06T10:32:25.002Z</time></trkpt><trkpt lat="37.37475622417486" lon="14.575652113538409"><ele>190.0</ele><time>2026-04-06T10:32:28.002Z</time></trkpt><trkpt lat="37.374693465889685" lon="14.575711314171778"><ele>190.0</ele><time>2026-04-06T10:32:30.002Z</time></trkpt><trkpt lat="37.374636238008804" lon="14.57575568204802"><ele>190.0</ele><time>2026-04-06T10:32:32.002Z</time></trkpt><trkpt lat="37.374571435113495" lon="14.575792469429674"><ele>190.16666666666669</ele><time>2026-04-06T10:32:34.002Z</time></trkpt><trkpt lat="37.3744942338485" lon="14.575795490243937"><ele>190.33333333333334</ele><time>2026-04-06T10:32:37Z</time></trkpt><trkpt lat="37.374418619271125" lon="14.5757831682399"><ele>190.5</ele><time>2026-04-06T10:35:35.001Z</time></trkpt><trkpt lat="37.37437197509439" lon="14.57585374331769"><ele>190.66666666666666</ele><time>2026-04-06T10:35:38.001Z</time></trkpt><trkpt lat="37.37433744949709" lon="14.57593467040732"><ele>190.83333333333331</ele><time>2026-04-06T10:35:40.001Z</time></trkpt><trkpt lat="37.37425570134641" lon="14.575978029278694"><ele>191.0</ele><time>2026-04-06T10:35:43.001Z</time></trkpt><trkpt lat="37.37419956756181" lon="14.576016674353363"><ele>191.0</ele><time>2026-04-06T10:35:45.001Z</time></trkpt><trkpt lat="37.374133201279825" lon="14.576059508506003"><ele>191.0</ele><time>2026-04-06T10:35:47.001Z</time></trkpt><trkpt lat="37.374060827034036" lon="14.576106087920861"><ele>191.0</ele><time>2026-04-06T10:35:49.001Z</time></trkpt><trkpt lat="37.373973096814254" lon="14.57617132043845"><ele>191.0</ele><time>2026-04-06T10:35:51.001Z</time></trkpt><trkpt lat="37.37387547612594" lon="14.576226851948679"><ele>191.0</ele><time>2026-04-06T10:35:53.001Z</time></trkpt><trkpt lat="37.37379759202048" lon="14.576279324948821"><ele>188.60000000000002</ele><time>2026-04-06T10:35:55.001Z</time></trkpt><trkpt lat="37.37373081469947" lon="14.57632478812673"><ele>186.2</ele><time>2026-04-06T10:35:57.001Z</time></trkpt><trkpt lat="37.37364048663948" lon="14.576379240489466"><ele>183.8</ele><time>2026-04-06T10:35:59.001Z</time></trkpt><trkpt lat="37.37354865677141" lon="14.576427255369948"><ele>181.39999999999998</ele><time>2026-04-06T10:36:01.001Z</time></trkpt><trkpt lat="37.37344889276335" lon="14.576491531996803"><ele>179.0</ele><time>2026-04-06T10:36:03.001Z</time></trkpt><trkpt lat="37.373389189296326" lon="14.576534451021788"><ele>179.0</ele><time>2026-04-06T10:36:04.001Z</time></trkpt><trkpt lat="37.37329521543629" lon="14.57658983669901"><ele>179.0</ele><time>2026-04-06T10:36:06.001Z</time></trkpt><trkpt lat="37.373219608625654" lon="14.576611302245343"><ele>179.0</ele><time>2026-04-06T10:36:08.001Z</time></trkpt><trkpt lat="37.37312391236332" lon="14.576648348901362"><ele>179.0</ele><time>2026-04-06T10:36:10.001Z</time></trkpt><trkpt lat="37.37305544682969" lon="14.57665795732334"><ele>179.0</ele><time>2026-04-06T10:36:12.001Z</time></trkpt><trkpt lat="37.37299870158807" lon="14.576818170530851"><ele>178.79999999999998</ele><time>2026-04-06T10:36:15.001Z</time></trkpt><trkpt lat="37.373005132429924" lon="14.576934421096986"><ele>178.6</ele><time>2026-04-06T10:36:16.002Z</time></trkpt><trkpt lat="37.3729988394985" lon="14.577060152258648"><ele>178.4</ele><time>2026-04-06T10:36:17.002Z</time></trkpt><trkpt lat="37.37299535086142" lon="14.577204692647964"><ele>178.2</ele><time>2026-04-06T10:36:18.002Z</time></trkpt><trkpt lat="37.372975281361825" lon="14.577367382854055"><ele>178.0</ele><time>2026-04-06T10:36:19.002Z</time></trkpt><trkpt lat="37.37297064119224" lon="14.577533315289541"><ele>177.0</ele><time>2026-04-06T10:36:20.002Z</time></trkpt><trkpt lat="37.37298373398058" lon="14.57770862448591"><ele>176.0</ele><time>2026-04-06T10:36:21.002Z</time></trkpt><trkpt lat="37.37298405472851" lon="14.577872389410297"><ele>175.0</ele><time>2026-04-06T10:36:22.002Z</time></trkpt><trkpt lat="37.37298851563327" lon="14.57803310559372"><ele>174.0</ele><time>2026-04-06T10:36:23.002Z</time></trkpt><trkpt lat="37.37299611993103" lon="14.578188004583769"><ele>174.0</ele><time>2026-04-06T10:36:24.002Z</time></trkpt><trkpt lat="37.373009366628175" lon="14.57836175599435"><ele>174.0</ele><time>2026-04-06T10:36:25.002Z</time></trkpt><trkpt lat="37.373024718720686" lon="14.578530863512576"><ele>174.0</ele><time>2026-04-06T10:36:26.002Z</time></trkpt><trkpt lat="37.37302553670952" lon="14.578701847806345"><ele>174.0</ele><time>2026-04-06T10:36:27.002Z</time></trkpt><trkpt lat="37.37304257139422" lon="14.578875385973317"><ele>173.66666666666666</ele><time>2026-04-06T10:36:28.002Z</time></trkpt><trkpt lat="37.37306065098632" lon="14.5790595691335"><ele>173.33333333333331</ele><time>2026-04-06T10:36:29.002Z</time></trkpt><trkpt lat="37.37307834368595" lon="14.579239810872755"><ele>173.0</ele><time>2026-04-06T10:36:30.002Z</time></trkpt><trkpt lat="37.373098227269246" lon="14.579442371920196"><ele>172.66666666666666</ele><time>2026-04-06T10:36:31.002Z</time></trkpt><trkpt lat="37.37320943696059" lon="14.579610089775024"><ele>172.33333333333334</ele><time>2026-04-06T10:36:32.002Z</time></trkpt><trkpt lat="37.37325350078098" lon="14.579795127931794"><ele>172.0</ele><time>2026-04-06T10:36:33.002Z</time></trkpt><trkpt lat="37.37330340234878" lon="14.579990846003101"><ele>172.0</ele><time>2026-04-06T10:36:34.002Z</time></trkpt><trkpt lat="37.373351750453665" lon="14.580176833346263"><ele>172.0</ele><time>2026-04-06T10:36:35.002Z</time></trkpt><trkpt lat="37.373399198367224" lon="14.580359853131505"><ele>172.0</ele><time>2026-04-06T10:36:36.002Z</time></trkpt><trkpt lat="37.37344726246109" lon="14.580536927769716"><ele>172.33333333333334</ele><time>2026-04-06T10:36:37.002Z</time></trkpt><trkpt lat="37.37349348137522" lon="14.58070916773496"><ele>172.66666666666666</ele><time>2026-04-06T10:36:38.002Z</time></trkpt><trkpt lat="37.3735410304343" lon="14.580887935551013"><ele>173.0</ele><time>2026-04-06T10:36:39.002Z</time></trkpt><trkpt lat="37.37359448966801" lon="14.581075583553291"><ele>172.33333333333331</ele><time>2026-04-06T10:36:40.002Z</time></trkpt><trkpt lat="37.37365556119346" lon="14.58129250094094"><ele>171.66666666666666</ele><time>2026-04-06T10:36:41.002Z</time></trkpt><trkpt lat="37.37370392008405" lon="14.58146323284993"><ele>171.0</ele><time>2026-04-06T10:36:42.002Z</time></trkpt><trkpt lat="37.373752941162834" lon="14.581639119712065"><ele>171.0</ele><time>2026-04-06T10:36:43.002Z</time></trkpt><trkpt lat="37.373810178642465" lon="14.581836603035459"><ele>171.0</ele><time>2026-04-06T10:36:44.002Z</time></trkpt><trkpt lat="37.37386518132119" lon="14.582021350913484"><ele>171.0</ele><time>2026-04-06T10:36:45.002Z</time></trkpt><trkpt lat="37.373908516721606" lon="14.582172609329591"><ele>170.8</ele><time>2026-04-06T10:36:46.002Z</time></trkpt><trkpt lat="37.37394656651802" lon="14.582327187273743"><ele>170.60000000000002</ele><time>2026-04-06T10:36:47Z</time></trkpt><trkpt lat="37.37397623914854" lon="14.582448396788532"><ele>170.4</ele><time>2026-04-06T10:36:48Z</time></trkpt><trkpt lat="37.374004026588565" lon="14.58254833199732"><ele>170.2</ele><time>2026-04-06T10:36:49Z</time></trkpt><trkpt lat="37.374025889235035" lon="14.582628893562465"><ele>170.0</ele><time>2026-04-06T10:36:50Z</time></trkpt><trkpt lat="37.37404656681473" lon="14.582718669641647"><ele>170.0</ele><time>2026-04-06T10:36:51Z</time></trkpt><trkpt lat="37.37407270621831" lon="14.582820944771646"><ele>170.0</ele><time>2026-04-06T10:36:53Z</time></trkpt><trkpt lat="37.37410111081876" lon="14.582908594868039"><ele>170.0</ele><time>2026-04-06T10:36:55Z</time></trkpt><trkpt lat="37.374119321982604" lon="14.582996249045928"><ele>170.0</ele><time>2026-04-06T10:36:57Z</time></trkpt><trkpt lat="37.37414084006951" lon="14.583074592885492"><ele>170.0</ele><time>2026-04-06T10:36:59Z</time></trkpt><trkpt lat="37.374162398505774" lon="14.583177999120265"><ele>170.0</ele><time>2026-04-06T10:37:02Z</time></trkpt><trkpt lat="37.3741798786354" lon="14.58327414798754"><ele>169.66666666666666</ele><time>2026-04-06T10:37:04Z</time></trkpt><trkpt lat="37.37420806594939" lon="14.583370498235034"><ele>169.33333333333331</ele><time>2026-04-06T10:37:07Z</time></trkpt><trkpt lat="37.37422675069551" lon="14.583453276339053"><ele>169.0</ele><time>2026-04-06T10:37:10Z</time></trkpt><trkpt lat="37.3742367573294" lon="14.583540712560094"><ele>168.66666666666666</ele><time>2026-04-06T10:37:13Z</time></trkpt><trkpt lat="37.37427260456608" lon="14.583657468321741"><ele>168.33333333333334</ele><time>2026-04-06T10:37:16Z</time></trkpt><trkpt lat="37.37430786740822" lon="14.58377951003052"><ele>168.0</ele><time>2026-04-06T10:37:18Z</time></trkpt><trkpt lat="37.374335922376666" lon="14.583884998298172"><ele>167.8</ele><time>2026-04-06T10:37:20Z</time></trkpt><trkpt lat="37.37438247461602" lon="14.584029420441205"><ele>167.60000000000002</ele><time>2026-04-06T10:37:22Z</time></trkpt><trkpt lat="37.37440906137556" lon="14.584107124141418"><ele>167.39999999999998</ele><time>2026-04-06T10:37:23Z</time></trkpt><trkpt lat="37.37443324948453" lon="14.584181089810539"><ele>167.2</ele><time>2026-04-06T10:37:24Z</time></trkpt><trkpt lat="37.37445864674151" lon="14.584255787363023"><ele>167.0</ele><time>2026-04-06T10:37:25Z</time></trkpt><trkpt lat="37.374513396812276" lon="14.584408370144923"><ele>166.6</ele><time>2026-04-06T10:37:27.001Z</time></trkpt><trkpt lat="37.37457130208687" lon="14.584549976311386"><ele>166.2</ele><time>2026-04-06T10:37:29.001Z</time></trkpt><trkpt lat="37.37460441250488" lon="14.584630720977005"><ele>165.8</ele><time>2026-04-06T10:37:30.001Z</time></trkpt><trkpt lat="37.37463804150464" lon="14.584700826341518"><ele>165.4</ele><time>2026-04-06T10:37:31.001Z</time></trkpt><trkpt lat="37.37467979392782" lon="14.584781459021823"><ele>165.0</ele><time>2026-04-06T10:37:32.001Z</time></trkpt><trkpt lat="37.37475773659627" lon="14.58490689723322"><ele>165.5</ele><time>2026-04-06T10:37:34.001Z</time></trkpt><trkpt lat="37.37483500877846" lon="14.585039924691861"><ele>166.0</ele><time>2026-04-06T10:37:36.001Z</time></trkpt><trkpt lat="37.374917781545214" lon="14.585160274275898"><ele>166.5</ele><time>2026-04-06T10:37:38.001Z</time></trkpt><trkpt lat="37.37500204838818" lon="14.585265713511678"><ele>167.0</ele><time>2026-04-06T10:37:40.001Z</time></trkpt><trkpt lat="37.37510412180872" lon="14.585381116689117"><ele>167.0</ele><time>2026-04-06T10:37:42.001Z</time></trkpt><trkpt lat="37.37520086738816" lon="14.585484476429615"><ele>167.0</ele><time>2026-04-06T10:37:44.001Z</time></trkpt><trkpt lat="37.375307845747145" lon="14.585585642269525"><ele>167.0</ele><time>2026-04-06T10:37:46.001Z</time></trkpt><trkpt lat="37.375410262612704" lon="14.585674768615098"><ele>167.0</ele><time>2026-04-06T10:37:48.001Z</time></trkpt><trkpt lat="37.375512198111004" lon="14.585752790367646"><ele>167.39999999999998</ele><time>2026-04-06T10:37:50.001Z</time></trkpt><trkpt lat="37.37560677551073" lon="14.585822648005692"><ele>167.79999999999998</ele><time>2026-04-06T10:37:52.001Z</time></trkpt><trkpt lat="37.37569509699892" lon="14.585886253695842"><ele>168.2</ele><time>2026-04-06T10:37:54.001Z</time></trkpt><trkpt lat="37.375806041281315" lon="14.5859632556111"><ele>168.6</ele><time>2026-04-06T10:37:56.001Z</time></trkpt><trkpt lat="37.375863034953674" lon="14.58599831667939"><ele>169.0</ele><time>2026-04-06T10:37:57.001Z</time></trkpt><trkpt lat="37.375927440155834" lon="14.586043582497389"><ele>169.0</ele><time>2026-04-06T10:37:59.001Z</time></trkpt><trkpt lat="37.37603686882723" lon="14.586115564098124"><ele>169.0</ele><time>2026-04-06T10:38:01.001Z</time></trkpt><trkpt lat="37.37613548205496" lon="14.586187520762543"><ele>169.0</ele><time>2026-04-06T10:38:03.001Z</time></trkpt><trkpt lat="37.3762244924649" lon="14.58626528831686"><ele>169.0</ele><time>2026-04-06T10:38:05.001Z</time></trkpt><trkpt lat="37.376309353553715" lon="14.586359755346484"><ele>168.79999999999998</ele><time>2026-04-06T10:38:07.001Z</time></trkpt><trkpt lat="37.37637556937302" lon="14.586459873853952"><ele>168.6</ele><time>2026-04-06T10:38:09.001Z</time></trkpt><trkpt lat="37.3764396595252" lon="14.586567682114412"><ele>168.4</ele><time>2026-04-06T10:38:11.001Z</time></trkpt><trkpt lat="37.37651110255201" lon="14.586677920349851"><ele>168.2</ele><time>2026-04-06T10:38:13.001Z</time></trkpt><trkpt lat="37.376570373884284" lon="14.586794043974361"><ele>168.0</ele><time>2026-04-06T10:38:15.001Z</time></trkpt><trkpt lat="37.37663608641126" lon="14.58691438030392"><ele>168.0</ele><time>2026-04-06T10:38:17.001Z</time></trkpt><trkpt lat="37.37671081163549" lon="14.587043613771858"><ele>168.0</ele><time>2026-04-06T10:38:19.001Z</time></trkpt><trkpt lat="37.376763632410125" lon="14.587140026035595"><ele>168.0</ele><time>2026-04-06T10:38:21.001Z</time></trkpt><trkpt lat="37.37683177673309" lon="14.587287909427062"><ele>168.0</ele><time>2026-04-06T10:38:23.001Z</time></trkpt><trkpt lat="37.376876852922614" lon="14.587386172336345"><ele>168.0</ele><time>2026-04-06T10:38:24.001Z</time></trkpt><trkpt lat="37.37693392686446" lon="14.587463422781566"><ele>168.0</ele><time>2026-04-06T10:38:25.001Z</time></trkpt><trkpt lat="37.37698248918524" lon="14.587555654677425"><ele>168.0</ele><time>2026-04-06T10:38:26.001Z</time></trkpt><trkpt lat="37.37704497688784" lon="14.58765063934497"><ele>168.0</ele><time>2026-04-06T10:38:27.001Z</time></trkpt><trkpt lat="37.377086888664664" lon="14.587734860803762"><ele>168.0</ele><time>2026-04-06T10:38:28.001Z</time></trkpt><trkpt lat="37.377140559994324" lon="14.587826597207387"><ele>168.0</ele><time>2026-04-06T10:38:29.002Z</time></trkpt><trkpt lat="37.37719162561293" lon="14.587910039143399"><ele>168.0</ele><time>2026-04-06T10:38:30.002Z</time></trkpt><trkpt lat="37.37725939938322" lon="14.588015473269898"><ele>168.66666666666666</ele><time>2026-04-06T10:38:31.002Z</time></trkpt><trkpt lat="37.3773158583383" lon="14.58811521478635"><ele>169.33333333333334</ele><time>2026-04-06T10:38:32.002Z</time></trkpt><trkpt lat="37.37735951232352" lon="14.588203542112693"><ele>170.0</ele><time>2026-04-06T10:38:33.002Z</time></trkpt><trkpt lat="37.37741730899663" lon="14.588290940626118"><ele>170.66666666666669</ele><time>2026-04-06T10:38:34.002Z</time></trkpt><trkpt lat="37.377461386931536" lon="14.588365273879358"><ele>171.33333333333334</ele><time>2026-04-06T10:38:35.002Z</time></trkpt><trkpt lat="37.377524016206216" lon="14.58846354352665"><ele>172.0</ele><time>2026-04-06T10:38:37.002Z</time></trkpt><trkpt lat="37.377566242809664" lon="14.588539831564006"><ele>172.0</ele><time>2026-04-06T10:38:38.002Z</time></trkpt><trkpt lat="37.37763202770335" lon="14.588647151418924"><ele>172.0</ele><time>2026-04-06T10:38:39.002Z</time></trkpt><trkpt lat="37.37772383167268" lon="14.588764652496973"><ele>172.0</ele><time>2026-04-06T10:38:41.002Z</time></trkpt><trkpt lat="37.37777866372618" lon="14.588853663964201"><ele>172.0</ele><time>2026-04-06T10:38:42.002Z</time></trkpt><trkpt lat="37.37783331840933" lon="14.58894604421813"><ele>172.0</ele><time>2026-04-06T10:38:43.002Z</time></trkpt><trkpt lat="37.37788557826835" lon="14.589026071512828"><ele>171.5</ele><time>2026-04-06T10:38:44.002Z</time></trkpt><trkpt lat="37.37793355514495" lon="14.589097481450617"><ele>171.0</ele><time>2026-04-06T10:38:45.002Z</time></trkpt><trkpt lat="37.37797482499423" lon="14.58919737558844"><ele>170.5</ele><time>2026-04-06T10:38:46.002Z</time></trkpt><trkpt lat="37.37801065839184" lon="14.589272627952885"><ele>170.0</ele><time>2026-04-06T10:38:47.002Z</time></trkpt><trkpt lat="37.37803254260455" lon="14.589361996677935"><ele>169.5</ele><time>2026-04-06T10:38:48.002Z</time></trkpt><trkpt lat="37.37804724542089" lon="14.589510525505377"><ele>169.0</ele><time>2026-04-06T10:38:50.002Z</time></trkpt><trkpt lat="37.37806312515644" lon="14.589602784574518"><ele>168.5</ele><time>2026-04-06T10:38:51.002Z</time></trkpt><trkpt lat="37.37806491188239" lon="14.589724187598131"><ele>168.0</ele><time>2026-04-06T10:38:52.002Z</time></trkpt><trkpt lat="37.37808004420182" lon="14.589814607111588"><ele>167.5</ele><time>2026-04-06T10:38:53Z</time></trkpt><trkpt lat="37.3780981128157" lon="14.589912273816969"><ele>167.0</ele><time>2026-04-06T10:38:54Z</time></trkpt><trkpt lat="37.37811349275082" lon="14.59001463566702"><ele>166.5</ele><time>2026-04-06T10:38:55Z</time></trkpt><trkpt lat="37.378134789712725" lon="14.590105967510782"><ele>166.0</ele><time>2026-04-06T10:38:56Z</time></trkpt><trkpt lat="37.37814971031778" lon="14.590219577981324"><ele>166.0</ele><time>2026-04-06T10:38:57Z</time></trkpt><trkpt lat="37.378171928516466" lon="14.590306408755524"><ele>166.0</ele><time>2026-04-06T10:38:58Z</time></trkpt><trkpt lat="37.378193343098744" lon="14.590415552467324"><ele>166.0</ele><time>2026-04-06T10:38:59Z</time></trkpt><trkpt lat="37.37823417083928" lon="14.590558230047552"><ele>166.0</ele><time>2026-04-06T10:39:01Z</time></trkpt><trkpt lat="37.37825821238866" lon="14.590651121038658"><ele>166.0</ele><time>2026-04-06T10:39:02Z</time></trkpt><trkpt lat="37.378282682684535" lon="14.590741781097325"><ele>166.0</ele><time>2026-04-06T10:39:03Z</time></trkpt><trkpt lat="37.37832452196589" lon="14.590874433027944"><ele>166.16666666666669</ele><time>2026-04-06T10:39:05Z</time></trkpt><trkpt lat="37.37836168480609" lon="14.59099648553311"><ele>166.33333333333334</ele><time>2026-04-06T10:39:07Z</time></trkpt><trkpt lat="37.37837601448794" lon="14.591083968155502"><ele>166.5</ele><time>2026-04-06T10:39:09Z</time></trkpt><trkpt lat="37.37837816223146" lon="14.590972783141034"><ele>166.66666666666666</ele><time>2026-04-06T10:41:20Z</time></trkpt><trkpt lat="37.378355823816555" lon="14.590896631094097"><ele>166.83333333333331</ele><time>2026-04-06T10:41:21Z</time></trkpt><trkpt lat="37.378326882841876" lon="14.590820446918917"><ele>167.0</ele><time>2026-04-06T10:41:22Z</time></trkpt><trkpt lat="37.378301068112535" lon="14.590746333429609"><ele>167.0</ele><time>2026-04-06T10:41:23Z</time></trkpt><trkpt lat="37.37827436898151" lon="14.590662907237455"><ele>167.0</ele><time>2026-04-06T10:41:24Z</time></trkpt><trkpt lat="37.37824526552769" lon="14.590556338073176"><ele>167.0</ele><time>2026-04-06T10:41:25Z</time></trkpt><trkpt lat="37.3782010587535" lon="14.590393036325615"><ele>167.0</ele><time>2026-04-06T10:41:27Z</time></trkpt><trkpt lat="37.378178724194726" lon="14.590300128651839"><ele>167.0</ele><time>2026-04-06T10:41:28Z</time></trkpt><trkpt lat="37.378154147505946" lon="14.590164863223597"><ele>167.0</ele><time>2026-04-06T10:41:30Z</time></trkpt><trkpt lat="37.378141582097875" lon="14.59008675206847"><ele>167.0</ele><time>2026-04-06T10:41:31.001Z</time></trkpt><trkpt lat="37.37813949527071" lon="14.589985525175841"><ele>167.0</ele><time>2026-04-06T10:41:33.001Z</time></trkpt><trkpt lat="37.37812507520722" lon="14.590067414268725"><ele>167.0</ele><time>2026-04-06T10:41:47.001Z</time></trkpt><trkpt lat="37.37815258138935" lon="14.590177400771354"><ele>167.0</ele><time>2026-04-06T10:41:49.001Z</time></trkpt><trkpt lat="37.37813579879421" lon="14.590259943758848"><ele>167.0</ele><time>2026-04-06T10:45:02.002Z</time></trkpt><trkpt lat="37.37816293926564" lon="14.590333436759314"><ele>167.0</ele><time>2026-04-06T10:45:06.002Z</time></trkpt><trkpt lat="37.37818284073191" lon="14.590423140973359"><ele>167.0</ele><time>2026-04-06T10:45:59.001Z</time></trkpt><trkpt lat="37.37820253733174" lon="14.59050890223494"><ele>167.0</ele><time>2026-04-06T10:46:01.001Z</time></trkpt><trkpt lat="37.378228212272504" lon="14.590587880411267"><ele>167.0</ele><time>2026-04-06T10:46:03.001Z</time></trkpt><trkpt lat="37.37825295418791" lon="14.59067507506932"><ele>167.0</ele><time>2026-04-06T10:46:05.001Z</time></trkpt><trkpt lat="37.37827928065651" lon="14.590763287042519"><ele>167.0</ele><time>2026-04-06T10:46:07.001Z</time></trkpt><trkpt lat="37.378304504730494" lon="14.59085502009626"><ele>167.0</ele><time>2026-04-06T10:46:09.001Z</time></trkpt><trkpt lat="37.378332480868046" lon="14.59094671656395"><ele>167.0</ele><time>2026-04-06T10:46:11.001Z</time></trkpt><trkpt lat="37.37836086321305" lon="14.591045291129108"><ele>167.0</ele><time>2026-04-06T10:46:13.001Z</time></trkpt><trkpt lat="37.37838441954998" lon="14.591160178968373"><ele>167.0</ele><time>2026-04-06T10:46:15.001Z</time></trkpt><trkpt lat="37.37840478902222" lon="14.591282819087896"><ele>167.0</ele><time>2026-04-06T10:46:17.001Z</time></trkpt><trkpt lat="37.37842413455681" lon="14.591411404437217"><ele>167.0</ele><time>2026-04-06T10:46:19.001Z</time></trkpt><trkpt lat="37.378443376315175" lon="14.591510865651733"><ele>167.0</ele><time>2026-04-06T10:46:21.001Z</time></trkpt><trkpt lat="37.37846270997728" lon="14.591629129807151"><ele>167.2</ele><time>2026-04-06T10:46:23.001Z</time></trkpt><trkpt lat="37.37848315416336" lon="14.591734567953509"><ele>167.39999999999998</ele><time>2026-04-06T10:46:25.001Z</time></trkpt><trkpt lat="37.378503583599645" lon="14.591845761929777"><ele>167.60000000000002</ele><time>2026-04-06T10:46:27.001Z</time></trkpt><trkpt lat="37.37852309448885" lon="14.591962657236294"><ele>167.8</ele><time>2026-04-06T10:46:29.001Z</time></trkpt><trkpt lat="37.37854875854401" lon="14.592092588455765"><ele>168.0</ele><time>2026-04-06T10:46:31.002Z</time></trkpt><trkpt lat="37.378575360889094" lon="14.59221094634572"><ele>168.0</ele><time>2026-04-06T10:46:33.002Z</time></trkpt><trkpt lat="37.3786109345818" lon="14.592334711063634"><ele>168.0</ele><time>2026-04-06T10:46:35.002Z</time></trkpt><trkpt lat="37.378652161788864" lon="14.592460419239421"><ele>168.0</ele><time>2026-04-06T10:46:37.002Z</time></trkpt><trkpt lat="37.37870180996125" lon="14.592582745945768"><ele>168.0</ele><time>2026-04-06T10:46:39.002Z</time></trkpt><trkpt lat="37.37876816731431" lon="14.592695740342847"><ele>168.0</ele><time>2026-04-06T10:46:41.002Z</time></trkpt><trkpt lat="37.37884194117535" lon="14.592799808124882"><ele>168.2</ele><time>2026-04-06T10:46:43.002Z</time></trkpt><trkpt lat="37.378923807454996" lon="14.592896838496939"><ele>168.4</ele><time>2026-04-06T10:46:45.002Z</time></trkpt><trkpt lat="37.37897058523261" lon="14.592951181303832"><ele>168.6</ele><time>2026-04-06T10:46:46.002Z</time></trkpt><trkpt lat="37.37906385360333" lon="14.593045931726131"><ele>168.79999999999998</ele><time>2026-04-06T10:46:48.002Z</time></trkpt><trkpt lat="37.379116393382645" lon="14.59309566577219"><ele>169.0</ele><time>2026-04-06T10:46:49.002Z</time></trkpt><trkpt lat="37.379204642239706" lon="14.593187773734357"><ele>169.0</ele><time>2026-04-06T10:46:51.002Z</time></trkpt><trkpt lat="37.37930166631009" lon="14.593279812030206"><ele>169.0</ele><time>2026-04-06T10:46:53.002Z</time></trkpt><trkpt lat="37.37939459515635" lon="14.59337484927378"><ele>169.0</ele><time>2026-04-06T10:46:55.002Z</time></trkpt><trkpt lat="37.37949384994495" lon="14.593464700542782"><ele>169.0</ele><time>2026-04-06T10:46:57.002Z</time></trkpt><trkpt lat="37.37955104499744" lon="14.593516533471993"><ele>169.0</ele><time>2026-04-06T10:46:58.002Z</time></trkpt><trkpt lat="37.37964975220848" lon="14.593604706704458"><ele>168.79999999999998</ele><time>2026-04-06T10:47:00.002Z</time></trkpt><trkpt lat="37.379747697437665" lon="14.5936977041457"><ele>168.6</ele><time>2026-04-06T10:47:02.002Z</time></trkpt><trkpt lat="37.37983488164501" lon="14.593779945155399"><ele>168.4</ele><time>2026-04-06T10:47:04.002Z</time></trkpt><trkpt lat="37.37991430206037" lon="14.59386049464621"><ele>168.2</ele><time>2026-04-06T10:47:06.002Z</time></trkpt><trkpt lat="37.38000709149383" lon="14.593941968790093"><ele>168.0</ele><time>2026-04-06T10:47:08.002Z</time></trkpt><trkpt lat="37.380099710625075" lon="14.594024611596513"><ele>168.0</ele><time>2026-04-06T10:47:10.002Z</time></trkpt><trkpt lat="37.380191977748986" lon="14.59410941261699"><ele>168.0</ele><time>2026-04-06T10:47:12.002Z</time></trkpt><trkpt lat="37.38028802725592" lon="14.594197719175897"><ele>168.0</ele><time>2026-04-06T10:47:14.002Z</time></trkpt><trkpt lat="37.38038449914507" lon="14.594285044947537"><ele>168.0</ele><time>2026-04-06T10:47:16Z</time></trkpt><trkpt lat="37.38047666793016" lon="14.594364878461798"><ele>168.28571428571428</ele><time>2026-04-06T10:47:18Z</time></trkpt><trkpt lat="37.38052767040355" lon="14.594414508457938"><ele>168.57142857142856</ele><time>2026-04-06T10:47:19Z</time></trkpt><trkpt lat="37.38058192106838" lon="14.594464775720828"><ele>168.85714285714286</ele><time>2026-04-06T10:47:20Z</time></trkpt><trkpt lat="37.38063589590353" lon="14.594512245354155"><ele>169.14285714285714</ele><time>2026-04-06T10:47:21Z</time></trkpt><trkpt lat="37.38068942129812" lon="14.594559460202253"><ele>169.42857142857142</ele><time>2026-04-06T10:47:22Z</time></trkpt><trkpt lat="37.38074741986134" lon="14.594612242682173"><ele>169.71428571428572</ele><time>2026-04-06T10:47:23Z</time></trkpt><trkpt lat="37.380804612440805" lon="14.594668687097272"><ele>170.0</ele><time>2026-04-06T10:47:24Z</time></trkpt><trkpt lat="37.38086000711507" lon="14.594726241813008"><ele>169.42857142857144</ele><time>2026-04-06T10:47:25Z</time></trkpt><trkpt lat="37.3809148692314" lon="14.594778096847202"><ele>168.85714285714283</ele><time>2026-04-06T10:47:26Z</time></trkpt><trkpt lat="37.38096916075578" lon="14.5948192091635"><ele>168.28571428571428</ele><time>2026-04-06T10:47:27Z</time></trkpt><trkpt lat="37.38102244523879" lon="14.594871015228547"><ele>167.71428571428572</ele><time>2026-04-06T10:47:28Z</time></trkpt><trkpt lat="37.381079440562814" lon="14.594926725732932"><ele>167.14285714285717</ele><time>2026-04-06T10:47:29Z</time></trkpt><trkpt lat="37.38113828700847" lon="14.59497163765385"><ele>166.57142857142856</ele><time>2026-04-06T10:47:30Z</time></trkpt><trkpt lat="37.3811930944631" lon="14.595020584982583"><ele>166.0</ele><time>2026-04-06T10:47:31Z</time></trkpt><trkpt lat="37.38124733888939" lon="14.5950724038633"><ele>166.0</ele><time>2026-04-06T10:47:32Z</time></trkpt><trkpt lat="37.38130373433009" lon="14.595128632193964"><ele>166.0</ele><time>2026-04-06T10:47:33Z</time></trkpt><trkpt lat="37.38135707533463" lon="14.595174306902766"><ele>166.0</ele><time>2026-04-06T10:47:34Z</time></trkpt><trkpt lat="37.381415919999306" lon="14.59523501070246"><ele>166.0</ele><time>2026-04-06T10:47:35Z</time></trkpt><trkpt lat="37.38147233850285" lon="14.595285801399003"><ele>166.0</ele><time>2026-04-06T10:47:36Z</time></trkpt><trkpt lat="37.38152756670192" lon="14.595331609348667"><ele>166.0</ele><time>2026-04-06T10:47:37Z</time></trkpt><trkpt lat="37.38158336416037" lon="14.595397224236564"><ele>166.0</ele><time>2026-04-06T10:47:38Z</time></trkpt><trkpt lat="37.381637614803445" lon="14.595461403649573"><ele>165.85714285714286</ele><time>2026-04-06T10:47:39Z</time></trkpt><trkpt lat="37.38169266131109" lon="14.59551511196119"><ele>165.71428571428572</ele><time>2026-04-06T10:47:40Z</time></trkpt><trkpt lat="37.38174776813448" lon="14.5955874367401"><ele>165.57142857142858</ele><time>2026-04-06T10:47:41Z</time></trkpt><trkpt lat="37.38180187063364" lon="14.595658735752211"><ele>165.42857142857144</ele><time>2026-04-06T10:47:42Z</time></trkpt><trkpt lat="37.38185290562554" lon="14.59572671661013"><ele>165.28571428571428</ele><time>2026-04-06T10:47:43Z</time></trkpt><trkpt lat="37.381903035098674" lon="14.595784608012773"><ele>165.14285714285717</ele><time>2026-04-06T10:47:44Z</time></trkpt><trkpt lat="37.38194261584142" lon="14.595867051844223"><ele>165.0</ele><time>2026-04-06T10:47:45Z</time></trkpt><trkpt lat="37.38198601400338" lon="14.595937788424683"><ele>165.00000000000003</ele><time>2026-04-06T10:47:46Z</time></trkpt><trkpt lat="37.382021271656946" lon="14.596012850633826"><ele>165.0</ele><time>2026-04-06T10:47:47Z</time></trkpt><trkpt lat="37.38205100712857" lon="14.596086079304674"><ele>165.0</ele><time>2026-04-06T10:47:48Z</time></trkpt><trkpt lat="37.38208257706071" lon="14.596156693863552"><ele>165.0</ele><time>2026-04-06T10:47:49Z</time></trkpt><trkpt lat="37.38211339358893" lon="14.596234818617441"><ele>165.0</ele><time>2026-04-06T10:47:50Z</time></trkpt><trkpt lat="37.38214363901008" lon="14.596309129198424"><ele>165.00000000000003</ele><time>2026-04-06T10:47:51.001Z</time></trkpt><trkpt lat="37.382172348301665" lon="14.596393338888246"><ele>165.0</ele><time>2026-04-06T10:47:52.001Z</time></trkpt><trkpt lat="37.38219840665711" lon="14.596468670327747"><ele>164.85714285714286</ele><time>2026-04-06T10:47:53.001Z</time></trkpt><trkpt lat="37.38222577254092" lon="14.596560395611627"><ele>164.71428571428572</ele><time>2026-04-06T10:47:54.001Z</time></trkpt><trkpt lat="37.38225193418375" lon="14.596645913336436"><ele>164.57142857142856</ele><time>2026-04-06T10:47:55.001Z</time></trkpt><trkpt lat="37.382278712048134" lon="14.596727124014247"><ele>164.42857142857144</ele><time>2026-04-06T10:47:56.001Z</time></trkpt><trkpt lat="37.3823036583475" lon="14.596807404343764"><ele>164.28571428571428</ele><time>2026-04-06T10:47:57.001Z</time></trkpt><trkpt lat="37.382332263130834" lon="14.59690263151241"><ele>164.14285714285714</ele><time>2026-04-06T10:47:58.001Z</time></trkpt><trkpt lat="37.38235782450468" lon="14.596991936814007"><ele>164.0</ele><time>2026-04-06T10:47:59.001Z</time></trkpt><trkpt lat="37.38238362630012" lon="14.59708279840917"><ele>163.99999999999997</ele><time>2026-04-06T10:48:00.001Z</time></trkpt><trkpt lat="37.382407993081955" lon="14.59716811539441"><ele>164.0</ele><time>2026-04-06T10:48:01.001Z</time></trkpt><trkpt lat="37.38243197626594" lon="14.597252855645763"><ele>164.0</ele><time>2026-04-06T10:48:02.001Z</time></trkpt><trkpt lat="37.38245941022236" lon="14.597343243566714"><ele>164.0</ele><time>2026-04-06T10:48:03.001Z</time></trkpt><trkpt lat="37.38248255133339" lon="14.597425740511735"><ele>164.0</ele><time>2026-04-06T10:48:04.001Z</time></trkpt><trkpt lat="37.382509394661504" lon="14.597516259038718"><ele>163.99999999999997</ele><time>2026-04-06T10:48:05.001Z</time></trkpt><trkpt lat="37.38253384544021" lon="14.597605717309285"><ele>164.0</ele><time>2026-04-06T10:48:06.001Z</time></trkpt><trkpt lat="37.38255804251719" lon="14.597684560402076"><ele>164.0</ele><time>2026-04-06T10:48:07.001Z</time></trkpt><trkpt lat="37.38258210834564" lon="14.59776183955705"><ele>164.0</ele><time>2026-04-06T10:48:08.001Z</time></trkpt><trkpt lat="37.38261801453544" lon="14.597883945085272"><ele>164.0</ele><time>2026-04-06T10:48:10.001Z</time></trkpt><trkpt lat="37.38266110309397" lon="14.59801873722446"><ele>164.0</ele><time>2026-04-06T10:48:12.001Z</time></trkpt><trkpt lat="37.38270478808225" lon="14.598142111236406"><ele>164.0</ele><time>2026-04-06T10:48:14.001Z</time></trkpt><trkpt lat="37.38275055073825" lon="14.598275846079922"><ele>163.83333333333331</ele><time>2026-04-06T10:48:16.001Z</time></trkpt><trkpt lat="37.38279688435653" lon="14.598410550825339"><ele>163.66666666666666</ele><time>2026-04-06T10:48:18.001Z</time></trkpt><trkpt lat="37.38283901860889" lon="14.59855139853137"><ele>163.5</ele><time>2026-04-06T10:48:20.001Z</time></trkpt><trkpt lat="37.382867132425446" lon="14.598634548298968"><ele>163.33333333333334</ele><time>2026-04-06T10:48:21.001Z</time></trkpt><trkpt lat="37.38289465777085" lon="14.598713838168402"><ele>163.16666666666669</ele><time>2026-04-06T10:48:22.001Z</time></trkpt><trkpt lat="37.382919184926564" lon="14.598790269805221"><ele>163.0</ele><time>2026-04-06T10:48:23.001Z</time></trkpt><trkpt lat="37.38294899463605" lon="14.598877629692078"><ele>162.71428571428572</ele><time>2026-04-06T10:48:24.001Z</time></trkpt><trkpt lat="37.3829752575774" lon="14.598958257295065"><ele>162.42857142857142</ele><time>2026-04-06T10:48:25.001Z</time></trkpt><trkpt lat="37.383006083476445" lon="14.599050837117115"><ele>162.14285714285714</ele><time>2026-04-06T10:48:26.001Z</time></trkpt><trkpt lat="37.38303103541882" lon="14.599126299438089"><ele>161.85714285714286</ele><time>2026-04-06T10:48:27.001Z</time></trkpt><trkpt lat="37.38305641165567" lon="14.599208270577044"><ele>161.57142857142856</ele><time>2026-04-06T10:48:28.001Z</time></trkpt><trkpt lat="37.38308365844919" lon="14.599294449934156"><ele>161.28571428571428</ele><time>2026-04-06T10:48:29.001Z</time></trkpt><trkpt lat="37.38311322675949" lon="14.59938500846286"><ele>161.0</ele><time>2026-04-06T10:48:30.001Z</time></trkpt><trkpt lat="37.38316356829282" lon="14.599542171530478"><ele>160.5</ele><time>2026-04-06T10:48:32.001Z</time></trkpt><trkpt lat="37.38319023317814" lon="14.599617320680489"><ele>160.0</ele><time>2026-04-06T10:48:33.001Z</time></trkpt><trkpt lat="37.383216427853284" lon="14.599705019170637"><ele>159.5</ele><time>2026-04-06T10:48:34.001Z</time></trkpt><trkpt lat="37.383244708289226" lon="14.599787228978311"><ele>159.0</ele><time>2026-04-06T10:48:35.001Z</time></trkpt><trkpt lat="37.38327243276996" lon="14.599863605620413"><ele>158.5</ele><time>2026-04-06T10:48:36.001Z</time></trkpt><trkpt lat="37.38333011098045" lon="14.600016101333898"><ele>158.0</ele><time>2026-04-06T10:48:38.001Z</time></trkpt><trkpt lat="37.383382282761474" lon="14.600166820301476"><ele>158.0</ele><time>2026-04-06T10:48:40.001Z</time></trkpt><trkpt lat="37.38341177913873" lon="14.600252557711157"><ele>158.0</ele><time>2026-04-06T10:48:41.001Z</time></trkpt><trkpt lat="37.38343775779998" lon="14.600332610991288"><ele>158.0</ele><time>2026-04-06T10:48:42.001Z</time></trkpt><trkpt lat="37.3834835600493" lon="14.600466992810919"><ele>158.0</ele><time>2026-04-06T10:48:44.001Z</time></trkpt><trkpt lat="37.38350613035226" lon="14.600545817904095"><ele>158.0</ele><time>2026-04-06T10:48:45.001Z</time></trkpt><trkpt lat="37.383547593018505" lon="14.600698284542766"><ele>158.0</ele><time>2026-04-06T10:48:47.001Z</time></trkpt><trkpt lat="37.383574224928104" lon="14.600782800501873"><ele>158.0</ele><time>2026-04-06T10:48:48.002Z</time></trkpt><trkpt lat="37.38362646173207" lon="14.600942746039188"><ele>158.0</ele><time>2026-04-06T10:48:50.002Z</time></trkpt><trkpt lat="37.38365508665859" lon="14.601033892432667"><ele>158.0</ele><time>2026-04-06T10:48:51.002Z</time></trkpt><trkpt lat="37.3836824252141" lon="14.60112383858545"><ele>158.0</ele><time>2026-04-06T10:48:52.002Z</time></trkpt><trkpt lat="37.38372570923255" lon="14.60126943596926"><ele>158.0</ele><time>2026-04-06T10:48:54.002Z</time></trkpt><trkpt lat="37.38375190046173" lon="14.601348365265002"><ele>158.0</ele><time>2026-04-06T10:48:55.002Z</time></trkpt><trkpt lat="37.383777382500774" lon="14.601429753644455"><ele>158.0</ele><time>2026-04-06T10:48:56.002Z</time></trkpt><trkpt lat="37.38382024086468" lon="14.601560920194947"><ele>158.0</ele><time>2026-04-06T10:48:58.002Z</time></trkpt><trkpt lat="37.383858743790235" lon="14.601702254514358"><ele>158.0</ele><time>2026-04-06T10:49:00.002Z</time></trkpt><trkpt lat="37.38388387360578" lon="14.601793063393657"><ele>158.0</ele><time>2026-04-06T10:49:02.002Z</time></trkpt><trkpt lat="37.38391682870956" lon="14.601881931994658"><ele>158.00000000000003</ele><time>2026-04-06T10:49:04.002Z</time></trkpt><trkpt lat="37.38394281243272" lon="14.601956670468116"><ele>158.0</ele><time>2026-04-06T10:49:06.002Z</time></trkpt><trkpt lat="37.383972399964925" lon="14.602035779404853"><ele>158.0</ele><time>2026-04-06T10:49:08.002Z</time></trkpt><trkpt lat="37.38398962467701" lon="14.60211372734075"><ele>158.0</ele><time>2026-04-06T10:49:10.002Z</time></trkpt><trkpt lat="37.384011492811275" lon="14.602192096080246"><ele>158.0</ele><time>2026-04-06T10:49:12.002Z</time></trkpt><trkpt lat="37.384034836170436" lon="14.602276900090184"><ele>158.00000000000003</ele><time>2026-04-06T10:49:14.002Z</time></trkpt><trkpt lat="37.38406091080254" lon="14.602362534499198"><ele>158.0</ele><time>2026-04-06T10:49:16.002Z</time></trkpt><trkpt lat="37.38409831529479" lon="14.602469513205486"><ele>157.8</ele><time>2026-04-06T10:49:18.002Z</time></trkpt><trkpt lat="37.384132170821196" lon="14.60258166859284"><ele>157.60000000000002</ele><time>2026-04-06T10:49:20.002Z</time></trkpt><trkpt lat="37.384170423848836" lon="14.602699084197987"><ele>157.39999999999998</ele><time>2026-04-06T10:49:22Z</time></trkpt><trkpt lat="37.38420875732581" lon="14.602818088526503"><ele>157.2</ele><time>2026-04-06T10:49:24Z</time></trkpt><trkpt lat="37.38424713376748" lon="14.602931896594752"><ele>157.0</ele><time>2026-04-06T10:49:26Z</time></trkpt><trkpt lat="37.384278374743594" lon="14.603035196279855"><ele>156.79999999999998</ele><time>2026-04-06T10:49:28Z</time></trkpt><trkpt lat="37.38431340421401" lon="14.603147490715301"><ele>156.6</ele><time>2026-04-06T10:49:30Z</time></trkpt><trkpt lat="37.3843435935575" lon="14.603257189495757"><ele>156.39999999999998</ele><time>2026-04-06T10:49:32Z</time></trkpt><trkpt lat="37.38437741696515" lon="14.603373921986064"><ele>156.2</ele><time>2026-04-06T10:49:34Z</time></trkpt><trkpt lat="37.38442109435483" lon="14.603502853346459"><ele>156.0</ele><time>2026-04-06T10:49:36Z</time></trkpt><trkpt lat="37.3844596710894" lon="14.603620382697484"><ele>155.8</ele><time>2026-04-06T10:49:38Z</time></trkpt><trkpt lat="37.38449926812228" lon="14.603743385532201"><ele>155.6</ele><time>2026-04-06T10:49:40Z</time></trkpt><trkpt lat="37.38453529788263" lon="14.6038500927166"><ele>155.4</ele><time>2026-04-06T10:49:42Z</time></trkpt><trkpt lat="37.38457367060429" lon="14.603980401124849"><ele>155.2</ele><time>2026-04-06T10:49:44Z</time></trkpt><trkpt lat="37.38461425502256" lon="14.604089031130034"><ele>155.0</ele><time>2026-04-06T10:49:46Z</time></trkpt><trkpt lat="37.38465695623935" lon="14.604219655085933"><ele>155.2</ele><time>2026-04-06T10:49:48Z</time></trkpt><trkpt lat="37.384696778771854" lon="14.604349090597735"><ele>155.4</ele><time>2026-04-06T10:49:50Z</time></trkpt><trkpt lat="37.38473928753825" lon="14.604471636085036"><ele>155.6</ele><time>2026-04-06T10:49:52Z</time></trkpt><trkpt lat="37.38477623285706" lon="14.604591883934948"><ele>155.8</ele><time>2026-04-06T10:49:54Z</time></trkpt><trkpt lat="37.38482413438337" lon="14.604722783606707"><ele>156.0</ele><time>2026-04-06T10:49:56Z</time></trkpt><trkpt lat="37.384870546002375" lon="14.604857022730135"><ele>156.2</ele><time>2026-04-06T10:49:58Z</time></trkpt><trkpt lat="37.3849166000771" lon="14.604990913430385"><ele>156.39999999999998</ele><time>2026-04-06T10:50:00Z</time></trkpt><trkpt lat="37.384955366151864" lon="14.60512119330878"><ele>156.6</ele><time>2026-04-06T10:50:02Z</time></trkpt><trkpt lat="37.384989985144685" lon="14.605191331844884"><ele>156.79999999999998</ele><time>2026-04-06T10:50:03Z</time></trkpt><trkpt lat="37.38501573811503" lon="14.605305559974997"><ele>157.0</ele><time>2026-04-06T10:50:05Z</time></trkpt><trkpt lat="37.385056514991945" lon="14.605419141305516"><ele>157.0</ele><time>2026-04-06T10:50:07Z</time></trkpt><trkpt lat="37.385093630155616" lon="14.605528813265437"><ele>157.0</ele><time>2026-04-06T10:50:09Z</time></trkpt><trkpt lat="37.38512968674611" lon="14.605643489230687"><ele>157.0</ele><time>2026-04-06T10:50:11Z</time></trkpt><trkpt lat="37.385161068407434" lon="14.605764286957111"><ele>157.0</ele><time>2026-04-06T10:50:13Z</time></trkpt><trkpt lat="37.38519289980804" lon="14.605881105911669"><ele>157.0</ele><time>2026-04-06T10:50:15Z</time></trkpt><trkpt lat="37.385223693310216" lon="14.606006926708737"><ele>157.0</ele><time>2026-04-06T10:50:17Z</time></trkpt><trkpt lat="37.38526308373554" lon="14.60612715843218"><ele>157.0</ele><time>2026-04-06T10:50:19Z</time></trkpt><trkpt lat="37.385301401207165" lon="14.606256495291527"><ele>157.0</ele><time>2026-04-06T10:50:21Z</time></trkpt><trkpt lat="37.38534231371093" lon="14.60638404536222"><ele>157.0</ele><time>2026-04-06T10:50:23Z</time></trkpt><trkpt lat="37.38538216639268" lon="14.606519044982756"><ele>157.0</ele><time>2026-04-06T10:50:25Z</time></trkpt><trkpt lat="37.385428876947614" lon="14.60665552142931"><ele>157.16666666666669</ele><time>2026-04-06T10:50:27Z</time></trkpt><trkpt lat="37.385453005802184" lon="14.606731566455034"><ele>157.33333333333334</ele><time>2026-04-06T10:50:28Z</time></trkpt><trkpt lat="37.38550072305137" lon="14.606878258503583"><ele>157.5</ele><time>2026-04-06T10:50:30Z</time></trkpt><trkpt lat="37.38552586458473" lon="14.606951786647919"><ele>157.66666666666666</ele><time>2026-04-06T10:50:31Z</time></trkpt><trkpt lat="37.38555016799716" lon="14.60702703067857"><ele>157.83333333333331</ele><time>2026-04-06T10:50:32Z</time></trkpt><trkpt lat="37.385574810836545" lon="14.60710579562884"><ele>158.0</ele><time>2026-04-06T10:50:33Z</time></trkpt><trkpt lat="37.385600588713906" lon="14.607186812910927"><ele>158.16666666666666</ele><time>2026-04-06T10:50:34Z</time></trkpt><trkpt lat="37.3856275369374" lon="14.607264754672228"><ele>158.33333333333331</ele><time>2026-04-06T10:50:35Z</time></trkpt><trkpt lat="37.38565678505971" lon="14.60734464458248"><ele>158.5</ele><time>2026-04-06T10:50:36Z</time></trkpt><trkpt lat="37.3856866528947" lon="14.607428109285697"><ele>158.66666666666666</ele><time>2026-04-06T10:50:37Z</time></trkpt><trkpt lat="37.3857394993198" lon="14.607572806129099"><ele>158.83333333333334</ele><time>2026-04-06T10:50:39Z</time></trkpt><trkpt lat="37.38576688665796" lon="14.607650900845165"><ele>159.0</ele><time>2026-04-06T10:50:40Z</time></trkpt><trkpt lat="37.385795016506265" lon="14.607722950879538"><ele>158.83333333333334</ele><time>2026-04-06T10:50:41Z</time></trkpt><trkpt lat="37.38585753920281" lon="14.60786416820863"><ele>158.66666666666666</ele><time>2026-04-06T10:50:43Z</time></trkpt><trkpt lat="37.38588790951221" lon="14.607933822396175"><ele>158.5</ele><time>2026-04-06T10:50:44Z</time></trkpt><trkpt lat="37.38592227289314" lon="14.608010030440743"><ele>158.33333333333331</ele><time>2026-04-06T10:50:45Z</time></trkpt><trkpt lat="37.38595710995523" lon="14.60809160779524"><ele>158.16666666666666</ele><time>2026-04-06T10:50:46Z</time></trkpt><trkpt lat="37.385987072871664" lon="14.608162057454631"><ele>158.0</ele><time>2026-04-06T10:50:47Z</time></trkpt><trkpt lat="37.386021046792315" lon="14.608243242526497"><ele>158.0</ele><time>2026-04-06T10:50:48Z</time></trkpt><trkpt lat="37.38605831139223" lon="14.608327059474231"><ele>158.0</ele><time>2026-04-06T10:50:49Z</time></trkpt><trkpt lat="37.3860970484006" lon="14.60841100849818"><ele>158.0</ele><time>2026-04-06T10:50:50Z</time></trkpt><trkpt lat="37.386135327162926" lon="14.608497775458622"><ele>158.0</ele><time>2026-04-06T10:50:51Z</time></trkpt><trkpt lat="37.38617238052632" lon="14.6085787760167"><ele>158.0</ele><time>2026-04-06T10:50:52Z</time></trkpt><trkpt lat="37.386214660794295" lon="14.608671702851343"><ele>158.0</ele><time>2026-04-06T10:50:53Z</time></trkpt><trkpt lat="37.38624670943641" lon="14.608743676284382"><ele>158.0</ele><time>2026-04-06T10:50:54Z</time></trkpt><trkpt lat="37.386284014633475" lon="14.60882881910745"><ele>158.0</ele><time>2026-04-06T10:50:55Z</time></trkpt><trkpt lat="37.38631803049937" lon="14.608907696744392"><ele>158.0</ele><time>2026-04-06T10:50:56Z</time></trkpt><trkpt lat="37.3863515263618" lon="14.608985229556705"><ele>158.0</ele><time>2026-04-06T10:50:57Z</time></trkpt><trkpt lat="37.3863838083371" lon="14.60906517975914"><ele>158.0</ele><time>2026-04-06T10:50:58Z</time></trkpt><trkpt lat="37.38642160248208" lon="14.609153819118474"><ele>158.0</ele><time>2026-04-06T10:50:59Z</time></trkpt><trkpt lat="37.38646239975924" lon="14.609244195580839"><ele>157.83333333333331</ele><time>2026-04-06T10:51:00Z</time></trkpt><trkpt lat="37.38650566867063" lon="14.609337840648228"><ele>157.66666666666666</ele><time>2026-04-06T10:51:01Z</time></trkpt><trkpt lat="37.38654685831756" lon="14.609428712464881"><ele>157.5</ele><time>2026-04-06T10:51:02Z</time></trkpt><trkpt lat="37.38658975921171" lon="14.609522547323678"><ele>157.33333333333334</ele><time>2026-04-06T10:51:03.001Z</time></trkpt><trkpt lat="37.38662878976134" lon="14.609610297417076"><ele>157.16666666666669</ele><time>2026-04-06T10:51:04.001Z</time></trkpt><trkpt lat="37.386669046903094" lon="14.609700590867611"><ele>157.0</ele><time>2026-04-06T10:51:05.001Z</time></trkpt><trkpt lat="37.38670856804256" lon="14.60978994580082"><ele>156.83333333333334</ele><time>2026-04-06T10:51:06.001Z</time></trkpt><trkpt lat="37.3867484019436" lon="14.609880907629954"><ele>156.66666666666669</ele><time>2026-04-06T10:51:07.001Z</time></trkpt><trkpt lat="37.38678718316222" lon="14.609970230150411"><ele>156.5</ele><time>2026-04-06T10:51:08.001Z</time></trkpt><trkpt lat="37.38682825023119" lon="14.61006214982406"><ele>156.33333333333334</ele><time>2026-04-06T10:51:09.001Z</time></trkpt><trkpt lat="37.38686661609095" lon="14.610146710302176"><ele>156.16666666666666</ele><time>2026-04-06T10:51:10.001Z</time></trkpt><trkpt lat="37.38690628182037" lon="14.61023728793283"><ele>156.0</ele><time>2026-04-06T10:51:11.001Z</time></trkpt><trkpt lat="37.386945240402056" lon="14.610324939973768"><ele>155.66666666666666</ele><time>2026-04-06T10:51:12.001Z</time></trkpt><trkpt lat="37.38698458445269" lon="14.61041420907733"><ele>155.33333333333334</ele><time>2026-04-06T10:51:13.001Z</time></trkpt><trkpt lat="37.38702410499231" lon="14.61050203626293"><ele>155.0</ele><time>2026-04-06T10:51:14.001Z</time></trkpt><trkpt lat="37.38706293466264" lon="14.610590213895403"><ele>154.66666666666669</ele><time>2026-04-06T10:51:15.001Z</time></trkpt><trkpt lat="37.387099389077314" lon="14.610672848150495"><ele>154.33333333333334</ele><time>2026-04-06T10:51:16.001Z</time></trkpt><trkpt lat="37.38713409854824" lon="14.61074985326321"><ele>154.0</ele><time>2026-04-06T10:51:17.001Z</time></trkpt><trkpt lat="37.3871655536022" lon="14.61082209853524"><ele>154.28571428571428</ele><time>2026-04-06T10:51:18.001Z</time></trkpt><trkpt lat="37.38719657425265" lon="14.610893830458233"><ele>154.57142857142856</ele><time>2026-04-06T10:51:19.001Z</time></trkpt><trkpt lat="37.387246424078846" lon="14.611005240027842"><ele>154.85714285714286</ele><time>2026-04-06T10:51:21.001Z</time></trkpt><trkpt lat="37.38727970791538" lon="14.611080059327639"><ele>155.14285714285714</ele><time>2026-04-06T10:51:23.001Z</time></trkpt><trkpt lat="37.38731142446976" lon="14.611151984640475"><ele>155.42857142857142</ele><time>2026-04-06T10:51:27.001Z</time></trkpt><trkpt lat="37.387342056741524" lon="14.611231508817307"><ele>155.71428571428572</ele><time>2026-04-06T10:51:52.001Z</time></trkpt><trkpt lat="37.387367388429126" lon="14.611304198182278"><ele>156.0</ele><time>2026-04-06T10:51:54.001Z</time></trkpt><trkpt lat="37.38741379104651" lon="14.611378530849981"><ele>156.0</ele><time>2026-04-06T10:51:56.001Z</time></trkpt><trkpt lat="37.387453324162884" lon="14.611460533009826"><ele>156.0</ele><time>2026-04-06T10:51:58.001Z</time></trkpt><trkpt lat="37.38748788603973" lon="14.611546519060346"><ele>156.0</ele><time>2026-04-06T10:52:00.001Z</time></trkpt><trkpt lat="37.38752543566922" lon="14.611631196833283"><ele>156.0</ele><time>2026-04-06T10:52:02.001Z</time></trkpt><trkpt lat="37.38756998430373" lon="14.611725528371506"><ele>156.0</ele><time>2026-04-06T10:52:04.001Z</time></trkpt><trkpt lat="37.38762174144317" lon="14.611841463529332"><ele>156.0</ele><time>2026-04-06T10:52:06.001Z</time></trkpt><trkpt lat="37.38768210641529" lon="14.611978164204352"><ele>155.83333333333334</ele><time>2026-04-06T10:52:08.001Z</time></trkpt><trkpt lat="37.387714708153624" lon="14.612050866590215"><ele>155.66666666666666</ele><time>2026-04-06T10:52:09.001Z</time></trkpt><trkpt lat="37.38775068041925" lon="14.612130958801147"><ele>155.5</ele><time>2026-04-06T10:52:10.001Z</time></trkpt><trkpt lat="37.38778612125319" lon="14.612212119150847"><ele>155.33333333333331</ele><time>2026-04-06T10:52:11.001Z</time></trkpt><trkpt lat="37.38782159369093" lon="14.61229030811118"><ele>155.16666666666666</ele><time>2026-04-06T10:52:12.001Z</time></trkpt><trkpt lat="37.38788127375274" lon="14.612423694195337"><ele>155.0</ele><time>2026-04-06T10:52:14.001Z</time></trkpt><trkpt lat="37.387934992088994" lon="14.612553415982674"><ele>155.0</ele><time>2026-04-06T10:52:16.001Z</time></trkpt><trkpt lat="37.387990401887116" lon="14.61268275448834"><ele>155.0</ele><time>2026-04-06T10:52:18.001Z</time></trkpt><trkpt lat="37.38802079359785" lon="14.612753780497481"><ele>155.0</ele><time>2026-04-06T10:52:19.001Z</time></trkpt><trkpt lat="37.38805293048673" lon="14.612826967077133"><ele>155.0</ele><time>2026-04-06T10:52:20.001Z</time></trkpt><trkpt lat="37.388087164044" lon="14.612902208784783"><ele>155.0</ele><time>2026-04-06T10:52:21.001Z</time></trkpt><trkpt lat="37.38812222912339" lon="14.612979433401371"><ele>155.0</ele><time>2026-04-06T10:52:22.001Z</time></trkpt><trkpt lat="37.38815895193589" lon="14.613061356835315"><ele>155.28571428571428</ele><time>2026-04-06T10:52:23.001Z</time></trkpt><trkpt lat="37.38819592660652" lon="14.613144502716485"><ele>155.57142857142856</ele><time>2026-04-06T10:52:24.001Z</time></trkpt><trkpt lat="37.38823289118498" lon="14.613228457708466"><ele>155.85714285714283</ele><time>2026-04-06T10:52:25.001Z</time></trkpt><trkpt lat="37.38826905016135" lon="14.613307490180715"><ele>156.14285714285714</ele><time>2026-04-06T10:52:26.001Z</time></trkpt><trkpt lat="37.38830525758208" lon="14.61338968711006"><ele>156.42857142857142</ele><time>2026-04-06T10:52:27.001Z</time></trkpt><trkpt lat="37.38833763235693" lon="14.613467016365583"><ele>156.7142857142857</ele><time>2026-04-06T10:52:28.001Z</time></trkpt><trkpt lat="37.38836860535895" lon="14.613541282423569"><ele>157.0</ele><time>2026-04-06T10:52:29.001Z</time></trkpt><trkpt lat="37.38840222223253" lon="14.613635882235343"><ele>157.2</ele><time>2026-04-06T10:52:30.001Z</time></trkpt><trkpt lat="37.38844865197328" lon="14.61374292890471"><ele>157.39999999999998</ele><time>2026-04-06T10:52:32.001Z</time></trkpt><trkpt lat="37.388496904654865" lon="14.613867115809862"><ele>157.60000000000002</ele><time>2026-04-06T10:52:34.001Z</time></trkpt><trkpt lat="37.38856041889576" lon="14.61400323946503"><ele>157.8</ele><time>2026-04-06T10:52:36.001Z</time></trkpt><trkpt lat="37.38859717216049" lon="14.614083875982475"><ele>158.0</ele><time>2026-04-06T10:52:37.001Z</time></trkpt><trkpt lat="37.38863512519084" lon="14.614166970948078"><ele>158.0</ele><time>2026-04-06T10:52:38.002Z</time></trkpt><trkpt lat="37.388672192521724" lon="14.61425310555721"><ele>158.0</ele><time>2026-04-06T10:52:39.002Z</time></trkpt><trkpt lat="37.38871035996074" lon="14.614341393633497"><ele>158.0</ele><time>2026-04-06T10:52:40.002Z</time></trkpt><trkpt lat="37.38875182091071" lon="14.61443383018624"><ele>158.0</ele><time>2026-04-06T10:52:41.002Z</time></trkpt><trkpt lat="37.38879437458818" lon="14.614528593060442"><ele>158.0</ele><time>2026-04-06T10:52:42.002Z</time></trkpt><trkpt lat="37.38883639204438" lon="14.614623975246728"><ele>158.0</ele><time>2026-04-06T10:52:43.002Z</time></trkpt><trkpt lat="37.38887788987316" lon="14.614722084222254"><ele>158.60000000000002</ele><time>2026-04-06T10:52:44.002Z</time></trkpt><trkpt lat="37.38892083692627" lon="14.614819851779197"><ele>159.20000000000002</ele><time>2026-04-06T10:52:45.002Z</time></trkpt><trkpt lat="37.388963819196114" lon="14.61491707679185"><ele>159.8</ele><time>2026-04-06T10:52:46.002Z</time></trkpt><trkpt lat="37.38900768938823" lon="14.615018518165376"><ele>160.4</ele><time>2026-04-06T10:52:47.002Z</time></trkpt><trkpt lat="37.38905158148633" lon="14.615118021850032"><ele>161.0</ele><time>2026-04-06T10:52:48.002Z</time></trkpt><trkpt lat="37.38909402633491" lon="14.61522113531958"><ele>161.20000000000002</ele><time>2026-04-06T10:52:49.002Z</time></trkpt><trkpt lat="37.3891368016599" lon="14.615323460540974"><ele>161.4</ele><time>2026-04-06T10:52:50.002Z</time></trkpt><trkpt lat="37.38917821184569" lon="14.615425294943652"><ele>161.6</ele><time>2026-04-06T10:52:51.002Z</time></trkpt><trkpt lat="37.38922053038611" lon="14.615525658052702"><ele>161.8</ele><time>2026-04-06T10:52:52.002Z</time></trkpt><trkpt lat="37.38926396873045" lon="14.615623835857749"><ele>162.0</ele><time>2026-04-06T10:52:53.002Z</time></trkpt><trkpt lat="37.38930739062317" lon="14.615721323150458"><ele>162.0</ele><time>2026-04-06T10:52:54.002Z</time></trkpt><trkpt lat="37.3893486346216" lon="14.615816379020574"><ele>162.0</ele><time>2026-04-06T10:52:55.002Z</time></trkpt><trkpt lat="37.3893900729378" lon="14.615911865646124"><ele>162.0</ele><time>2026-04-06T10:52:56.002Z</time></trkpt><trkpt lat="37.38943250975302" lon="14.61600558758689"><ele>162.0</ele><time>2026-04-06T10:52:57.002Z</time></trkpt><trkpt lat="37.38947576211617" lon="14.616099828484888"><ele>162.0</ele><time>2026-04-06T10:52:58.002Z</time></trkpt><trkpt lat="37.38952181300003" lon="14.61619084259277"><ele>162.0</ele><time>2026-04-06T10:52:59.002Z</time></trkpt><trkpt lat="37.389572689894784" lon="14.616279395314908"><ele>162.0</ele><time>2026-04-06T10:53:00.002Z</time></trkpt><trkpt lat="37.3896257042015" lon="14.616371216896937"><ele>162.0</ele><time>2026-04-06T10:53:01.002Z</time></trkpt><trkpt lat="37.3896779620291" lon="14.616462281137125"><ele>162.0</ele><time>2026-04-06T10:53:02.002Z</time></trkpt><trkpt lat="37.38973037709794" lon="14.61655410896047"><ele>162.0</ele><time>2026-04-06T10:53:03.002Z</time></trkpt><trkpt lat="37.389783339532755" lon="14.616645846046906"><ele>162.0</ele><time>2026-04-06T10:53:04.002Z</time></trkpt><trkpt lat="37.38983705737174" lon="14.616735712409113"><ele>162.0</ele><time>2026-04-06T10:53:05.002Z</time></trkpt><trkpt lat="37.389887462162946" lon="14.616824138391092"><ele>161.83333333333334</ele><time>2026-04-06T10:53:06.002Z</time></trkpt><trkpt lat="37.38993521115017" lon="14.616910685099606"><ele>161.66666666666666</ele><time>2026-04-06T10:53:07.002Z</time></trkpt><trkpt lat="37.389983745871795" lon="14.616994302902022"><ele>161.5</ele><time>2026-04-06T10:53:08.002Z</time></trkpt><trkpt lat="37.39003420104046" lon="14.617079470494193"><ele>161.33333333333331</ele><time>2026-04-06T10:53:09.002Z</time></trkpt><trkpt lat="37.39008330501958" lon="14.61716646013284"><ele>161.16666666666666</ele><time>2026-04-06T10:53:10.002Z</time></trkpt><trkpt lat="37.39013541155112" lon="14.617252342002557"><ele>161.0</ele><time>2026-04-06T10:53:11.002Z</time></trkpt><trkpt lat="37.390184900045355" lon="14.61733592295469"><ele>160.83333333333331</ele><time>2026-04-06T10:53:12.002Z</time></trkpt><trkpt lat="37.39023749373662" lon="14.617423519789313"><ele>160.66666666666666</ele><time>2026-04-06T10:53:13.002Z</time></trkpt><trkpt lat="37.39028813196017" lon="14.617510548359705"><ele>160.5</ele><time>2026-04-06T10:53:14.002Z</time></trkpt><trkpt lat="37.39034075786526" lon="14.617601214220576"><ele>160.33333333333334</ele><time>2026-04-06T10:53:15.002Z</time></trkpt><trkpt lat="37.39039283527209" lon="14.617689332460783"><ele>160.16666666666669</ele><time>2026-04-06T10:53:16.002Z</time></trkpt><trkpt lat="37.39044598763483" lon="14.61777596916995"><ele>160.0</ele><time>2026-04-06T10:53:17.002Z</time></trkpt><trkpt lat="37.39049836389651" lon="14.617866398085587"><ele>159.66666666666669</ele><time>2026-04-06T10:53:18.002Z</time></trkpt><trkpt lat="37.39055185686603" lon="14.61795574318942"><ele>159.33333333333334</ele><time>2026-04-06T10:53:19.002Z</time></trkpt><trkpt lat="37.39060144376413" lon="14.618039614653599"><ele>159.0</ele><time>2026-04-06T10:53:20.002Z</time></trkpt><trkpt lat="37.3906553133736" lon="14.618124486913393"><ele>158.66666666666666</ele><time>2026-04-06T10:53:21.002Z</time></trkpt><trkpt lat="37.39070810954771" lon="14.618213992533905"><ele>158.33333333333331</ele><time>2026-04-06T10:53:22.002Z</time></trkpt><trkpt lat="37.39075282885581" lon="14.618290124131919"><ele>158.0</ele><time>2026-04-06T10:53:23.002Z</time></trkpt><trkpt lat="37.390793383421794" lon="14.618364408878858"><ele>158.0</ele><time>2026-04-06T10:53:24.002Z</time></trkpt><trkpt lat="37.390838224098644" lon="14.61843929623855"><ele>158.0</ele><time>2026-04-06T10:53:25.002Z</time></trkpt><trkpt lat="37.39090346061315" lon="14.618549115162985"><ele>158.0</ele><time>2026-04-06T10:53:27.002Z</time></trkpt><trkpt lat="37.39096697493038" lon="14.61864785025437"><ele>158.0</ele><time>2026-04-06T10:53:29.002Z</time></trkpt><trkpt lat="37.39102549798116" lon="14.618743923799984"><ele>158.0</ele><time>2026-04-06T10:53:31.002Z</time></trkpt><trkpt lat="37.39108902161324" lon="14.61885412456587"><ele>158.0</ele><time>2026-04-06T10:53:33.002Z</time></trkpt><trkpt lat="37.391161561715904" lon="14.618979927432191"><ele>158.0</ele><time>2026-04-06T10:53:35.001Z</time></trkpt><trkpt lat="37.39120232834369" lon="14.619044505609894"><ele>158.0</ele><time>2026-04-06T10:53:36.001Z</time></trkpt><trkpt lat="37.391245478313586" lon="14.619115116401568"><ele>158.0</ele><time>2026-04-06T10:53:37.001Z</time></trkpt><trkpt lat="37.39129046586267" lon="14.61918890065359"><ele>158.0</ele><time>2026-04-06T10:53:38.001Z</time></trkpt><trkpt lat="37.3913382888888" lon="14.619268229273873"><ele>158.0</ele><time>2026-04-06T10:53:39.001Z</time></trkpt><trkpt lat="37.39138611673298" lon="14.619349453000789"><ele>158.00000000000003</ele><time>2026-04-06T10:53:40.001Z</time></trkpt><trkpt lat="37.39143412065205" lon="14.619431116258928"><ele>158.0</ele><time>2026-04-06T10:53:41.001Z</time></trkpt><trkpt lat="37.3914787455641" lon="14.619506539996447"><ele>158.0</ele><time>2026-04-06T10:53:42.001Z</time></trkpt><trkpt lat="37.39152101882076" lon="14.619576719991734"><ele>158.0</ele><time>2026-04-06T10:53:43.001Z</time></trkpt><trkpt lat="37.39156271525759" lon="14.619648136312062"><ele>158.0</ele><time>2026-04-06T10:53:44.001Z</time></trkpt><trkpt lat="37.39160526317847" lon="14.619719797982102"><ele>158.00000000000003</ele><time>2026-04-06T10:53:45.001Z</time></trkpt><trkpt lat="37.391645736189986" lon="14.61978881609368"><ele>158.0</ele><time>2026-04-06T10:53:46.001Z</time></trkpt><trkpt lat="37.39168697223749" lon="14.619861047802877"><ele>157.85714285714286</ele><time>2026-04-06T10:53:47.001Z</time></trkpt><trkpt lat="37.391727949794074" lon="14.6199308044031"><ele>157.71428571428572</ele><time>2026-04-06T10:53:48.001Z</time></trkpt><trkpt lat="37.39177017980799" lon="14.620002322542694"><ele>157.57142857142856</ele><time>2026-04-06T10:53:49.001Z</time></trkpt><trkpt lat="37.39181014250145" lon="14.620072704111639"><ele>157.42857142857144</ele><time>2026-04-06T10:53:50.001Z</time></trkpt><trkpt lat="37.391849547128814" lon="14.620145013778469"><ele>157.28571428571428</ele><time>2026-04-06T10:53:51.001Z</time></trkpt><trkpt lat="37.39188699800203" lon="14.620218130140312"><ele>157.14285714285714</ele><time>2026-04-06T10:53:52.001Z</time></trkpt><trkpt lat="37.391921842675394" lon="14.620292345219985"><ele>157.0</ele><time>2026-04-06T10:53:53.001Z</time></trkpt><trkpt lat="37.391952300593864" lon="14.620370602615285"><ele>157.0</ele><time>2026-04-06T10:53:54.001Z</time></trkpt><trkpt lat="37.391979135018175" lon="14.62045467185979"><ele>157.0</ele><time>2026-04-06T10:53:55.001Z</time></trkpt><trkpt lat="37.39200235138621" lon="14.620546314666854"><ele>157.0</ele><time>2026-04-06T10:53:56.001Z</time></trkpt><trkpt lat="37.3920173585448" lon="14.620639222870413"><ele>157.0</ele><time>2026-04-06T10:53:57.001Z</time></trkpt><trkpt lat="37.39202905095295" lon="14.620738864430777"><ele>157.0</ele><time>2026-04-06T10:53:58.001Z</time></trkpt><trkpt lat="37.39203743564183" lon="14.620833859580406"><ele>157.0</ele><time>2026-04-06T10:53:59.001Z</time></trkpt><trkpt lat="37.39204543658854" lon="14.620935984285655"><ele>157.0</ele><time>2026-04-06T10:54:00.001Z</time></trkpt><trkpt lat="37.39205421094168" lon="14.621032704127897"><ele>157.0</ele><time>2026-04-06T10:54:01.001Z</time></trkpt><trkpt lat="37.39206305818296" lon="14.62113088501482"><ele>157.0</ele><time>2026-04-06T10:54:02.001Z</time></trkpt><trkpt lat="37.39207184880438" lon="14.621232538347144"><ele>157.0</ele><time>2026-04-06T10:54:03.001Z</time></trkpt><trkpt lat="37.39208073787904" lon="14.621330646552536"><ele>157.0</ele><time>2026-04-06T10:54:04.001Z</time></trkpt><trkpt lat="37.39208972594045" lon="14.621428572716825"><ele>157.0</ele><time>2026-04-06T10:54:05.001Z</time></trkpt><trkpt lat="37.39209804767619" lon="14.621527284841267"><ele>156.83333333333334</ele><time>2026-04-06T10:54:06.001Z</time></trkpt><trkpt lat="37.39210700761536" lon="14.621628061108149"><ele>156.66666666666669</ele><time>2026-04-06T10:54:07.001Z</time></trkpt><trkpt lat="37.39211561643791" lon="14.621728158866045"><ele>156.5</ele><time>2026-04-06T10:54:08.001Z</time></trkpt><trkpt lat="37.39212421714931" lon="14.621826880201365"><ele>156.33333333333334</ele><time>2026-04-06T10:54:09.001Z</time></trkpt><trkpt lat="37.39213313017729" lon="14.621924474683137"><ele>156.16666666666666</ele><time>2026-04-06T10:54:10.001Z</time></trkpt><trkpt lat="37.39214230210305" lon="14.62202284122843"><ele>156.0</ele><time>2026-04-06T10:54:11.001Z</time></trkpt><trkpt lat="37.392151067786855" lon="14.622117889654014"><ele>156.0</ele><time>2026-04-06T10:54:12.001Z</time></trkpt><trkpt lat="37.39215986195102" lon="14.622213116951134"><ele>156.0</ele><time>2026-04-06T10:54:13.001Z</time></trkpt><trkpt lat="37.39216799123766" lon="14.622309387668484"><ele>156.0</ele><time>2026-04-06T10:54:14.001Z</time></trkpt><trkpt lat="37.39217688733224" lon="14.622406317058426"><ele>156.0</ele><time>2026-04-06T10:54:15.001Z</time></trkpt><trkpt lat="37.39218551835576" lon="14.622507220401785"><ele>156.0</ele><time>2026-04-06T10:54:16.001Z</time></trkpt><trkpt lat="37.3921948715779" lon="14.622608110200702"><ele>156.0</ele><time>2026-04-06T10:54:17.001Z</time></trkpt><trkpt lat="37.392205080864066" lon="14.62271182895806"><ele>156.16666666666666</ele><time>2026-04-06T10:54:18.001Z</time></trkpt><trkpt lat="37.392215737724555" lon="14.622813318664669"><ele>156.33333333333334</ele><time>2026-04-06T10:54:19.001Z</time></trkpt><trkpt lat="37.39222543548478" lon="14.62291681952856"><ele>156.5</ele><time>2026-04-06T10:54:20.001Z</time></trkpt><trkpt lat="37.39223573307194" lon="14.623020076800465"><ele>156.66666666666669</ele><time>2026-04-06T10:54:21.001Z</time></trkpt><trkpt lat="37.39224557155484" lon="14.623123737081706"><ele>156.83333333333334</ele><time>2026-04-06T10:54:22.001Z</time></trkpt><trkpt lat="37.39225383038786" lon="14.623231319860045"><ele>157.0</ele><time>2026-04-06T10:54:23.001Z</time></trkpt><trkpt lat="37.39226212128271" lon="14.623339654595467"><ele>157.0</ele><time>2026-04-06T10:54:24.001Z</time></trkpt><trkpt lat="37.392271423376066" lon="14.623438209061822"><ele>157.0</ele><time>2026-04-06T10:54:25.001Z</time></trkpt><trkpt lat="37.39228498111387" lon="14.623537408101008"><ele>157.0</ele><time>2026-04-06T10:54:26.001Z</time></trkpt><trkpt lat="37.39229201059231" lon="14.623645103729235"><ele>157.0</ele><time>2026-04-06T10:54:27.001Z</time></trkpt><trkpt lat="37.392300768333776" lon="14.623752937846534"><ele>157.0</ele><time>2026-04-06T10:54:28.001Z</time></trkpt><trkpt lat="37.392308282809914" lon="14.623862498059614"><ele>157.0</ele><time>2026-04-06T10:54:29.001Z</time></trkpt><trkpt lat="37.392317518018324" lon="14.623972617816477"><ele>157.83333333333334</ele><time>2026-04-06T10:54:30.001Z</time></trkpt><trkpt lat="37.39232602121074" lon="14.624081212750946"><ele>158.66666666666669</ele><time>2026-04-06T10:54:31.001Z</time></trkpt><trkpt lat="37.39233542192433" lon="14.624191767948812"><ele>159.5</ele><time>2026-04-06T10:54:32.001Z</time></trkpt><trkpt lat="37.39234472888027" lon="14.624300031627559"><ele>160.33333333333334</ele><time>2026-04-06T10:54:33.001Z</time></trkpt><trkpt lat="37.39235474655054" lon="14.62440825714845"><ele>161.16666666666666</ele><time>2026-04-06T10:54:34.001Z</time></trkpt><trkpt lat="37.39236447434275" lon="14.624515711280642"><ele>162.0</ele><time>2026-04-06T10:54:35.001Z</time></trkpt><trkpt lat="37.39237272996224" lon="14.624623794655404"><ele>162.83333333333334</ele><time>2026-04-06T10:54:36.001Z</time></trkpt><trkpt lat="37.39238037732649" lon="14.62473188972671"><ele>163.66666666666666</ele><time>2026-04-06T10:54:37.001Z</time></trkpt><trkpt lat="37.39238846422757" lon="14.62484132861086"><ele>164.5</ele><time>2026-04-06T10:54:38.001Z</time></trkpt><trkpt lat="37.39239835773292" lon="14.624953114652536"><ele>165.33333333333331</ele><time>2026-04-06T10:54:39.001Z</time></trkpt><trkpt lat="37.39240922188704" lon="14.625064315767077"><ele>166.16666666666666</ele><time>2026-04-06T10:54:40.001Z</time></trkpt><trkpt lat="37.39241863768059" lon="14.625175469622965"><ele>167.0</ele><time>2026-04-06T10:54:41.001Z</time></trkpt><trkpt lat="37.39242883670005" lon="14.625282003950508"><ele>166.66666666666666</ele><time>2026-04-06T10:54:42.002Z</time></trkpt><trkpt lat="37.392433959441824" lon="14.625394149980375"><ele>166.33333333333331</ele><time>2026-04-06T10:54:43.002Z</time></trkpt><trkpt lat="37.392433198693915" lon="14.625505445455024"><ele>166.0</ele><time>2026-04-06T10:54:44.002Z</time></trkpt><trkpt lat="37.39242402109879" lon="14.62561201522139"><ele>165.66666666666666</ele><time>2026-04-06T10:54:45.002Z</time></trkpt><trkpt lat="37.392408103363614" lon="14.62571487733539"><ele>165.33333333333334</ele><time>2026-04-06T10:54:46.002Z</time></trkpt><trkpt lat="37.392385230402965" lon="14.625812539330926"><ele>165.0</ele><time>2026-04-06T10:54:47.002Z</time></trkpt><trkpt lat="37.39235668444932" lon="14.625907925148555"><ele>165.0</ele><time>2026-04-06T10:54:48.002Z</time></trkpt><trkpt lat="37.39232349366538" lon="14.626000496318978"><ele>165.0</ele><time>2026-04-06T10:54:49.002Z</time></trkpt><trkpt lat="37.39228628929517" lon="14.62609009468374"><ele>165.0</ele><time>2026-04-06T10:54:50.002Z</time></trkpt><trkpt lat="37.39224756034421" lon="14.62618038683869"><ele>165.0</ele><time>2026-04-06T10:54:51.002Z</time></trkpt><trkpt lat="37.392210650329154" lon="14.6262736991761"><ele>165.0</ele><time>2026-04-06T10:54:52.002Z</time></trkpt><trkpt lat="37.39217488633717" lon="14.626369268358227"><ele>165.0</ele><time>2026-04-06T10:54:53.002Z</time></trkpt><trkpt lat="37.392137296769135" lon="14.626466687891124"><ele>165.16666666666666</ele><time>2026-04-06T10:54:54.002Z</time></trkpt><trkpt lat="37.39210210221088" lon="14.62655969624811"><ele>165.33333333333334</ele><time>2026-04-06T10:54:55.002Z</time></trkpt><trkpt lat="37.39206440638027" lon="14.6266547476953"><ele>165.5</ele><time>2026-04-06T10:54:56.002Z</time></trkpt><trkpt lat="37.39202818229009" lon="14.626745966421502"><ele>165.66666666666669</ele><time>2026-04-06T10:54:57.002Z</time></trkpt><trkpt lat="37.391991440058476" lon="14.626839862603216"><ele>165.83333333333334</ele><time>2026-04-06T10:54:58.002Z</time></trkpt><trkpt lat="37.3919548006215" lon="14.62693229433728"><ele>166.0</ele><time>2026-04-06T10:54:59.002Z</time></trkpt><trkpt lat="37.39191825773413" lon="14.62702611529517"><ele>165.33333333333334</ele><time>2026-04-06T10:55:00.002Z</time></trkpt><trkpt lat="37.39188319784856" lon="14.62711845772928"><ele>164.66666666666669</ele><time>2026-04-06T10:55:01.002Z</time></trkpt><trkpt lat="37.39184559269987" lon="14.627211451211943"><ele>164.0</ele><time>2026-04-06T10:55:02.002Z</time></trkpt><trkpt lat="37.391810498887686" lon="14.627302009499752"><ele>163.33333333333334</ele><time>2026-04-06T10:55:03.002Z</time></trkpt><trkpt lat="37.39177471975124" lon="14.627394280742362"><ele>162.66666666666666</ele><time>2026-04-06T10:55:04.002Z</time></trkpt><trkpt lat="37.39173983712813" lon="14.627485203896198"><ele>162.0</ele><time>2026-04-06T10:55:05.002Z</time></trkpt><trkpt lat="37.39170258643961" lon="14.627577825882897"><ele>162.0</ele><time>2026-04-06T10:55:06.002Z</time></trkpt><trkpt lat="37.39166827782709" lon="14.62766411834659"><ele>162.0</ele><time>2026-04-06T10:55:07.002Z</time></trkpt><trkpt lat="37.39163048479711" lon="14.62775676345814"><ele>162.0</ele><time>2026-04-06T10:55:08.002Z</time></trkpt><trkpt lat="37.391594602447036" lon="14.627847888510132"><ele>162.0</ele><time>2026-04-06T10:55:09.002Z</time></trkpt><trkpt lat="37.39155884202705" lon="14.627939892076222"><ele>162.0</ele><time>2026-04-06T10:55:10.002Z</time></trkpt><trkpt lat="37.391521166029065" lon="14.628035888774637"><ele>162.0</ele><time>2026-04-06T10:55:11.002Z</time></trkpt><trkpt lat="37.39148395379067" lon="14.628129930058913"><ele>162.0</ele><time>2026-04-06T10:55:12.002Z</time></trkpt><trkpt lat="37.391446180077985" lon="14.628224315183584"><ele>162.0</ele><time>2026-04-06T10:55:13.002Z</time></trkpt><trkpt lat="37.391407686335846" lon="14.628320972358049"><ele>162.0</ele><time>2026-04-06T10:55:14.002Z</time></trkpt><trkpt lat="37.391369930187764" lon="14.628417443846212"><ele>162.0</ele><time>2026-04-06T10:55:15.002Z</time></trkpt><trkpt lat="37.39133430087493" lon="14.628513386070658"><ele>162.0</ele><time>2026-04-06T10:55:16.002Z</time></trkpt><trkpt lat="37.39129868423964" lon="14.628611108418456"><ele>162.0</ele><time>2026-04-06T10:55:17.002Z</time></trkpt><trkpt lat="37.39126506705453" lon="14.628709979127779"><ele>162.33333333333334</ele><time>2026-04-06T10:55:18.002Z</time></trkpt><trkpt lat="37.39123541425547" lon="14.628805522914353"><ele>162.66666666666666</ele><time>2026-04-06T10:55:19.002Z</time></trkpt><trkpt lat="37.39120624979474" lon="14.628903330001906"><ele>163.0</ele><time>2026-04-06T10:55:20.002Z</time></trkpt><trkpt lat="37.3911812876865" lon="14.629002913735318"><ele>163.33333333333331</ele><time>2026-04-06T10:55:21.002Z</time></trkpt><trkpt lat="37.39115979315793" lon="14.6291049188776"><ele>163.66666666666666</ele><time>2026-04-06T10:55:22.002Z</time></trkpt><trkpt lat="37.3911426771459" lon="14.629207938137812"><ele>164.0</ele><time>2026-04-06T10:55:23.002Z</time></trkpt><trkpt lat="37.39113294567116" lon="14.629308198084074"><ele>164.0</ele><time>2026-04-06T10:55:24.002Z</time></trkpt><trkpt lat="37.39112796194793" lon="14.629411686569776"><ele>164.0</ele><time>2026-04-06T10:55:25.002Z</time></trkpt><trkpt lat="37.3911267960831" lon="14.629514103775287"><ele>164.0</ele><time>2026-04-06T10:55:26.002Z</time></trkpt><trkpt lat="37.391126338385284" lon="14.629617570526245"><ele>164.0</ele><time>2026-04-06T10:55:27.002Z</time></trkpt><trkpt lat="37.391128561722" lon="14.629720749586282"><ele>164.0</ele><time>2026-04-06T10:55:28.002Z</time></trkpt><trkpt lat="37.391132677348764" lon="14.629822829491308"><ele>164.0</ele><time>2026-04-06T10:55:29.002Z</time></trkpt><trkpt lat="37.391138244735444" lon="14.629927951288979"><ele>164.39999999999998</ele><time>2026-04-06T10:55:30.002Z</time></trkpt><trkpt lat="37.3911459297478" lon="14.630035192282213"><ele>164.8</ele><time>2026-04-06T10:55:31.002Z</time></trkpt><trkpt lat="37.39115468627138" lon="14.630145329255248"><ele>165.2</ele><time>2026-04-06T10:55:32.002Z</time></trkpt><trkpt lat="37.39116382958679" lon="14.630257985704793"><ele>165.60000000000002</ele><time>2026-04-06T10:55:33.002Z</time></trkpt><trkpt lat="37.391173390458626" lon="14.630374803354735"><ele>166.0</ele><time>2026-04-06T10:55:34.002Z</time></trkpt><trkpt lat="37.39118397132629" lon="14.63049089330582"><ele>166.0</ele><time>2026-04-06T10:55:35.002Z</time></trkpt><trkpt lat="37.39119453603392" lon="14.630608970317667"><ele>166.0</ele><time>2026-04-06T10:55:36.002Z</time></trkpt><trkpt lat="37.3912061277379" lon="14.630729766108916"><ele>166.0</ele><time>2026-04-06T10:55:37.002Z</time></trkpt><trkpt lat="37.3912176912003" lon="14.630850326575679"><ele>166.0</ele><time>2026-04-06T10:55:38.002Z</time></trkpt><trkpt lat="37.391228233560554" lon="14.63097450903662"><ele>166.0</ele><time>2026-04-06T10:55:39.002Z</time></trkpt><trkpt lat="37.39123790249218" lon="14.631099118323606"><ele>167.0</ele><time>2026-04-06T10:55:40.001Z</time></trkpt><trkpt lat="37.39124761918852" lon="14.631221544542658"><ele>168.0</ele><time>2026-04-06T10:55:41.001Z</time></trkpt><trkpt lat="37.39125907750016" lon="14.631338788035226"><ele>169.0</ele><time>2026-04-06T10:55:42.001Z</time></trkpt><trkpt lat="37.391267567076746" lon="14.631456413224003"><ele>170.0</ele><time>2026-04-06T10:55:43.001Z</time></trkpt><trkpt lat="37.39127721742819" lon="14.631572844956752"><ele>171.0</ele><time>2026-04-06T10:55:44.001Z</time></trkpt><trkpt lat="37.391285885366536" lon="14.631687672658986"><ele>171.0</ele><time>2026-04-06T10:55:45.001Z</time></trkpt><trkpt lat="37.3912957806481" lon="14.631799733890103"><ele>171.0</ele><time>2026-04-06T10:55:46.001Z</time></trkpt><trkpt lat="37.391303319075085" lon="14.631913610001357"><ele>171.0</ele><time>2026-04-06T10:55:47.001Z</time></trkpt><trkpt lat="37.39131191074054" lon="14.632023327100466"><ele>171.0</ele><time>2026-04-06T10:55:48.001Z</time></trkpt><trkpt lat="37.3913213835512" lon="14.632130465036441"><ele>171.0</ele><time>2026-04-06T10:55:49.001Z</time></trkpt><trkpt lat="37.39132998473515" lon="14.632238940763214"><ele>171.0</ele><time>2026-04-06T10:55:50.001Z</time></trkpt><trkpt lat="37.39133901404333" lon="14.632346399369604"><ele>170.5</ele><time>2026-04-06T10:55:51.001Z</time></trkpt><trkpt lat="37.39134777428289" lon="14.632452125432522"><ele>170.0</ele><time>2026-04-06T10:55:52.001Z</time></trkpt><trkpt lat="37.391356366195126" lon="14.632557949371432"><ele>169.5</ele><time>2026-04-06T10:55:53.001Z</time></trkpt><trkpt lat="37.3913653002715" lon="14.63266592475029"><ele>169.0</ele><time>2026-04-06T10:55:54.001Z</time></trkpt><trkpt lat="37.39137512476827" lon="14.632775007015542"><ele>168.5</ele><time>2026-04-06T10:55:55.001Z</time></trkpt><trkpt lat="37.39138419859421" lon="14.632887927814396"><ele>168.0</ele><time>2026-04-06T10:55:56.001Z</time></trkpt><trkpt lat="37.39139432140403" lon="14.633000098357233"><ele>168.0</ele><time>2026-04-06T10:55:57.001Z</time></trkpt><trkpt lat="37.391403738381364" lon="14.63311201931851"><ele>168.0</ele><time>2026-04-06T10:55:58.001Z</time></trkpt><trkpt lat="37.391412589573044" lon="14.63322514300783"><ele>168.0</ele><time>2026-04-06T10:55:59.001Z</time></trkpt><trkpt lat="37.3914222961516" lon="14.63333703666608"><ele>168.0</ele><time>2026-04-06T10:56:00.001Z</time></trkpt><trkpt lat="37.39143218962184" lon="14.633450331987135"><ele>168.0</ele><time>2026-04-06T10:56:01.001Z</time></trkpt><trkpt lat="37.39144289241168" lon="14.633565594502073"><ele>168.0</ele><time>2026-04-06T10:56:02.001Z</time></trkpt><trkpt lat="37.39145154512363" lon="14.633679920788813"><ele>168.0</ele><time>2026-04-06T10:56:03.001Z</time></trkpt><trkpt lat="37.39146021603342" lon="14.633795952502515"><ele>168.0</ele><time>2026-04-06T10:56:04.001Z</time></trkpt><trkpt lat="37.39147026921693" lon="14.633910355556646"><ele>168.0</ele><time>2026-04-06T10:56:05.001Z</time></trkpt><trkpt lat="37.39148018962873" lon="14.634024417616242"><ele>168.0</ele><time>2026-04-06T10:56:06.001Z</time></trkpt><trkpt lat="37.39148975707139" lon="14.634140099637321"><ele>168.0</ele><time>2026-04-06T10:56:07.001Z</time></trkpt><trkpt lat="37.3915003288495" lon="14.634252120816333"><ele>168.0</ele><time>2026-04-06T10:56:08.001Z</time></trkpt><trkpt lat="37.39151053686155" lon="14.634365459490802"><ele>168.0</ele><time>2026-04-06T10:56:09.001Z</time></trkpt><trkpt lat="37.39152046763345" lon="14.634479320049918"><ele>168.0</ele><time>2026-04-06T10:56:10.001Z</time></trkpt><trkpt lat="37.391533778487414" lon="14.634590256655745"><ele>168.0</ele><time>2026-04-06T10:56:11.001Z</time></trkpt><trkpt lat="37.39154600337152" lon="14.634701758107346"><ele>168.5</ele><time>2026-04-06T10:56:12.001Z</time></trkpt><trkpt lat="37.39156022418889" lon="14.63481113145944"><ele>169.0</ele><time>2026-04-06T10:56:13.001Z</time></trkpt><trkpt lat="37.391574133532956" lon="14.63491938126054"><ele>169.5</ele><time>2026-04-06T10:56:14.001Z</time></trkpt><trkpt lat="37.39159019318643" lon="14.635026298967254"><ele>170.0</ele><time>2026-04-06T10:56:15.001Z</time></trkpt><trkpt lat="37.391606488311574" lon="14.635133595996242"><ele>170.5</ele><time>2026-04-06T10:56:16.001Z</time></trkpt><trkpt lat="37.391622062493624" lon="14.635240254201394"><ele>171.0</ele><time>2026-04-06T10:56:17.001Z</time></trkpt><trkpt lat="37.391639156798526" lon="14.635343967200818"><ele>171.16666666666666</ele><time>2026-04-06T10:56:18.001Z</time></trkpt><trkpt lat="37.39165387919482" lon="14.635455617903432"><ele>171.33333333333334</ele><time>2026-04-06T10:56:19.001Z</time></trkpt><trkpt lat="37.391672262111086" lon="14.635555186398985"><ele>171.5</ele><time>2026-04-06T10:56:20.001Z</time></trkpt><trkpt lat="37.391687454461454" lon="14.63566158074699"><ele>171.66666666666669</ele><time>2026-04-06T10:56:21.001Z</time></trkpt><trkpt lat="37.391705400781504" lon="14.635761416068156"><ele>171.83333333333334</ele><time>2026-04-06T10:56:22.001Z</time></trkpt><trkpt lat="37.39172061016137" lon="14.635867645515193"><ele>172.0</ele><time>2026-04-06T10:56:23.001Z</time></trkpt><trkpt lat="37.39173784972291" lon="14.6359769674063"><ele>172.0</ele><time>2026-04-06T10:56:24.001Z</time></trkpt><trkpt lat="37.39175427945966" lon="14.63608757075472"><ele>172.0</ele><time>2026-04-06T10:56:25.001Z</time></trkpt><trkpt lat="37.391770536147284" lon="14.636194806866172"><ele>172.0</ele><time>2026-04-06T10:56:26.001Z</time></trkpt><trkpt lat="37.39178520268485" lon="14.636303949488882"><ele>172.0</ele><time>2026-04-06T10:56:27.001Z</time></trkpt><trkpt lat="37.39180282610154" lon="14.636411158630054"><ele>172.0</ele><time>2026-04-06T10:56:28.001Z</time></trkpt><trkpt lat="37.391817665584114" lon="14.636522043139665"><ele>172.0</ele><time>2026-04-06T10:56:29.001Z</time></trkpt><trkpt lat="37.391835989156625" lon="14.636626149290525"><ele>172.33333333333334</ele><time>2026-04-06T10:56:30.001Z</time></trkpt><trkpt lat="37.39185016191862" lon="14.636738210657313"><ele>172.66666666666669</ele><time>2026-04-06T10:56:31.001Z</time></trkpt><trkpt lat="37.391874063740815" lon="14.636837113496862"><ele>173.0</ele><time>2026-04-06T10:56:32.001Z</time></trkpt><trkpt lat="37.39188687651036" lon="14.636950031319678"><ele>173.33333333333334</ele><time>2026-04-06T10:56:33.001Z</time></trkpt><trkpt lat="37.39190580768111" lon="14.637054555276297"><ele>173.66666666666666</ele><time>2026-04-06T10:56:34.001Z</time></trkpt><trkpt lat="37.39191873105765" lon="14.637170530974032"><ele>174.0</ele><time>2026-04-06T10:56:35.001Z</time></trkpt><trkpt lat="37.391937971596334" lon="14.63727477838686"><ele>174.6</ele><time>2026-04-06T10:56:36.001Z</time></trkpt><trkpt lat="37.39195265400432" lon="14.637386918577604"><ele>175.2</ele><time>2026-04-06T10:56:37.001Z</time></trkpt><trkpt lat="37.39197002343635" lon="14.637497772910521"><ele>175.79999999999998</ele><time>2026-04-06T10:56:38.001Z</time></trkpt><trkpt lat="37.391986581067314" lon="14.637611264009097"><ele>176.39999999999998</ele><time>2026-04-06T10:56:39.001Z</time></trkpt><trkpt lat="37.39200327121078" lon="14.637725175729296"><ele>177.0</ele><time>2026-04-06T10:56:40.001Z</time></trkpt><trkpt lat="37.39202244037254" lon="14.637837603307158"><ele>177.8</ele><time>2026-04-06T10:56:41.001Z</time></trkpt><trkpt lat="37.3920383797203" lon="14.637952426151685"><ele>178.6</ele><time>2026-04-06T10:56:42.001Z</time></trkpt><trkpt lat="37.392057009331644" lon="14.638065216808295"><ele>179.4</ele><time>2026-04-06T10:56:43.001Z</time></trkpt><trkpt lat="37.39207561308051" lon="14.638178345363757"><ele>180.20000000000002</ele><time>2026-04-06T10:56:44.001Z</time></trkpt><trkpt lat="37.39209485707567" lon="14.638292195687788"><ele>181.0</ele><time>2026-04-06T10:56:45.001Z</time></trkpt><trkpt lat="37.39211196394393" lon="14.638405706443823"><ele>181.0</ele><time>2026-04-06T10:56:46.001Z</time></trkpt><trkpt lat="37.39212890560907" lon="14.638520067791683"><ele>181.0</ele><time>2026-04-06T10:56:47.001Z</time></trkpt><trkpt lat="37.39214688849018" lon="14.63863339875735"><ele>181.0</ele><time>2026-04-06T10:56:48.001Z</time></trkpt><trkpt lat="37.39216473697492" lon="14.638747396634068"><ele>181.0</ele><time>2026-04-06T10:56:49.001Z</time></trkpt><trkpt lat="37.392183181478046" lon="14.638860852607525"><ele>181.0</ele><time>2026-04-06T10:56:50.001Z</time></trkpt><trkpt lat="37.3922014078258" lon="14.638973849634139"><ele>182.20000000000002</ele><time>2026-04-06T10:56:51.002Z</time></trkpt><trkpt lat="37.39221823171428" lon="14.639088162107312"><ele>183.4</ele><time>2026-04-06T10:56:52.002Z</time></trkpt><trkpt lat="37.39223613273299" lon="14.639202258769886"><ele>184.6</ele><time>2026-04-06T10:56:53.002Z</time></trkpt><trkpt lat="37.392254286671154" lon="14.639318241464759"><ele>185.8</ele><time>2026-04-06T10:56:54.002Z</time></trkpt><trkpt lat="37.39227273900367" lon="14.639434208403173"><ele>187.0</ele><time>2026-04-06T10:56:55.002Z</time></trkpt><trkpt lat="37.392291010421495" lon="14.6395521427054"><ele>187.0</ele><time>2026-04-06T10:56:56.002Z</time></trkpt><trkpt lat="37.39231106018254" lon="14.639666806926138"><ele>187.0</ele><time>2026-04-06T10:56:57.002Z</time></trkpt><trkpt lat="37.39233088344754" lon="14.639782768533177"><ele>187.0</ele><time>2026-04-06T10:56:58.002Z</time></trkpt><trkpt lat="37.39234963554189" lon="14.639897055336522"><ele>187.0</ele><time>2026-04-06T10:56:59.002Z</time></trkpt><trkpt lat="37.39236768322274" lon="14.640009561976512"><ele>187.0</ele><time>2026-04-06T10:57:00.002Z</time></trkpt><trkpt lat="37.392384146770574" lon="14.640122227605303"><ele>187.0</ele><time>2026-04-06T10:57:01.002Z</time></trkpt><trkpt lat="37.39240135378213" lon="14.640233923180759"><ele>187.0</ele><time>2026-04-06T10:57:02.002Z</time></trkpt><trkpt lat="37.392419486887356" lon="14.640342523122182"><ele>187.0</ele><time>2026-04-06T10:57:03.002Z</time></trkpt><trkpt lat="37.39243808404951" lon="14.640447945195808"><ele>187.0</ele><time>2026-04-06T10:57:04.002Z</time></trkpt><trkpt lat="37.392455017159804" lon="14.640553920568479"><ele>187.0</ele><time>2026-04-06T10:57:05.002Z</time></trkpt><trkpt lat="37.392471790247804" lon="14.64065748060251"><ele>187.0</ele><time>2026-04-06T10:57:06.002Z</time></trkpt><trkpt lat="37.39248768686985" lon="14.640759249656737"><ele>187.66666666666669</ele><time>2026-04-06T10:57:07.002Z</time></trkpt><trkpt lat="37.392502493099215" lon="14.640860796731165"><ele>188.33333333333334</ele><time>2026-04-06T10:57:08.002Z</time></trkpt><trkpt lat="37.39252133431459" lon="14.64095650824283"><ele>189.0</ele><time>2026-04-06T10:57:09.002Z</time></trkpt><trkpt lat="37.3925462917507" lon="14.641049384763352"><ele>189.66666666666666</ele><time>2026-04-06T10:57:10.002Z</time></trkpt><trkpt lat="37.39257636387606" lon="14.641142481307725"><ele>190.33333333333331</ele><time>2026-04-06T10:57:11.002Z</time></trkpt><trkpt lat="37.39261513589036" lon="14.641226352276506"><ele>191.0</ele><time>2026-04-06T10:57:12.002Z</time></trkpt><trkpt lat="37.392663016554245" lon="14.641300447745246"><ele>192.0</ele><time>2026-04-06T10:57:13.002Z</time></trkpt><trkpt lat="37.392718655134175" lon="14.641368392678388"><ele>193.0</ele><time>2026-04-06T10:57:14.002Z</time></trkpt><trkpt lat="37.39278427357233" lon="14.641420964155655"><ele>194.0</ele><time>2026-04-06T10:57:15.002Z</time></trkpt><trkpt lat="37.39285270621806" lon="14.641470450553827"><ele>195.0</ele><time>2026-04-06T10:57:16.002Z</time></trkpt><trkpt lat="37.39292574466313" lon="14.641508191565462"><ele>196.00000000000003</ele><time>2026-04-06T10:57:17.002Z</time></trkpt><trkpt lat="37.39300133397999" lon="14.641551466051734"><ele>197.0</ele><time>2026-04-06T10:57:18.002Z</time></trkpt><trkpt lat="37.393079542150474" lon="14.641586448376968"><ele>197.00000000000003</ele><time>2026-04-06T10:57:19.002Z</time></trkpt><trkpt lat="37.393158657406126" lon="14.641618768511156"><ele>197.0</ele><time>2026-04-06T10:57:20.002Z</time></trkpt><trkpt lat="37.393239697663134" lon="14.641652597383706"><ele>197.0</ele><time>2026-04-06T10:57:21.002Z</time></trkpt><trkpt lat="37.39331943661147" lon="14.641684022052559"><ele>197.0</ele><time>2026-04-06T10:57:22.002Z</time></trkpt><trkpt lat="37.39339916262514" lon="14.641716884747812"><ele>197.00000000000003</ele><time>2026-04-06T10:57:23.002Z</time></trkpt><trkpt lat="37.39348049127703" lon="14.641750198708955"><ele>197.0</ele><time>2026-04-06T10:57:24.002Z</time></trkpt><trkpt lat="37.39355801700181" lon="14.641781550329917"><ele>197.00000000000003</ele><time>2026-04-06T10:57:25.002Z</time></trkpt><trkpt lat="37.39363335702244" lon="14.64181230144529"><ele>197.0</ele><time>2026-04-06T10:57:26.002Z</time></trkpt><trkpt lat="37.39370685919589" lon="14.641844917671385"><ele>197.0</ele><time>2026-04-06T10:57:27.002Z</time></trkpt><trkpt lat="37.393780337944825" lon="14.641885481887485"><ele>197.0</ele><time>2026-04-06T10:57:28.002Z</time></trkpt><trkpt lat="37.393848763949535" lon="14.641928711647575"><ele>197.00000000000003</ele><time>2026-04-06T10:57:29.002Z</time></trkpt><trkpt lat="37.39391307257131" lon="14.641981710490311"><ele>197.0</ele><time>2026-04-06T10:57:30.002Z</time></trkpt><trkpt lat="37.39397141424156" lon="14.642049025709257"><ele>197.85714285714286</ele><time>2026-04-06T10:57:31.002Z</time></trkpt><trkpt lat="37.39401673922274" lon="14.642119998182444"><ele>198.71428571428572</ele><time>2026-04-06T10:57:32.002Z</time></trkpt><trkpt lat="37.39405072330932" lon="14.64219963248225"><ele>199.57142857142856</ele><time>2026-04-06T10:57:33.002Z</time></trkpt><trkpt lat="37.39407389120187" lon="14.642284759328263"><ele>200.42857142857144</ele><time>2026-04-06T10:57:34.002Z</time></trkpt><trkpt lat="37.39408495219441" lon="14.642372783114597"><ele>201.28571428571428</ele><time>2026-04-06T10:57:35.002Z</time></trkpt><trkpt lat="37.39408657035634" lon="14.642463761033063"><ele>202.14285714285714</ele><time>2026-04-06T10:57:36.002Z</time></trkpt><trkpt lat="37.394078279162095" lon="14.642557197915933"><ele>203.0</ele><time>2026-04-06T10:57:37.002Z</time></trkpt><trkpt lat="37.39405946954999" lon="14.642655424661276"><ele>203.00000000000003</ele><time>2026-04-06T10:57:38.002Z</time></trkpt><trkpt lat="37.39403936166517" lon="14.642750161026266"><ele>203.0</ele><time>2026-04-06T10:57:39.002Z</time></trkpt><trkpt lat="37.39402230512971" lon="14.642845924852633"><ele>203.0</ele><time>2026-04-06T10:57:40.002Z</time></trkpt><trkpt lat="37.394004018548046" lon="14.64294330678865"><ele>203.0</ele><time>2026-04-06T10:57:41.002Z</time></trkpt><trkpt lat="37.393987904643225" lon="14.643038850276021"><ele>203.00000000000003</ele><time>2026-04-06T10:57:42.002Z</time></trkpt><trkpt lat="37.39397085463161" lon="14.643129709217527"><ele>203.0</ele><time>2026-04-06T10:57:43.002Z</time></trkpt><trkpt lat="37.39395052947465" lon="14.643215348940348"><ele>203.14285714285714</ele><time>2026-04-06T10:57:44.002Z</time></trkpt><trkpt lat="37.39392803374767" lon="14.643296198101842"><ele>203.28571428571428</ele><time>2026-04-06T10:57:45.002Z</time></trkpt><trkpt lat="37.39390148231709" lon="14.643376773207581"><ele>203.42857142857144</ele><time>2026-04-06T10:57:46.001Z</time></trkpt><trkpt lat="37.393870667421794" lon="14.643455915132678"><ele>203.57142857142856</ele><time>2026-04-06T10:57:47.001Z</time></trkpt><trkpt lat="37.39383267185184" lon="14.643534519737644"><ele>203.71428571428572</ele><time>2026-04-06T10:57:48.001Z</time></trkpt><trkpt lat="37.393787650271406" lon="14.643610975411592"><ele>203.85714285714286</ele><time>2026-04-06T10:57:49.001Z</time></trkpt><trkpt lat="37.393733643125664" lon="14.64368442912086"><ele>204.0</ele><time>2026-04-06T10:57:50.001Z</time></trkpt><trkpt lat="37.393682983910466" lon="14.643756643989521"><ele>205.33333333333334</ele><time>2026-04-06T10:57:51.001Z</time></trkpt><trkpt lat="37.39362656852494" lon="14.643829506145975"><ele>206.66666666666669</ele><time>2026-04-06T10:57:52.001Z</time></trkpt><trkpt lat="37.393573606122395" lon="14.6439029886184"><ele>208.0</ele><time>2026-04-06T10:57:53.001Z</time></trkpt><trkpt lat="37.39351941418969" lon="14.643976453287074"><ele>209.33333333333334</ele><time>2026-04-06T10:57:54.001Z</time></trkpt><trkpt lat="37.39346519747548" lon="14.64405024499344"><ele>210.66666666666669</ele><time>2026-04-06T10:57:55.001Z</time></trkpt><trkpt lat="37.39341486582632" lon="14.644123058949976"><ele>212.0</ele><time>2026-04-06T10:57:56.001Z</time></trkpt><trkpt lat="37.3933668404977" lon="14.644198324051017"><ele>212.00000000000003</ele><time>2026-04-06T10:57:57.001Z</time></trkpt><trkpt lat="37.39332153166302" lon="14.64427580845545"><ele>212.0</ele><time>2026-04-06T10:57:58.001Z</time></trkpt><trkpt lat="37.39327941266665" lon="14.644355907965402"><ele>212.0</ele><time>2026-04-06T10:57:59.001Z</time></trkpt><trkpt lat="37.39323976669184" lon="14.644439839268458"><ele>212.0</ele><time>2026-04-06T10:58:00.001Z</time></trkpt><trkpt lat="37.39320570104599" lon="14.644530054906708"><ele>212.00000000000003</ele><time>2026-04-06T10:58:01.001Z</time></trkpt><trkpt lat="37.39318125268415" lon="14.644623068487583"><ele>212.0</ele><time>2026-04-06T10:58:02.001Z</time></trkpt><trkpt lat="37.393158800825795" lon="14.644719233281505"><ele>212.00000000000003</ele><time>2026-04-06T10:58:03.001Z</time></trkpt><trkpt lat="37.393139702949966" lon="14.64481412092765"><ele>212.0</ele><time>2026-04-06T10:58:04.001Z</time></trkpt><trkpt lat="37.39311629417044" lon="14.644915256893148"><ele>212.0</ele><time>2026-04-06T10:58:05.001Z</time></trkpt><trkpt lat="37.39310001934003" lon="14.645009616937575"><ele>212.0</ele><time>2026-04-06T10:58:06.001Z</time></trkpt><trkpt lat="37.39308179272337" lon="14.645105100367719"><ele>212.00000000000003</ele><time>2026-04-06T10:58:07.001Z</time></trkpt><trkpt lat="37.39306604875662" lon="14.6451976949378"><ele>212.0</ele><time>2026-04-06T10:58:08.001Z</time></trkpt><trkpt lat="37.39303104832048" lon="14.645305806460378"><ele>212.50000000000003</ele><time>2026-04-06T10:58:09.001Z</time></trkpt><trkpt lat="37.39303150072149" lon="14.645391480438795"><ele>213.0</ele><time>2026-04-06T10:58:10.001Z</time></trkpt><trkpt lat="37.39303167484978" lon="14.645482954499345"><ele>213.5</ele><time>2026-04-06T10:58:11.001Z</time></trkpt><trkpt lat="37.39304524840195" lon="14.64557647466381"><ele>214.0</ele><time>2026-04-06T10:58:12.001Z</time></trkpt><trkpt lat="37.393070788872784" lon="14.645667150429707"><ele>214.50000000000003</ele><time>2026-04-06T10:58:13.001Z</time></trkpt><trkpt lat="37.39310758520631" lon="14.645755205908939"><ele>215.0</ele><time>2026-04-06T10:58:14.001Z</time></trkpt><trkpt lat="37.39315122097764" lon="14.645841781042032"><ele>215.00000000000003</ele><time>2026-04-06T10:58:15.001Z</time></trkpt><trkpt lat="37.39320468785292" lon="14.645923360232263"><ele>215.0</ele><time>2026-04-06T10:58:16.001Z</time></trkpt><trkpt lat="37.393264508772475" lon="14.646002059406468"><ele>215.0</ele><time>2026-04-06T10:58:17.001Z</time></trkpt><trkpt lat="37.39332372185354" lon="14.646083573768578"><ele>215.0</ele><time>2026-04-06T10:58:18.001Z</time></trkpt><trkpt lat="37.393380664154385" lon="14.646171040357254"><ele>215.00000000000003</ele><time>2026-04-06T10:58:19.001Z</time></trkpt><trkpt lat="37.39343706604992" lon="14.646253954088118"><ele>215.0</ele><time>2026-04-06T10:58:20.001Z</time></trkpt><trkpt lat="37.393493364457605" lon="14.646335288473722"><ele>215.83333333333334</ele><time>2026-04-06T10:58:21.001Z</time></trkpt><trkpt lat="37.39354607409638" lon="14.646414458208664"><ele>216.66666666666669</ele><time>2026-04-06T10:58:22.001Z</time></trkpt><trkpt lat="37.39359836354796" lon="14.646488956225294"><ele>217.5</ele><time>2026-04-06T10:58:23.001Z</time></trkpt><trkpt lat="37.393649186463485" lon="14.646565184442132"><ele>218.33333333333331</ele><time>2026-04-06T10:58:24.001Z</time></trkpt><trkpt lat="37.39370051375986" lon="14.646639520759155"><ele>219.16666666666666</ele><time>2026-04-06T10:58:25.001Z</time></trkpt><trkpt lat="37.39375386474354" lon="14.646714313764004"><ele>220.0</ele><time>2026-04-06T10:58:26.001Z</time></trkpt><trkpt lat="37.39380759180486" lon="14.646793596618757"><ele>220.16666666666666</ele><time>2026-04-06T10:58:27.001Z</time></trkpt><trkpt lat="37.393856900419024" lon="14.646873262908448"><ele>220.33333333333331</ele><time>2026-04-06T10:58:28.001Z</time></trkpt><trkpt lat="37.39390096879707" lon="14.646958405578289"><ele>220.5</ele><time>2026-04-06T10:58:29.001Z</time></trkpt><trkpt lat="37.3939399379912" lon="14.647046305804261"><ele>220.66666666666669</ele><time>2026-04-06T10:58:30.001Z</time></trkpt><trkpt lat="37.39396814846459" lon="14.647143681045682"><ele>220.83333333333334</ele><time>2026-04-06T10:58:31.001Z</time></trkpt><trkpt lat="37.39398675087095" lon="14.647240528796294"><ele>221.0</ele><time>2026-04-06T10:58:32.001Z</time></trkpt><trkpt lat="37.39399928481584" lon="14.647341911418582"><ele>221.00000000000003</ele><time>2026-04-06T10:58:33.001Z</time></trkpt><trkpt lat="37.394009134306124" lon="14.64744272887937"><ele>221.0</ele><time>2026-04-06T10:58:34.001Z</time></trkpt><trkpt lat="37.39401973768502" lon="14.647543831106217"><ele>221.0</ele><time>2026-04-06T10:58:35.001Z</time></trkpt><trkpt lat="37.394032950123716" lon="14.647642268019872"><ele>221.0</ele><time>2026-04-06T10:58:36.001Z</time></trkpt><trkpt lat="37.39404809974287" lon="14.647738935474381"><ele>221.00000000000003</ele><time>2026-04-06T10:58:37.001Z</time></trkpt><trkpt lat="37.39406258560186" lon="14.64783623244833"><ele>221.0</ele><time>2026-04-06T10:58:38.001Z</time></trkpt><trkpt lat="37.39407950384725" lon="14.647929771340026"><ele>221.14285714285717</ele><time>2026-04-06T10:58:39.001Z</time></trkpt><trkpt lat="37.394104335062536" lon="14.64801654965258"><ele>221.28571428571428</ele><time>2026-04-06T10:58:40.001Z</time></trkpt><trkpt lat="37.39414341966552" lon="14.648099728621602"><ele>221.42857142857144</ele><time>2026-04-06T10:58:41.001Z</time></trkpt><trkpt lat="37.39419414200301" lon="14.648173680063012"><ele>221.57142857142858</ele><time>2026-04-06T10:58:42.001Z</time></trkpt><trkpt lat="37.394244376933905" lon="14.648240406487059"><ele>221.71428571428572</ele><time>2026-04-06T10:58:43.001Z</time></trkpt><trkpt lat="37.39429239932365" lon="14.648308011641266"><ele>221.85714285714286</ele><time>2026-04-06T10:58:44.001Z</time></trkpt><trkpt lat="37.3943421416314" lon="14.648369434720891"><ele>222.0</ele><time>2026-04-06T10:58:45.001Z</time></trkpt><trkpt lat="37.39443553728279" lon="14.648482776388942"><ele>222.0</ele><time>2026-04-06T10:58:47.001Z</time></trkpt><trkpt lat="37.394480377501324" lon="14.648541504121539"><ele>222.0</ele><time>2026-04-06T10:58:48.001Z</time></trkpt><trkpt lat="37.39452809588947" lon="14.648600137372002"><ele>222.0</ele><time>2026-04-06T10:58:49.001Z</time></trkpt><trkpt lat="37.394578590027145" lon="14.6486596591412"><ele>222.0</ele><time>2026-04-06T10:58:50.001Z</time></trkpt><trkpt lat="37.39463477397014" lon="14.648722589531"><ele>222.0</ele><time>2026-04-06T10:58:51.001Z</time></trkpt><trkpt lat="37.39468986154184" lon="14.648785576722723"><ele>222.0</ele><time>2026-04-06T10:58:52.001Z</time></trkpt><trkpt lat="37.39474779954991" lon="14.648849260204925"><ele>222.0</ele><time>2026-04-06T10:58:53.001Z</time></trkpt><trkpt lat="37.39480415662825" lon="14.648916454606454"><ele>222.5</ele><time>2026-04-06T10:58:54.001Z</time></trkpt><trkpt lat="37.39486186994808" lon="14.64898530782911"><ele>223.0</ele><time>2026-04-06T10:58:55.001Z</time></trkpt><trkpt lat="37.39491506448301" lon="14.649050271510335"><ele>223.5</ele><time>2026-04-06T10:58:56.001Z</time></trkpt><trkpt lat="37.39496839077602" lon="14.649117715582893"><ele>224.0</ele><time>2026-04-06T10:58:57.001Z</time></trkpt><trkpt lat="37.395018567890816" lon="14.649183139076994"><ele>224.5</ele><time>2026-04-06T10:58:58.001Z</time></trkpt><trkpt lat="37.3950699163443" lon="14.649253315826698"><ele>225.0</ele><time>2026-04-06T10:58:59.001Z</time></trkpt><trkpt lat="37.39511624093118" lon="14.649325975923098"><ele>225.0</ele><time>2026-04-06T10:59:00.001Z</time></trkpt><trkpt lat="37.39516527772395" lon="14.649398827168278"><ele>225.0</ele><time>2026-04-06T10:59:01.001Z</time></trkpt><trkpt lat="37.39521223823171" lon="14.64947396762185"><ele>225.0</ele><time>2026-04-06T10:59:02.001Z</time></trkpt><trkpt lat="37.39525923820772" lon="14.649548829586232"><ele>225.0</ele><time>2026-04-06T10:59:03.002Z</time></trkpt><trkpt lat="37.395308531406144" lon="14.649625933059799"><ele>225.0</ele><time>2026-04-06T10:59:04.002Z</time></trkpt><trkpt lat="37.39536078913275" lon="14.649706923211978"><ele>225.0</ele><time>2026-04-06T10:59:05.002Z</time></trkpt><trkpt lat="37.395411155135925" lon="14.649785385045742"><ele>225.33333333333334</ele><time>2026-04-06T10:59:06.002Z</time></trkpt><trkpt lat="37.39546003252013" lon="14.649865197086704"><ele>225.66666666666669</ele><time>2026-04-06T10:59:07.002Z</time></trkpt><trkpt lat="37.395507644608365" lon="14.649942989512759"><ele>226.0</ele><time>2026-04-06T10:59:08.002Z</time></trkpt><trkpt lat="37.39555567800119" lon="14.650021861625223"><ele>226.33333333333334</ele><time>2026-04-06T10:59:09.002Z</time></trkpt><trkpt lat="37.39560349196954" lon="14.650101444597684"><ele>226.66666666666669</ele><time>2026-04-06T10:59:10.002Z</time></trkpt><trkpt lat="37.3956523834584" lon="14.650181508606954"><ele>227.0</ele><time>2026-04-06T10:59:11.002Z</time></trkpt><trkpt lat="37.39569805943754" lon="14.65025809751222"><ele>227.16666666666669</ele><time>2026-04-06T10:59:12.002Z</time></trkpt><trkpt lat="37.39574585039976" lon="14.650335036924442"><ele>227.33333333333334</ele><time>2026-04-06T10:59:13.002Z</time></trkpt><trkpt lat="37.395796377423146" lon="14.650416564174565"><ele>227.5</ele><time>2026-04-06T10:59:14.002Z</time></trkpt><trkpt lat="37.39584504378805" lon="14.650494286849646"><ele>227.66666666666669</ele><time>2026-04-06T10:59:15.002Z</time></trkpt><trkpt lat="37.3958956053255" lon="14.650574570306519"><ele>227.83333333333334</ele><time>2026-04-06T10:59:16.002Z</time></trkpt><trkpt lat="37.39594746563174" lon="14.650657491926566"><ele>228.0</ele><time>2026-04-06T10:59:17.002Z</time></trkpt><trkpt lat="37.39599644456862" lon="14.650735383615284"><ele>228.0</ele><time>2026-04-06T10:59:18.002Z</time></trkpt><trkpt lat="37.396046827637214" lon="14.65081769813799"><ele>228.0</ele><time>2026-04-06T10:59:19.002Z</time></trkpt><trkpt lat="37.39609681593398" lon="14.650899093937234"><ele>228.0</ele><time>2026-04-06T10:59:20.002Z</time></trkpt><trkpt lat="37.39614745989541" lon="14.650982616583345"><ele>228.0</ele><time>2026-04-06T10:59:21.002Z</time></trkpt><trkpt lat="37.396200066539684" lon="14.651066548735068"><ele>228.0</ele><time>2026-04-06T10:59:22.002Z</time></trkpt><trkpt lat="37.39625484309361" lon="14.651148722704503"><ele>228.0</ele><time>2026-04-06T10:59:23.002Z</time></trkpt><trkpt lat="37.396306383811655" lon="14.651230896568554"><ele>228.0</ele><time>2026-04-06T10:59:24.002Z</time></trkpt><trkpt lat="37.39635569209021" lon="14.651311180473108"><ele>228.0</ele><time>2026-04-06T10:59:25.002Z</time></trkpt><trkpt lat="37.39640640668379" lon="14.651395546240556"><ele>228.0</ele><time>2026-04-06T10:59:26.002Z</time></trkpt><trkpt lat="37.396454489960945" lon="14.651475758521714"><ele>228.0</ele><time>2026-04-06T10:59:27.002Z</time></trkpt><trkpt lat="37.39649945169159" lon="14.651557338069995"><ele>228.0</ele><time>2026-04-06T10:59:28.002Z</time></trkpt><trkpt lat="37.39654272435869" lon="14.65164434263917"><ele>228.0</ele><time>2026-04-06T10:59:29.002Z</time></trkpt><trkpt lat="37.39658252968897" lon="14.651730424335536"><ele>228.0</ele><time>2026-04-06T10:59:30.002Z</time></trkpt><trkpt lat="37.39661884813915" lon="14.65182430626748"><ele>228.0</ele><time>2026-04-06T10:59:31.002Z</time></trkpt><trkpt lat="37.396651274501416" lon="14.651920942326072"><ele>228.0</ele><time>2026-04-06T10:59:32.002Z</time></trkpt><trkpt lat="37.39668076637358" lon="14.652020973006781"><ele>228.0</ele><time>2026-04-06T10:59:33.002Z</time></trkpt><trkpt lat="37.39671130139303" lon="14.652118524908415"><ele>228.0</ele><time>2026-04-06T10:59:34.002Z</time></trkpt><trkpt lat="37.39674137052588" lon="14.652220660270277"><ele>228.0</ele><time>2026-04-06T10:59:35.002Z</time></trkpt><trkpt lat="37.396771454034806" lon="14.652320064868821"><ele>228.83333333333334</ele><time>2026-04-06T10:59:36.002Z</time></trkpt><trkpt lat="37.39680265605483" lon="14.65242140676725"><ele>229.66666666666669</ele><time>2026-04-06T10:59:37.002Z</time></trkpt><trkpt lat="37.39683180512554" lon="14.652524595993077"><ele>230.5</ele><time>2026-04-06T10:59:38.002Z</time></trkpt><trkpt lat="37.39686197184501" lon="14.652624500529143"><ele>231.33333333333334</ele><time>2026-04-06T10:59:39.002Z</time></trkpt><trkpt lat="37.39689305156987" lon="14.652728767125069"><ele>232.16666666666669</ele><time>2026-04-06T10:59:40.002Z</time></trkpt><trkpt lat="37.39692426502236" lon="14.65283181483239"><ele>233.0</ele><time>2026-04-06T10:59:41.002Z</time></trkpt><trkpt lat="37.39695333786997" lon="14.652933404315462"><ele>233.50000000000003</ele><time>2026-04-06T10:59:42.002Z</time></trkpt><trkpt lat="37.39698322173534" lon="14.653034933543097"><ele>234.0</ele><time>2026-04-06T10:59:43.002Z</time></trkpt><trkpt lat="37.397011093483464" lon="14.653138165560868"><ele>234.5</ele><time>2026-04-06T10:59:44.002Z</time></trkpt><trkpt lat="37.39703829440231" lon="14.65323965330194"><ele>235.0</ele><time>2026-04-06T10:59:45.002Z</time></trkpt><trkpt lat="37.397066537670675" lon="14.653342090820367"><ele>235.50000000000003</ele><time>2026-04-06T10:59:46.002Z</time></trkpt><trkpt lat="37.39709569270078" lon="14.653444688651197"><ele>236.0</ele><time>2026-04-06T10:59:47.002Z</time></trkpt><trkpt lat="37.39712475998938" lon="14.653543799121225"><ele>236.50000000000003</ele><time>2026-04-06T10:59:48.002Z</time></trkpt><trkpt lat="37.397153630274516" lon="14.653644802610234"><ele>237.0</ele><time>2026-04-06T10:59:49.002Z</time></trkpt><trkpt lat="37.397183313615514" lon="14.653746235462094"><ele>237.5</ele><time>2026-04-06T10:59:50.002Z</time></trkpt><trkpt lat="37.39721380062754" lon="14.653848718716949"><ele>238.0</ele><time>2026-04-06T10:59:51.002Z</time></trkpt><trkpt lat="37.397242953399086" lon="14.653953819213001"><ele>238.50000000000003</ele><time>2026-04-06T10:59:52.001Z</time></trkpt><trkpt lat="37.39727270232866" lon="14.654059598967084"><ele>239.0</ele><time>2026-04-06T10:59:53.001Z</time></trkpt><trkpt lat="37.39730384283377" lon="14.654164493050054"><ele>238.33333333333334</ele><time>2026-04-06T10:59:54.001Z</time></trkpt><trkpt lat="37.39733294859095" lon="14.654262101641322"><ele>237.66666666666669</ele><time>2026-04-06T10:59:55.001Z</time></trkpt><trkpt lat="37.39736303247217" lon="14.654363339400328"><ele>237.0</ele><time>2026-04-06T10:59:56.001Z</time></trkpt><trkpt lat="37.39739543123315" lon="14.654463611277416"><ele>236.33333333333331</ele><time>2026-04-06T10:59:57.001Z</time></trkpt><trkpt lat="37.397430559279655" lon="14.654564530470932"><ele>235.66666666666666</ele><time>2026-04-06T10:59:58.001Z</time></trkpt><trkpt lat="37.397466970694225" lon="14.654670398244154"><ele>235.0</ele><time>2026-04-06T10:59:59.001Z</time></trkpt><trkpt lat="37.39750059185846" lon="14.654770163538913"><ele>234.99999999999997</ele><time>2026-04-06T11:00:00.001Z</time></trkpt><trkpt lat="37.39753244796282" lon="14.654876040480966"><ele>235.0</ele><time>2026-04-06T11:00:01.001Z</time></trkpt><trkpt lat="37.39755800525177" lon="14.654975840803603"><ele>235.0</ele><time>2026-04-06T11:00:02.001Z</time></trkpt><trkpt lat="37.39758075985847" lon="14.655086878673313"><ele>235.0</ele><time>2026-04-06T11:00:03.001Z</time></trkpt><trkpt lat="37.39760099561275" lon="14.65519236953682"><ele>234.99999999999997</ele><time>2026-04-06T11:00:04.001Z</time></trkpt><trkpt lat="37.397616367288315" lon="14.65529349874416"><ele>235.0</ele><time>2026-04-06T11:00:05.001Z</time></trkpt><trkpt lat="37.39762894870208" lon="14.655401695637405"><ele>235.66666666666666</ele><time>2026-04-06T11:00:06.001Z</time></trkpt><trkpt lat="37.397632409793495" lon="14.655503486003026"><ele>236.33333333333331</ele><time>2026-04-06T11:00:07.001Z</time></trkpt><trkpt lat="37.39762870348882" lon="14.655611654423854"><ele>237.0</ele><time>2026-04-06T11:00:08.001Z</time></trkpt><trkpt lat="37.397621318822274" lon="14.655718998127638"><ele>237.66666666666669</ele><time>2026-04-06T11:00:09.001Z</time></trkpt><trkpt lat="37.39761309534844" lon="14.65582589260708"><ele>238.33333333333334</ele><time>2026-04-06T11:00:10.001Z</time></trkpt><trkpt lat="37.39760503248418" lon="14.655930926312628"><ele>239.0</ele><time>2026-04-06T11:00:11.001Z</time></trkpt><trkpt lat="37.39759800767637" lon="14.656032061469542"><ele>238.66666666666669</ele><time>2026-04-06T11:00:12.001Z</time></trkpt><trkpt lat="37.397592894070506" lon="14.656136773863983"><ele>238.33333333333334</ele><time>2026-04-06T11:00:13.001Z</time></trkpt><trkpt lat="37.397588452082665" lon="14.656239096186662"><ele>238.0</ele><time>2026-04-06T11:00:14.001Z</time></trkpt><trkpt lat="37.39758397662663" lon="14.656337123845573"><ele>237.66666666666669</ele><time>2026-04-06T11:00:15.001Z</time></trkpt><trkpt lat="37.397580219965796" lon="14.656434207468575"><ele>237.33333333333334</ele><time>2026-04-06T11:00:16.001Z</time></trkpt><trkpt lat="37.397578645210615" lon="14.656518375056658"><ele>237.0</ele><time>2026-04-06T11:00:17.001Z</time></trkpt><trkpt lat="37.39758027573449" lon="14.656600409359173"><ele>237.0</ele><time>2026-04-06T11:00:18.001Z</time></trkpt><trkpt lat="37.39758337938952" lon="14.656730938076402"><ele>237.0</ele><time>2026-04-06T11:00:20.001Z</time></trkpt><trkpt lat="37.3975934302311" lon="14.656839964521987"><ele>237.0</ele><time>2026-04-06T11:00:22.001Z</time></trkpt><trkpt lat="37.39760520547797" lon="14.656928813964123"><ele>237.0</ele><time>2026-04-06T11:00:24.001Z</time></trkpt><trkpt lat="37.397624154030304" lon="14.657044467813845"><ele>237.0</ele><time>2026-04-06T11:00:27.001Z</time></trkpt><trkpt lat="37.39765225067829" lon="14.657123578093598"><ele>237.0</ele><time>2026-04-06T11:00:30.001Z</time></trkpt><trkpt lat="37.39768343675077" lon="14.657193623036848"><ele>237.5</ele><time>2026-04-06T11:00:32.001Z</time></trkpt><trkpt lat="37.39771380111586" lon="14.65727335034161"><ele>238.0</ele><time>2026-04-06T11:00:34.001Z</time></trkpt><trkpt lat="37.397759154303564" lon="14.657385319102998"><ele>238.5</ele><time>2026-04-06T11:00:36.001Z</time></trkpt><trkpt lat="37.39780765122655" lon="14.6575219379143"><ele>239.0</ele><time>2026-04-06T11:00:38.001Z</time></trkpt><trkpt lat="37.397832235217344" lon="14.65760232758684"><ele>239.5</ele><time>2026-04-06T11:00:39.001Z</time></trkpt><trkpt lat="37.39785723645779" lon="14.657687489264742"><ele>240.0</ele><time>2026-04-06T11:00:40.001Z</time></trkpt><trkpt lat="37.39788387771074" lon="14.657777042213457"><ele>239.85714285714286</ele><time>2026-04-06T11:00:41.001Z</time></trkpt><trkpt lat="37.39791157621492" lon="14.657867757435938"><ele>239.71428571428572</ele><time>2026-04-06T11:00:42.001Z</time></trkpt><trkpt lat="37.39793841787824" lon="14.6579542452448"><ele>239.57142857142858</ele><time>2026-04-06T11:00:43.001Z</time></trkpt><trkpt lat="37.39796338588969" lon="14.658038122841353"><ele>239.42857142857144</ele><time>2026-04-06T11:00:44.001Z</time></trkpt><trkpt lat="37.39798884563572" lon="14.658123254566721"><ele>239.28571428571428</ele><time>2026-04-06T11:00:45.001Z</time></trkpt><trkpt lat="37.398017968461275" lon="14.658208300221826"><ele>239.14285714285717</ele><time>2026-04-06T11:00:46.001Z</time></trkpt><trkpt lat="37.39804843996166" lon="14.658290777857548"><ele>239.00000000000003</ele><time>2026-04-06T11:00:47.001Z</time></trkpt><trkpt lat="37.39808086445668" lon="14.658375919486241"><ele>238.66666666666669</ele><time>2026-04-06T11:00:48.001Z</time></trkpt><trkpt lat="37.39811231946563" lon="14.658462640222679"><ele>238.33333333333334</ele><time>2026-04-06T11:00:49.001Z</time></trkpt><trkpt lat="37.39814494945872" lon="14.658557373602365"><ele>238.0</ele><time>2026-04-06T11:00:50.001Z</time></trkpt><trkpt lat="37.39818068808244" lon="14.658655347944824"><ele>237.66666666666669</ele><time>2026-04-06T11:00:51.001Z</time></trkpt><trkpt lat="37.3982172477623" lon="14.658751894817739"><ele>237.33333333333334</ele><time>2026-04-06T11:00:52.001Z</time></trkpt><trkpt lat="37.39825070862609" lon="14.658849304348504"><ele>237.0</ele><time>2026-04-06T11:00:53.001Z</time></trkpt><trkpt lat="37.398277768517744" lon="14.65894577959306"><ele>237.0</ele><time>2026-04-06T11:00:54.001Z</time></trkpt><trkpt lat="37.39829782476957" lon="14.659043555325917"><ele>237.0</ele><time>2026-04-06T11:00:55.001Z</time></trkpt><trkpt lat="37.398309100399175" lon="14.659143482680712"><ele>237.0</ele><time>2026-04-06T11:00:56.001Z</time></trkpt><trkpt lat="37.39831421297671" lon="14.659245367370044"><ele>237.0</ele><time>2026-04-06T11:00:57.001Z</time></trkpt><trkpt lat="37.398317201440065" lon="14.659346150282891"><ele>237.0</ele><time>2026-04-06T11:00:58.001Z</time></trkpt><trkpt lat="37.398316784497155" lon="14.659452626936782"><ele>237.0</ele><time>2026-04-06T11:00:59.001Z</time></trkpt><trkpt lat="37.3983167636065" lon="14.65955572988023"><ele>238.39999999999998</ele><time>2026-04-06T11:01:00.001Z</time></trkpt><trkpt lat="37.39831959702455" lon="14.659757509673625"><ele>239.79999999999998</ele><time>2026-04-06T11:01:02.001Z</time></trkpt><trkpt lat="37.39832081308061" lon="14.659862885888906"><ele>241.2</ele><time>2026-04-06T11:01:03.001Z</time></trkpt><trkpt lat="37.398321089423916" lon="14.659956849077897"><ele>242.6</ele><time>2026-04-06T11:01:04.001Z</time></trkpt><trkpt lat="37.398323880202604" lon="14.660053418221345"><ele>244.0</ele><time>2026-04-06T11:01:05.001Z</time></trkpt><trkpt lat="37.398327549360964" lon="14.6601545617555"><ele>243.99999999999997</ele><time>2026-04-06T11:01:06.001Z</time></trkpt><trkpt lat="37.398330613468936" lon="14.66025610675938"><ele>244.0</ele><time>2026-04-06T11:01:07.001Z</time></trkpt><trkpt lat="37.39833202153134" lon="14.660357944389244"><ele>244.0</ele><time>2026-04-06T11:01:08.001Z</time></trkpt><trkpt lat="37.3983338522052" lon="14.660460749370753"><ele>244.0</ele><time>2026-04-06T11:01:09.001Z</time></trkpt><trkpt lat="37.398336917221314" lon="14.660562251749681"><ele>243.99999999999997</ele><time>2026-04-06T11:01:10.001Z</time></trkpt><trkpt lat="37.398338737230134" lon="14.660664272150617"><ele>244.0</ele><time>2026-04-06T11:01:11.001Z</time></trkpt><trkpt lat="37.3983400415049" lon="14.660768422810376"><ele>244.99999999999997</ele><time>2026-04-06T11:01:12.001Z</time></trkpt><trkpt lat="37.39833898908485" lon="14.66087202711964"><ele>246.0</ele><time>2026-04-06T11:01:13.001Z</time></trkpt><trkpt lat="37.398334722435116" lon="14.660977522236315"><ele>247.0</ele><time>2026-04-06T11:01:14.001Z</time></trkpt><trkpt lat="37.39832431728849" lon="14.661082720489055"><ele>248.0</ele><time>2026-04-06T11:01:15.001Z</time></trkpt><trkpt lat="37.398308434697775" lon="14.661180554315525"><ele>248.99999999999997</ele><time>2026-04-06T11:01:16.001Z</time></trkpt><trkpt lat="37.39828651713956" lon="14.661276768176611"><ele>250.0</ele><time>2026-04-06T11:01:17.001Z</time></trkpt><trkpt lat="37.39825500897273" lon="14.661373943350172"><ele>249.99999999999997</ele><time>2026-04-06T11:01:18.002Z</time></trkpt><trkpt lat="37.39822066252288" lon="14.661466925447725"><ele>250.0</ele><time>2026-04-06T11:01:19.002Z</time></trkpt><trkpt lat="37.398184387699835" lon="14.661558141574218"><ele>250.0</ele><time>2026-04-06T11:01:20.002Z</time></trkpt><trkpt lat="37.398146409209055" lon="14.66165018476901"><ele>250.0</ele><time>2026-04-06T11:01:21.002Z</time></trkpt><trkpt lat="37.39810809556274" lon="14.661741176044776"><ele>249.99999999999997</ele><time>2026-04-06T11:01:22.002Z</time></trkpt><trkpt lat="37.398070587177294" lon="14.661835394933195"><ele>250.0</ele><time>2026-04-06T11:01:23.002Z</time></trkpt><trkpt lat="37.3980386613734" lon="14.661929579096762"><ele>249.83333333333331</ele><time>2026-04-06T11:01:24.002Z</time></trkpt><trkpt lat="37.398012485969645" lon="14.662030663818033"><ele>249.66666666666666</ele><time>2026-04-06T11:01:25.002Z</time></trkpt><trkpt lat="37.39799453587593" lon="14.662138647638953"><ele>249.5</ele><time>2026-04-06T11:01:26.002Z</time></trkpt><trkpt lat="37.39798625368106" lon="14.662246684811473"><ele>249.33333333333331</ele><time>2026-04-06T11:01:27.002Z</time></trkpt><trkpt lat="37.39798182741277" lon="14.662358208268913"><ele>249.16666666666666</ele><time>2026-04-06T11:01:28.002Z</time></trkpt><trkpt lat="37.397976586459606" lon="14.662473448090996"><ele>249.0</ele><time>2026-04-06T11:01:29.002Z</time></trkpt><trkpt lat="37.397971117712544" lon="14.662588757323082"><ele>252.39999999999998</ele><time>2026-04-06T11:01:30.002Z</time></trkpt><trkpt lat="37.3979659067433" lon="14.662702527262098"><ele>255.79999999999998</ele><time>2026-04-06T11:01:31.002Z</time></trkpt><trkpt lat="37.39796322640426" lon="14.662817543072629"><ele>259.20000000000005</ele><time>2026-04-06T11:01:32.002Z</time></trkpt><trkpt lat="37.397961268444725" lon="14.662931973504776"><ele>262.6</ele><time>2026-04-06T11:01:33.002Z</time></trkpt><trkpt lat="37.3979606774797" lon="14.66304514362302"><ele>266.0</ele><time>2026-04-06T11:01:34.002Z</time></trkpt><trkpt lat="37.397959906763724" lon="14.663159654547249"><ele>266.5</ele><time>2026-04-06T11:01:35.002Z</time></trkpt><trkpt lat="37.3979556300477" lon="14.663271417172584"><ele>267.0</ele><time>2026-04-06T11:01:36.002Z</time></trkpt><trkpt lat="37.397946150371205" lon="14.663383232700184"><ele>267.5</ele><time>2026-04-06T11:01:37.002Z</time></trkpt><trkpt lat="37.39793010505978" lon="14.663495573324454"><ele>268.0</ele><time>2026-04-06T11:01:38.002Z</time></trkpt><trkpt lat="37.397907561647116" lon="14.663606760422846"><ele>268.5</ele><time>2026-04-06T11:01:39.002Z</time></trkpt><trkpt lat="37.39788232155379" lon="14.663711126338985"><ele>269.0</ele><time>2026-04-06T11:01:40.002Z</time></trkpt><trkpt lat="37.39785335630953" lon="14.663811400540348"><ele>269.0</ele><time>2026-04-06T11:01:41.002Z</time></trkpt><trkpt lat="37.397820586248635" lon="14.663910800434577"><ele>269.0</ele><time>2026-04-06T11:01:42.002Z</time></trkpt><trkpt lat="37.3977824578777" lon="14.664007940662836"><ele>269.0</ele><time>2026-04-06T11:01:43.002Z</time></trkpt><trkpt lat="37.397748623925324" lon="14.66409570662837"><ele>269.0</ele><time>2026-04-06T11:01:44.002Z</time></trkpt><trkpt lat="37.397713626512925" lon="14.66416910276229"><ele>269.0</ele><time>2026-04-06T11:01:45.002Z</time></trkpt><trkpt lat="37.39767489732303" lon="14.66423569924521"><ele>269.0</ele><time>2026-04-06T11:01:46.002Z</time></trkpt><trkpt lat="37.39762750296332" lon="14.66429776125423"><ele>269.0</ele><time>2026-04-06T11:01:47.002Z</time></trkpt><trkpt lat="37.39757754058875" lon="14.664347135226802"><ele>269.0</ele><time>2026-04-06T11:01:48.002Z</time></trkpt><trkpt lat="37.39752041721425" lon="14.664386305138084"><ele>269.0</ele><time>2026-04-06T11:01:49.002Z</time></trkpt><trkpt lat="37.39746270050892" lon="14.664422720519338"><ele>269.0</ele><time>2026-04-06T11:01:50.002Z</time></trkpt><trkpt lat="37.3973529870272" lon="14.664478752886854"><ele>269.0</ele><time>2026-04-06T11:01:52.002Z</time></trkpt><trkpt lat="37.3972524837834" lon="14.664526638126402"><ele>269.0</ele><time>2026-04-06T11:01:54.002Z</time></trkpt><trkpt lat="37.39715968368139" lon="14.66457064623843"><ele>269.8</ele><time>2026-04-06T11:01:56.002Z</time></trkpt><trkpt lat="37.39707156230417" lon="14.664615329590193"><ele>270.59999999999997</ele><time>2026-04-06T11:01:58.001Z</time></trkpt><trkpt lat="37.39698208642445" lon="14.664664544938642"><ele>271.4</ele><time>2026-04-06T11:02:00.001Z</time></trkpt><trkpt lat="37.396888576596375" lon="14.664717990357165"><ele>272.2</ele><time>2026-04-06T11:02:02.001Z</time></trkpt><trkpt lat="37.3967929582111" lon="14.664777751670377"><ele>273.0</ele><time>2026-04-06T11:02:04.001Z</time></trkpt><trkpt lat="37.39670509691926" lon="14.664842754155291"><ele>273.0</ele><time>2026-04-06T11:02:06.001Z</time></trkpt><trkpt lat="37.39662835515272" lon="14.664919761046129"><ele>273.0</ele><time>2026-04-06T11:02:08.001Z</time></trkpt><trkpt lat="37.3965702304552" lon="14.66501481463656"><ele>273.0</ele><time>2026-04-06T11:02:10.001Z</time></trkpt><trkpt lat="37.396533107998856" lon="14.665138840991798"><ele>273.0</ele><time>2026-04-06T11:02:12.001Z</time></trkpt><trkpt lat="37.396515164297796" lon="14.665291556390581"><ele>273.0</ele><time>2026-04-06T11:02:14.001Z</time></trkpt><trkpt lat="37.396509433190296" lon="14.665371970041788"><ele>272.57142857142856</ele><time>2026-04-06T11:02:15.001Z</time></trkpt><trkpt lat="37.39650417921945" lon="14.665458345990546"><ele>272.1428571428571</ele><time>2026-04-06T11:02:16.001Z</time></trkpt><trkpt lat="37.396497965202194" lon="14.665547240417595"><ele>271.7142857142857</ele><time>2026-04-06T11:02:17.001Z</time></trkpt><trkpt lat="37.396493040458054" lon="14.665634524731757"><ele>271.2857142857143</ele><time>2026-04-06T11:02:18.001Z</time></trkpt><trkpt lat="37.39648627684512" lon="14.665725672023605"><ele>270.85714285714283</ele><time>2026-04-06T11:02:19.001Z</time></trkpt><trkpt lat="37.396476428178275" lon="14.66582268900066"><ele>270.42857142857144</ele><time>2026-04-06T11:02:20.001Z</time></trkpt><trkpt lat="37.39646525447214" lon="14.665923526974533"><ele>270.0</ele><time>2026-04-06T11:02:21.001Z</time></trkpt><trkpt lat="37.396454623971536" lon="14.666026711077455"><ele>270.5</ele><time>2026-04-06T11:02:22.001Z</time></trkpt><trkpt lat="37.39644215245646" lon="14.666131013996505"><ele>271.0</ele><time>2026-04-06T11:02:23.001Z</time></trkpt><trkpt lat="37.396429189722085" lon="14.666233629904145"><ele>271.5</ele><time>2026-04-06T11:02:24.001Z</time></trkpt><trkpt lat="37.39641531256861" lon="14.666339655043563"><ele>272.0</ele><time>2026-04-06T11:02:25.001Z</time></trkpt><trkpt lat="37.39640166761388" lon="14.666449752770127"><ele>272.5</ele><time>2026-04-06T11:02:26.001Z</time></trkpt><trkpt lat="37.396388851939406" lon="14.66656081693287"><ele>273.0</ele><time>2026-04-06T11:02:27.001Z</time></trkpt><trkpt lat="37.3963773045055" lon="14.666672828684375"><ele>273.0</ele><time>2026-04-06T11:02:28.001Z</time></trkpt><trkpt lat="37.39636440231931" lon="14.666793006221742"><ele>273.0</ele><time>2026-04-06T11:02:29.001Z</time></trkpt><trkpt lat="37.39635169625041" lon="14.66691834742159"><ele>273.0</ele><time>2026-04-06T11:02:30.001Z</time></trkpt><trkpt lat="37.39633942864601" lon="14.667045779283269"><ele>273.0</ele><time>2026-04-06T11:02:31.001Z</time></trkpt><trkpt lat="37.396354731938956" lon="14.667198860255704"><ele>273.0</ele><time>2026-04-06T11:02:33.001Z</time></trkpt><trkpt lat="37.396372086299024" lon="14.667297135843185"><ele>274.0</ele><time>2026-04-06T11:02:34.001Z</time></trkpt><trkpt lat="37.396393529681625" lon="14.667399541854694"><ele>275.0</ele><time>2026-04-06T11:02:35.001Z</time></trkpt><trkpt lat="37.396423538520196" lon="14.667495683251756"><ele>276.0</ele><time>2026-04-06T11:02:36.001Z</time></trkpt><trkpt lat="37.396463802050015" lon="14.66758928207786"><ele>277.0</ele><time>2026-04-06T11:02:37.001Z</time></trkpt><trkpt lat="37.39650209866231" lon="14.667687903382115"><ele>278.0</ele><time>2026-04-06T11:02:38.001Z</time></trkpt><trkpt lat="37.3965341170396" lon="14.667792783003819"><ele>279.0</ele><time>2026-04-06T11:02:39.001Z</time></trkpt><trkpt lat="37.396570232476485" lon="14.66789369540252"><ele>280.0</ele><time>2026-04-06T11:02:40.001Z</time></trkpt><trkpt lat="37.3966048846346" lon="14.667999876641945"><ele>281.0</ele><time>2026-04-06T11:02:41.001Z</time></trkpt><trkpt lat="37.39664087677224" lon="14.66810236190134"><ele>282.0</ele><time>2026-04-06T11:02:42.001Z</time></trkpt><trkpt lat="37.39667639833924" lon="14.668209729956002"><ele>283.0</ele><time>2026-04-06T11:02:43.001Z</time></trkpt><trkpt lat="37.39671338985557" lon="14.668315667991056"><ele>284.0</ele><time>2026-04-06T11:02:44.001Z</time></trkpt><trkpt lat="37.39674698939135" lon="14.668426415625714"><ele>284.0</ele><time>2026-04-06T11:02:45.001Z</time></trkpt><trkpt lat="37.39678528684725" lon="14.668530509252854"><ele>284.0</ele><time>2026-04-06T11:02:46.001Z</time></trkpt><trkpt lat="37.39682100413741" lon="14.668633765540452"><ele>284.0</ele><time>2026-04-06T11:02:47.001Z</time></trkpt><trkpt lat="37.396861369332555" lon="14.668742225953123"><ele>284.0</ele><time>2026-04-06T11:02:48.001Z</time></trkpt><trkpt lat="37.39689763384822" lon="14.668845629117005"><ele>284.0</ele><time>2026-04-06T11:02:49.001Z</time></trkpt><trkpt lat="37.39693407632635" lon="14.66895451523287"><ele>284.5</ele><time>2026-04-06T11:02:50.001Z</time></trkpt><trkpt lat="37.396965931990295" lon="14.669059006256228"><ele>285.0</ele><time>2026-04-06T11:02:51.001Z</time></trkpt><trkpt lat="37.39699853332088" lon="14.669169421489102"><ele>285.5</ele><time>2026-04-06T11:02:52.001Z</time></trkpt><trkpt lat="37.39702278089107" lon="14.66927477413558"><ele>286.0</ele><time>2026-04-06T11:02:53.001Z</time></trkpt><trkpt lat="37.39704238560674" lon="14.669382473012973"><ele>286.5</ele><time>2026-04-06T11:02:54.001Z</time></trkpt><trkpt lat="37.39706036500343" lon="14.669486185507916"><ele>287.0</ele><time>2026-04-06T11:02:55.001Z</time></trkpt><trkpt lat="37.397065076900816" lon="14.669591798419656"><ele>287.1666666666667</ele><time>2026-04-06T11:02:56.001Z</time></trkpt><trkpt lat="37.39706173953703" lon="14.66969529041108"><ele>287.33333333333337</ele><time>2026-04-06T11:02:57.001Z</time></trkpt><trkpt lat="37.39705089268235" lon="14.669801060434109"><ele>287.5</ele><time>2026-04-06T11:02:58.001Z</time></trkpt><trkpt lat="37.39702639691326" lon="14.669905491815074"><ele>287.6666666666667</ele><time>2026-04-06T11:02:59.001Z</time></trkpt><trkpt lat="37.3969988657599" lon="14.670013044475125"><ele>287.8333333333333</ele><time>2026-04-06T11:03:00.001Z</time></trkpt><trkpt lat="37.396971822257434" lon="14.67010684496186"><ele>288.0</ele><time>2026-04-06T11:03:01.001Z</time></trkpt><trkpt lat="37.3969383969978" lon="14.670202454727052"><ele>286.8333333333333</ele><time>2026-04-06T11:03:02.001Z</time></trkpt><trkpt lat="37.39690196588617" lon="14.670299192010992"><ele>285.6666666666667</ele><time>2026-04-06T11:03:03.001Z</time></trkpt><trkpt lat="37.39685953769114" lon="14.670388645601188"><ele>284.5</ele><time>2026-04-06T11:03:04.001Z</time></trkpt><trkpt lat="37.39681613155583" lon="14.670475348565196"><ele>283.33333333333337</ele><time>2026-04-06T11:03:05.001Z</time></trkpt><trkpt lat="37.39676929223177" lon="14.67055942670729"><ele>282.1666666666667</ele><time>2026-04-06T11:03:06.001Z</time></trkpt><trkpt lat="37.396721525084004" lon="14.670638348879006"><ele>281.0</ele><time>2026-04-06T11:03:07.001Z</time></trkpt><trkpt lat="37.39667240411221" lon="14.67071886450534"><ele>281.0</ele><time>2026-04-06T11:03:08.001Z</time></trkpt><trkpt lat="37.39661831404854" lon="14.670795369572739"><ele>281.0</ele><time>2026-04-06T11:03:09.001Z</time></trkpt><trkpt lat="37.39656342875892" lon="14.67087324075514"><ele>281.0</ele><time>2026-04-06T11:03:10.001Z</time></trkpt><trkpt lat="37.396510640847794" lon="14.670953907885014"><ele>281.0</ele><time>2026-04-06T11:03:11.001Z</time></trkpt><trkpt lat="37.39646000782258" lon="14.671037223868987"><ele>281.0</ele><time>2026-04-06T11:03:12.001Z</time></trkpt><trkpt lat="37.396414982373656" lon="14.671120907523756"><ele>281.0</ele><time>2026-04-06T11:03:13.001Z</time></trkpt><trkpt lat="37.396380457154194" lon="14.671207522504613"><ele>280.1666666666667</ele><time>2026-04-06T11:03:14.001Z</time></trkpt><trkpt lat="37.39635033855404" lon="14.671297961881681"><ele>279.33333333333337</ele><time>2026-04-06T11:03:15.001Z</time></trkpt><trkpt lat="37.39632825617961" lon="14.671390347726504"><ele>278.5</ele><time>2026-04-06T11:03:16.001Z</time></trkpt><trkpt lat="37.39631130853748" lon="14.671486055225643"><ele>277.6666666666667</ele><time>2026-04-06T11:03:17.001Z</time></trkpt><trkpt lat="37.396297264359916" lon="14.671583226439756"><ele>276.8333333333333</ele><time>2026-04-06T11:03:18.001Z</time></trkpt><trkpt lat="37.396281434234815" lon="14.67168100605014"><ele>276.0</ele><time>2026-04-06T11:03:19.001Z</time></trkpt><trkpt lat="37.39626385288315" lon="14.671777138545961"><ele>278.3333333333333</ele><time>2026-04-06T11:03:20.001Z</time></trkpt><trkpt lat="37.39625057272786" lon="14.671877574281286"><ele>280.6666666666667</ele><time>2026-04-06T11:03:21.001Z</time></trkpt><trkpt lat="37.39623749651437" lon="14.671981741916317"><ele>283.0</ele><time>2026-04-06T11:03:22.001Z</time></trkpt><trkpt lat="37.396220975142114" lon="14.672084949745978"><ele>285.33333333333337</ele><time>2026-04-06T11:03:23.001Z</time></trkpt><trkpt lat="37.39620404481128" lon="14.672193005036556"><ele>287.6666666666667</ele><time>2026-04-06T11:03:24.001Z</time></trkpt><trkpt lat="37.39618386048235" lon="14.672300178942876"><ele>290.0</ele><time>2026-04-06T11:03:25.001Z</time></trkpt><trkpt lat="37.39615914430558" lon="14.672406622722194"><ele>290.0</ele><time>2026-04-06T11:03:26.001Z</time></trkpt><trkpt lat="37.39613089287669" lon="14.672508267193418"><ele>290.0</ele><time>2026-04-06T11:03:27.001Z</time></trkpt><trkpt lat="37.39610166977443" lon="14.672611819256765"><ele>290.0</ele><time>2026-04-06T11:03:28.001Z</time></trkpt><trkpt lat="37.396071207161526" lon="14.672714129552837"><ele>290.0</ele><time>2026-04-06T11:03:29.001Z</time></trkpt><trkpt lat="37.39604102827836" lon="14.67281538292126"><ele>290.0</ele><time>2026-04-06T11:03:30.001Z</time></trkpt><trkpt lat="37.39600732938207" lon="14.672915964119612"><ele>290.0</ele><time>2026-04-06T11:03:31.001Z</time></trkpt><trkpt lat="37.39597443180646" lon="14.67301951833307"><ele>288.5</ele><time>2026-04-06T11:03:32.001Z</time></trkpt><trkpt lat="37.39593898401983" lon="14.673118865770162"><ele>287.0</ele><time>2026-04-06T11:03:33.001Z</time></trkpt><trkpt lat="37.39590300244943" lon="14.673218494634067"><ele>285.5</ele><time>2026-04-06T11:03:34.001Z</time></trkpt><trkpt lat="37.3958668512491" lon="14.67332000802395"><ele>284.0</ele><time>2026-04-06T11:03:35.001Z</time></trkpt><trkpt lat="37.39583159336677" lon="14.673417587633761"><ele>282.5</ele><time>2026-04-06T11:03:36.001Z</time></trkpt><trkpt lat="37.39579489803809" lon="14.673518379919075"><ele>281.0</ele><time>2026-04-06T11:03:37.001Z</time></trkpt><trkpt lat="37.39575890433009" lon="14.673617172706724"><ele>280.0</ele><time>2026-04-06T11:03:38.001Z</time></trkpt><trkpt lat="37.3957212147513" lon="14.67371522969061"><ele>279.0</ele><time>2026-04-06T11:03:39.001Z</time></trkpt><trkpt lat="37.39568463068375" lon="14.673812006629596"><ele>278.0</ele><time>2026-04-06T11:03:40.002Z</time></trkpt><trkpt lat="37.395646999609944" lon="14.673912258103753"><ele>277.0</ele><time>2026-04-06T11:03:41.002Z</time></trkpt><trkpt lat="37.39561149321328" lon="14.67401229004916"><ele>276.0</ele><time>2026-04-06T11:03:42.002Z</time></trkpt><trkpt lat="37.39557567778049" lon="14.6741153551178"><ele>275.0</ele><time>2026-04-06T11:03:43.002Z</time></trkpt><trkpt lat="37.3955395849224" lon="14.674215751024361"><ele>276.83333333333337</ele><time>2026-04-06T11:03:44.002Z</time></trkpt><trkpt lat="37.395502654278225" lon="14.674309398062967"><ele>278.6666666666667</ele><time>2026-04-06T11:03:45.002Z</time></trkpt><trkpt lat="37.39546692580396" lon="14.674408685496255"><ele>280.5</ele><time>2026-04-06T11:03:46.002Z</time></trkpt><trkpt lat="37.39543421881929" lon="14.674505788518733"><ele>282.3333333333333</ele><time>2026-04-06T11:03:47.002Z</time></trkpt><trkpt lat="37.39539533599704" lon="14.674608314695119"><ele>284.16666666666663</ele><time>2026-04-06T11:03:48.002Z</time></trkpt><trkpt lat="37.39536027450628" lon="14.67470228700755"><ele>286.0</ele><time>2026-04-06T11:03:49.002Z</time></trkpt><trkpt lat="37.39532342065863" lon="14.67479924373915"><ele>286.0</ele><time>2026-04-06T11:03:50.002Z</time></trkpt><trkpt lat="37.395288699270374" lon="14.674895387606147"><ele>286.0</ele><time>2026-04-06T11:03:51.002Z</time></trkpt><trkpt lat="37.39525049859534" lon="14.67499311698943"><ele>286.0</ele><time>2026-04-06T11:03:52.002Z</time></trkpt><trkpt lat="37.39521424918413" lon="14.675086894498385"><ele>286.0</ele><time>2026-04-06T11:03:53.002Z</time></trkpt><trkpt lat="37.395174834898505" lon="14.675180621602141"><ele>286.0</ele><time>2026-04-06T11:03:54.002Z</time></trkpt><trkpt lat="37.39513701979848" lon="14.675274851878827"><ele>286.0</ele><time>2026-04-06T11:03:55.002Z</time></trkpt><trkpt lat="37.39509430175955" lon="14.675369511771297"><ele>285.16666666666663</ele><time>2026-04-06T11:03:56.002Z</time></trkpt><trkpt lat="37.3950468723204" lon="14.675462192010167"><ele>284.3333333333333</ele><time>2026-04-06T11:03:57.002Z</time></trkpt><trkpt lat="37.39499337702981" lon="14.67554978638964"><ele>283.5</ele><time>2026-04-06T11:03:58.002Z</time></trkpt><trkpt lat="37.394944078278584" lon="14.675633528056352"><ele>282.6666666666667</ele><time>2026-04-06T11:03:59.002Z</time></trkpt><trkpt lat="37.39489107939071" lon="14.67571729167993"><ele>281.83333333333337</ele><time>2026-04-06T11:04:00.002Z</time></trkpt><trkpt lat="37.39484097680438" lon="14.675801996578363"><ele>281.0</ele><time>2026-04-06T11:04:01.002Z</time></trkpt><trkpt lat="37.39479577211404" lon="14.675879574540415"><ele>281.0</ele><time>2026-04-06T11:04:02.002Z</time></trkpt><trkpt lat="37.39474912740895" lon="14.67595637717494"><ele>281.0</ele><time>2026-04-06T11:04:03.002Z</time></trkpt><trkpt lat="37.394704053062156" lon="14.676031703972404"><ele>281.0</ele><time>2026-04-06T11:04:04.001Z</time></trkpt><trkpt lat="37.39465957233992" lon="14.67610780457392"><ele>281.0</ele><time>2026-04-06T11:04:05.001Z</time></trkpt><trkpt lat="37.394613969937005" lon="14.676185188346997"><ele>281.0</ele><time>2026-04-06T11:04:06.001Z</time></trkpt><trkpt lat="37.39456860824746" lon="14.676262894254245"><ele>281.0</ele><time>2026-04-06T11:04:07.001Z</time></trkpt><trkpt lat="37.39452379312675" lon="14.676341495294992"><ele>281.83333333333337</ele><time>2026-04-06T11:04:08.001Z</time></trkpt><trkpt lat="37.39447626496574" lon="14.676421272938825"><ele>282.6666666666667</ele><time>2026-04-06T11:04:09.001Z</time></trkpt><trkpt lat="37.39443011498133" lon="14.676500402224487"><ele>283.5</ele><time>2026-04-06T11:04:10.001Z</time></trkpt><trkpt lat="37.39438095538876" lon="14.676579187191956"><ele>284.3333333333333</ele><time>2026-04-06T11:04:11.001Z</time></trkpt><trkpt lat="37.39433402373643" lon="14.676657827395884"><ele>285.16666666666663</ele><time>2026-04-06T11:04:12.001Z</time></trkpt><trkpt lat="37.39429370785107" lon="14.676731124406174"><ele>286.0</ele><time>2026-04-06T11:04:13.001Z</time></trkpt><trkpt lat="37.39423593115828" lon="14.676810974060338"><ele>285.99999999999994</ele><time>2026-04-06T11:04:14.001Z</time></trkpt><trkpt lat="37.39419522448209" lon="14.676883128275113"><ele>286.0</ele><time>2026-04-06T11:04:15.001Z</time></trkpt><trkpt lat="37.3941608745358" lon="14.676951996954074"><ele>286.0</ele><time>2026-04-06T11:04:16.001Z</time></trkpt><trkpt lat="37.394122182944145" lon="14.677030072397923"><ele>286.0</ele><time>2026-04-06T11:04:17.001Z</time></trkpt><trkpt lat="37.394079646534806" lon="14.677102000532047"><ele>286.0</ele><time>2026-04-06T11:04:18.001Z</time></trkpt><trkpt lat="37.394044993023755" lon="14.677173025274676"><ele>285.99999999999994</ele><time>2026-04-06T11:04:19.001Z</time></trkpt><trkpt lat="37.39400557825574" lon="14.677237465528387"><ele>286.0</ele><time>2026-04-06T11:04:20.001Z</time></trkpt><trkpt lat="37.39397116833917" lon="14.677305761338866"><ele>286.6</ele><time>2026-04-06T11:04:21.001Z</time></trkpt><trkpt lat="37.39390313741643" lon="14.677404941186378"><ele>287.20000000000005</ele><time>2026-04-06T11:04:23.001Z</time></trkpt><trkpt lat="37.39384525285503" lon="14.677501397942097"><ele>287.79999999999995</ele><time>2026-04-06T11:04:25.001Z</time></trkpt><trkpt lat="37.39377246595623" lon="14.677618082492888"><ele>288.4</ele><time>2026-04-06T11:04:27.001Z</time></trkpt><trkpt lat="37.39373269295276" lon="14.677691095176383"><ele>289.0</ele><time>2026-04-06T11:04:28.001Z</time></trkpt><trkpt lat="37.393693551675135" lon="14.67775374504003"><ele>287.5</ele><time>2026-04-06T11:04:29.001Z</time></trkpt><trkpt lat="37.393647892729405" lon="14.677847162616292"><ele>286.0</ele><time>2026-04-06T11:04:30.001Z</time></trkpt><trkpt lat="37.39360132978496" lon="14.677929607909652"><ele>284.5</ele><time>2026-04-06T11:04:31.001Z</time></trkpt><trkpt lat="37.39355312616841" lon="14.678014718490921"><ele>283.0</ele><time>2026-04-06T11:04:32.001Z</time></trkpt><trkpt lat="37.39351044950595" lon="14.678090917798173"><ele>281.5</ele><time>2026-04-06T11:04:33.001Z</time></trkpt><trkpt lat="37.39346606080016" lon="14.678167857847333"><ele>280.0</ele><time>2026-04-06T11:04:34.001Z</time></trkpt><trkpt lat="37.39341856269937" lon="14.678243400582636"><ele>280.0</ele><time>2026-04-06T11:04:35.001Z</time></trkpt><trkpt lat="37.39337280000597" lon="14.678321670098184"><ele>280.0</ele><time>2026-04-06T11:04:36.001Z</time></trkpt><trkpt lat="37.393327658100404" lon="14.678397922163771"><ele>280.0</ele><time>2026-04-06T11:04:37.001Z</time></trkpt><trkpt lat="37.393279898010604" lon="14.678475933139236"><ele>280.0</ele><time>2026-04-06T11:04:38.001Z</time></trkpt><trkpt lat="37.393230913463235" lon="14.678557421233867"><ele>280.0</ele><time>2026-04-06T11:04:39.001Z</time></trkpt><trkpt lat="37.39318228880836" lon="14.678637068810545"><ele>280.0</ele><time>2026-04-06T11:04:40.001Z</time></trkpt><trkpt lat="37.393133743926214" lon="14.678720977407467"><ele>280.66666666666663</ele><time>2026-04-06T11:04:41.001Z</time></trkpt><trkpt lat="37.39308398375305" lon="14.678804722729492"><ele>281.3333333333333</ele><time>2026-04-06T11:04:42.001Z</time></trkpt><trkpt lat="37.393034160473746" lon="14.678885862792802"><ele>282.0</ele><time>2026-04-06T11:04:43.001Z</time></trkpt><trkpt lat="37.392984931597326" lon="14.678967253727444"><ele>282.6666666666667</ele><time>2026-04-06T11:04:44.001Z</time></trkpt><trkpt lat="37.39293616682112" lon="14.679044542742854"><ele>283.33333333333337</ele><time>2026-04-06T11:04:45.001Z</time></trkpt><trkpt lat="37.392887065926296" lon="14.679124810281726"><ele>284.0</ele><time>2026-04-06T11:04:46.001Z</time></trkpt><trkpt lat="37.39283905975811" lon="14.679201466133582"><ele>284.0</ele><time>2026-04-06T11:04:47.001Z</time></trkpt><trkpt lat="37.392790629106955" lon="14.679284041393544"><ele>284.0</ele><time>2026-04-06T11:04:48.001Z</time></trkpt><trkpt lat="37.39274288433105" lon="14.679365618168964"><ele>284.0</ele><time>2026-04-06T11:04:49.001Z</time></trkpt><trkpt lat="37.39269562554287" lon="14.679443346392393"><ele>284.0</ele><time>2026-04-06T11:04:50.001Z</time></trkpt><trkpt lat="37.39264879695094" lon="14.67952094447131"><ele>284.0</ele><time>2026-04-06T11:04:51.001Z</time></trkpt><trkpt lat="37.392601037188804" lon="14.679600191754975"><ele>284.0</ele><time>2026-04-06T11:04:52.001Z</time></trkpt><trkpt lat="37.39255367330976" lon="14.679675559701026"><ele>282.33333333333337</ele><time>2026-04-06T11:04:53.001Z</time></trkpt><trkpt lat="37.39250320780516" lon="14.679753027205217"><ele>280.6666666666667</ele><time>2026-04-06T11:04:54.001Z</time></trkpt><trkpt lat="37.392452667995705" lon="14.679831324231102"><ele>279.0</ele><time>2026-04-06T11:04:55.001Z</time></trkpt><trkpt lat="37.39240037255087" lon="14.679901929779332"><ele>277.3333333333333</ele><time>2026-04-06T11:04:56.001Z</time></trkpt><trkpt lat="37.39234185090708" lon="14.67997363377516"><ele>275.66666666666663</ele><time>2026-04-06T11:04:57.001Z</time></trkpt><trkpt lat="37.392286920905434" lon="14.68003479567747"><ele>274.0</ele><time>2026-04-06T11:04:58.001Z</time></trkpt><trkpt lat="37.392231642143585" lon="14.680093769026197"><ele>274.0</ele><time>2026-04-06T11:04:59.001Z</time></trkpt><trkpt lat="37.39217434489911" lon="14.68015150089117"><ele>274.0</ele><time>2026-04-06T11:05:00.001Z</time></trkpt><trkpt lat="37.39211889247187" lon="14.680211973489623"><ele>274.0</ele><time>2026-04-06T11:05:01.001Z</time></trkpt><trkpt lat="37.39204339232478" lon="14.680286110094675"><ele>274.0</ele><time>2026-04-06T11:05:02.001Z</time></trkpt><trkpt lat="37.39194602143237" lon="14.680410678554598"><ele>274.0</ele><time>2026-04-06T11:05:04.001Z</time></trkpt><trkpt lat="37.39188924510987" lon="14.680477655979498"><ele>273.8333333333333</ele><time>2026-04-06T11:05:05.001Z</time></trkpt><trkpt lat="37.391829832402195" lon="14.68054514004023"><ele>273.66666666666663</ele><time>2026-04-06T11:05:06.001Z</time></trkpt><trkpt lat="37.3917691320979" lon="14.68061424206607"><ele>273.5</ele><time>2026-04-06T11:05:07.001Z</time></trkpt><trkpt lat="37.39170788390933" lon="14.680685017537293"><ele>273.3333333333333</ele><time>2026-04-06T11:05:08.001Z</time></trkpt><trkpt lat="37.39164462069341" lon="14.680754361448374"><ele>273.1666666666667</ele><time>2026-04-06T11:05:09.001Z</time></trkpt><trkpt lat="37.39157967554014" lon="14.6808249527688"><ele>273.0</ele><time>2026-04-06T11:05:10.001Z</time></trkpt><trkpt lat="37.391515079945556" lon="14.680893475989988"><ele>273.0</ele><time>2026-04-06T11:05:11.001Z</time></trkpt><trkpt lat="37.39145381646113" lon="14.680960890328652"><ele>273.0</ele><time>2026-04-06T11:05:12.001Z</time></trkpt><trkpt lat="37.391390364282934" lon="14.681030689614245"><ele>273.0</ele><time>2026-04-06T11:05:13.001Z</time></trkpt><trkpt lat="37.39132735578931" lon="14.681099483423337"><ele>273.0</ele><time>2026-04-06T11:05:14.001Z</time></trkpt><trkpt lat="37.39126608496156" lon="14.681170709611342"><ele>273.0</ele><time>2026-04-06T11:05:15.001Z</time></trkpt><trkpt lat="37.39120068050706" lon="14.681241211263306"><ele>273.0</ele><time>2026-04-06T11:05:16.001Z</time></trkpt><trkpt lat="37.39113824661346" lon="14.681311622140177"><ele>273.0</ele><time>2026-04-06T11:05:17.001Z</time></trkpt><trkpt lat="37.39106362069398" lon="14.68136511602154"><ele>273.0</ele><time>2026-04-06T11:05:18.001Z</time></trkpt><trkpt lat="37.39100690561699" lon="14.681450209426586"><ele>273.0</ele><time>2026-04-06T11:05:19.001Z</time></trkpt><trkpt lat="37.3909406934243" lon="14.681516370343996"><ele>273.0</ele><time>2026-04-06T11:05:20.001Z</time></trkpt><trkpt lat="37.39087462010771" lon="14.681583065980545"><ele>273.0</ele><time>2026-04-06T11:05:21.001Z</time></trkpt><trkpt lat="37.3908076417493" lon="14.681646842767341"><ele>273.0</ele><time>2026-04-06T11:05:22.001Z</time></trkpt><trkpt lat="37.39074229067023" lon="14.681706125011345"><ele>273.0</ele><time>2026-04-06T11:05:23.001Z</time></trkpt><trkpt lat="37.39067177409561" lon="14.6817622654686"><ele>273.0</ele><time>2026-04-06T11:05:24.001Z</time></trkpt><trkpt lat="37.39059924044172" lon="14.68180984756934"><ele>273.0</ele><time>2026-04-06T11:05:25.001Z</time></trkpt><trkpt lat="37.3905198995438" lon="14.681844537475012"><ele>273.0</ele><time>2026-04-06T11:05:26.001Z</time></trkpt><trkpt lat="37.390439026362" lon="14.681870716721296"><ele>273.0</ele><time>2026-04-06T11:05:27.001Z</time></trkpt><trkpt lat="37.39035439303446" lon="14.68187806882219"><ele>273.0</ele><time>2026-04-06T11:05:28.001Z</time></trkpt><trkpt lat="37.39027125984238" lon="14.681875047134561"><ele>273.14285714285717</ele><time>2026-04-06T11:05:29.001Z</time></trkpt><trkpt lat="37.39018843729987" lon="14.681869581827714"><ele>273.2857142857143</ele><time>2026-04-06T11:05:30.001Z</time></trkpt><trkpt lat="37.39012105455733" lon="14.681863510167824"><ele>273.42857142857144</ele><time>2026-04-06T11:05:31.001Z</time></trkpt><trkpt lat="37.390056196123886" lon="14.681866599793812"><ele>273.57142857142856</ele><time>2026-04-06T11:05:32.001Z</time></trkpt><trkpt lat="37.3899832261498" lon="14.681856731850727"><ele>273.7142857142857</ele><time>2026-04-06T11:05:33.001Z</time></trkpt><trkpt lat="37.38991934931044" lon="14.681852436058296"><ele>273.8571428571429</ele><time>2026-04-06T11:05:34.001Z</time></trkpt><trkpt lat="37.389849234268176" lon="14.68184811808396"><ele>274.0</ele><time>2026-04-06T11:05:35.001Z</time></trkpt><trkpt lat="37.389778981357374" lon="14.681843739683975"><ele>274.0</ele><time>2026-04-06T11:05:36.001Z</time></trkpt><trkpt lat="37.38970302771901" lon="14.681839230705478"><ele>274.0</ele><time>2026-04-06T11:05:37.001Z</time></trkpt><trkpt lat="37.38957148753525" lon="14.681871477947006"><ele>274.0</ele><time>2026-04-06T11:05:39.001Z</time></trkpt><trkpt lat="37.38946292180449" lon="14.681949218623782"><ele>274.0</ele><time>2026-04-06T11:05:41.001Z</time></trkpt><trkpt lat="37.3893629919226" lon="14.682041714796119"><ele>273.66666666666663</ele><time>2026-04-06T11:05:43.001Z</time></trkpt><trkpt lat="37.38927994057341" lon="14.682164979476322"><ele>273.3333333333333</ele><time>2026-04-06T11:05:45.001Z</time></trkpt><trkpt lat="37.38924781699464" lon="14.682260496875283"><ele>273.0</ele><time>2026-04-06T11:05:46.001Z</time></trkpt><trkpt lat="37.38921345643527" lon="14.682329683027453"><ele>272.6666666666667</ele><time>2026-04-06T11:05:47.001Z</time></trkpt><trkpt lat="37.38917167696399" lon="14.682421182635384"><ele>272.33333333333337</ele><time>2026-04-06T11:05:48.001Z</time></trkpt><trkpt lat="37.389136148332916" lon="14.682518253740454"><ele>272.0</ele><time>2026-04-06T11:05:49.001Z</time></trkpt><trkpt lat="37.38908672314612" lon="14.682594812517253"><ele>272.0</ele><time>2026-04-06T11:05:50.001Z</time></trkpt><trkpt lat="37.389054988079" lon="14.682674680467292"><ele>272.0</ele><time>2026-04-06T11:05:51.001Z</time></trkpt><trkpt lat="37.38901977221051" lon="14.682763308484436"><ele>272.0</ele><time>2026-04-06T11:05:52.001Z</time></trkpt><trkpt lat="37.38898646587161" lon="14.682853803808955"><ele>272.0</ele><time>2026-04-06T11:05:53.001Z</time></trkpt><trkpt lat="37.388952720862775" lon="14.68294338869128"><ele>272.0</ele><time>2026-04-06T11:05:54.001Z</time></trkpt><trkpt lat="37.38891735997311" lon="14.68304011849145"><ele>272.0</ele><time>2026-04-06T11:05:55.001Z</time></trkpt><trkpt lat="37.388880718201804" lon="14.683142569207172"><ele>272.0</ele><time>2026-04-06T11:05:56.001Z</time></trkpt><trkpt lat="37.38884522136388" lon="14.683241818684131"><ele>272.0</ele><time>2026-04-06T11:05:57.001Z</time></trkpt><trkpt lat="37.38880888357601" lon="14.68334341945791"><ele>272.0</ele><time>2026-04-06T11:05:58.001Z</time></trkpt><trkpt lat="37.388772617298116" lon="14.683447383790707"><ele>272.0</ele><time>2026-04-06T11:05:59.001Z</time></trkpt><trkpt lat="37.38873864615299" lon="14.683545306079324"><ele>272.0</ele><time>2026-04-06T11:06:00.001Z</time></trkpt><trkpt lat="37.388703121747945" lon="14.683647705663555"><ele>272.0</ele><time>2026-04-06T11:06:01.001Z</time></trkpt><trkpt lat="37.388670076271495" lon="14.683746444016673"><ele>272.0</ele><time>2026-04-06T11:06:02.002Z</time></trkpt><trkpt lat="37.388635959026566" lon="14.68385008114488"><ele>272.0</ele><time>2026-04-06T11:06:03.002Z</time></trkpt><trkpt lat="37.388603341777724" lon="14.683955231219315"><ele>272.0</ele><time>2026-04-06T11:06:04.002Z</time></trkpt><trkpt lat="37.388573356763814" lon="14.684062021771378"><ele>272.0</ele><time>2026-04-06T11:06:05.002Z</time></trkpt><trkpt lat="37.38854543903786" lon="14.684169297031387"><ele>272.0</ele><time>2026-04-06T11:06:06.002Z</time></trkpt><trkpt lat="37.38852115897554" lon="14.68427191907596"><ele>272.0</ele><time>2026-04-06T11:06:07.002Z</time></trkpt><trkpt lat="37.38850121529275" lon="14.684379896993098"><ele>271.83333333333337</ele><time>2026-04-06T11:06:08.002Z</time></trkpt><trkpt lat="37.38848118658259" lon="14.684490308142669"><ele>271.6666666666667</ele><time>2026-04-06T11:06:09.002Z</time></trkpt><trkpt lat="37.388465669287726" lon="14.68458542050054"><ele>271.5</ele><time>2026-04-06T11:06:10.001Z</time></trkpt><trkpt lat="37.38844977723261" lon="14.684682829920101"><ele>271.3333333333333</ele><time>2026-04-06T11:06:11.001Z</time></trkpt><trkpt lat="37.38843499257008" lon="14.684787682212008"><ele>271.16666666666663</ele><time>2026-04-06T11:06:12.001Z</time></trkpt><trkpt lat="37.388421086916225" lon="14.684887237785905"><ele>271.0</ele><time>2026-04-06T11:06:13.001Z</time></trkpt><trkpt lat="37.38840725534098" lon="14.68500058243988"><ele>271.0</ele><time>2026-04-06T11:06:14.001Z</time></trkpt><trkpt lat="37.38839864086991" lon="14.685106935885408"><ele>271.0</ele><time>2026-04-06T11:06:15.001Z</time></trkpt><trkpt lat="37.3883925884338" lon="14.685206518597495"><ele>271.0</ele><time>2026-04-06T11:06:16.001Z</time></trkpt><trkpt lat="37.38839073501185" lon="14.685300938565721"><ele>271.0</ele><time>2026-04-06T11:06:17.001Z</time></trkpt><trkpt lat="37.388389246779894" lon="14.685403177407862"><ele>271.0</ele><time>2026-04-06T11:06:18.001Z</time></trkpt><trkpt lat="37.38838875374683" lon="14.685501901289012"><ele>271.0</ele><time>2026-04-06T11:06:19.001Z</time></trkpt><trkpt lat="37.38838824684977" lon="14.685603401440572"><ele>271.0</ele><time>2026-04-06T11:06:20.001Z</time></trkpt><trkpt lat="37.38838774248881" lon="14.685704393826118"><ele>271.0</ele><time>2026-04-06T11:06:21.001Z</time></trkpt><trkpt lat="37.38838717282187" lon="14.685818462790557"><ele>271.0</ele><time>2026-04-06T11:06:22.001Z</time></trkpt><trkpt lat="37.388386619703475" lon="14.68592921824227"><ele>271.0</ele><time>2026-04-06T11:06:23.001Z</time></trkpt><trkpt lat="37.388386055904185" lon="14.686042112312542"><ele>271.0</ele><time>2026-04-06T11:06:24.001Z</time></trkpt><trkpt lat="37.388385487727625" lon="14.686155882858813"><ele>271.0</ele><time>2026-04-06T11:06:25.001Z</time></trkpt><trkpt lat="37.388384574184535" lon="14.686263827078697"><ele>271.0</ele><time>2026-04-06T11:06:26.001Z</time></trkpt><trkpt lat="37.38838338497128" lon="14.686366508154032"><ele>271.0</ele><time>2026-04-06T11:06:27.001Z</time></trkpt><trkpt lat="37.388382300984084" lon="14.686460103644631"><ele>271.0</ele><time>2026-04-06T11:06:28.001Z</time></trkpt><trkpt lat="37.38838085279171" lon="14.686543536611007"><ele>271.0</ele><time>2026-04-06T11:06:29.001Z</time></trkpt><trkpt lat="37.388379247311406" lon="14.686625640139797"><ele>271.0</ele><time>2026-04-06T11:06:30.001Z</time></trkpt><trkpt lat="37.388387633075254" lon="14.68672147007855"><ele>271.0</ele><time>2026-04-06T11:06:31.001Z</time></trkpt><trkpt lat="37.388387861237675" lon="14.686817553840307"><ele>271.0</ele><time>2026-04-06T11:06:32.001Z</time></trkpt><trkpt lat="37.38836741319756" lon="14.686910356690058"><ele>270.2</ele><time>2026-04-06T11:06:33.001Z</time></trkpt><trkpt lat="37.38836172373619" lon="14.68699777288957"><ele>269.40000000000003</ele><time>2026-04-06T11:06:34.001Z</time></trkpt><trkpt lat="37.388353747780535" lon="14.687084268752692"><ele>268.6</ele><time>2026-04-06T11:06:35.001Z</time></trkpt><trkpt lat="37.388348147002986" lon="14.687239447549622"><ele>267.8</ele><time>2026-04-06T11:06:37.001Z</time></trkpt><trkpt lat="37.38832554699725" lon="14.687379863515881"><ele>267.0</ele><time>2026-04-06T11:06:39.001Z</time></trkpt><trkpt lat="37.38830793496244" lon="14.68749264975194"><ele>267.0</ele><time>2026-04-06T11:06:41.001Z</time></trkpt></trkseg></trk></gpx>